<?xml version="1.0" encoding="UTF-8" standalone="no" ?>
<gpx xmlns="http://www.topografix.com/GPX/1/1" xmlns:xsi="http://www.w3.org/2001/XMLSchema-instance" xsi:schemaLocation="http://www.topografix.com/GPX/1/1 http://www.topografix.com/GPX/1/1/gpx.xsd" version="1.1" creator="VisuGPX - https://www.visugpx.com">
  <metadata>
    <name>SO-NE-St Léger St Pazanne Machecoul St Lumine Bouaye</name>
    <desc><![CDATA[SO-NE-St Léger St Pazanne Machecoul St Lumine Bouaye]]></desc>
  </metadata>
  <trk>
    <name><![CDATA[2021-03-28 13:35 +02:00]]></name>
    <trkseg>
      <trkpt lat="47.16772" lon="-1.62648">
        <ele>70</ele>
        <time>2021-03-28T11:34:57.000Z</time>
      </trkpt>
      <trkpt lat="47.16779" lon="-1.62657">
        <ele>73</ele>
        <time>2021-03-28T11:36:27.000Z</time>
      </trkpt>
      <trkpt lat="47.16777" lon="-1.62671">
        <ele>73</ele>
        <time>2021-03-28T11:36:29.000Z</time>
      </trkpt>
      <trkpt lat="47.16766" lon="-1.62678">
        <ele>73</ele>
        <time>2021-03-28T11:36:31.000Z</time>
      </trkpt>
      <trkpt lat="47.16754" lon="-1.62671">
        <ele>72</ele>
        <time>2021-03-28T11:36:33.000Z</time>
      </trkpt>
      <trkpt lat="47.16744" lon="-1.62674">
        <ele>71</ele>
        <time>2021-03-28T11:36:35.000Z</time>
      </trkpt>
      <trkpt lat="47.16733" lon="-1.62682">
        <ele>72</ele>
        <time>2021-03-28T11:36:37.000Z</time>
      </trkpt>
      <trkpt lat="47.16723" lon="-1.6269">
        <ele>71</ele>
        <time>2021-03-28T11:36:39.000Z</time>
      </trkpt>
      <trkpt lat="47.16717" lon="-1.62701">
        <ele>71</ele>
        <time>2021-03-28T11:36:41.000Z</time>
      </trkpt>
      <trkpt lat="47.16722" lon="-1.62717">
        <ele>71</ele>
        <time>2021-03-28T11:36:43.000Z</time>
      </trkpt>
      <trkpt lat="47.16728" lon="-1.62729">
        <ele>71</ele>
        <time>2021-03-28T11:36:45.000Z</time>
      </trkpt>
      <trkpt lat="47.16736" lon="-1.62741">
        <ele>70</ele>
        <time>2021-03-28T11:36:47.000Z</time>
      </trkpt>
      <trkpt lat="47.16745" lon="-1.62753">
        <ele>70</ele>
        <time>2021-03-28T11:36:49.000Z</time>
      </trkpt>
      <trkpt lat="47.16755" lon="-1.62764">
        <ele>69</ele>
        <time>2021-03-28T11:36:51.000Z</time>
      </trkpt>
      <trkpt lat="47.16765" lon="-1.62774">
        <ele>69</ele>
        <time>2021-03-28T11:36:53.000Z</time>
      </trkpt>
      <trkpt lat="47.16782" lon="-1.62788">
        <ele>68</ele>
        <time>2021-03-28T11:36:56.000Z</time>
      </trkpt>
      <trkpt lat="47.16793" lon="-1.62798">
        <ele>68</ele>
        <time>2021-03-28T11:36:58.000Z</time>
      </trkpt>
      <trkpt lat="47.16803" lon="-1.62807">
        <ele>68</ele>
        <time>2021-03-28T11:37:00.000Z</time>
      </trkpt>
      <trkpt lat="47.16813" lon="-1.62816">
        <ele>69</ele>
        <time>2021-03-28T11:37:02.000Z</time>
      </trkpt>
      <trkpt lat="47.16823" lon="-1.62825">
        <ele>69</ele>
        <time>2021-03-28T11:37:04.000Z</time>
      </trkpt>
      <trkpt lat="47.16833" lon="-1.62834">
        <ele>69</ele>
        <time>2021-03-28T11:37:06.000Z</time>
      </trkpt>
      <trkpt lat="47.16842" lon="-1.62844">
        <ele>70</ele>
        <time>2021-03-28T11:37:08.000Z</time>
      </trkpt>
      <trkpt lat="47.16852" lon="-1.62854">
        <ele>70</ele>
        <time>2021-03-28T11:37:10.000Z</time>
      </trkpt>
      <trkpt lat="47.16861" lon="-1.62863">
        <ele>71</ele>
        <time>2021-03-28T11:37:12.000Z</time>
      </trkpt>
      <trkpt lat="47.1687" lon="-1.62874">
        <ele>71</ele>
        <time>2021-03-28T11:37:14.000Z</time>
      </trkpt>
      <trkpt lat="47.16877" lon="-1.62887">
        <ele>71</ele>
        <time>2021-03-28T11:37:16.000Z</time>
      </trkpt>
      <trkpt lat="47.16886" lon="-1.62909">
        <ele>71</ele>
        <time>2021-03-28T11:37:19.000Z</time>
      </trkpt>
      <trkpt lat="47.16889" lon="-1.62925">
        <ele>72</ele>
        <time>2021-03-28T11:37:21.000Z</time>
      </trkpt>
      <trkpt lat="47.16891" lon="-1.62942">
        <ele>72</ele>
        <time>2021-03-28T11:37:23.000Z</time>
      </trkpt>
      <trkpt lat="47.16892" lon="-1.62959">
        <ele>72</ele>
        <time>2021-03-28T11:37:25.000Z</time>
      </trkpt>
      <trkpt lat="47.1689" lon="-1.62984">
        <ele>72</ele>
        <time>2021-03-28T11:37:28.000Z</time>
      </trkpt>
      <trkpt lat="47.16889" lon="-1.63001">
        <ele>72</ele>
        <time>2021-03-28T11:37:30.000Z</time>
      </trkpt>
      <trkpt lat="47.16888" lon="-1.63017">
        <ele>73</ele>
        <time>2021-03-28T11:37:32.000Z</time>
      </trkpt>
      <trkpt lat="47.16888" lon="-1.63034">
        <ele>73</ele>
        <time>2021-03-28T11:37:34.000Z</time>
      </trkpt>
      <trkpt lat="47.16888" lon="-1.63051">
        <ele>73</ele>
        <time>2021-03-28T11:37:36.000Z</time>
      </trkpt>
      <trkpt lat="47.1689" lon="-1.63076">
        <ele>73</ele>
        <time>2021-03-28T11:37:39.000Z</time>
      </trkpt>
      <trkpt lat="47.16894" lon="-1.63101">
        <ele>73</ele>
        <time>2021-03-28T11:37:42.000Z</time>
      </trkpt>
      <trkpt lat="47.16898" lon="-1.63117">
        <ele>73</ele>
        <time>2021-03-28T11:37:44.000Z</time>
      </trkpt>
      <trkpt lat="47.16902" lon="-1.63132">
        <ele>74</ele>
        <time>2021-03-28T11:37:46.000Z</time>
      </trkpt>
      <trkpt lat="47.16906" lon="-1.63146">
        <ele>74</ele>
        <time>2021-03-28T11:37:48.000Z</time>
      </trkpt>
      <trkpt lat="47.16912" lon="-1.63161">
        <ele>74</ele>
        <time>2021-03-28T11:37:50.000Z</time>
      </trkpt>
      <trkpt lat="47.16919" lon="-1.63175">
        <ele>74</ele>
        <time>2021-03-28T11:37:52.000Z</time>
      </trkpt>
      <trkpt lat="47.16925" lon="-1.63187">
        <ele>75</ele>
        <time>2021-03-28T11:37:54.000Z</time>
      </trkpt>
      <trkpt lat="47.16932" lon="-1.63199">
        <ele>75</ele>
        <time>2021-03-28T11:37:56.000Z</time>
      </trkpt>
      <trkpt lat="47.16939" lon="-1.63211">
        <ele>76</ele>
        <time>2021-03-28T11:37:58.000Z</time>
      </trkpt>
      <trkpt lat="47.16947" lon="-1.63221">
        <ele>75</ele>
        <time>2021-03-28T11:38:00.000Z</time>
      </trkpt>
      <trkpt lat="47.16955" lon="-1.63231">
        <ele>75</ele>
        <time>2021-03-28T11:38:02.000Z</time>
      </trkpt>
      <trkpt lat="47.16962" lon="-1.63241">
        <ele>75</ele>
        <time>2021-03-28T11:38:04.000Z</time>
      </trkpt>
      <trkpt lat="47.16969" lon="-1.63252">
        <ele>75</ele>
        <time>2021-03-28T11:38:07.000Z</time>
      </trkpt>
      <trkpt lat="47.16962" lon="-1.63268">
        <ele>74</ele>
        <time>2021-03-28T11:38:10.000Z</time>
      </trkpt>
      <trkpt lat="47.16955" lon="-1.6328">
        <ele>74</ele>
        <time>2021-03-28T11:38:12.000Z</time>
      </trkpt>
      <trkpt lat="47.16948" lon="-1.63293">
        <ele>74</ele>
        <time>2021-03-28T11:38:14.000Z</time>
      </trkpt>
      <trkpt lat="47.16936" lon="-1.63311">
        <ele>73</ele>
        <time>2021-03-28T11:38:17.000Z</time>
      </trkpt>
      <trkpt lat="47.16927" lon="-1.63323">
        <ele>73</ele>
        <time>2021-03-28T11:38:19.000Z</time>
      </trkpt>
      <trkpt lat="47.16918" lon="-1.63336">
        <ele>73</ele>
        <time>2021-03-28T11:38:21.000Z</time>
      </trkpt>
      <trkpt lat="47.1691" lon="-1.63349">
        <ele>74</ele>
        <time>2021-03-28T11:38:23.000Z</time>
      </trkpt>
      <trkpt lat="47.16902" lon="-1.63362">
        <ele>74</ele>
        <time>2021-03-28T11:38:25.000Z</time>
      </trkpt>
      <trkpt lat="47.1689" lon="-1.63381">
        <ele>74</ele>
        <time>2021-03-28T11:38:28.000Z</time>
      </trkpt>
      <trkpt lat="47.16881" lon="-1.63394">
        <ele>73</ele>
        <time>2021-03-28T11:38:30.000Z</time>
      </trkpt>
      <trkpt lat="47.16874" lon="-1.63406">
        <ele>73</ele>
        <time>2021-03-28T11:38:32.000Z</time>
      </trkpt>
      <trkpt lat="47.16866" lon="-1.6342">
        <ele>73</ele>
        <time>2021-03-28T11:38:34.000Z</time>
      </trkpt>
      <trkpt lat="47.16859" lon="-1.63433">
        <ele>74</ele>
        <time>2021-03-28T11:38:36.000Z</time>
      </trkpt>
      <trkpt lat="47.16852" lon="-1.63446">
        <ele>74</ele>
        <time>2021-03-28T11:38:38.000Z</time>
      </trkpt>
      <trkpt lat="47.16844" lon="-1.63459">
        <ele>75</ele>
        <time>2021-03-28T11:38:40.000Z</time>
      </trkpt>
      <trkpt lat="47.16836" lon="-1.63473">
        <ele>75</ele>
        <time>2021-03-28T11:38:42.000Z</time>
      </trkpt>
      <trkpt lat="47.16828" lon="-1.63486">
        <ele>75</ele>
        <time>2021-03-28T11:38:44.000Z</time>
      </trkpt>
      <trkpt lat="47.1682" lon="-1.63499">
        <ele>75</ele>
        <time>2021-03-28T11:38:46.000Z</time>
      </trkpt>
      <trkpt lat="47.16813" lon="-1.63512">
        <ele>75</ele>
        <time>2021-03-28T11:38:48.000Z</time>
      </trkpt>
      <trkpt lat="47.16805" lon="-1.63526">
        <ele>74</ele>
        <time>2021-03-28T11:38:50.000Z</time>
      </trkpt>
      <trkpt lat="47.16797" lon="-1.63539">
        <ele>74</ele>
        <time>2021-03-28T11:38:52.000Z</time>
      </trkpt>
      <trkpt lat="47.16789" lon="-1.63552">
        <ele>74</ele>
        <time>2021-03-28T11:38:54.000Z</time>
      </trkpt>
      <trkpt lat="47.16782" lon="-1.63565">
        <ele>74</ele>
        <time>2021-03-28T11:38:56.000Z</time>
      </trkpt>
      <trkpt lat="47.16774" lon="-1.63578">
        <ele>74</ele>
        <time>2021-03-28T11:38:58.000Z</time>
      </trkpt>
      <trkpt lat="47.16766" lon="-1.63591">
        <ele>75</ele>
        <time>2021-03-28T11:39:00.000Z</time>
      </trkpt>
      <trkpt lat="47.16759" lon="-1.63604">
        <ele>74</ele>
        <time>2021-03-28T11:39:02.000Z</time>
      </trkpt>
      <trkpt lat="47.16752" lon="-1.63616">
        <ele>74</ele>
        <time>2021-03-28T11:39:04.000Z</time>
      </trkpt>
      <trkpt lat="47.16745" lon="-1.6363">
        <ele>74</ele>
        <time>2021-03-28T11:39:06.000Z</time>
      </trkpt>
      <trkpt lat="47.16749" lon="-1.63644">
        <ele>73</ele>
        <time>2021-03-28T11:39:08.000Z</time>
      </trkpt>
      <trkpt lat="47.16761" lon="-1.63646">
        <ele>74</ele>
        <time>2021-03-28T11:39:10.000Z</time>
      </trkpt>
      <trkpt lat="47.16772" lon="-1.63651">
        <ele>74</ele>
        <time>2021-03-28T11:39:12.000Z</time>
      </trkpt>
      <trkpt lat="47.16785" lon="-1.63655">
        <ele>74</ele>
        <time>2021-03-28T11:39:14.000Z</time>
      </trkpt>
      <trkpt lat="47.16797" lon="-1.63659">
        <ele>74</ele>
        <time>2021-03-28T11:39:16.000Z</time>
      </trkpt>
      <trkpt lat="47.1681" lon="-1.63664">
        <ele>74</ele>
        <time>2021-03-28T11:39:18.000Z</time>
      </trkpt>
      <trkpt lat="47.16822" lon="-1.63669">
        <ele>74</ele>
        <time>2021-03-28T11:39:20.000Z</time>
      </trkpt>
      <trkpt lat="47.16835" lon="-1.63673">
        <ele>75</ele>
        <time>2021-03-28T11:39:22.000Z</time>
      </trkpt>
      <trkpt lat="47.16848" lon="-1.63678">
        <ele>75</ele>
        <time>2021-03-28T11:39:24.000Z</time>
      </trkpt>
      <trkpt lat="47.1686" lon="-1.63682">
        <ele>75</ele>
        <time>2021-03-28T11:39:26.000Z</time>
      </trkpt>
      <trkpt lat="47.16873" lon="-1.63687">
        <ele>75</ele>
        <time>2021-03-28T11:39:28.000Z</time>
      </trkpt>
      <trkpt lat="47.16886" lon="-1.63692">
        <ele>75</ele>
        <time>2021-03-28T11:39:30.000Z</time>
      </trkpt>
      <trkpt lat="47.16898" lon="-1.63696">
        <ele>75</ele>
        <time>2021-03-28T11:39:32.000Z</time>
      </trkpt>
      <trkpt lat="47.16911" lon="-1.63701">
        <ele>75</ele>
        <time>2021-03-28T11:39:34.000Z</time>
      </trkpt>
      <trkpt lat="47.16924" lon="-1.63706">
        <ele>75</ele>
        <time>2021-03-28T11:39:36.000Z</time>
      </trkpt>
      <trkpt lat="47.16936" lon="-1.63712">
        <ele>75</ele>
        <time>2021-03-28T11:39:38.000Z</time>
      </trkpt>
      <trkpt lat="47.16949" lon="-1.63716">
        <ele>75</ele>
        <time>2021-03-28T11:39:40.000Z</time>
      </trkpt>
      <trkpt lat="47.16969" lon="-1.63724">
        <ele>74</ele>
        <time>2021-03-28T11:39:43.000Z</time>
      </trkpt>
      <trkpt lat="47.16982" lon="-1.63728">
        <ele>74</ele>
        <time>2021-03-28T11:39:45.000Z</time>
      </trkpt>
      <trkpt lat="47.16994" lon="-1.63733">
        <ele>74</ele>
        <time>2021-03-28T11:39:47.000Z</time>
      </trkpt>
      <trkpt lat="47.17007" lon="-1.63738">
        <ele>74</ele>
        <time>2021-03-28T11:39:49.000Z</time>
      </trkpt>
      <trkpt lat="47.1702" lon="-1.63743">
        <ele>74</ele>
        <time>2021-03-28T11:39:51.000Z</time>
      </trkpt>
      <trkpt lat="47.17032" lon="-1.63748">
        <ele>74</ele>
        <time>2021-03-28T11:39:53.000Z</time>
      </trkpt>
      <trkpt lat="47.17044" lon="-1.63753">
        <ele>74</ele>
        <time>2021-03-28T11:39:55.000Z</time>
      </trkpt>
      <trkpt lat="47.17055" lon="-1.63763">
        <ele>74</ele>
        <time>2021-03-28T11:39:57.000Z</time>
      </trkpt>
      <trkpt lat="47.17064" lon="-1.63776">
        <ele>74</ele>
        <time>2021-03-28T11:39:59.000Z</time>
      </trkpt>
      <trkpt lat="47.17071" lon="-1.63794">
        <ele>74</ele>
        <time>2021-03-28T11:40:01.000Z</time>
      </trkpt>
      <trkpt lat="47.17076" lon="-1.63811">
        <ele>75</ele>
        <time>2021-03-28T11:40:03.000Z</time>
      </trkpt>
      <trkpt lat="47.17084" lon="-1.63835">
        <ele>75</ele>
        <time>2021-03-28T11:40:06.000Z</time>
      </trkpt>
      <trkpt lat="47.1709" lon="-1.63851">
        <ele>75</ele>
        <time>2021-03-28T11:40:08.000Z</time>
      </trkpt>
      <trkpt lat="47.17095" lon="-1.63868">
        <ele>75</ele>
        <time>2021-03-28T11:40:10.000Z</time>
      </trkpt>
      <trkpt lat="47.17101" lon="-1.63884">
        <ele>75</ele>
        <time>2021-03-28T11:40:12.000Z</time>
      </trkpt>
      <trkpt lat="47.17107" lon="-1.639">
        <ele>75</ele>
        <time>2021-03-28T11:40:14.000Z</time>
      </trkpt>
      <trkpt lat="47.17113" lon="-1.63915">
        <ele>75</ele>
        <time>2021-03-28T11:40:16.000Z</time>
      </trkpt>
      <trkpt lat="47.17119" lon="-1.63929">
        <ele>75</ele>
        <time>2021-03-28T11:40:18.000Z</time>
      </trkpt>
      <trkpt lat="47.17128" lon="-1.6394">
        <ele>75</ele>
        <time>2021-03-28T11:40:20.000Z</time>
      </trkpt>
      <trkpt lat="47.17138" lon="-1.63951">
        <ele>75</ele>
        <time>2021-03-28T11:40:23.000Z</time>
      </trkpt>
      <trkpt lat="47.1714" lon="-1.63966">
        <ele>75</ele>
        <time>2021-03-28T11:40:25.000Z</time>
      </trkpt>
      <trkpt lat="47.17139" lon="-1.63982">
        <ele>75</ele>
        <time>2021-03-28T11:40:27.000Z</time>
      </trkpt>
      <trkpt lat="47.17138" lon="-1.64">
        <ele>75</ele>
        <time>2021-03-28T11:40:29.000Z</time>
      </trkpt>
      <trkpt lat="47.17136" lon="-1.64018">
        <ele>75</ele>
        <time>2021-03-28T11:40:31.000Z</time>
      </trkpt>
      <trkpt lat="47.17135" lon="-1.64036">
        <ele>75</ele>
        <time>2021-03-28T11:40:33.000Z</time>
      </trkpt>
      <trkpt lat="47.17133" lon="-1.64054">
        <ele>75</ele>
        <time>2021-03-28T11:40:35.000Z</time>
      </trkpt>
      <trkpt lat="47.17131" lon="-1.64073">
        <ele>75</ele>
        <time>2021-03-28T11:40:37.000Z</time>
      </trkpt>
      <trkpt lat="47.17129" lon="-1.64092">
        <ele>75</ele>
        <time>2021-03-28T11:40:39.000Z</time>
      </trkpt>
      <trkpt lat="47.17127" lon="-1.64111">
        <ele>75</ele>
        <time>2021-03-28T11:40:41.000Z</time>
      </trkpt>
      <trkpt lat="47.17124" lon="-1.6413">
        <ele>75</ele>
        <time>2021-03-28T11:40:43.000Z</time>
      </trkpt>
      <trkpt lat="47.17122" lon="-1.64148">
        <ele>74</ele>
        <time>2021-03-28T11:40:45.000Z</time>
      </trkpt>
      <trkpt lat="47.1712" lon="-1.64168">
        <ele>75</ele>
        <time>2021-03-28T11:40:47.000Z</time>
      </trkpt>
      <trkpt lat="47.17119" lon="-1.64187">
        <ele>75</ele>
        <time>2021-03-28T11:40:49.000Z</time>
      </trkpt>
      <trkpt lat="47.17116" lon="-1.64205">
        <ele>76</ele>
        <time>2021-03-28T11:40:51.000Z</time>
      </trkpt>
      <trkpt lat="47.17114" lon="-1.64224">
        <ele>76</ele>
        <time>2021-03-28T11:40:53.000Z</time>
      </trkpt>
      <trkpt lat="47.17112" lon="-1.64243">
        <ele>76</ele>
        <time>2021-03-28T11:40:55.000Z</time>
      </trkpt>
      <trkpt lat="47.1711" lon="-1.64262">
        <ele>76</ele>
        <time>2021-03-28T11:40:57.000Z</time>
      </trkpt>
      <trkpt lat="47.17108" lon="-1.64281">
        <ele>76</ele>
        <time>2021-03-28T11:40:59.000Z</time>
      </trkpt>
      <trkpt lat="47.17106" lon="-1.643">
        <ele>76</ele>
        <time>2021-03-28T11:41:01.000Z</time>
      </trkpt>
      <trkpt lat="47.17104" lon="-1.6432">
        <ele>76</ele>
        <time>2021-03-28T11:41:03.000Z</time>
      </trkpt>
      <trkpt lat="47.17103" lon="-1.64339">
        <ele>77</ele>
        <time>2021-03-28T11:41:05.000Z</time>
      </trkpt>
      <trkpt lat="47.17101" lon="-1.64357">
        <ele>76</ele>
        <time>2021-03-28T11:41:07.000Z</time>
      </trkpt>
      <trkpt lat="47.17099" lon="-1.64377">
        <ele>76</ele>
        <time>2021-03-28T11:41:09.000Z</time>
      </trkpt>
      <trkpt lat="47.17097" lon="-1.64396">
        <ele>76</ele>
        <time>2021-03-28T11:41:11.000Z</time>
      </trkpt>
      <trkpt lat="47.17096" lon="-1.64417">
        <ele>76</ele>
        <time>2021-03-28T11:41:13.000Z</time>
      </trkpt>
      <trkpt lat="47.17094" lon="-1.64437">
        <ele>76</ele>
        <time>2021-03-28T11:41:15.000Z</time>
      </trkpt>
      <trkpt lat="47.17093" lon="-1.64457">
        <ele>76</ele>
        <time>2021-03-28T11:41:17.000Z</time>
      </trkpt>
      <trkpt lat="47.17092" lon="-1.64478">
        <ele>76</ele>
        <time>2021-03-28T11:41:19.000Z</time>
      </trkpt>
      <trkpt lat="47.17092" lon="-1.64498">
        <ele>76</ele>
        <time>2021-03-28T11:41:21.000Z</time>
      </trkpt>
      <trkpt lat="47.1709" lon="-1.64518">
        <ele>76</ele>
        <time>2021-03-28T11:41:23.000Z</time>
      </trkpt>
      <trkpt lat="47.17089" lon="-1.64538">
        <ele>76</ele>
        <time>2021-03-28T11:41:25.000Z</time>
      </trkpt>
      <trkpt lat="47.17089" lon="-1.64558">
        <ele>76</ele>
        <time>2021-03-28T11:41:27.000Z</time>
      </trkpt>
      <trkpt lat="47.17088" lon="-1.64579">
        <ele>76</ele>
        <time>2021-03-28T11:41:29.000Z</time>
      </trkpt>
      <trkpt lat="47.17088" lon="-1.64599">
        <ele>76</ele>
        <time>2021-03-28T11:41:31.000Z</time>
      </trkpt>
      <trkpt lat="47.17088" lon="-1.6462">
        <ele>76</ele>
        <time>2021-03-28T11:41:33.000Z</time>
      </trkpt>
      <trkpt lat="47.17089" lon="-1.6464">
        <ele>76</ele>
        <time>2021-03-28T11:41:35.000Z</time>
      </trkpt>
      <trkpt lat="47.17089" lon="-1.64661">
        <ele>76</ele>
        <time>2021-03-28T11:41:37.000Z</time>
      </trkpt>
      <trkpt lat="47.17089" lon="-1.64682">
        <ele>76</ele>
        <time>2021-03-28T11:41:39.000Z</time>
      </trkpt>
      <trkpt lat="47.17089" lon="-1.64704">
        <ele>76</ele>
        <time>2021-03-28T11:41:41.000Z</time>
      </trkpt>
      <trkpt lat="47.1709" lon="-1.64724">
        <ele>77</ele>
        <time>2021-03-28T11:41:43.000Z</time>
      </trkpt>
      <trkpt lat="47.17091" lon="-1.64744">
        <ele>77</ele>
        <time>2021-03-28T11:41:45.000Z</time>
      </trkpt>
      <trkpt lat="47.17091" lon="-1.64764">
        <ele>77</ele>
        <time>2021-03-28T11:41:47.000Z</time>
      </trkpt>
      <trkpt lat="47.17092" lon="-1.64784">
        <ele>77</ele>
        <time>2021-03-28T11:41:49.000Z</time>
      </trkpt>
      <trkpt lat="47.17093" lon="-1.64805">
        <ele>77</ele>
        <time>2021-03-28T11:41:51.000Z</time>
      </trkpt>
      <trkpt lat="47.17095" lon="-1.64826">
        <ele>77</ele>
        <time>2021-03-28T11:41:53.000Z</time>
      </trkpt>
      <trkpt lat="47.17097" lon="-1.64846">
        <ele>77</ele>
        <time>2021-03-28T11:41:55.000Z</time>
      </trkpt>
      <trkpt lat="47.17098" lon="-1.64867">
        <ele>76</ele>
        <time>2021-03-28T11:41:57.000Z</time>
      </trkpt>
      <trkpt lat="47.17099" lon="-1.64888">
        <ele>76</ele>
        <time>2021-03-28T11:41:59.000Z</time>
      </trkpt>
      <trkpt lat="47.17101" lon="-1.64908">
        <ele>76</ele>
        <time>2021-03-28T11:42:01.000Z</time>
      </trkpt>
      <trkpt lat="47.17102" lon="-1.64928">
        <ele>76</ele>
        <time>2021-03-28T11:42:03.000Z</time>
      </trkpt>
      <trkpt lat="47.17104" lon="-1.64947">
        <ele>76</ele>
        <time>2021-03-28T11:42:05.000Z</time>
      </trkpt>
      <trkpt lat="47.17105" lon="-1.64967">
        <ele>76</ele>
        <time>2021-03-28T11:42:07.000Z</time>
      </trkpt>
      <trkpt lat="47.17106" lon="-1.64986">
        <ele>76</ele>
        <time>2021-03-28T11:42:09.000Z</time>
      </trkpt>
      <trkpt lat="47.17108" lon="-1.65005">
        <ele>77</ele>
        <time>2021-03-28T11:42:11.000Z</time>
      </trkpt>
      <trkpt lat="47.17109" lon="-1.65024">
        <ele>77</ele>
        <time>2021-03-28T11:42:13.000Z</time>
      </trkpt>
      <trkpt lat="47.1711" lon="-1.65043">
        <ele>77</ele>
        <time>2021-03-28T11:42:15.000Z</time>
      </trkpt>
      <trkpt lat="47.17111" lon="-1.65062">
        <ele>77</ele>
        <time>2021-03-28T11:42:17.000Z</time>
      </trkpt>
      <trkpt lat="47.17112" lon="-1.6508">
        <ele>77</ele>
        <time>2021-03-28T11:42:19.000Z</time>
      </trkpt>
      <trkpt lat="47.17113" lon="-1.65098">
        <ele>77</ele>
        <time>2021-03-28T11:42:21.000Z</time>
      </trkpt>
      <trkpt lat="47.17114" lon="-1.65119">
        <ele>77</ele>
        <time>2021-03-28T11:42:23.000Z</time>
      </trkpt>
      <trkpt lat="47.17115" lon="-1.65141">
        <ele>78</ele>
        <time>2021-03-28T11:42:25.000Z</time>
      </trkpt>
      <trkpt lat="47.17117" lon="-1.6516">
        <ele>78</ele>
        <time>2021-03-28T11:42:27.000Z</time>
      </trkpt>
      <trkpt lat="47.17118" lon="-1.65181">
        <ele>78</ele>
        <time>2021-03-28T11:42:29.000Z</time>
      </trkpt>
      <trkpt lat="47.1712" lon="-1.65201">
        <ele>78</ele>
        <time>2021-03-28T11:42:31.000Z</time>
      </trkpt>
      <trkpt lat="47.17121" lon="-1.65221">
        <ele>78</ele>
        <time>2021-03-28T11:42:33.000Z</time>
      </trkpt>
      <trkpt lat="47.17123" lon="-1.65239">
        <ele>78</ele>
        <time>2021-03-28T11:42:35.000Z</time>
      </trkpt>
      <trkpt lat="47.17126" lon="-1.65258">
        <ele>79</ele>
        <time>2021-03-28T11:42:37.000Z</time>
      </trkpt>
      <trkpt lat="47.17131" lon="-1.65275">
        <ele>79</ele>
        <time>2021-03-28T11:42:39.000Z</time>
      </trkpt>
      <trkpt lat="47.17137" lon="-1.65292">
        <ele>79</ele>
        <time>2021-03-28T11:42:41.000Z</time>
      </trkpt>
      <trkpt lat="47.17137" lon="-1.65312">
        <ele>79</ele>
        <time>2021-03-28T11:42:43.000Z</time>
      </trkpt>
      <trkpt lat="47.17132" lon="-1.65329">
        <ele>79</ele>
        <time>2021-03-28T11:42:45.000Z</time>
      </trkpt>
      <trkpt lat="47.17123" lon="-1.65343">
        <ele>79</ele>
        <time>2021-03-28T11:42:47.000Z</time>
      </trkpt>
      <trkpt lat="47.17118" lon="-1.65361">
        <ele>79</ele>
        <time>2021-03-28T11:42:49.000Z</time>
      </trkpt>
      <trkpt lat="47.17119" lon="-1.65379">
        <ele>80</ele>
        <time>2021-03-28T11:42:51.000Z</time>
      </trkpt>
      <trkpt lat="47.17119" lon="-1.65397">
        <ele>80</ele>
        <time>2021-03-28T11:42:53.000Z</time>
      </trkpt>
      <trkpt lat="47.17119" lon="-1.65415">
        <ele>81</ele>
        <time>2021-03-28T11:42:55.000Z</time>
      </trkpt>
      <trkpt lat="47.17119" lon="-1.65432">
        <ele>81</ele>
        <time>2021-03-28T11:42:57.000Z</time>
      </trkpt>
      <trkpt lat="47.17119" lon="-1.65448">
        <ele>82</ele>
        <time>2021-03-28T11:42:59.000Z</time>
      </trkpt>
      <trkpt lat="47.17118" lon="-1.65463">
        <ele>82</ele>
        <time>2021-03-28T11:43:01.000Z</time>
      </trkpt>
      <trkpt lat="47.17116" lon="-1.6548">
        <ele>83</ele>
        <time>2021-03-28T11:43:03.000Z</time>
      </trkpt>
      <trkpt lat="47.17114" lon="-1.65495">
        <ele>84</ele>
        <time>2021-03-28T11:43:05.000Z</time>
      </trkpt>
      <trkpt lat="47.1711" lon="-1.6551">
        <ele>84</ele>
        <time>2021-03-28T11:43:07.000Z</time>
      </trkpt>
      <trkpt lat="47.17105" lon="-1.65523">
        <ele>84</ele>
        <time>2021-03-28T11:43:09.000Z</time>
      </trkpt>
      <trkpt lat="47.171" lon="-1.65536">
        <ele>85</ele>
        <time>2021-03-28T11:43:11.000Z</time>
      </trkpt>
      <trkpt lat="47.17093" lon="-1.65549">
        <ele>85</ele>
        <time>2021-03-28T11:43:13.000Z</time>
      </trkpt>
      <trkpt lat="47.17087" lon="-1.6556">
        <ele>85</ele>
        <time>2021-03-28T11:43:15.000Z</time>
      </trkpt>
      <trkpt lat="47.1708" lon="-1.65572">
        <ele>84</ele>
        <time>2021-03-28T11:43:17.000Z</time>
      </trkpt>
      <trkpt lat="47.17074" lon="-1.65584">
        <ele>84</ele>
        <time>2021-03-28T11:43:19.000Z</time>
      </trkpt>
      <trkpt lat="47.17067" lon="-1.65597">
        <ele>84</ele>
        <time>2021-03-28T11:43:21.000Z</time>
      </trkpt>
      <trkpt lat="47.17059" lon="-1.6561">
        <ele>84</ele>
        <time>2021-03-28T11:43:23.000Z</time>
      </trkpt>
      <trkpt lat="47.17051" lon="-1.65623">
        <ele>84</ele>
        <time>2021-03-28T11:43:25.000Z</time>
      </trkpt>
      <trkpt lat="47.17043" lon="-1.65638">
        <ele>83</ele>
        <time>2021-03-28T11:43:27.000Z</time>
      </trkpt>
      <trkpt lat="47.17035" lon="-1.65653">
        <ele>83</ele>
        <time>2021-03-28T11:43:29.000Z</time>
      </trkpt>
      <trkpt lat="47.17026" lon="-1.65669">
        <ele>82</ele>
        <time>2021-03-28T11:43:31.000Z</time>
      </trkpt>
      <trkpt lat="47.17019" lon="-1.65686">
        <ele>82</ele>
        <time>2021-03-28T11:43:33.000Z</time>
      </trkpt>
      <trkpt lat="47.17012" lon="-1.65704">
        <ele>81</ele>
        <time>2021-03-28T11:43:35.000Z</time>
      </trkpt>
      <trkpt lat="47.17007" lon="-1.65723">
        <ele>81</ele>
        <time>2021-03-28T11:43:37.000Z</time>
      </trkpt>
      <trkpt lat="47.17004" lon="-1.65743">
        <ele>82</ele>
        <time>2021-03-28T11:43:39.000Z</time>
      </trkpt>
      <trkpt lat="47.16997" lon="-1.65761">
        <ele>82</ele>
        <time>2021-03-28T11:43:41.000Z</time>
      </trkpt>
      <trkpt lat="47.16985" lon="-1.65771">
        <ele>82</ele>
        <time>2021-03-28T11:43:43.000Z</time>
      </trkpt>
      <trkpt lat="47.16973" lon="-1.65778">
        <ele>81</ele>
        <time>2021-03-28T11:43:45.000Z</time>
      </trkpt>
      <trkpt lat="47.16962" lon="-1.6579">
        <ele>81</ele>
        <time>2021-03-28T11:43:47.000Z</time>
      </trkpt>
      <trkpt lat="47.16953" lon="-1.65805">
        <ele>80</ele>
        <time>2021-03-28T11:43:49.000Z</time>
      </trkpt>
      <trkpt lat="47.16945" lon="-1.65822">
        <ele>80</ele>
        <time>2021-03-28T11:43:51.000Z</time>
      </trkpt>
      <trkpt lat="47.16937" lon="-1.65839">
        <ele>80</ele>
        <time>2021-03-28T11:43:53.000Z</time>
      </trkpt>
      <trkpt lat="47.16929" lon="-1.65855">
        <ele>79</ele>
        <time>2021-03-28T11:43:55.000Z</time>
      </trkpt>
      <trkpt lat="47.1692" lon="-1.65872">
        <ele>79</ele>
        <time>2021-03-28T11:43:57.000Z</time>
      </trkpt>
      <trkpt lat="47.16913" lon="-1.65887">
        <ele>79</ele>
        <time>2021-03-28T11:43:59.000Z</time>
      </trkpt>
      <trkpt lat="47.16905" lon="-1.65903">
        <ele>79</ele>
        <time>2021-03-28T11:44:01.000Z</time>
      </trkpt>
      <trkpt lat="47.16897" lon="-1.65919">
        <ele>79</ele>
        <time>2021-03-28T11:44:03.000Z</time>
      </trkpt>
      <trkpt lat="47.1689" lon="-1.65936">
        <ele>79</ele>
        <time>2021-03-28T11:44:05.000Z</time>
      </trkpt>
      <trkpt lat="47.16882" lon="-1.65953">
        <ele>78</ele>
        <time>2021-03-28T11:44:07.000Z</time>
      </trkpt>
      <trkpt lat="47.16875" lon="-1.6597">
        <ele>78</ele>
        <time>2021-03-28T11:44:09.000Z</time>
      </trkpt>
      <trkpt lat="47.16868" lon="-1.65989">
        <ele>78</ele>
        <time>2021-03-28T11:44:11.000Z</time>
      </trkpt>
      <trkpt lat="47.16863" lon="-1.66008">
        <ele>78</ele>
        <time>2021-03-28T11:44:13.000Z</time>
      </trkpt>
      <trkpt lat="47.16859" lon="-1.66027">
        <ele>78</ele>
        <time>2021-03-28T11:44:15.000Z</time>
      </trkpt>
      <trkpt lat="47.16854" lon="-1.66047">
        <ele>78</ele>
        <time>2021-03-28T11:44:17.000Z</time>
      </trkpt>
      <trkpt lat="47.16851" lon="-1.66067">
        <ele>78</ele>
        <time>2021-03-28T11:44:19.000Z</time>
      </trkpt>
      <trkpt lat="47.16848" lon="-1.66086">
        <ele>78</ele>
        <time>2021-03-28T11:44:21.000Z</time>
      </trkpt>
      <trkpt lat="47.16847" lon="-1.66106">
        <ele>78</ele>
        <time>2021-03-28T11:44:23.000Z</time>
      </trkpt>
      <trkpt lat="47.16845" lon="-1.66126">
        <ele>78</ele>
        <time>2021-03-28T11:44:25.000Z</time>
      </trkpt>
      <trkpt lat="47.16845" lon="-1.66146">
        <ele>79</ele>
        <time>2021-03-28T11:44:27.000Z</time>
      </trkpt>
      <trkpt lat="47.16845" lon="-1.66166">
        <ele>79</ele>
        <time>2021-03-28T11:44:29.000Z</time>
      </trkpt>
      <trkpt lat="47.16846" lon="-1.66185">
        <ele>79</ele>
        <time>2021-03-28T11:44:31.000Z</time>
      </trkpt>
      <trkpt lat="47.16848" lon="-1.66204">
        <ele>78</ele>
        <time>2021-03-28T11:44:33.000Z</time>
      </trkpt>
      <trkpt lat="47.16849" lon="-1.66224">
        <ele>79</ele>
        <time>2021-03-28T11:44:35.000Z</time>
      </trkpt>
      <trkpt lat="47.16851" lon="-1.66243">
        <ele>79</ele>
        <time>2021-03-28T11:44:37.000Z</time>
      </trkpt>
      <trkpt lat="47.16852" lon="-1.66262">
        <ele>79</ele>
        <time>2021-03-28T11:44:39.000Z</time>
      </trkpt>
      <trkpt lat="47.16853" lon="-1.66282">
        <ele>79</ele>
        <time>2021-03-28T11:44:41.000Z</time>
      </trkpt>
      <trkpt lat="47.16855" lon="-1.66301">
        <ele>79</ele>
        <time>2021-03-28T11:44:43.000Z</time>
      </trkpt>
      <trkpt lat="47.16856" lon="-1.6632">
        <ele>79</ele>
        <time>2021-03-28T11:44:45.000Z</time>
      </trkpt>
      <trkpt lat="47.16857" lon="-1.6634">
        <ele>79</ele>
        <time>2021-03-28T11:44:47.000Z</time>
      </trkpt>
      <trkpt lat="47.1686" lon="-1.66359">
        <ele>78</ele>
        <time>2021-03-28T11:44:49.000Z</time>
      </trkpt>
      <trkpt lat="47.16862" lon="-1.66379">
        <ele>78</ele>
        <time>2021-03-28T11:44:51.000Z</time>
      </trkpt>
      <trkpt lat="47.16864" lon="-1.66398">
        <ele>78</ele>
        <time>2021-03-28T11:44:53.000Z</time>
      </trkpt>
      <trkpt lat="47.16866" lon="-1.66418">
        <ele>78</ele>
        <time>2021-03-28T11:44:55.000Z</time>
      </trkpt>
      <trkpt lat="47.16868" lon="-1.66437">
        <ele>78</ele>
        <time>2021-03-28T11:44:57.000Z</time>
      </trkpt>
      <trkpt lat="47.1687" lon="-1.66456">
        <ele>77</ele>
        <time>2021-03-28T11:44:59.000Z</time>
      </trkpt>
      <trkpt lat="47.16872" lon="-1.66476">
        <ele>77</ele>
        <time>2021-03-28T11:45:01.000Z</time>
      </trkpt>
      <trkpt lat="47.16875" lon="-1.66495">
        <ele>78</ele>
        <time>2021-03-28T11:45:03.000Z</time>
      </trkpt>
      <trkpt lat="47.16876" lon="-1.66515">
        <ele>78</ele>
        <time>2021-03-28T11:45:05.000Z</time>
      </trkpt>
      <trkpt lat="47.16879" lon="-1.66535">
        <ele>78</ele>
        <time>2021-03-28T11:45:07.000Z</time>
      </trkpt>
      <trkpt lat="47.16882" lon="-1.66554">
        <ele>78</ele>
        <time>2021-03-28T11:45:09.000Z</time>
      </trkpt>
      <trkpt lat="47.16884" lon="-1.66574">
        <ele>78</ele>
        <time>2021-03-28T11:45:11.000Z</time>
      </trkpt>
      <trkpt lat="47.16887" lon="-1.66594">
        <ele>78</ele>
        <time>2021-03-28T11:45:13.000Z</time>
      </trkpt>
      <trkpt lat="47.16889" lon="-1.66613">
        <ele>78</ele>
        <time>2021-03-28T11:45:15.000Z</time>
      </trkpt>
      <trkpt lat="47.16891" lon="-1.66632">
        <ele>78</ele>
        <time>2021-03-28T11:45:17.000Z</time>
      </trkpt>
      <trkpt lat="47.16892" lon="-1.66651">
        <ele>78</ele>
        <time>2021-03-28T11:45:19.000Z</time>
      </trkpt>
      <trkpt lat="47.16892" lon="-1.6667">
        <ele>78</ele>
        <time>2021-03-28T11:45:21.000Z</time>
      </trkpt>
      <trkpt lat="47.16889" lon="-1.66689">
        <ele>78</ele>
        <time>2021-03-28T11:45:23.000Z</time>
      </trkpt>
      <trkpt lat="47.16885" lon="-1.66709">
        <ele>78</ele>
        <time>2021-03-28T11:45:25.000Z</time>
      </trkpt>
      <trkpt lat="47.1688" lon="-1.66727">
        <ele>78</ele>
        <time>2021-03-28T11:45:27.000Z</time>
      </trkpt>
      <trkpt lat="47.16873" lon="-1.66745">
        <ele>77</ele>
        <time>2021-03-28T11:45:29.000Z</time>
      </trkpt>
      <trkpt lat="47.16865" lon="-1.66761">
        <ele>77</ele>
        <time>2021-03-28T11:45:31.000Z</time>
      </trkpt>
      <trkpt lat="47.16857" lon="-1.66778">
        <ele>77</ele>
        <time>2021-03-28T11:45:33.000Z</time>
      </trkpt>
      <trkpt lat="47.16848" lon="-1.66795">
        <ele>76</ele>
        <time>2021-03-28T11:45:35.000Z</time>
      </trkpt>
      <trkpt lat="47.16839" lon="-1.66811">
        <ele>76</ele>
        <time>2021-03-28T11:45:37.000Z</time>
      </trkpt>
      <trkpt lat="47.16831" lon="-1.66828">
        <ele>77</ele>
        <time>2021-03-28T11:45:39.000Z</time>
      </trkpt>
      <trkpt lat="47.16822" lon="-1.66844">
        <ele>77</ele>
        <time>2021-03-28T11:45:41.000Z</time>
      </trkpt>
      <trkpt lat="47.16813" lon="-1.66861">
        <ele>77</ele>
        <time>2021-03-28T11:45:43.000Z</time>
      </trkpt>
      <trkpt lat="47.16805" lon="-1.66875">
        <ele>77</ele>
        <time>2021-03-28T11:45:45.000Z</time>
      </trkpt>
      <trkpt lat="47.16795" lon="-1.66889">
        <ele>77</ele>
        <time>2021-03-28T11:45:47.000Z</time>
      </trkpt>
      <trkpt lat="47.16785" lon="-1.669">
        <ele>77</ele>
        <time>2021-03-28T11:45:49.000Z</time>
      </trkpt>
      <trkpt lat="47.16773" lon="-1.66909">
        <ele>77</ele>
        <time>2021-03-28T11:45:51.000Z</time>
      </trkpt>
      <trkpt lat="47.1676" lon="-1.66915">
        <ele>77</ele>
        <time>2021-03-28T11:45:53.000Z</time>
      </trkpt>
      <trkpt lat="47.16748" lon="-1.66921">
        <ele>78</ele>
        <time>2021-03-28T11:45:55.000Z</time>
      </trkpt>
      <trkpt lat="47.16735" lon="-1.66924">
        <ele>78</ele>
        <time>2021-03-28T11:45:57.000Z</time>
      </trkpt>
      <trkpt lat="47.16721" lon="-1.66928">
        <ele>78</ele>
        <time>2021-03-28T11:45:59.000Z</time>
      </trkpt>
      <trkpt lat="47.16708" lon="-1.66934">
        <ele>78</ele>
        <time>2021-03-28T11:46:01.000Z</time>
      </trkpt>
      <trkpt lat="47.16694" lon="-1.6694">
        <ele>77</ele>
        <time>2021-03-28T11:46:03.000Z</time>
      </trkpt>
      <trkpt lat="47.16683" lon="-1.66951">
        <ele>77</ele>
        <time>2021-03-28T11:46:05.000Z</time>
      </trkpt>
      <trkpt lat="47.16673" lon="-1.66964">
        <ele>76</ele>
        <time>2021-03-28T11:46:07.000Z</time>
      </trkpt>
      <trkpt lat="47.16666" lon="-1.66982">
        <ele>76</ele>
        <time>2021-03-28T11:46:09.000Z</time>
      </trkpt>
      <trkpt lat="47.16661" lon="-1.67">
        <ele>75</ele>
        <time>2021-03-28T11:46:11.000Z</time>
      </trkpt>
      <trkpt lat="47.16658" lon="-1.67018">
        <ele>75</ele>
        <time>2021-03-28T11:46:13.000Z</time>
      </trkpt>
      <trkpt lat="47.16654" lon="-1.67035">
        <ele>75</ele>
        <time>2021-03-28T11:46:15.000Z</time>
      </trkpt>
      <trkpt lat="47.1665" lon="-1.67053">
        <ele>75</ele>
        <time>2021-03-28T11:46:17.000Z</time>
      </trkpt>
      <trkpt lat="47.16647" lon="-1.6707">
        <ele>76</ele>
        <time>2021-03-28T11:46:19.000Z</time>
      </trkpt>
      <trkpt lat="47.16643" lon="-1.67088">
        <ele>76</ele>
        <time>2021-03-28T11:46:21.000Z</time>
      </trkpt>
      <trkpt lat="47.1664" lon="-1.67105">
        <ele>75</ele>
        <time>2021-03-28T11:46:23.000Z</time>
      </trkpt>
      <trkpt lat="47.16636" lon="-1.67123">
        <ele>75</ele>
        <time>2021-03-28T11:46:25.000Z</time>
      </trkpt>
      <trkpt lat="47.16633" lon="-1.67139">
        <ele>75</ele>
        <time>2021-03-28T11:46:27.000Z</time>
      </trkpt>
      <trkpt lat="47.16629" lon="-1.67156">
        <ele>75</ele>
        <time>2021-03-28T11:46:29.000Z</time>
      </trkpt>
      <trkpt lat="47.16626" lon="-1.67172">
        <ele>75</ele>
        <time>2021-03-28T11:46:31.000Z</time>
      </trkpt>
      <trkpt lat="47.16623" lon="-1.67189">
        <ele>75</ele>
        <time>2021-03-28T11:46:33.000Z</time>
      </trkpt>
      <trkpt lat="47.1662" lon="-1.67205">
        <ele>75</ele>
        <time>2021-03-28T11:46:35.000Z</time>
      </trkpt>
      <trkpt lat="47.16616" lon="-1.67221">
        <ele>75</ele>
        <time>2021-03-28T11:46:37.000Z</time>
      </trkpt>
      <trkpt lat="47.16613" lon="-1.67236">
        <ele>75</ele>
        <time>2021-03-28T11:46:39.000Z</time>
      </trkpt>
      <trkpt lat="47.1661" lon="-1.67249">
        <ele>76</ele>
        <time>2021-03-28T11:46:41.000Z</time>
      </trkpt>
      <trkpt lat="47.16606" lon="-1.67267">
        <ele>76</ele>
        <time>2021-03-28T11:46:44.000Z</time>
      </trkpt>
      <trkpt lat="47.166" lon="-1.67283">
        <ele>76</ele>
        <time>2021-03-28T11:46:46.000Z</time>
      </trkpt>
      <trkpt lat="47.16594" lon="-1.67298">
        <ele>76</ele>
        <time>2021-03-28T11:46:48.000Z</time>
      </trkpt>
      <trkpt lat="47.16586" lon="-1.67314">
        <ele>76</ele>
        <time>2021-03-28T11:46:50.000Z</time>
      </trkpt>
      <trkpt lat="47.16579" lon="-1.6733">
        <ele>75</ele>
        <time>2021-03-28T11:46:52.000Z</time>
      </trkpt>
      <trkpt lat="47.16571" lon="-1.67346">
        <ele>75</ele>
        <time>2021-03-28T11:46:54.000Z</time>
      </trkpt>
      <trkpt lat="47.16564" lon="-1.67363">
        <ele>75</ele>
        <time>2021-03-28T11:46:56.000Z</time>
      </trkpt>
      <trkpt lat="47.16554" lon="-1.67377">
        <ele>76</ele>
        <time>2021-03-28T11:46:58.000Z</time>
      </trkpt>
      <trkpt lat="47.16544" lon="-1.67391">
        <ele>76</ele>
        <time>2021-03-28T11:47:00.000Z</time>
      </trkpt>
      <trkpt lat="47.16535" lon="-1.67405">
        <ele>76</ele>
        <time>2021-03-28T11:47:02.000Z</time>
      </trkpt>
      <trkpt lat="47.16526" lon="-1.67419">
        <ele>76</ele>
        <time>2021-03-28T11:47:04.000Z</time>
      </trkpt>
      <trkpt lat="47.16517" lon="-1.67433">
        <ele>76</ele>
        <time>2021-03-28T11:47:06.000Z</time>
      </trkpt>
      <trkpt lat="47.16508" lon="-1.67448">
        <ele>76</ele>
        <time>2021-03-28T11:47:08.000Z</time>
      </trkpt>
      <trkpt lat="47.165" lon="-1.67464">
        <ele>76</ele>
        <time>2021-03-28T11:47:10.000Z</time>
      </trkpt>
      <trkpt lat="47.16491" lon="-1.67479">
        <ele>76</ele>
        <time>2021-03-28T11:47:12.000Z</time>
      </trkpt>
      <trkpt lat="47.16483" lon="-1.67494">
        <ele>76</ele>
        <time>2021-03-28T11:47:14.000Z</time>
      </trkpt>
      <trkpt lat="47.16474" lon="-1.67509">
        <ele>76</ele>
        <time>2021-03-28T11:47:16.000Z</time>
      </trkpt>
      <trkpt lat="47.16466" lon="-1.67523">
        <ele>75</ele>
        <time>2021-03-28T11:47:18.000Z</time>
      </trkpt>
      <trkpt lat="47.16458" lon="-1.67537">
        <ele>75</ele>
        <time>2021-03-28T11:47:20.000Z</time>
      </trkpt>
      <trkpt lat="47.1645" lon="-1.67551">
        <ele>75</ele>
        <time>2021-03-28T11:47:22.000Z</time>
      </trkpt>
      <trkpt lat="47.16442" lon="-1.67566">
        <ele>75</ele>
        <time>2021-03-28T11:47:24.000Z</time>
      </trkpt>
      <trkpt lat="47.16434" lon="-1.67581">
        <ele>75</ele>
        <time>2021-03-28T11:47:26.000Z</time>
      </trkpt>
      <trkpt lat="47.16426" lon="-1.67598">
        <ele>75</ele>
        <time>2021-03-28T11:47:28.000Z</time>
      </trkpt>
      <trkpt lat="47.16419" lon="-1.67614">
        <ele>75</ele>
        <time>2021-03-28T11:47:30.000Z</time>
      </trkpt>
      <trkpt lat="47.16411" lon="-1.67629">
        <ele>75</ele>
        <time>2021-03-28T11:47:32.000Z</time>
      </trkpt>
      <trkpt lat="47.16404" lon="-1.67645">
        <ele>75</ele>
        <time>2021-03-28T11:47:34.000Z</time>
      </trkpt>
      <trkpt lat="47.16397" lon="-1.67661">
        <ele>75</ele>
        <time>2021-03-28T11:47:36.000Z</time>
      </trkpt>
      <trkpt lat="47.16389" lon="-1.67676">
        <ele>75</ele>
        <time>2021-03-28T11:47:38.000Z</time>
      </trkpt>
      <trkpt lat="47.16381" lon="-1.67692">
        <ele>75</ele>
        <time>2021-03-28T11:47:40.000Z</time>
      </trkpt>
      <trkpt lat="47.16373" lon="-1.67706">
        <ele>75</ele>
        <time>2021-03-28T11:47:42.000Z</time>
      </trkpt>
      <trkpt lat="47.16366" lon="-1.6772">
        <ele>75</ele>
        <time>2021-03-28T11:47:44.000Z</time>
      </trkpt>
      <trkpt lat="47.16358" lon="-1.67736">
        <ele>76</ele>
        <time>2021-03-28T11:47:46.000Z</time>
      </trkpt>
      <trkpt lat="47.16351" lon="-1.67751">
        <ele>77</ele>
        <time>2021-03-28T11:47:48.000Z</time>
      </trkpt>
      <trkpt lat="47.16342" lon="-1.67764">
        <ele>76</ele>
        <time>2021-03-28T11:47:50.000Z</time>
      </trkpt>
      <trkpt lat="47.16335" lon="-1.67778">
        <ele>76</ele>
        <time>2021-03-28T11:47:52.000Z</time>
      </trkpt>
      <trkpt lat="47.16327" lon="-1.67792">
        <ele>76</ele>
        <time>2021-03-28T11:47:54.000Z</time>
      </trkpt>
      <trkpt lat="47.16319" lon="-1.67807">
        <ele>76</ele>
        <time>2021-03-28T11:47:56.000Z</time>
      </trkpt>
      <trkpt lat="47.1631" lon="-1.6782">
        <ele>76</ele>
        <time>2021-03-28T11:47:58.000Z</time>
      </trkpt>
      <trkpt lat="47.16302" lon="-1.67834">
        <ele>76</ele>
        <time>2021-03-28T11:48:00.000Z</time>
      </trkpt>
      <trkpt lat="47.16294" lon="-1.67848">
        <ele>76</ele>
        <time>2021-03-28T11:48:02.000Z</time>
      </trkpt>
      <trkpt lat="47.16286" lon="-1.67862">
        <ele>76</ele>
        <time>2021-03-28T11:48:04.000Z</time>
      </trkpt>
      <trkpt lat="47.16279" lon="-1.67875">
        <ele>76</ele>
        <time>2021-03-28T11:48:06.000Z</time>
      </trkpt>
      <trkpt lat="47.16271" lon="-1.67889">
        <ele>76</ele>
        <time>2021-03-28T11:48:08.000Z</time>
      </trkpt>
      <trkpt lat="47.16264" lon="-1.67904">
        <ele>76</ele>
        <time>2021-03-28T11:48:10.000Z</time>
      </trkpt>
      <trkpt lat="47.16256" lon="-1.67917">
        <ele>76</ele>
        <time>2021-03-28T11:48:12.000Z</time>
      </trkpt>
      <trkpt lat="47.16248" lon="-1.67932">
        <ele>77</ele>
        <time>2021-03-28T11:48:14.000Z</time>
      </trkpt>
      <trkpt lat="47.16241" lon="-1.67946">
        <ele>78</ele>
        <time>2021-03-28T11:48:16.000Z</time>
      </trkpt>
      <trkpt lat="47.16233" lon="-1.67958">
        <ele>78</ele>
        <time>2021-03-28T11:48:18.000Z</time>
      </trkpt>
      <trkpt lat="47.16226" lon="-1.67972">
        <ele>78</ele>
        <time>2021-03-28T11:48:20.000Z</time>
      </trkpt>
      <trkpt lat="47.16221" lon="-1.67987">
        <ele>78</ele>
        <time>2021-03-28T11:48:22.000Z</time>
      </trkpt>
      <trkpt lat="47.1621" lon="-1.67997">
        <ele>78</ele>
        <time>2021-03-28T11:48:24.000Z</time>
      </trkpt>
      <trkpt lat="47.16197" lon="-1.68002">
        <ele>76</ele>
        <time>2021-03-28T11:48:26.000Z</time>
      </trkpt>
      <trkpt lat="47.16189" lon="-1.68015">
        <ele>76</ele>
        <time>2021-03-28T11:48:28.000Z</time>
      </trkpt>
      <trkpt lat="47.1618" lon="-1.68028">
        <ele>76</ele>
        <time>2021-03-28T11:48:30.000Z</time>
      </trkpt>
      <trkpt lat="47.16171" lon="-1.68041">
        <ele>76</ele>
        <time>2021-03-28T11:48:32.000Z</time>
      </trkpt>
      <trkpt lat="47.16163" lon="-1.68053">
        <ele>77</ele>
        <time>2021-03-28T11:48:34.000Z</time>
      </trkpt>
      <trkpt lat="47.16155" lon="-1.68067">
        <ele>76</ele>
        <time>2021-03-28T11:48:36.000Z</time>
      </trkpt>
      <trkpt lat="47.16148" lon="-1.68082">
        <ele>76</ele>
        <time>2021-03-28T11:48:38.000Z</time>
      </trkpt>
      <trkpt lat="47.16143" lon="-1.68098">
        <ele>76</ele>
        <time>2021-03-28T11:48:40.000Z</time>
      </trkpt>
      <trkpt lat="47.16139" lon="-1.68116">
        <ele>76</ele>
        <time>2021-03-28T11:48:42.000Z</time>
      </trkpt>
      <trkpt lat="47.16135" lon="-1.68133">
        <ele>75</ele>
        <time>2021-03-28T11:48:44.000Z</time>
      </trkpt>
      <trkpt lat="47.16131" lon="-1.6815">
        <ele>75</ele>
        <time>2021-03-28T11:48:46.000Z</time>
      </trkpt>
      <trkpt lat="47.16127" lon="-1.68168">
        <ele>75</ele>
        <time>2021-03-28T11:48:48.000Z</time>
      </trkpt>
      <trkpt lat="47.16122" lon="-1.68186">
        <ele>75</ele>
        <time>2021-03-28T11:48:50.000Z</time>
      </trkpt>
      <trkpt lat="47.16119" lon="-1.68204">
        <ele>75</ele>
        <time>2021-03-28T11:48:52.000Z</time>
      </trkpt>
      <trkpt lat="47.16115" lon="-1.68222">
        <ele>75</ele>
        <time>2021-03-28T11:48:54.000Z</time>
      </trkpt>
      <trkpt lat="47.16111" lon="-1.6824">
        <ele>75</ele>
        <time>2021-03-28T11:48:56.000Z</time>
      </trkpt>
      <trkpt lat="47.16107" lon="-1.68258">
        <ele>75</ele>
        <time>2021-03-28T11:48:58.000Z</time>
      </trkpt>
      <trkpt lat="47.16104" lon="-1.68278">
        <ele>76</ele>
        <time>2021-03-28T11:49:00.000Z</time>
      </trkpt>
      <trkpt lat="47.161" lon="-1.68299">
        <ele>75</ele>
        <time>2021-03-28T11:49:02.000Z</time>
      </trkpt>
      <trkpt lat="47.16096" lon="-1.6832">
        <ele>74</ele>
        <time>2021-03-28T11:49:04.000Z</time>
      </trkpt>
      <trkpt lat="47.16092" lon="-1.68341">
        <ele>74</ele>
        <time>2021-03-28T11:49:06.000Z</time>
      </trkpt>
      <trkpt lat="47.16088" lon="-1.6836">
        <ele>74</ele>
        <time>2021-03-28T11:49:08.000Z</time>
      </trkpt>
      <trkpt lat="47.16084" lon="-1.68378">
        <ele>74</ele>
        <time>2021-03-28T11:49:10.000Z</time>
      </trkpt>
      <trkpt lat="47.1608" lon="-1.68397">
        <ele>73</ele>
        <time>2021-03-28T11:49:12.000Z</time>
      </trkpt>
      <trkpt lat="47.16076" lon="-1.68416">
        <ele>73</ele>
        <time>2021-03-28T11:49:14.000Z</time>
      </trkpt>
      <trkpt lat="47.16072" lon="-1.68435">
        <ele>73</ele>
        <time>2021-03-28T11:49:16.000Z</time>
      </trkpt>
      <trkpt lat="47.16069" lon="-1.68454">
        <ele>73</ele>
        <time>2021-03-28T11:49:18.000Z</time>
      </trkpt>
      <trkpt lat="47.16065" lon="-1.68471">
        <ele>73</ele>
        <time>2021-03-28T11:49:20.000Z</time>
      </trkpt>
      <trkpt lat="47.16062" lon="-1.6849">
        <ele>73</ele>
        <time>2021-03-28T11:49:22.000Z</time>
      </trkpt>
      <trkpt lat="47.1606" lon="-1.68508">
        <ele>73</ele>
        <time>2021-03-28T11:49:24.000Z</time>
      </trkpt>
      <trkpt lat="47.16057" lon="-1.68527">
        <ele>73</ele>
        <time>2021-03-28T11:49:26.000Z</time>
      </trkpt>
      <trkpt lat="47.16054" lon="-1.68545">
        <ele>73</ele>
        <time>2021-03-28T11:49:28.000Z</time>
      </trkpt>
      <trkpt lat="47.16052" lon="-1.68563">
        <ele>72</ele>
        <time>2021-03-28T11:49:30.000Z</time>
      </trkpt>
      <trkpt lat="47.16049" lon="-1.68581">
        <ele>72</ele>
        <time>2021-03-28T11:49:32.000Z</time>
      </trkpt>
      <trkpt lat="47.16047" lon="-1.68601">
        <ele>72</ele>
        <time>2021-03-28T11:49:34.000Z</time>
      </trkpt>
      <trkpt lat="47.16045" lon="-1.6862">
        <ele>72</ele>
        <time>2021-03-28T11:49:36.000Z</time>
      </trkpt>
      <trkpt lat="47.16044" lon="-1.68639">
        <ele>72</ele>
        <time>2021-03-28T11:49:38.000Z</time>
      </trkpt>
      <trkpt lat="47.16044" lon="-1.68658">
        <ele>73</ele>
        <time>2021-03-28T11:49:40.000Z</time>
      </trkpt>
      <trkpt lat="47.16044" lon="-1.68675">
        <ele>73</ele>
        <time>2021-03-28T11:49:42.000Z</time>
      </trkpt>
      <trkpt lat="47.16044" lon="-1.68693">
        <ele>73</ele>
        <time>2021-03-28T11:49:44.000Z</time>
      </trkpt>
      <trkpt lat="47.16046" lon="-1.68712">
        <ele>73</ele>
        <time>2021-03-28T11:49:46.000Z</time>
      </trkpt>
      <trkpt lat="47.16048" lon="-1.6873">
        <ele>73</ele>
        <time>2021-03-28T11:49:48.000Z</time>
      </trkpt>
      <trkpt lat="47.16051" lon="-1.68747">
        <ele>74</ele>
        <time>2021-03-28T11:49:50.000Z</time>
      </trkpt>
      <trkpt lat="47.16055" lon="-1.68764">
        <ele>74</ele>
        <time>2021-03-28T11:49:52.000Z</time>
      </trkpt>
      <trkpt lat="47.1606" lon="-1.68781">
        <ele>74</ele>
        <time>2021-03-28T11:49:54.000Z</time>
      </trkpt>
      <trkpt lat="47.16064" lon="-1.68798">
        <ele>75</ele>
        <time>2021-03-28T11:49:56.000Z</time>
      </trkpt>
      <trkpt lat="47.16069" lon="-1.68815">
        <ele>75</ele>
        <time>2021-03-28T11:49:58.000Z</time>
      </trkpt>
      <trkpt lat="47.16074" lon="-1.68831">
        <ele>75</ele>
        <time>2021-03-28T11:50:00.000Z</time>
      </trkpt>
      <trkpt lat="47.16078" lon="-1.68848">
        <ele>74</ele>
        <time>2021-03-28T11:50:02.000Z</time>
      </trkpt>
      <trkpt lat="47.16083" lon="-1.68864">
        <ele>75</ele>
        <time>2021-03-28T11:50:04.000Z</time>
      </trkpt>
      <trkpt lat="47.16088" lon="-1.68881">
        <ele>74</ele>
        <time>2021-03-28T11:50:06.000Z</time>
      </trkpt>
      <trkpt lat="47.16093" lon="-1.68897">
        <ele>74</ele>
        <time>2021-03-28T11:50:08.000Z</time>
      </trkpt>
      <trkpt lat="47.16098" lon="-1.68914">
        <ele>73</ele>
        <time>2021-03-28T11:50:10.000Z</time>
      </trkpt>
      <trkpt lat="47.16103" lon="-1.68932">
        <ele>73</ele>
        <time>2021-03-28T11:50:12.000Z</time>
      </trkpt>
      <trkpt lat="47.16108" lon="-1.6895">
        <ele>73</ele>
        <time>2021-03-28T11:50:14.000Z</time>
      </trkpt>
      <trkpt lat="47.16114" lon="-1.68969">
        <ele>72</ele>
        <time>2021-03-28T11:50:16.000Z</time>
      </trkpt>
      <trkpt lat="47.16119" lon="-1.68988">
        <ele>72</ele>
        <time>2021-03-28T11:50:18.000Z</time>
      </trkpt>
      <trkpt lat="47.16125" lon="-1.69007">
        <ele>71</ele>
        <time>2021-03-28T11:50:20.000Z</time>
      </trkpt>
      <trkpt lat="47.1613" lon="-1.69027">
        <ele>71</ele>
        <time>2021-03-28T11:50:22.000Z</time>
      </trkpt>
      <trkpt lat="47.16134" lon="-1.69049">
        <ele>71</ele>
        <time>2021-03-28T11:50:24.000Z</time>
      </trkpt>
      <trkpt lat="47.16138" lon="-1.69071">
        <ele>70</ele>
        <time>2021-03-28T11:50:26.000Z</time>
      </trkpt>
      <trkpt lat="47.16141" lon="-1.69092">
        <ele>70</ele>
        <time>2021-03-28T11:50:28.000Z</time>
      </trkpt>
      <trkpt lat="47.16143" lon="-1.69114">
        <ele>70</ele>
        <time>2021-03-28T11:50:30.000Z</time>
      </trkpt>
      <trkpt lat="47.16144" lon="-1.69136">
        <ele>69</ele>
        <time>2021-03-28T11:50:32.000Z</time>
      </trkpt>
      <trkpt lat="47.16144" lon="-1.69158">
        <ele>69</ele>
        <time>2021-03-28T11:50:34.000Z</time>
      </trkpt>
      <trkpt lat="47.16144" lon="-1.6918">
        <ele>69</ele>
        <time>2021-03-28T11:50:36.000Z</time>
      </trkpt>
      <trkpt lat="47.16143" lon="-1.69202">
        <ele>68</ele>
        <time>2021-03-28T11:50:38.000Z</time>
      </trkpt>
      <trkpt lat="47.16142" lon="-1.69224">
        <ele>68</ele>
        <time>2021-03-28T11:50:40.000Z</time>
      </trkpt>
      <trkpt lat="47.1614" lon="-1.69246">
        <ele>67</ele>
        <time>2021-03-28T11:50:42.000Z</time>
      </trkpt>
      <trkpt lat="47.16138" lon="-1.69266">
        <ele>67</ele>
        <time>2021-03-28T11:50:44.000Z</time>
      </trkpt>
      <trkpt lat="47.16135" lon="-1.69288">
        <ele>67</ele>
        <time>2021-03-28T11:50:46.000Z</time>
      </trkpt>
      <trkpt lat="47.16132" lon="-1.69308">
        <ele>68</ele>
        <time>2021-03-28T11:50:48.000Z</time>
      </trkpt>
      <trkpt lat="47.16129" lon="-1.69327">
        <ele>68</ele>
        <time>2021-03-28T11:50:50.000Z</time>
      </trkpt>
      <trkpt lat="47.16126" lon="-1.69347">
        <ele>69</ele>
        <time>2021-03-28T11:50:52.000Z</time>
      </trkpt>
      <trkpt lat="47.16122" lon="-1.69367">
        <ele>69</ele>
        <time>2021-03-28T11:50:54.000Z</time>
      </trkpt>
      <trkpt lat="47.1612" lon="-1.69386">
        <ele>69</ele>
        <time>2021-03-28T11:50:56.000Z</time>
      </trkpt>
      <trkpt lat="47.16118" lon="-1.69406">
        <ele>69</ele>
        <time>2021-03-28T11:50:58.000Z</time>
      </trkpt>
      <trkpt lat="47.16117" lon="-1.69425">
        <ele>70</ele>
        <time>2021-03-28T11:51:00.000Z</time>
      </trkpt>
      <trkpt lat="47.16116" lon="-1.69444">
        <ele>70</ele>
        <time>2021-03-28T11:51:02.000Z</time>
      </trkpt>
      <trkpt lat="47.16115" lon="-1.69464">
        <ele>70</ele>
        <time>2021-03-28T11:51:04.000Z</time>
      </trkpt>
      <trkpt lat="47.16113" lon="-1.69483">
        <ele>71</ele>
        <time>2021-03-28T11:51:06.000Z</time>
      </trkpt>
      <trkpt lat="47.16112" lon="-1.69503">
        <ele>71</ele>
        <time>2021-03-28T11:51:08.000Z</time>
      </trkpt>
      <trkpt lat="47.16111" lon="-1.69522">
        <ele>71</ele>
        <time>2021-03-28T11:51:10.000Z</time>
      </trkpt>
      <trkpt lat="47.16109" lon="-1.69542">
        <ele>71</ele>
        <time>2021-03-28T11:51:12.000Z</time>
      </trkpt>
      <trkpt lat="47.16108" lon="-1.69562">
        <ele>71</ele>
        <time>2021-03-28T11:51:14.000Z</time>
      </trkpt>
      <trkpt lat="47.16106" lon="-1.69582">
        <ele>71</ele>
        <time>2021-03-28T11:51:16.000Z</time>
      </trkpt>
      <trkpt lat="47.16105" lon="-1.69602">
        <ele>71</ele>
        <time>2021-03-28T11:51:18.000Z</time>
      </trkpt>
      <trkpt lat="47.16104" lon="-1.69623">
        <ele>71</ele>
        <time>2021-03-28T11:51:20.000Z</time>
      </trkpt>
      <trkpt lat="47.16103" lon="-1.69642">
        <ele>71</ele>
        <time>2021-03-28T11:51:22.000Z</time>
      </trkpt>
      <trkpt lat="47.16102" lon="-1.69661">
        <ele>71</ele>
        <time>2021-03-28T11:51:24.000Z</time>
      </trkpt>
      <trkpt lat="47.161" lon="-1.6968">
        <ele>71</ele>
        <time>2021-03-28T11:51:26.000Z</time>
      </trkpt>
      <trkpt lat="47.16099" lon="-1.69699">
        <ele>71</ele>
        <time>2021-03-28T11:51:28.000Z</time>
      </trkpt>
      <trkpt lat="47.16098" lon="-1.69718">
        <ele>71</ele>
        <time>2021-03-28T11:51:30.000Z</time>
      </trkpt>
      <trkpt lat="47.16096" lon="-1.69738">
        <ele>71</ele>
        <time>2021-03-28T11:51:32.000Z</time>
      </trkpt>
      <trkpt lat="47.16095" lon="-1.69757">
        <ele>71</ele>
        <time>2021-03-28T11:51:34.000Z</time>
      </trkpt>
      <trkpt lat="47.16094" lon="-1.69777">
        <ele>71</ele>
        <time>2021-03-28T11:51:36.000Z</time>
      </trkpt>
      <trkpt lat="47.16092" lon="-1.69797">
        <ele>71</ele>
        <time>2021-03-28T11:51:38.000Z</time>
      </trkpt>
      <trkpt lat="47.16091" lon="-1.69816">
        <ele>71</ele>
        <time>2021-03-28T11:51:40.000Z</time>
      </trkpt>
      <trkpt lat="47.16089" lon="-1.69836">
        <ele>72</ele>
        <time>2021-03-28T11:51:42.000Z</time>
      </trkpt>
      <trkpt lat="47.16088" lon="-1.69855">
        <ele>72</ele>
        <time>2021-03-28T11:51:44.000Z</time>
      </trkpt>
      <trkpt lat="47.16087" lon="-1.69875">
        <ele>72</ele>
        <time>2021-03-28T11:51:46.000Z</time>
      </trkpt>
      <trkpt lat="47.16085" lon="-1.69894">
        <ele>71</ele>
        <time>2021-03-28T11:51:48.000Z</time>
      </trkpt>
      <trkpt lat="47.16084" lon="-1.69915">
        <ele>72</ele>
        <time>2021-03-28T11:51:50.000Z</time>
      </trkpt>
      <trkpt lat="47.16082" lon="-1.69934">
        <ele>71</ele>
        <time>2021-03-28T11:51:52.000Z</time>
      </trkpt>
      <trkpt lat="47.16081" lon="-1.69953">
        <ele>71</ele>
        <time>2021-03-28T11:51:54.000Z</time>
      </trkpt>
      <trkpt lat="47.16079" lon="-1.69974">
        <ele>71</ele>
        <time>2021-03-28T11:51:56.000Z</time>
      </trkpt>
      <trkpt lat="47.16078" lon="-1.69994">
        <ele>71</ele>
        <time>2021-03-28T11:51:58.000Z</time>
      </trkpt>
      <trkpt lat="47.16077" lon="-1.70014">
        <ele>71</ele>
        <time>2021-03-28T11:52:00.000Z</time>
      </trkpt>
      <trkpt lat="47.16076" lon="-1.70034">
        <ele>71</ele>
        <time>2021-03-28T11:52:02.000Z</time>
      </trkpt>
      <trkpt lat="47.16074" lon="-1.70054">
        <ele>71</ele>
        <time>2021-03-28T11:52:04.000Z</time>
      </trkpt>
      <trkpt lat="47.16073" lon="-1.70075">
        <ele>71</ele>
        <time>2021-03-28T11:52:06.000Z</time>
      </trkpt>
      <trkpt lat="47.16071" lon="-1.70095">
        <ele>71</ele>
        <time>2021-03-28T11:52:08.000Z</time>
      </trkpt>
      <trkpt lat="47.16068" lon="-1.70114">
        <ele>71</ele>
        <time>2021-03-28T11:52:10.000Z</time>
      </trkpt>
      <trkpt lat="47.16064" lon="-1.70133">
        <ele>71</ele>
        <time>2021-03-28T11:52:12.000Z</time>
      </trkpt>
      <trkpt lat="47.16058" lon="-1.70151">
        <ele>71</ele>
        <time>2021-03-28T11:52:14.000Z</time>
      </trkpt>
      <trkpt lat="47.16052" lon="-1.70168">
        <ele>72</ele>
        <time>2021-03-28T11:52:16.000Z</time>
      </trkpt>
      <trkpt lat="47.16045" lon="-1.70184">
        <ele>72</ele>
        <time>2021-03-28T11:52:18.000Z</time>
      </trkpt>
      <trkpt lat="47.16037" lon="-1.70201">
        <ele>72</ele>
        <time>2021-03-28T11:52:20.000Z</time>
      </trkpt>
      <trkpt lat="47.16031" lon="-1.70217">
        <ele>72</ele>
        <time>2021-03-28T11:52:22.000Z</time>
      </trkpt>
      <trkpt lat="47.16024" lon="-1.70232">
        <ele>72</ele>
        <time>2021-03-28T11:52:24.000Z</time>
      </trkpt>
      <trkpt lat="47.16017" lon="-1.70248">
        <ele>72</ele>
        <time>2021-03-28T11:52:26.000Z</time>
      </trkpt>
      <trkpt lat="47.1601" lon="-1.70262">
        <ele>72</ele>
        <time>2021-03-28T11:52:28.000Z</time>
      </trkpt>
      <trkpt lat="47.16003" lon="-1.70278">
        <ele>72</ele>
        <time>2021-03-28T11:52:30.000Z</time>
      </trkpt>
      <trkpt lat="47.15997" lon="-1.70293">
        <ele>72</ele>
        <time>2021-03-28T11:52:32.000Z</time>
      </trkpt>
      <trkpt lat="47.1599" lon="-1.70309">
        <ele>72</ele>
        <time>2021-03-28T11:52:34.000Z</time>
      </trkpt>
      <trkpt lat="47.15982" lon="-1.70326">
        <ele>71</ele>
        <time>2021-03-28T11:52:36.000Z</time>
      </trkpt>
      <trkpt lat="47.15975" lon="-1.70341">
        <ele>71</ele>
        <time>2021-03-28T11:52:38.000Z</time>
      </trkpt>
      <trkpt lat="47.15968" lon="-1.70357">
        <ele>71</ele>
        <time>2021-03-28T11:52:40.000Z</time>
      </trkpt>
      <trkpt lat="47.15961" lon="-1.70373">
        <ele>71</ele>
        <time>2021-03-28T11:52:42.000Z</time>
      </trkpt>
      <trkpt lat="47.15954" lon="-1.70389">
        <ele>71</ele>
        <time>2021-03-28T11:52:44.000Z</time>
      </trkpt>
      <trkpt lat="47.15947" lon="-1.70406">
        <ele>71</ele>
        <time>2021-03-28T11:52:46.000Z</time>
      </trkpt>
      <trkpt lat="47.1594" lon="-1.70421">
        <ele>71</ele>
        <time>2021-03-28T11:52:48.000Z</time>
      </trkpt>
      <trkpt lat="47.15933" lon="-1.70437">
        <ele>71</ele>
        <time>2021-03-28T11:52:50.000Z</time>
      </trkpt>
      <trkpt lat="47.15926" lon="-1.70452">
        <ele>70</ele>
        <time>2021-03-28T11:52:52.000Z</time>
      </trkpt>
      <trkpt lat="47.15919" lon="-1.70467">
        <ele>70</ele>
        <time>2021-03-28T11:52:54.000Z</time>
      </trkpt>
      <trkpt lat="47.15911" lon="-1.70482">
        <ele>71</ele>
        <time>2021-03-28T11:52:56.000Z</time>
      </trkpt>
      <trkpt lat="47.15903" lon="-1.70498">
        <ele>71</ele>
        <time>2021-03-28T11:52:58.000Z</time>
      </trkpt>
      <trkpt lat="47.15896" lon="-1.70514">
        <ele>71</ele>
        <time>2021-03-28T11:53:00.000Z</time>
      </trkpt>
      <trkpt lat="47.15891" lon="-1.70532">
        <ele>71</ele>
        <time>2021-03-28T11:53:02.000Z</time>
      </trkpt>
      <trkpt lat="47.15885" lon="-1.70549">
        <ele>70</ele>
        <time>2021-03-28T11:53:04.000Z</time>
      </trkpt>
      <trkpt lat="47.1588" lon="-1.70566">
        <ele>70</ele>
        <time>2021-03-28T11:53:06.000Z</time>
      </trkpt>
      <trkpt lat="47.15875" lon="-1.70584">
        <ele>70</ele>
        <time>2021-03-28T11:53:08.000Z</time>
      </trkpt>
      <trkpt lat="47.1587" lon="-1.70601">
        <ele>70</ele>
        <time>2021-03-28T11:53:10.000Z</time>
      </trkpt>
      <trkpt lat="47.15866" lon="-1.70618">
        <ele>70</ele>
        <time>2021-03-28T11:53:12.000Z</time>
      </trkpt>
      <trkpt lat="47.1586" lon="-1.70636">
        <ele>71</ele>
        <time>2021-03-28T11:53:14.000Z</time>
      </trkpt>
      <trkpt lat="47.15854" lon="-1.70652">
        <ele>71</ele>
        <time>2021-03-28T11:53:16.000Z</time>
      </trkpt>
      <trkpt lat="47.15848" lon="-1.70668">
        <ele>71</ele>
        <time>2021-03-28T11:53:18.000Z</time>
      </trkpt>
      <trkpt lat="47.15842" lon="-1.70682">
        <ele>71</ele>
        <time>2021-03-28T11:53:20.000Z</time>
      </trkpt>
      <trkpt lat="47.15836" lon="-1.70697">
        <ele>71</ele>
        <time>2021-03-28T11:53:22.000Z</time>
      </trkpt>
      <trkpt lat="47.15829" lon="-1.70711">
        <ele>71</ele>
        <time>2021-03-28T11:53:24.000Z</time>
      </trkpt>
      <trkpt lat="47.15823" lon="-1.70726">
        <ele>71</ele>
        <time>2021-03-28T11:53:26.000Z</time>
      </trkpt>
      <trkpt lat="47.15816" lon="-1.7074">
        <ele>71</ele>
        <time>2021-03-28T11:53:28.000Z</time>
      </trkpt>
      <trkpt lat="47.15809" lon="-1.70754">
        <ele>72</ele>
        <time>2021-03-28T11:53:30.000Z</time>
      </trkpt>
      <trkpt lat="47.15803" lon="-1.70768">
        <ele>72</ele>
        <time>2021-03-28T11:53:32.000Z</time>
      </trkpt>
      <trkpt lat="47.15797" lon="-1.70783">
        <ele>72</ele>
        <time>2021-03-28T11:53:34.000Z</time>
      </trkpt>
      <trkpt lat="47.15789" lon="-1.70797">
        <ele>72</ele>
        <time>2021-03-28T11:53:36.000Z</time>
      </trkpt>
      <trkpt lat="47.15783" lon="-1.70811">
        <ele>72</ele>
        <time>2021-03-28T11:53:38.000Z</time>
      </trkpt>
      <trkpt lat="47.15776" lon="-1.70824">
        <ele>72</ele>
        <time>2021-03-28T11:53:40.000Z</time>
      </trkpt>
      <trkpt lat="47.15769" lon="-1.70838">
        <ele>72</ele>
        <time>2021-03-28T11:53:42.000Z</time>
      </trkpt>
      <trkpt lat="47.15762" lon="-1.70851">
        <ele>72</ele>
        <time>2021-03-28T11:53:44.000Z</time>
      </trkpt>
      <trkpt lat="47.15756" lon="-1.70864">
        <ele>72</ele>
        <time>2021-03-28T11:53:46.000Z</time>
      </trkpt>
      <trkpt lat="47.15748" lon="-1.70878">
        <ele>72</ele>
        <time>2021-03-28T11:53:48.000Z</time>
      </trkpt>
      <trkpt lat="47.15741" lon="-1.7089">
        <ele>72</ele>
        <time>2021-03-28T11:53:50.000Z</time>
      </trkpt>
      <trkpt lat="47.15733" lon="-1.70903">
        <ele>72</ele>
        <time>2021-03-28T11:53:52.000Z</time>
      </trkpt>
      <trkpt lat="47.15726" lon="-1.70916">
        <ele>72</ele>
        <time>2021-03-28T11:53:54.000Z</time>
      </trkpt>
      <trkpt lat="47.15719" lon="-1.70929">
        <ele>72</ele>
        <time>2021-03-28T11:53:56.000Z</time>
      </trkpt>
      <trkpt lat="47.15712" lon="-1.70943">
        <ele>72</ele>
        <time>2021-03-28T11:53:58.000Z</time>
      </trkpt>
      <trkpt lat="47.15705" lon="-1.70956">
        <ele>71</ele>
        <time>2021-03-28T11:54:00.000Z</time>
      </trkpt>
      <trkpt lat="47.15699" lon="-1.7097">
        <ele>72</ele>
        <time>2021-03-28T11:54:02.000Z</time>
      </trkpt>
      <trkpt lat="47.15693" lon="-1.70984">
        <ele>71</ele>
        <time>2021-03-28T11:54:04.000Z</time>
      </trkpt>
      <trkpt lat="47.15686" lon="-1.70998">
        <ele>71</ele>
        <time>2021-03-28T11:54:06.000Z</time>
      </trkpt>
      <trkpt lat="47.15679" lon="-1.71013">
        <ele>71</ele>
        <time>2021-03-28T11:54:08.000Z</time>
      </trkpt>
      <trkpt lat="47.15673" lon="-1.71026">
        <ele>71</ele>
        <time>2021-03-28T11:54:10.000Z</time>
      </trkpt>
      <trkpt lat="47.15666" lon="-1.71039">
        <ele>71</ele>
        <time>2021-03-28T11:54:12.000Z</time>
      </trkpt>
      <trkpt lat="47.15661" lon="-1.71052">
        <ele>71</ele>
        <time>2021-03-28T11:54:14.000Z</time>
      </trkpt>
      <trkpt lat="47.15655" lon="-1.71063">
        <ele>71</ele>
        <time>2021-03-28T11:54:16.000Z</time>
      </trkpt>
      <trkpt lat="47.15647" lon="-1.71069">
        <ele>72</ele>
        <time>2021-03-28T11:54:18.000Z</time>
      </trkpt>
      <trkpt lat="47.15636" lon="-1.71075">
        <ele>71</ele>
        <time>2021-03-28T11:54:20.000Z</time>
      </trkpt>
      <trkpt lat="47.15628" lon="-1.71089">
        <ele>71</ele>
        <time>2021-03-28T11:54:22.000Z</time>
      </trkpt>
      <trkpt lat="47.1562" lon="-1.71103">
        <ele>71</ele>
        <time>2021-03-28T11:54:24.000Z</time>
      </trkpt>
      <trkpt lat="47.15612" lon="-1.71118">
        <ele>71</ele>
        <time>2021-03-28T11:54:26.000Z</time>
      </trkpt>
      <trkpt lat="47.15605" lon="-1.71132">
        <ele>71</ele>
        <time>2021-03-28T11:54:28.000Z</time>
      </trkpt>
      <trkpt lat="47.15597" lon="-1.71145">
        <ele>72</ele>
        <time>2021-03-28T11:54:30.000Z</time>
      </trkpt>
      <trkpt lat="47.15589" lon="-1.71158">
        <ele>72</ele>
        <time>2021-03-28T11:54:32.000Z</time>
      </trkpt>
      <trkpt lat="47.15581" lon="-1.71171">
        <ele>72</ele>
        <time>2021-03-28T11:54:34.000Z</time>
      </trkpt>
      <trkpt lat="47.15573" lon="-1.71185">
        <ele>72</ele>
        <time>2021-03-28T11:54:36.000Z</time>
      </trkpt>
      <trkpt lat="47.15565" lon="-1.71199">
        <ele>72</ele>
        <time>2021-03-28T11:54:38.000Z</time>
      </trkpt>
      <trkpt lat="47.15556" lon="-1.71215">
        <ele>71</ele>
        <time>2021-03-28T11:54:40.000Z</time>
      </trkpt>
      <trkpt lat="47.15549" lon="-1.7123">
        <ele>72</ele>
        <time>2021-03-28T11:54:42.000Z</time>
      </trkpt>
      <trkpt lat="47.15543" lon="-1.71246">
        <ele>72</ele>
        <time>2021-03-28T11:54:44.000Z</time>
      </trkpt>
      <trkpt lat="47.15536" lon="-1.71262">
        <ele>72</ele>
        <time>2021-03-28T11:54:46.000Z</time>
      </trkpt>
      <trkpt lat="47.1553" lon="-1.71277">
        <ele>72</ele>
        <time>2021-03-28T11:54:48.000Z</time>
      </trkpt>
      <trkpt lat="47.15523" lon="-1.71293">
        <ele>72</ele>
        <time>2021-03-28T11:54:50.000Z</time>
      </trkpt>
      <trkpt lat="47.15516" lon="-1.71309">
        <ele>72</ele>
        <time>2021-03-28T11:54:52.000Z</time>
      </trkpt>
      <trkpt lat="47.15508" lon="-1.71324">
        <ele>73</ele>
        <time>2021-03-28T11:54:54.000Z</time>
      </trkpt>
      <trkpt lat="47.155" lon="-1.71339">
        <ele>72</ele>
        <time>2021-03-28T11:54:56.000Z</time>
      </trkpt>
      <trkpt lat="47.15491" lon="-1.71353">
        <ele>72</ele>
        <time>2021-03-28T11:54:58.000Z</time>
      </trkpt>
      <trkpt lat="47.15482" lon="-1.71367">
        <ele>73</ele>
        <time>2021-03-28T11:55:00.000Z</time>
      </trkpt>
      <trkpt lat="47.15472" lon="-1.71379">
        <ele>73</ele>
        <time>2021-03-28T11:55:02.000Z</time>
      </trkpt>
      <trkpt lat="47.15462" lon="-1.71392">
        <ele>73</ele>
        <time>2021-03-28T11:55:04.000Z</time>
      </trkpt>
      <trkpt lat="47.15452" lon="-1.71402">
        <ele>72</ele>
        <time>2021-03-28T11:55:06.000Z</time>
      </trkpt>
      <trkpt lat="47.15442" lon="-1.71412">
        <ele>72</ele>
        <time>2021-03-28T11:55:08.000Z</time>
      </trkpt>
      <trkpt lat="47.15432" lon="-1.71422">
        <ele>72</ele>
        <time>2021-03-28T11:55:10.000Z</time>
      </trkpt>
      <trkpt lat="47.15423" lon="-1.71431">
        <ele>72</ele>
        <time>2021-03-28T11:55:12.000Z</time>
      </trkpt>
      <trkpt lat="47.15413" lon="-1.71441">
        <ele>72</ele>
        <time>2021-03-28T11:55:14.000Z</time>
      </trkpt>
      <trkpt lat="47.15402" lon="-1.7145">
        <ele>72</ele>
        <time>2021-03-28T11:55:16.000Z</time>
      </trkpt>
      <trkpt lat="47.15391" lon="-1.71458">
        <ele>71</ele>
        <time>2021-03-28T11:55:18.000Z</time>
      </trkpt>
      <trkpt lat="47.15381" lon="-1.71467">
        <ele>71</ele>
        <time>2021-03-28T11:55:20.000Z</time>
      </trkpt>
      <trkpt lat="47.15371" lon="-1.71475">
        <ele>71</ele>
        <time>2021-03-28T11:55:22.000Z</time>
      </trkpt>
      <trkpt lat="47.15361" lon="-1.71485">
        <ele>71</ele>
        <time>2021-03-28T11:55:24.000Z</time>
      </trkpt>
      <trkpt lat="47.15351" lon="-1.71495">
        <ele>70</ele>
        <time>2021-03-28T11:55:26.000Z</time>
      </trkpt>
      <trkpt lat="47.15341" lon="-1.71506">
        <ele>70</ele>
        <time>2021-03-28T11:55:28.000Z</time>
      </trkpt>
      <trkpt lat="47.15331" lon="-1.71517">
        <ele>70</ele>
        <time>2021-03-28T11:55:30.000Z</time>
      </trkpt>
      <trkpt lat="47.15322" lon="-1.71528">
        <ele>70</ele>
        <time>2021-03-28T11:55:32.000Z</time>
      </trkpt>
      <trkpt lat="47.15312" lon="-1.71538">
        <ele>70</ele>
        <time>2021-03-28T11:55:34.000Z</time>
      </trkpt>
      <trkpt lat="47.15303" lon="-1.71549">
        <ele>69</ele>
        <time>2021-03-28T11:55:36.000Z</time>
      </trkpt>
      <trkpt lat="47.15293" lon="-1.71559">
        <ele>69</ele>
        <time>2021-03-28T11:55:38.000Z</time>
      </trkpt>
      <trkpt lat="47.15283" lon="-1.7157">
        <ele>69</ele>
        <time>2021-03-28T11:55:40.000Z</time>
      </trkpt>
      <trkpt lat="47.15273" lon="-1.71581">
        <ele>69</ele>
        <time>2021-03-28T11:55:42.000Z</time>
      </trkpt>
      <trkpt lat="47.15263" lon="-1.71593">
        <ele>69</ele>
        <time>2021-03-28T11:55:44.000Z</time>
      </trkpt>
      <trkpt lat="47.15254" lon="-1.71605">
        <ele>69</ele>
        <time>2021-03-28T11:55:46.000Z</time>
      </trkpt>
      <trkpt lat="47.15246" lon="-1.71618">
        <ele>68</ele>
        <time>2021-03-28T11:55:48.000Z</time>
      </trkpt>
      <trkpt lat="47.15235" lon="-1.71624">
        <ele>68</ele>
        <time>2021-03-28T11:55:50.000Z</time>
      </trkpt>
      <trkpt lat="47.15222" lon="-1.71619">
        <ele>67</ele>
        <time>2021-03-28T11:55:52.000Z</time>
      </trkpt>
      <trkpt lat="47.15212" lon="-1.71611">
        <ele>67</ele>
        <time>2021-03-28T11:55:54.000Z</time>
      </trkpt>
      <trkpt lat="47.152" lon="-1.71603">
        <ele>67</ele>
        <time>2021-03-28T11:55:56.000Z</time>
      </trkpt>
      <trkpt lat="47.15189" lon="-1.71596">
        <ele>68</ele>
        <time>2021-03-28T11:55:58.000Z</time>
      </trkpt>
      <trkpt lat="47.15178" lon="-1.71588">
        <ele>67</ele>
        <time>2021-03-28T11:56:00.000Z</time>
      </trkpt>
      <trkpt lat="47.15168" lon="-1.7158">
        <ele>68</ele>
        <time>2021-03-28T11:56:02.000Z</time>
      </trkpt>
      <trkpt lat="47.15157" lon="-1.71571">
        <ele>67</ele>
        <time>2021-03-28T11:56:04.000Z</time>
      </trkpt>
      <trkpt lat="47.15146" lon="-1.71562">
        <ele>67</ele>
        <time>2021-03-28T11:56:06.000Z</time>
      </trkpt>
      <trkpt lat="47.15135" lon="-1.71553">
        <ele>67</ele>
        <time>2021-03-28T11:56:08.000Z</time>
      </trkpt>
      <trkpt lat="47.15124" lon="-1.71545">
        <ele>67</ele>
        <time>2021-03-28T11:56:10.000Z</time>
      </trkpt>
      <trkpt lat="47.15113" lon="-1.71535">
        <ele>67</ele>
        <time>2021-03-28T11:56:12.000Z</time>
      </trkpt>
      <trkpt lat="47.15103" lon="-1.71526">
        <ele>67</ele>
        <time>2021-03-28T11:56:14.000Z</time>
      </trkpt>
      <trkpt lat="47.15092" lon="-1.71516">
        <ele>68</ele>
        <time>2021-03-28T11:56:16.000Z</time>
      </trkpt>
      <trkpt lat="47.15082" lon="-1.71506">
        <ele>67</ele>
        <time>2021-03-28T11:56:18.000Z</time>
      </trkpt>
      <trkpt lat="47.15071" lon="-1.71496">
        <ele>68</ele>
        <time>2021-03-28T11:56:20.000Z</time>
      </trkpt>
      <trkpt lat="47.15061" lon="-1.71485">
        <ele>68</ele>
        <time>2021-03-28T11:56:22.000Z</time>
      </trkpt>
      <trkpt lat="47.15051" lon="-1.71475">
        <ele>68</ele>
        <time>2021-03-28T11:56:24.000Z</time>
      </trkpt>
      <trkpt lat="47.15041" lon="-1.71465">
        <ele>68</ele>
        <time>2021-03-28T11:56:26.000Z</time>
      </trkpt>
      <trkpt lat="47.15031" lon="-1.71455">
        <ele>68</ele>
        <time>2021-03-28T11:56:28.000Z</time>
      </trkpt>
      <trkpt lat="47.15021" lon="-1.71445">
        <ele>69</ele>
        <time>2021-03-28T11:56:30.000Z</time>
      </trkpt>
      <trkpt lat="47.15011" lon="-1.71435">
        <ele>69</ele>
        <time>2021-03-28T11:56:32.000Z</time>
      </trkpt>
      <trkpt lat="47.15001" lon="-1.71426">
        <ele>69</ele>
        <time>2021-03-28T11:56:34.000Z</time>
      </trkpt>
      <trkpt lat="47.14991" lon="-1.71416">
        <ele>69</ele>
        <time>2021-03-28T11:56:36.000Z</time>
      </trkpt>
      <trkpt lat="47.14981" lon="-1.71406">
        <ele>69</ele>
        <time>2021-03-28T11:56:38.000Z</time>
      </trkpt>
      <trkpt lat="47.14971" lon="-1.71396">
        <ele>69</ele>
        <time>2021-03-28T11:56:40.000Z</time>
      </trkpt>
      <trkpt lat="47.14961" lon="-1.71386">
        <ele>69</ele>
        <time>2021-03-28T11:56:42.000Z</time>
      </trkpt>
      <trkpt lat="47.14951" lon="-1.71375">
        <ele>69</ele>
        <time>2021-03-28T11:56:44.000Z</time>
      </trkpt>
      <trkpt lat="47.14941" lon="-1.71365">
        <ele>69</ele>
        <time>2021-03-28T11:56:46.000Z</time>
      </trkpt>
      <trkpt lat="47.14932" lon="-1.71354">
        <ele>69</ele>
        <time>2021-03-28T11:56:48.000Z</time>
      </trkpt>
      <trkpt lat="47.14923" lon="-1.71343">
        <ele>70</ele>
        <time>2021-03-28T11:56:50.000Z</time>
      </trkpt>
      <trkpt lat="47.14914" lon="-1.71332">
        <ele>70</ele>
        <time>2021-03-28T11:56:52.000Z</time>
      </trkpt>
      <trkpt lat="47.14905" lon="-1.7132">
        <ele>70</ele>
        <time>2021-03-28T11:56:54.000Z</time>
      </trkpt>
      <trkpt lat="47.14896" lon="-1.71308">
        <ele>71</ele>
        <time>2021-03-28T11:56:56.000Z</time>
      </trkpt>
      <trkpt lat="47.14886" lon="-1.71298">
        <ele>71</ele>
        <time>2021-03-28T11:56:58.000Z</time>
      </trkpt>
      <trkpt lat="47.14876" lon="-1.71288">
        <ele>71</ele>
        <time>2021-03-28T11:57:00.000Z</time>
      </trkpt>
      <trkpt lat="47.14866" lon="-1.71279">
        <ele>71</ele>
        <time>2021-03-28T11:57:02.000Z</time>
      </trkpt>
      <trkpt lat="47.14856" lon="-1.71268">
        <ele>71</ele>
        <time>2021-03-28T11:57:04.000Z</time>
      </trkpt>
      <trkpt lat="47.14848" lon="-1.71253">
        <ele>71</ele>
        <time>2021-03-28T11:57:06.000Z</time>
      </trkpt>
      <trkpt lat="47.14841" lon="-1.71237">
        <ele>71</ele>
        <time>2021-03-28T11:57:08.000Z</time>
      </trkpt>
      <trkpt lat="47.14835" lon="-1.7122">
        <ele>71</ele>
        <time>2021-03-28T11:57:10.000Z</time>
      </trkpt>
      <trkpt lat="47.14829" lon="-1.71204">
        <ele>71</ele>
        <time>2021-03-28T11:57:12.000Z</time>
      </trkpt>
      <trkpt lat="47.14823" lon="-1.71188">
        <ele>71</ele>
        <time>2021-03-28T11:57:14.000Z</time>
      </trkpt>
      <trkpt lat="47.14817" lon="-1.71171">
        <ele>71</ele>
        <time>2021-03-28T11:57:16.000Z</time>
      </trkpt>
      <trkpt lat="47.14811" lon="-1.71154">
        <ele>72</ele>
        <time>2021-03-28T11:57:18.000Z</time>
      </trkpt>
      <trkpt lat="47.14804" lon="-1.71138">
        <ele>72</ele>
        <time>2021-03-28T11:57:20.000Z</time>
      </trkpt>
      <trkpt lat="47.14797" lon="-1.71122">
        <ele>72</ele>
        <time>2021-03-28T11:57:22.000Z</time>
      </trkpt>
      <trkpt lat="47.1479" lon="-1.71106">
        <ele>72</ele>
        <time>2021-03-28T11:57:24.000Z</time>
      </trkpt>
      <trkpt lat="47.14783" lon="-1.71091">
        <ele>72</ele>
        <time>2021-03-28T11:57:26.000Z</time>
      </trkpt>
      <trkpt lat="47.14777" lon="-1.71075">
        <ele>72</ele>
        <time>2021-03-28T11:57:28.000Z</time>
      </trkpt>
      <trkpt lat="47.14771" lon="-1.71059">
        <ele>72</ele>
        <time>2021-03-28T11:57:30.000Z</time>
      </trkpt>
      <trkpt lat="47.14766" lon="-1.71041">
        <ele>72</ele>
        <time>2021-03-28T11:57:32.000Z</time>
      </trkpt>
      <trkpt lat="47.1476" lon="-1.71025">
        <ele>72</ele>
        <time>2021-03-28T11:57:34.000Z</time>
      </trkpt>
      <trkpt lat="47.14756" lon="-1.71008">
        <ele>71</ele>
        <time>2021-03-28T11:57:36.000Z</time>
      </trkpt>
      <trkpt lat="47.14751" lon="-1.70993">
        <ele>71</ele>
        <time>2021-03-28T11:57:38.000Z</time>
      </trkpt>
      <trkpt lat="47.14743" lon="-1.70981">
        <ele>71</ele>
        <time>2021-03-28T11:57:40.000Z</time>
      </trkpt>
      <trkpt lat="47.14733" lon="-1.70987">
        <ele>71</ele>
        <time>2021-03-28T11:57:42.000Z</time>
      </trkpt>
      <trkpt lat="47.14725" lon="-1.71">
        <ele>71</ele>
        <time>2021-03-28T11:57:44.000Z</time>
      </trkpt>
      <trkpt lat="47.14717" lon="-1.71013">
        <ele>71</ele>
        <time>2021-03-28T11:57:46.000Z</time>
      </trkpt>
      <trkpt lat="47.14714" lon="-1.7103">
        <ele>71</ele>
        <time>2021-03-28T11:57:48.000Z</time>
      </trkpt>
      <trkpt lat="47.14713" lon="-1.71048">
        <ele>70</ele>
        <time>2021-03-28T11:57:50.000Z</time>
      </trkpt>
      <trkpt lat="47.14714" lon="-1.71066">
        <ele>70</ele>
        <time>2021-03-28T11:57:52.000Z</time>
      </trkpt>
      <trkpt lat="47.14717" lon="-1.71084">
        <ele>70</ele>
        <time>2021-03-28T11:57:54.000Z</time>
      </trkpt>
      <trkpt lat="47.14719" lon="-1.71103">
        <ele>70</ele>
        <time>2021-03-28T11:57:56.000Z</time>
      </trkpt>
      <trkpt lat="47.14721" lon="-1.71121">
        <ele>70</ele>
        <time>2021-03-28T11:57:58.000Z</time>
      </trkpt>
      <trkpt lat="47.14723" lon="-1.7114">
        <ele>70</ele>
        <time>2021-03-28T11:58:00.000Z</time>
      </trkpt>
      <trkpt lat="47.14726" lon="-1.71159">
        <ele>70</ele>
        <time>2021-03-28T11:58:02.000Z</time>
      </trkpt>
      <trkpt lat="47.14729" lon="-1.71177">
        <ele>70</ele>
        <time>2021-03-28T11:58:04.000Z</time>
      </trkpt>
      <trkpt lat="47.14733" lon="-1.71195">
        <ele>70</ele>
        <time>2021-03-28T11:58:06.000Z</time>
      </trkpt>
      <trkpt lat="47.14738" lon="-1.71212">
        <ele>70</ele>
        <time>2021-03-28T11:58:08.000Z</time>
      </trkpt>
      <trkpt lat="47.14742" lon="-1.7123">
        <ele>70</ele>
        <time>2021-03-28T11:58:10.000Z</time>
      </trkpt>
      <trkpt lat="47.14746" lon="-1.71247">
        <ele>70</ele>
        <time>2021-03-28T11:58:12.000Z</time>
      </trkpt>
      <trkpt lat="47.14751" lon="-1.71264">
        <ele>70</ele>
        <time>2021-03-28T11:58:14.000Z</time>
      </trkpt>
      <trkpt lat="47.14755" lon="-1.71281">
        <ele>70</ele>
        <time>2021-03-28T11:58:16.000Z</time>
      </trkpt>
      <trkpt lat="47.14759" lon="-1.71298">
        <ele>70</ele>
        <time>2021-03-28T11:58:18.000Z</time>
      </trkpt>
      <trkpt lat="47.14763" lon="-1.71315">
        <ele>70</ele>
        <time>2021-03-28T11:58:20.000Z</time>
      </trkpt>
      <trkpt lat="47.14766" lon="-1.71333">
        <ele>70</ele>
        <time>2021-03-28T11:58:22.000Z</time>
      </trkpt>
      <trkpt lat="47.14769" lon="-1.71351">
        <ele>70</ele>
        <time>2021-03-28T11:58:24.000Z</time>
      </trkpt>
      <trkpt lat="47.14772" lon="-1.71369">
        <ele>71</ele>
        <time>2021-03-28T11:58:26.000Z</time>
      </trkpt>
      <trkpt lat="47.14774" lon="-1.71387">
        <ele>71</ele>
        <time>2021-03-28T11:58:28.000Z</time>
      </trkpt>
      <trkpt lat="47.14777" lon="-1.71404">
        <ele>72</ele>
        <time>2021-03-28T11:58:30.000Z</time>
      </trkpt>
      <trkpt lat="47.14779" lon="-1.71422">
        <ele>72</ele>
        <time>2021-03-28T11:58:32.000Z</time>
      </trkpt>
      <trkpt lat="47.14782" lon="-1.71439">
        <ele>72</ele>
        <time>2021-03-28T11:58:34.000Z</time>
      </trkpt>
      <trkpt lat="47.14784" lon="-1.71457">
        <ele>71</ele>
        <time>2021-03-28T11:58:36.000Z</time>
      </trkpt>
      <trkpt lat="47.14787" lon="-1.71475">
        <ele>72</ele>
        <time>2021-03-28T11:58:38.000Z</time>
      </trkpt>
      <trkpt lat="47.1479" lon="-1.71494">
        <ele>72</ele>
        <time>2021-03-28T11:58:40.000Z</time>
      </trkpt>
      <trkpt lat="47.14792" lon="-1.71513">
        <ele>72</ele>
        <time>2021-03-28T11:58:42.000Z</time>
      </trkpt>
      <trkpt lat="47.14793" lon="-1.71531">
        <ele>72</ele>
        <time>2021-03-28T11:58:44.000Z</time>
      </trkpt>
      <trkpt lat="47.14793" lon="-1.71549">
        <ele>72</ele>
        <time>2021-03-28T11:58:46.000Z</time>
      </trkpt>
      <trkpt lat="47.14792" lon="-1.71568">
        <ele>72</ele>
        <time>2021-03-28T11:58:48.000Z</time>
      </trkpt>
      <trkpt lat="47.1479" lon="-1.71586">
        <ele>72</ele>
        <time>2021-03-28T11:58:50.000Z</time>
      </trkpt>
      <trkpt lat="47.14787" lon="-1.71603">
        <ele>73</ele>
        <time>2021-03-28T11:58:52.000Z</time>
      </trkpt>
      <trkpt lat="47.14785" lon="-1.71621">
        <ele>72</ele>
        <time>2021-03-28T11:58:54.000Z</time>
      </trkpt>
      <trkpt lat="47.14782" lon="-1.71639">
        <ele>72</ele>
        <time>2021-03-28T11:58:56.000Z</time>
      </trkpt>
      <trkpt lat="47.14779" lon="-1.71656">
        <ele>73</ele>
        <time>2021-03-28T11:58:58.000Z</time>
      </trkpt>
      <trkpt lat="47.14777" lon="-1.71674">
        <ele>73</ele>
        <time>2021-03-28T11:59:00.000Z</time>
      </trkpt>
      <trkpt lat="47.14774" lon="-1.71691">
        <ele>73</ele>
        <time>2021-03-28T11:59:02.000Z</time>
      </trkpt>
      <trkpt lat="47.14771" lon="-1.71709">
        <ele>73</ele>
        <time>2021-03-28T11:59:04.000Z</time>
      </trkpt>
      <trkpt lat="47.14768" lon="-1.71727">
        <ele>73</ele>
        <time>2021-03-28T11:59:06.000Z</time>
      </trkpt>
      <trkpt lat="47.14765" lon="-1.71744">
        <ele>73</ele>
        <time>2021-03-28T11:59:08.000Z</time>
      </trkpt>
      <trkpt lat="47.14761" lon="-1.71761">
        <ele>73</ele>
        <time>2021-03-28T11:59:10.000Z</time>
      </trkpt>
      <trkpt lat="47.14757" lon="-1.71776">
        <ele>74</ele>
        <time>2021-03-28T11:59:12.000Z</time>
      </trkpt>
      <trkpt lat="47.1475" lon="-1.71791">
        <ele>74</ele>
        <time>2021-03-28T11:59:14.000Z</time>
      </trkpt>
      <trkpt lat="47.14741" lon="-1.71803">
        <ele>73</ele>
        <time>2021-03-28T11:59:16.000Z</time>
      </trkpt>
      <trkpt lat="47.14731" lon="-1.71814">
        <ele>73</ele>
        <time>2021-03-28T11:59:18.000Z</time>
      </trkpt>
      <trkpt lat="47.14719" lon="-1.71822">
        <ele>72</ele>
        <time>2021-03-28T11:59:20.000Z</time>
      </trkpt>
      <trkpt lat="47.14707" lon="-1.71829">
        <ele>72</ele>
        <time>2021-03-28T11:59:22.000Z</time>
      </trkpt>
      <trkpt lat="47.14695" lon="-1.71836">
        <ele>72</ele>
        <time>2021-03-28T11:59:24.000Z</time>
      </trkpt>
      <trkpt lat="47.14683" lon="-1.71841">
        <ele>72</ele>
        <time>2021-03-28T11:59:26.000Z</time>
      </trkpt>
      <trkpt lat="47.1467" lon="-1.71847">
        <ele>72</ele>
        <time>2021-03-28T11:59:28.000Z</time>
      </trkpt>
      <trkpt lat="47.14658" lon="-1.71852">
        <ele>72</ele>
        <time>2021-03-28T11:59:30.000Z</time>
      </trkpt>
      <trkpt lat="47.14645" lon="-1.71855">
        <ele>72</ele>
        <time>2021-03-28T11:59:32.000Z</time>
      </trkpt>
      <trkpt lat="47.14632" lon="-1.71856">
        <ele>72</ele>
        <time>2021-03-28T11:59:34.000Z</time>
      </trkpt>
      <trkpt lat="47.14619" lon="-1.71856">
        <ele>72</ele>
        <time>2021-03-28T11:59:36.000Z</time>
      </trkpt>
      <trkpt lat="47.14606" lon="-1.71853">
        <ele>71</ele>
        <time>2021-03-28T11:59:38.000Z</time>
      </trkpt>
      <trkpt lat="47.14594" lon="-1.7185">
        <ele>71</ele>
        <time>2021-03-28T11:59:40.000Z</time>
      </trkpt>
      <trkpt lat="47.14582" lon="-1.71844">
        <ele>71</ele>
        <time>2021-03-28T11:59:42.000Z</time>
      </trkpt>
      <trkpt lat="47.1457" lon="-1.71839">
        <ele>71</ele>
        <time>2021-03-28T11:59:44.000Z</time>
      </trkpt>
      <trkpt lat="47.14558" lon="-1.71833">
        <ele>70</ele>
        <time>2021-03-28T11:59:46.000Z</time>
      </trkpt>
      <trkpt lat="47.14546" lon="-1.71827">
        <ele>70</ele>
        <time>2021-03-28T11:59:48.000Z</time>
      </trkpt>
      <trkpt lat="47.14534" lon="-1.71822">
        <ele>70</ele>
        <time>2021-03-28T11:59:50.000Z</time>
      </trkpt>
      <trkpt lat="47.14522" lon="-1.71816">
        <ele>70</ele>
        <time>2021-03-28T11:59:52.000Z</time>
      </trkpt>
      <trkpt lat="47.14509" lon="-1.7181">
        <ele>69</ele>
        <time>2021-03-28T11:59:54.000Z</time>
      </trkpt>
      <trkpt lat="47.14498" lon="-1.71804">
        <ele>69</ele>
        <time>2021-03-28T11:59:56.000Z</time>
      </trkpt>
      <trkpt lat="47.14486" lon="-1.71799">
        <ele>69</ele>
        <time>2021-03-28T11:59:58.000Z</time>
      </trkpt>
      <trkpt lat="47.14475" lon="-1.71793">
        <ele>69</ele>
        <time>2021-03-28T12:00:00.000Z</time>
      </trkpt>
      <trkpt lat="47.14464" lon="-1.71788">
        <ele>69</ele>
        <time>2021-03-28T12:00:02.000Z</time>
      </trkpt>
      <trkpt lat="47.14452" lon="-1.71784">
        <ele>69</ele>
        <time>2021-03-28T12:00:04.000Z</time>
      </trkpt>
      <trkpt lat="47.1444" lon="-1.71782">
        <ele>69</ele>
        <time>2021-03-28T12:00:06.000Z</time>
      </trkpt>
      <trkpt lat="47.14427" lon="-1.7178">
        <ele>69</ele>
        <time>2021-03-28T12:00:08.000Z</time>
      </trkpt>
      <trkpt lat="47.14414" lon="-1.7178">
        <ele>69</ele>
        <time>2021-03-28T12:00:10.000Z</time>
      </trkpt>
      <trkpt lat="47.14402" lon="-1.71782">
        <ele>69</ele>
        <time>2021-03-28T12:00:12.000Z</time>
      </trkpt>
      <trkpt lat="47.1439" lon="-1.71784">
        <ele>68</ele>
        <time>2021-03-28T12:00:14.000Z</time>
      </trkpt>
      <trkpt lat="47.14378" lon="-1.71787">
        <ele>68</ele>
        <time>2021-03-28T12:00:16.000Z</time>
      </trkpt>
      <trkpt lat="47.14366" lon="-1.71791">
        <ele>67</ele>
        <time>2021-03-28T12:00:18.000Z</time>
      </trkpt>
      <trkpt lat="47.14354" lon="-1.71795">
        <ele>67</ele>
        <time>2021-03-28T12:00:20.000Z</time>
      </trkpt>
      <trkpt lat="47.14342" lon="-1.71799">
        <ele>67</ele>
        <time>2021-03-28T12:00:22.000Z</time>
      </trkpt>
      <trkpt lat="47.1433" lon="-1.71803">
        <ele>67</ele>
        <time>2021-03-28T12:00:24.000Z</time>
      </trkpt>
      <trkpt lat="47.14317" lon="-1.71808">
        <ele>67</ele>
        <time>2021-03-28T12:00:26.000Z</time>
      </trkpt>
      <trkpt lat="47.14304" lon="-1.71812">
        <ele>67</ele>
        <time>2021-03-28T12:00:28.000Z</time>
      </trkpt>
      <trkpt lat="47.14291" lon="-1.71817">
        <ele>67</ele>
        <time>2021-03-28T12:00:30.000Z</time>
      </trkpt>
      <trkpt lat="47.14278" lon="-1.71821">
        <ele>67</ele>
        <time>2021-03-28T12:00:32.000Z</time>
      </trkpt>
      <trkpt lat="47.14265" lon="-1.71826">
        <ele>66</ele>
        <time>2021-03-28T12:00:34.000Z</time>
      </trkpt>
      <trkpt lat="47.14252" lon="-1.7183">
        <ele>66</ele>
        <time>2021-03-28T12:00:36.000Z</time>
      </trkpt>
      <trkpt lat="47.14239" lon="-1.71834">
        <ele>66</ele>
        <time>2021-03-28T12:00:38.000Z</time>
      </trkpt>
      <trkpt lat="47.14226" lon="-1.71839">
        <ele>66</ele>
        <time>2021-03-28T12:00:40.000Z</time>
      </trkpt>
      <trkpt lat="47.14213" lon="-1.71844">
        <ele>66</ele>
        <time>2021-03-28T12:00:42.000Z</time>
      </trkpt>
      <trkpt lat="47.14201" lon="-1.71847">
        <ele>66</ele>
        <time>2021-03-28T12:00:44.000Z</time>
      </trkpt>
      <trkpt lat="47.14188" lon="-1.71851">
        <ele>65</ele>
        <time>2021-03-28T12:00:46.000Z</time>
      </trkpt>
      <trkpt lat="47.14174" lon="-1.71855">
        <ele>65</ele>
        <time>2021-03-28T12:00:48.000Z</time>
      </trkpt>
      <trkpt lat="47.14161" lon="-1.7186">
        <ele>65</ele>
        <time>2021-03-28T12:00:50.000Z</time>
      </trkpt>
      <trkpt lat="47.14147" lon="-1.71865">
        <ele>64</ele>
        <time>2021-03-28T12:00:52.000Z</time>
      </trkpt>
      <trkpt lat="47.14133" lon="-1.71869">
        <ele>63</ele>
        <time>2021-03-28T12:00:54.000Z</time>
      </trkpt>
      <trkpt lat="47.14119" lon="-1.71874">
        <ele>62</ele>
        <time>2021-03-28T12:00:56.000Z</time>
      </trkpt>
      <trkpt lat="47.14104" lon="-1.7188">
        <ele>62</ele>
        <time>2021-03-28T12:00:58.000Z</time>
      </trkpt>
      <trkpt lat="47.14088" lon="-1.71885">
        <ele>61</ele>
        <time>2021-03-28T12:01:00.000Z</time>
      </trkpt>
      <trkpt lat="47.14073" lon="-1.7189">
        <ele>60</ele>
        <time>2021-03-28T12:01:02.000Z</time>
      </trkpt>
      <trkpt lat="47.14058" lon="-1.71894">
        <ele>59</ele>
        <time>2021-03-28T12:01:04.000Z</time>
      </trkpt>
      <trkpt lat="47.14043" lon="-1.71899">
        <ele>59</ele>
        <time>2021-03-28T12:01:06.000Z</time>
      </trkpt>
      <trkpt lat="47.14028" lon="-1.71904">
        <ele>58</ele>
        <time>2021-03-28T12:01:08.000Z</time>
      </trkpt>
      <trkpt lat="47.14013" lon="-1.71906">
        <ele>57</ele>
        <time>2021-03-28T12:01:10.000Z</time>
      </trkpt>
      <trkpt lat="47.13996" lon="-1.71902">
        <ele>55</ele>
        <time>2021-03-28T12:01:12.000Z</time>
      </trkpt>
      <trkpt lat="47.13979" lon="-1.719">
        <ele>55</ele>
        <time>2021-03-28T12:01:14.000Z</time>
      </trkpt>
      <trkpt lat="47.13966" lon="-1.71912">
        <ele>54</ele>
        <time>2021-03-28T12:01:16.000Z</time>
      </trkpt>
      <trkpt lat="47.13967" lon="-1.71933">
        <ele>54</ele>
        <time>2021-03-28T12:01:18.000Z</time>
      </trkpt>
      <trkpt lat="47.13964" lon="-1.71953">
        <ele>54</ele>
        <time>2021-03-28T12:01:20.000Z</time>
      </trkpt>
      <trkpt lat="47.13956" lon="-1.71967">
        <ele>55</ele>
        <time>2021-03-28T12:01:22.000Z</time>
      </trkpt>
      <trkpt lat="47.13944" lon="-1.71975">
        <ele>55</ele>
        <time>2021-03-28T12:01:24.000Z</time>
      </trkpt>
      <trkpt lat="47.13932" lon="-1.71982">
        <ele>56</ele>
        <time>2021-03-28T12:01:26.000Z</time>
      </trkpt>
      <trkpt lat="47.1392" lon="-1.71987">
        <ele>56</ele>
        <time>2021-03-28T12:01:28.000Z</time>
      </trkpt>
      <trkpt lat="47.13909" lon="-1.71994">
        <ele>56</ele>
        <time>2021-03-28T12:01:30.000Z</time>
      </trkpt>
      <trkpt lat="47.13898" lon="-1.72">
        <ele>57</ele>
        <time>2021-03-28T12:01:32.000Z</time>
      </trkpt>
      <trkpt lat="47.13887" lon="-1.72007">
        <ele>57</ele>
        <time>2021-03-28T12:01:34.000Z</time>
      </trkpt>
      <trkpt lat="47.13877" lon="-1.72016">
        <ele>57</ele>
        <time>2021-03-28T12:01:36.000Z</time>
      </trkpt>
      <trkpt lat="47.13868" lon="-1.72028">
        <ele>57</ele>
        <time>2021-03-28T12:01:38.000Z</time>
      </trkpt>
      <trkpt lat="47.13859" lon="-1.7204">
        <ele>58</ele>
        <time>2021-03-28T12:01:40.000Z</time>
      </trkpt>
      <trkpt lat="47.13851" lon="-1.72053">
        <ele>58</ele>
        <time>2021-03-28T12:01:42.000Z</time>
      </trkpt>
      <trkpt lat="47.13844" lon="-1.72066">
        <ele>58</ele>
        <time>2021-03-28T12:01:44.000Z</time>
      </trkpt>
      <trkpt lat="47.13836" lon="-1.72078">
        <ele>59</ele>
        <time>2021-03-28T12:01:46.000Z</time>
      </trkpt>
      <trkpt lat="47.13829" lon="-1.72091">
        <ele>59</ele>
        <time>2021-03-28T12:01:48.000Z</time>
      </trkpt>
      <trkpt lat="47.13821" lon="-1.72103">
        <ele>60</ele>
        <time>2021-03-28T12:01:50.000Z</time>
      </trkpt>
      <trkpt lat="47.13813" lon="-1.72115">
        <ele>60</ele>
        <time>2021-03-28T12:01:52.000Z</time>
      </trkpt>
      <trkpt lat="47.13806" lon="-1.72128">
        <ele>60</ele>
        <time>2021-03-28T12:01:54.000Z</time>
      </trkpt>
      <trkpt lat="47.13798" lon="-1.7214">
        <ele>61</ele>
        <time>2021-03-28T12:01:56.000Z</time>
      </trkpt>
      <trkpt lat="47.13791" lon="-1.72152">
        <ele>61</ele>
        <time>2021-03-28T12:01:58.000Z</time>
      </trkpt>
      <trkpt lat="47.13784" lon="-1.72165">
        <ele>61</ele>
        <time>2021-03-28T12:02:00.000Z</time>
      </trkpt>
      <trkpt lat="47.13776" lon="-1.72178">
        <ele>62</ele>
        <time>2021-03-28T12:02:02.000Z</time>
      </trkpt>
      <trkpt lat="47.1377" lon="-1.7219">
        <ele>62</ele>
        <time>2021-03-28T12:02:04.000Z</time>
      </trkpt>
      <trkpt lat="47.13762" lon="-1.72204">
        <ele>63</ele>
        <time>2021-03-28T12:02:06.000Z</time>
      </trkpt>
      <trkpt lat="47.13755" lon="-1.72216">
        <ele>63</ele>
        <time>2021-03-28T12:02:08.000Z</time>
      </trkpt>
      <trkpt lat="47.13749" lon="-1.72229">
        <ele>63</ele>
        <time>2021-03-28T12:02:10.000Z</time>
      </trkpt>
      <trkpt lat="47.13744" lon="-1.72242">
        <ele>63</ele>
        <time>2021-03-28T12:02:12.000Z</time>
      </trkpt>
      <trkpt lat="47.1374" lon="-1.72257">
        <ele>64</ele>
        <time>2021-03-28T12:02:14.000Z</time>
      </trkpt>
      <trkpt lat="47.13738" lon="-1.72272">
        <ele>64</ele>
        <time>2021-03-28T12:02:16.000Z</time>
      </trkpt>
      <trkpt lat="47.13736" lon="-1.72287">
        <ele>65</ele>
        <time>2021-03-28T12:02:18.000Z</time>
      </trkpt>
      <trkpt lat="47.13734" lon="-1.72302">
        <ele>65</ele>
        <time>2021-03-28T12:02:20.000Z</time>
      </trkpt>
      <trkpt lat="47.13732" lon="-1.72317">
        <ele>66</ele>
        <time>2021-03-28T12:02:22.000Z</time>
      </trkpt>
      <trkpt lat="47.1373" lon="-1.72332">
        <ele>66</ele>
        <time>2021-03-28T12:02:24.000Z</time>
      </trkpt>
      <trkpt lat="47.13728" lon="-1.72347">
        <ele>67</ele>
        <time>2021-03-28T12:02:26.000Z</time>
      </trkpt>
      <trkpt lat="47.13725" lon="-1.72361">
        <ele>67</ele>
        <time>2021-03-28T12:02:28.000Z</time>
      </trkpt>
      <trkpt lat="47.13721" lon="-1.72376">
        <ele>68</ele>
        <time>2021-03-28T12:02:30.000Z</time>
      </trkpt>
      <trkpt lat="47.13718" lon="-1.7239">
        <ele>68</ele>
        <time>2021-03-28T12:02:32.000Z</time>
      </trkpt>
      <trkpt lat="47.13714" lon="-1.72404">
        <ele>68</ele>
        <time>2021-03-28T12:02:34.000Z</time>
      </trkpt>
      <trkpt lat="47.1371" lon="-1.72418">
        <ele>68</ele>
        <time>2021-03-28T12:02:36.000Z</time>
      </trkpt>
      <trkpt lat="47.13706" lon="-1.72432">
        <ele>68</ele>
        <time>2021-03-28T12:02:38.000Z</time>
      </trkpt>
      <trkpt lat="47.13702" lon="-1.72446">
        <ele>68</ele>
        <time>2021-03-28T12:02:40.000Z</time>
      </trkpt>
      <trkpt lat="47.13698" lon="-1.7246">
        <ele>68</ele>
        <time>2021-03-28T12:02:42.000Z</time>
      </trkpt>
      <trkpt lat="47.13693" lon="-1.72475">
        <ele>68</ele>
        <time>2021-03-28T12:02:44.000Z</time>
      </trkpt>
      <trkpt lat="47.1369" lon="-1.7249">
        <ele>68</ele>
        <time>2021-03-28T12:02:46.000Z</time>
      </trkpt>
      <trkpt lat="47.13686" lon="-1.72506">
        <ele>68</ele>
        <time>2021-03-28T12:02:48.000Z</time>
      </trkpt>
      <trkpt lat="47.13683" lon="-1.72522">
        <ele>68</ele>
        <time>2021-03-28T12:02:50.000Z</time>
      </trkpt>
      <trkpt lat="47.13681" lon="-1.72539">
        <ele>68</ele>
        <time>2021-03-28T12:02:52.000Z</time>
      </trkpt>
      <trkpt lat="47.1368" lon="-1.72556">
        <ele>68</ele>
        <time>2021-03-28T12:02:54.000Z</time>
      </trkpt>
      <trkpt lat="47.13679" lon="-1.72571">
        <ele>68</ele>
        <time>2021-03-28T12:02:56.000Z</time>
      </trkpt>
      <trkpt lat="47.13679" lon="-1.72587">
        <ele>68</ele>
        <time>2021-03-28T12:02:58.000Z</time>
      </trkpt>
      <trkpt lat="47.13678" lon="-1.72602">
        <ele>68</ele>
        <time>2021-03-28T12:03:00.000Z</time>
      </trkpt>
      <trkpt lat="47.13677" lon="-1.72617">
        <ele>68</ele>
        <time>2021-03-28T12:03:02.000Z</time>
      </trkpt>
      <trkpt lat="47.13675" lon="-1.72633">
        <ele>69</ele>
        <time>2021-03-28T12:03:04.000Z</time>
      </trkpt>
      <trkpt lat="47.13673" lon="-1.72649">
        <ele>69</ele>
        <time>2021-03-28T12:03:06.000Z</time>
      </trkpt>
      <trkpt lat="47.1367" lon="-1.72664">
        <ele>69</ele>
        <time>2021-03-28T12:03:08.000Z</time>
      </trkpt>
      <trkpt lat="47.13668" lon="-1.72679">
        <ele>69</ele>
        <time>2021-03-28T12:03:10.000Z</time>
      </trkpt>
      <trkpt lat="47.13665" lon="-1.72695">
        <ele>69</ele>
        <time>2021-03-28T12:03:12.000Z</time>
      </trkpt>
      <trkpt lat="47.13664" lon="-1.7271">
        <ele>69</ele>
        <time>2021-03-28T12:03:14.000Z</time>
      </trkpt>
      <trkpt lat="47.13663" lon="-1.72724">
        <ele>69</ele>
        <time>2021-03-28T12:03:16.000Z</time>
      </trkpt>
      <trkpt lat="47.13661" lon="-1.72739">
        <ele>69</ele>
        <time>2021-03-28T12:03:18.000Z</time>
      </trkpt>
      <trkpt lat="47.1366" lon="-1.72755">
        <ele>69</ele>
        <time>2021-03-28T12:03:20.000Z</time>
      </trkpt>
      <trkpt lat="47.13659" lon="-1.72771">
        <ele>69</ele>
        <time>2021-03-28T12:03:22.000Z</time>
      </trkpt>
      <trkpt lat="47.13658" lon="-1.72787">
        <ele>69</ele>
        <time>2021-03-28T12:03:24.000Z</time>
      </trkpt>
      <trkpt lat="47.13657" lon="-1.72802">
        <ele>68</ele>
        <time>2021-03-28T12:03:26.000Z</time>
      </trkpt>
      <trkpt lat="47.13655" lon="-1.72819">
        <ele>68</ele>
        <time>2021-03-28T12:03:28.000Z</time>
      </trkpt>
      <trkpt lat="47.13654" lon="-1.72835">
        <ele>67</ele>
        <time>2021-03-28T12:03:30.000Z</time>
      </trkpt>
      <trkpt lat="47.13653" lon="-1.72852">
        <ele>67</ele>
        <time>2021-03-28T12:03:32.000Z</time>
      </trkpt>
      <trkpt lat="47.13651" lon="-1.7287">
        <ele>67</ele>
        <time>2021-03-28T12:03:34.000Z</time>
      </trkpt>
      <trkpt lat="47.13648" lon="-1.7289">
        <ele>66</ele>
        <time>2021-03-28T12:03:36.000Z</time>
      </trkpt>
      <trkpt lat="47.13646" lon="-1.72911">
        <ele>66</ele>
        <time>2021-03-28T12:03:38.000Z</time>
      </trkpt>
      <trkpt lat="47.13644" lon="-1.72933">
        <ele>65</ele>
        <time>2021-03-28T12:03:40.000Z</time>
      </trkpt>
      <trkpt lat="47.13643" lon="-1.72955">
        <ele>64</ele>
        <time>2021-03-28T12:03:42.000Z</time>
      </trkpt>
      <trkpt lat="47.13641" lon="-1.72977">
        <ele>63</ele>
        <time>2021-03-28T12:03:44.000Z</time>
      </trkpt>
      <trkpt lat="47.13639" lon="-1.73001">
        <ele>62</ele>
        <time>2021-03-28T12:03:46.000Z</time>
      </trkpt>
      <trkpt lat="47.13635" lon="-1.73025">
        <ele>61</ele>
        <time>2021-03-28T12:03:48.000Z</time>
      </trkpt>
      <trkpt lat="47.13625" lon="-1.73045">
        <ele>60</ele>
        <time>2021-03-28T12:03:50.000Z</time>
      </trkpt>
      <trkpt lat="47.13612" lon="-1.73058">
        <ele>60</ele>
        <time>2021-03-28T12:03:52.000Z</time>
      </trkpt>
      <trkpt lat="47.136" lon="-1.7307">
        <ele>59</ele>
        <time>2021-03-28T12:03:54.000Z</time>
      </trkpt>
      <trkpt lat="47.13587" lon="-1.7308">
        <ele>59</ele>
        <time>2021-03-28T12:03:56.000Z</time>
      </trkpt>
      <trkpt lat="47.13575" lon="-1.7309">
        <ele>59</ele>
        <time>2021-03-28T12:03:58.000Z</time>
      </trkpt>
      <trkpt lat="47.13565" lon="-1.73102">
        <ele>59</ele>
        <time>2021-03-28T12:04:00.000Z</time>
      </trkpt>
      <trkpt lat="47.13554" lon="-1.73113">
        <ele>59</ele>
        <time>2021-03-28T12:04:02.000Z</time>
      </trkpt>
      <trkpt lat="47.13544" lon="-1.73124">
        <ele>58</ele>
        <time>2021-03-28T12:04:04.000Z</time>
      </trkpt>
      <trkpt lat="47.13533" lon="-1.73135">
        <ele>58</ele>
        <time>2021-03-28T12:04:06.000Z</time>
      </trkpt>
      <trkpt lat="47.13523" lon="-1.73149">
        <ele>57</ele>
        <time>2021-03-28T12:04:08.000Z</time>
      </trkpt>
      <trkpt lat="47.13516" lon="-1.73165">
        <ele>57</ele>
        <time>2021-03-28T12:04:10.000Z</time>
      </trkpt>
      <trkpt lat="47.13513" lon="-1.73184">
        <ele>57</ele>
        <time>2021-03-28T12:04:12.000Z</time>
      </trkpt>
      <trkpt lat="47.1351" lon="-1.73205">
        <ele>56</ele>
        <time>2021-03-28T12:04:14.000Z</time>
      </trkpt>
      <trkpt lat="47.13507" lon="-1.73226">
        <ele>56</ele>
        <time>2021-03-28T12:04:16.000Z</time>
      </trkpt>
      <trkpt lat="47.13505" lon="-1.73248">
        <ele>56</ele>
        <time>2021-03-28T12:04:18.000Z</time>
      </trkpt>
      <trkpt lat="47.13503" lon="-1.73269">
        <ele>55</ele>
        <time>2021-03-28T12:04:20.000Z</time>
      </trkpt>
      <trkpt lat="47.13502" lon="-1.7329">
        <ele>55</ele>
        <time>2021-03-28T12:04:22.000Z</time>
      </trkpt>
      <trkpt lat="47.13505" lon="-1.73309">
        <ele>55</ele>
        <time>2021-03-28T12:04:24.000Z</time>
      </trkpt>
      <trkpt lat="47.1351" lon="-1.73328">
        <ele>55</ele>
        <time>2021-03-28T12:04:26.000Z</time>
      </trkpt>
      <trkpt lat="47.13515" lon="-1.73346">
        <ele>56</ele>
        <time>2021-03-28T12:04:28.000Z</time>
      </trkpt>
      <trkpt lat="47.1352" lon="-1.73363">
        <ele>56</ele>
        <time>2021-03-28T12:04:30.000Z</time>
      </trkpt>
      <trkpt lat="47.13527" lon="-1.7338">
        <ele>57</ele>
        <time>2021-03-28T12:04:32.000Z</time>
      </trkpt>
      <trkpt lat="47.13533" lon="-1.73395">
        <ele>57</ele>
        <time>2021-03-28T12:04:34.000Z</time>
      </trkpt>
      <trkpt lat="47.13538" lon="-1.73412">
        <ele>57</ele>
        <time>2021-03-28T12:04:36.000Z</time>
      </trkpt>
      <trkpt lat="47.13543" lon="-1.73429">
        <ele>57</ele>
        <time>2021-03-28T12:04:38.000Z</time>
      </trkpt>
      <trkpt lat="47.13548" lon="-1.73446">
        <ele>57</ele>
        <time>2021-03-28T12:04:40.000Z</time>
      </trkpt>
      <trkpt lat="47.13553" lon="-1.73463">
        <ele>57</ele>
        <time>2021-03-28T12:04:42.000Z</time>
      </trkpt>
      <trkpt lat="47.13558" lon="-1.73479">
        <ele>58</ele>
        <time>2021-03-28T12:04:44.000Z</time>
      </trkpt>
      <trkpt lat="47.13562" lon="-1.73496">
        <ele>58</ele>
        <time>2021-03-28T12:04:46.000Z</time>
      </trkpt>
      <trkpt lat="47.13567" lon="-1.73513">
        <ele>58</ele>
        <time>2021-03-28T12:04:48.000Z</time>
      </trkpt>
      <trkpt lat="47.13572" lon="-1.73531">
        <ele>58</ele>
        <time>2021-03-28T12:04:50.000Z</time>
      </trkpt>
      <trkpt lat="47.13577" lon="-1.73548">
        <ele>57</ele>
        <time>2021-03-28T12:04:52.000Z</time>
      </trkpt>
      <trkpt lat="47.13582" lon="-1.73565">
        <ele>57</ele>
        <time>2021-03-28T12:04:54.000Z</time>
      </trkpt>
      <trkpt lat="47.13589" lon="-1.73582">
        <ele>57</ele>
        <time>2021-03-28T12:04:56.000Z</time>
      </trkpt>
      <trkpt lat="47.13595" lon="-1.73599">
        <ele>57</ele>
        <time>2021-03-28T12:04:58.000Z</time>
      </trkpt>
      <trkpt lat="47.13602" lon="-1.73616">
        <ele>57</ele>
        <time>2021-03-28T12:05:00.000Z</time>
      </trkpt>
      <trkpt lat="47.13608" lon="-1.73634">
        <ele>57</ele>
        <time>2021-03-28T12:05:02.000Z</time>
      </trkpt>
      <trkpt lat="47.13614" lon="-1.73651">
        <ele>57</ele>
        <time>2021-03-28T12:05:04.000Z</time>
      </trkpt>
      <trkpt lat="47.13619" lon="-1.73669">
        <ele>57</ele>
        <time>2021-03-28T12:05:06.000Z</time>
      </trkpt>
      <trkpt lat="47.13626" lon="-1.73688">
        <ele>57</ele>
        <time>2021-03-28T12:05:08.000Z</time>
      </trkpt>
      <trkpt lat="47.1363" lon="-1.73707">
        <ele>56</ele>
        <time>2021-03-28T12:05:10.000Z</time>
      </trkpt>
      <trkpt lat="47.13634" lon="-1.73727">
        <ele>56</ele>
        <time>2021-03-28T12:05:12.000Z</time>
      </trkpt>
      <trkpt lat="47.13636" lon="-1.73747">
        <ele>56</ele>
        <time>2021-03-28T12:05:14.000Z</time>
      </trkpt>
      <trkpt lat="47.13639" lon="-1.73769">
        <ele>55</ele>
        <time>2021-03-28T12:05:16.000Z</time>
      </trkpt>
      <trkpt lat="47.1364" lon="-1.73793">
        <ele>55</ele>
        <time>2021-03-28T12:05:18.000Z</time>
      </trkpt>
      <trkpt lat="47.13641" lon="-1.73817">
        <ele>55</ele>
        <time>2021-03-28T12:05:20.000Z</time>
      </trkpt>
      <trkpt lat="47.13643" lon="-1.7384">
        <ele>54</ele>
        <time>2021-03-28T12:05:22.000Z</time>
      </trkpt>
      <trkpt lat="47.13644" lon="-1.73862">
        <ele>54</ele>
        <time>2021-03-28T12:05:24.000Z</time>
      </trkpt>
      <trkpt lat="47.13645" lon="-1.73884">
        <ele>55</ele>
        <time>2021-03-28T12:05:26.000Z</time>
      </trkpt>
      <trkpt lat="47.13646" lon="-1.73903">
        <ele>56</ele>
        <time>2021-03-28T12:05:28.000Z</time>
      </trkpt>
      <trkpt lat="47.13647" lon="-1.73921">
        <ele>56</ele>
        <time>2021-03-28T12:05:30.000Z</time>
      </trkpt>
      <trkpt lat="47.13648" lon="-1.73939">
        <ele>57</ele>
        <time>2021-03-28T12:05:32.000Z</time>
      </trkpt>
      <trkpt lat="47.13649" lon="-1.73957">
        <ele>57</ele>
        <time>2021-03-28T12:05:34.000Z</time>
      </trkpt>
      <trkpt lat="47.13649" lon="-1.73975">
        <ele>58</ele>
        <time>2021-03-28T12:05:36.000Z</time>
      </trkpt>
      <trkpt lat="47.13649" lon="-1.73993">
        <ele>58</ele>
        <time>2021-03-28T12:05:38.000Z</time>
      </trkpt>
      <trkpt lat="47.13647" lon="-1.74012">
        <ele>59</ele>
        <time>2021-03-28T12:05:40.000Z</time>
      </trkpt>
      <trkpt lat="47.13645" lon="-1.74031">
        <ele>60</ele>
        <time>2021-03-28T12:05:42.000Z</time>
      </trkpt>
      <trkpt lat="47.13643" lon="-1.74049">
        <ele>60</ele>
        <time>2021-03-28T12:05:44.000Z</time>
      </trkpt>
      <trkpt lat="47.13642" lon="-1.74068">
        <ele>61</ele>
        <time>2021-03-28T12:05:46.000Z</time>
      </trkpt>
      <trkpt lat="47.13642" lon="-1.74088">
        <ele>61</ele>
        <time>2021-03-28T12:05:48.000Z</time>
      </trkpt>
      <trkpt lat="47.13642" lon="-1.74107">
        <ele>61</ele>
        <time>2021-03-28T12:05:50.000Z</time>
      </trkpt>
      <trkpt lat="47.13644" lon="-1.74126">
        <ele>61</ele>
        <time>2021-03-28T12:05:52.000Z</time>
      </trkpt>
      <trkpt lat="47.13647" lon="-1.74145">
        <ele>61</ele>
        <time>2021-03-28T12:05:54.000Z</time>
      </trkpt>
      <trkpt lat="47.13651" lon="-1.74163">
        <ele>61</ele>
        <time>2021-03-28T12:05:56.000Z</time>
      </trkpt>
      <trkpt lat="47.13655" lon="-1.74181">
        <ele>61</ele>
        <time>2021-03-28T12:05:58.000Z</time>
      </trkpt>
      <trkpt lat="47.13659" lon="-1.742">
        <ele>61</ele>
        <time>2021-03-28T12:06:00.000Z</time>
      </trkpt>
      <trkpt lat="47.13663" lon="-1.74218">
        <ele>61</ele>
        <time>2021-03-28T12:06:02.000Z</time>
      </trkpt>
      <trkpt lat="47.13668" lon="-1.74236">
        <ele>60</ele>
        <time>2021-03-28T12:06:04.000Z</time>
      </trkpt>
      <trkpt lat="47.13672" lon="-1.74254">
        <ele>60</ele>
        <time>2021-03-28T12:06:06.000Z</time>
      </trkpt>
      <trkpt lat="47.13677" lon="-1.74271">
        <ele>60</ele>
        <time>2021-03-28T12:06:08.000Z</time>
      </trkpt>
      <trkpt lat="47.13684" lon="-1.74289">
        <ele>59</ele>
        <time>2021-03-28T12:06:10.000Z</time>
      </trkpt>
      <trkpt lat="47.1369" lon="-1.74307">
        <ele>58</ele>
        <time>2021-03-28T12:06:12.000Z</time>
      </trkpt>
      <trkpt lat="47.13694" lon="-1.74327">
        <ele>58</ele>
        <time>2021-03-28T12:06:14.000Z</time>
      </trkpt>
      <trkpt lat="47.13695" lon="-1.74348">
        <ele>57</ele>
        <time>2021-03-28T12:06:16.000Z</time>
      </trkpt>
      <trkpt lat="47.13696" lon="-1.7437">
        <ele>57</ele>
        <time>2021-03-28T12:06:18.000Z</time>
      </trkpt>
      <trkpt lat="47.13696" lon="-1.74393">
        <ele>56</ele>
        <time>2021-03-28T12:06:20.000Z</time>
      </trkpt>
      <trkpt lat="47.13697" lon="-1.74416">
        <ele>55</ele>
        <time>2021-03-28T12:06:22.000Z</time>
      </trkpt>
      <trkpt lat="47.13697" lon="-1.7444">
        <ele>54</ele>
        <time>2021-03-28T12:06:24.000Z</time>
      </trkpt>
      <trkpt lat="47.1369" lon="-1.74463">
        <ele>52</ele>
        <time>2021-03-28T12:06:26.000Z</time>
      </trkpt>
      <trkpt lat="47.13677" lon="-1.74478">
        <ele>52</ele>
        <time>2021-03-28T12:06:28.000Z</time>
      </trkpt>
      <trkpt lat="47.13665" lon="-1.74491">
        <ele>51</ele>
        <time>2021-03-28T12:06:30.000Z</time>
      </trkpt>
      <trkpt lat="47.13653" lon="-1.74503">
        <ele>52</ele>
        <time>2021-03-28T12:06:32.000Z</time>
      </trkpt>
      <trkpt lat="47.13642" lon="-1.74514">
        <ele>52</ele>
        <time>2021-03-28T12:06:34.000Z</time>
      </trkpt>
      <trkpt lat="47.13631" lon="-1.74525">
        <ele>52</ele>
        <time>2021-03-28T12:06:36.000Z</time>
      </trkpt>
      <trkpt lat="47.13621" lon="-1.74535">
        <ele>52</ele>
        <time>2021-03-28T12:06:38.000Z</time>
      </trkpt>
      <trkpt lat="47.1361" lon="-1.74547">
        <ele>52</ele>
        <time>2021-03-28T12:06:40.000Z</time>
      </trkpt>
      <trkpt lat="47.13598" lon="-1.74559">
        <ele>51</ele>
        <time>2021-03-28T12:06:42.000Z</time>
      </trkpt>
      <trkpt lat="47.13586" lon="-1.74572">
        <ele>51</ele>
        <time>2021-03-28T12:06:44.000Z</time>
      </trkpt>
      <trkpt lat="47.13574" lon="-1.74585">
        <ele>50</ele>
        <time>2021-03-28T12:06:46.000Z</time>
      </trkpt>
      <trkpt lat="47.13561" lon="-1.74598">
        <ele>49</ele>
        <time>2021-03-28T12:06:48.000Z</time>
      </trkpt>
      <trkpt lat="47.13549" lon="-1.74611">
        <ele>49</ele>
        <time>2021-03-28T12:06:50.000Z</time>
      </trkpt>
      <trkpt lat="47.13537" lon="-1.74622">
        <ele>49</ele>
        <time>2021-03-28T12:06:52.000Z</time>
      </trkpt>
      <trkpt lat="47.13526" lon="-1.74632">
        <ele>49</ele>
        <time>2021-03-28T12:06:54.000Z</time>
      </trkpt>
      <trkpt lat="47.13516" lon="-1.74642">
        <ele>49</ele>
        <time>2021-03-28T12:06:56.000Z</time>
      </trkpt>
      <trkpt lat="47.13507" lon="-1.74652">
        <ele>49</ele>
        <time>2021-03-28T12:06:58.000Z</time>
      </trkpt>
      <trkpt lat="47.135" lon="-1.74665">
        <ele>50</ele>
        <time>2021-03-28T12:07:00.000Z</time>
      </trkpt>
      <trkpt lat="47.13494" lon="-1.74679">
        <ele>50</ele>
        <time>2021-03-28T12:07:02.000Z</time>
      </trkpt>
      <trkpt lat="47.13489" lon="-1.74693">
        <ele>50</ele>
        <time>2021-03-28T12:07:04.000Z</time>
      </trkpt>
      <trkpt lat="47.13485" lon="-1.74708">
        <ele>51</ele>
        <time>2021-03-28T12:07:06.000Z</time>
      </trkpt>
      <trkpt lat="47.13478" lon="-1.74723">
        <ele>52</ele>
        <time>2021-03-28T12:07:08.000Z</time>
      </trkpt>
      <trkpt lat="47.1347" lon="-1.74735">
        <ele>53</ele>
        <time>2021-03-28T12:07:10.000Z</time>
      </trkpt>
      <trkpt lat="47.1346" lon="-1.74746">
        <ele>54</ele>
        <time>2021-03-28T12:07:12.000Z</time>
      </trkpt>
      <trkpt lat="47.1345" lon="-1.74754">
        <ele>54</ele>
        <time>2021-03-28T12:07:14.000Z</time>
      </trkpt>
      <trkpt lat="47.13439" lon="-1.7476">
        <ele>54</ele>
        <time>2021-03-28T12:07:16.000Z</time>
      </trkpt>
      <trkpt lat="47.13429" lon="-1.74768">
        <ele>55</ele>
        <time>2021-03-28T12:07:18.000Z</time>
      </trkpt>
      <trkpt lat="47.13419" lon="-1.74776">
        <ele>54</ele>
        <time>2021-03-28T12:07:20.000Z</time>
      </trkpt>
      <trkpt lat="47.13409" lon="-1.74786">
        <ele>55</ele>
        <time>2021-03-28T12:07:22.000Z</time>
      </trkpt>
      <trkpt lat="47.134" lon="-1.74797">
        <ele>56</ele>
        <time>2021-03-28T12:07:24.000Z</time>
      </trkpt>
      <trkpt lat="47.13392" lon="-1.74808">
        <ele>56</ele>
        <time>2021-03-28T12:07:26.000Z</time>
      </trkpt>
      <trkpt lat="47.13386" lon="-1.7482">
        <ele>57</ele>
        <time>2021-03-28T12:07:28.000Z</time>
      </trkpt>
      <trkpt lat="47.13381" lon="-1.74834">
        <ele>57</ele>
        <time>2021-03-28T12:07:30.000Z</time>
      </trkpt>
      <trkpt lat="47.13377" lon="-1.74849">
        <ele>57</ele>
        <time>2021-03-28T12:07:32.000Z</time>
      </trkpt>
      <trkpt lat="47.13374" lon="-1.74864">
        <ele>57</ele>
        <time>2021-03-28T12:07:34.000Z</time>
      </trkpt>
      <trkpt lat="47.13371" lon="-1.7488">
        <ele>57</ele>
        <time>2021-03-28T12:07:36.000Z</time>
      </trkpt>
      <trkpt lat="47.13366" lon="-1.74894">
        <ele>58</ele>
        <time>2021-03-28T12:07:38.000Z</time>
      </trkpt>
      <trkpt lat="47.13361" lon="-1.74909">
        <ele>58</ele>
        <time>2021-03-28T12:07:40.000Z</time>
      </trkpt>
      <trkpt lat="47.13356" lon="-1.74923">
        <ele>59</ele>
        <time>2021-03-28T12:07:42.000Z</time>
      </trkpt>
      <trkpt lat="47.1335" lon="-1.74936">
        <ele>59</ele>
        <time>2021-03-28T12:07:44.000Z</time>
      </trkpt>
      <trkpt lat="47.13344" lon="-1.74948">
        <ele>59</ele>
        <time>2021-03-28T12:07:46.000Z</time>
      </trkpt>
      <trkpt lat="47.13338" lon="-1.74962">
        <ele>60</ele>
        <time>2021-03-28T12:07:48.000Z</time>
      </trkpt>
      <trkpt lat="47.13332" lon="-1.74974">
        <ele>60</ele>
        <time>2021-03-28T12:07:50.000Z</time>
      </trkpt>
      <trkpt lat="47.13324" lon="-1.74985">
        <ele>60</ele>
        <time>2021-03-28T12:07:52.000Z</time>
      </trkpt>
      <trkpt lat="47.13317" lon="-1.74995">
        <ele>59</ele>
        <time>2021-03-28T12:07:54.000Z</time>
      </trkpt>
      <trkpt lat="47.13309" lon="-1.75004">
        <ele>59</ele>
        <time>2021-03-28T12:07:56.000Z</time>
      </trkpt>
      <trkpt lat="47.133" lon="-1.75013">
        <ele>59</ele>
        <time>2021-03-28T12:07:58.000Z</time>
      </trkpt>
      <trkpt lat="47.13292" lon="-1.7502">
        <ele>60</ele>
        <time>2021-03-28T12:08:00.000Z</time>
      </trkpt>
      <trkpt lat="47.13283" lon="-1.75026">
        <ele>60</ele>
        <time>2021-03-28T12:08:02.000Z</time>
      </trkpt>
      <trkpt lat="47.13275" lon="-1.75034">
        <ele>61</ele>
        <time>2021-03-28T12:08:04.000Z</time>
      </trkpt>
      <trkpt lat="47.13265" lon="-1.75041">
        <ele>61</ele>
        <time>2021-03-28T12:08:06.000Z</time>
      </trkpt>
      <trkpt lat="47.13256" lon="-1.75047">
        <ele>61</ele>
        <time>2021-03-28T12:08:08.000Z</time>
      </trkpt>
      <trkpt lat="47.13248" lon="-1.75055">
        <ele>61</ele>
        <time>2021-03-28T12:08:10.000Z</time>
      </trkpt>
      <trkpt lat="47.1324" lon="-1.75063">
        <ele>62</ele>
        <time>2021-03-28T12:08:12.000Z</time>
      </trkpt>
      <trkpt lat="47.13232" lon="-1.75071">
        <ele>62</ele>
        <time>2021-03-28T12:08:14.000Z</time>
      </trkpt>
      <trkpt lat="47.13223" lon="-1.7508">
        <ele>62</ele>
        <time>2021-03-28T12:08:16.000Z</time>
      </trkpt>
      <trkpt lat="47.13216" lon="-1.7509">
        <ele>63</ele>
        <time>2021-03-28T12:08:18.000Z</time>
      </trkpt>
      <trkpt lat="47.13209" lon="-1.75101">
        <ele>63</ele>
        <time>2021-03-28T12:08:20.000Z</time>
      </trkpt>
      <trkpt lat="47.13202" lon="-1.75112">
        <ele>63</ele>
        <time>2021-03-28T12:08:22.000Z</time>
      </trkpt>
      <trkpt lat="47.13196" lon="-1.75123">
        <ele>64</ele>
        <time>2021-03-28T12:08:24.000Z</time>
      </trkpt>
      <trkpt lat="47.1319" lon="-1.75135">
        <ele>64</ele>
        <time>2021-03-28T12:08:26.000Z</time>
      </trkpt>
      <trkpt lat="47.13183" lon="-1.75147">
        <ele>64</ele>
        <time>2021-03-28T12:08:28.000Z</time>
      </trkpt>
      <trkpt lat="47.13178" lon="-1.7516">
        <ele>64</ele>
        <time>2021-03-28T12:08:30.000Z</time>
      </trkpt>
      <trkpt lat="47.13172" lon="-1.75173">
        <ele>64</ele>
        <time>2021-03-28T12:08:32.000Z</time>
      </trkpt>
      <trkpt lat="47.13167" lon="-1.75186">
        <ele>64</ele>
        <time>2021-03-28T12:08:34.000Z</time>
      </trkpt>
      <trkpt lat="47.13162" lon="-1.752">
        <ele>64</ele>
        <time>2021-03-28T12:08:36.000Z</time>
      </trkpt>
      <trkpt lat="47.13159" lon="-1.75213">
        <ele>64</ele>
        <time>2021-03-28T12:08:38.000Z</time>
      </trkpt>
      <trkpt lat="47.13156" lon="-1.75228">
        <ele>64</ele>
        <time>2021-03-28T12:08:40.000Z</time>
      </trkpt>
      <trkpt lat="47.13153" lon="-1.75243">
        <ele>65</ele>
        <time>2021-03-28T12:08:42.000Z</time>
      </trkpt>
      <trkpt lat="47.13151" lon="-1.75258">
        <ele>65</ele>
        <time>2021-03-28T12:08:44.000Z</time>
      </trkpt>
      <trkpt lat="47.13149" lon="-1.75273">
        <ele>65</ele>
        <time>2021-03-28T12:08:46.000Z</time>
      </trkpt>
      <trkpt lat="47.13148" lon="-1.75288">
        <ele>65</ele>
        <time>2021-03-28T12:08:48.000Z</time>
      </trkpt>
      <trkpt lat="47.13145" lon="-1.75302">
        <ele>65</ele>
        <time>2021-03-28T12:08:50.000Z</time>
      </trkpt>
      <trkpt lat="47.1314" lon="-1.75317">
        <ele>65</ele>
        <time>2021-03-28T12:08:52.000Z</time>
      </trkpt>
      <trkpt lat="47.13137" lon="-1.75332">
        <ele>66</ele>
        <time>2021-03-28T12:08:54.000Z</time>
      </trkpt>
      <trkpt lat="47.13133" lon="-1.75347">
        <ele>66</ele>
        <time>2021-03-28T12:08:56.000Z</time>
      </trkpt>
      <trkpt lat="47.1313" lon="-1.75361">
        <ele>66</ele>
        <time>2021-03-28T12:08:58.000Z</time>
      </trkpt>
      <trkpt lat="47.13127" lon="-1.75376">
        <ele>67</ele>
        <time>2021-03-28T12:09:00.000Z</time>
      </trkpt>
      <trkpt lat="47.13125" lon="-1.75391">
        <ele>67</ele>
        <time>2021-03-28T12:09:02.000Z</time>
      </trkpt>
      <trkpt lat="47.13121" lon="-1.75403">
        <ele>67</ele>
        <time>2021-03-28T12:09:04.000Z</time>
      </trkpt>
      <trkpt lat="47.13117" lon="-1.75415">
        <ele>68</ele>
        <time>2021-03-28T12:09:06.000Z</time>
      </trkpt>
      <trkpt lat="47.13116" lon="-1.75429">
        <ele>69</ele>
        <time>2021-03-28T12:09:08.000Z</time>
      </trkpt>
      <trkpt lat="47.13116" lon="-1.75445">
        <ele>69</ele>
        <time>2021-03-28T12:09:10.000Z</time>
      </trkpt>
      <trkpt lat="47.13111" lon="-1.7546">
        <ele>69</ele>
        <time>2021-03-28T12:09:12.000Z</time>
      </trkpt>
      <trkpt lat="47.13109" lon="-1.75476">
        <ele>69</ele>
        <time>2021-03-28T12:09:14.000Z</time>
      </trkpt>
      <trkpt lat="47.13108" lon="-1.75492">
        <ele>70</ele>
        <time>2021-03-28T12:09:16.000Z</time>
      </trkpt>
      <trkpt lat="47.13106" lon="-1.75508">
        <ele>70</ele>
        <time>2021-03-28T12:09:18.000Z</time>
      </trkpt>
      <trkpt lat="47.13103" lon="-1.75523">
        <ele>71</ele>
        <time>2021-03-28T12:09:20.000Z</time>
      </trkpt>
      <trkpt lat="47.131" lon="-1.75538">
        <ele>71</ele>
        <time>2021-03-28T12:09:22.000Z</time>
      </trkpt>
      <trkpt lat="47.13098" lon="-1.75554">
        <ele>71</ele>
        <time>2021-03-28T12:09:24.000Z</time>
      </trkpt>
      <trkpt lat="47.13095" lon="-1.75569">
        <ele>72</ele>
        <time>2021-03-28T12:09:26.000Z</time>
      </trkpt>
      <trkpt lat="47.13092" lon="-1.75585">
        <ele>72</ele>
        <time>2021-03-28T12:09:28.000Z</time>
      </trkpt>
      <trkpt lat="47.13089" lon="-1.75601">
        <ele>72</ele>
        <time>2021-03-28T12:09:30.000Z</time>
      </trkpt>
      <trkpt lat="47.13086" lon="-1.75617">
        <ele>72</ele>
        <time>2021-03-28T12:09:32.000Z</time>
      </trkpt>
      <trkpt lat="47.13083" lon="-1.75632">
        <ele>72</ele>
        <time>2021-03-28T12:09:34.000Z</time>
      </trkpt>
      <trkpt lat="47.1308" lon="-1.75648">
        <ele>72</ele>
        <time>2021-03-28T12:09:36.000Z</time>
      </trkpt>
      <trkpt lat="47.13077" lon="-1.75664">
        <ele>71</ele>
        <time>2021-03-28T12:09:38.000Z</time>
      </trkpt>
      <trkpt lat="47.13074" lon="-1.7568">
        <ele>72</ele>
        <time>2021-03-28T12:09:40.000Z</time>
      </trkpt>
      <trkpt lat="47.13071" lon="-1.75696">
        <ele>72</ele>
        <time>2021-03-28T12:09:42.000Z</time>
      </trkpt>
      <trkpt lat="47.13067" lon="-1.75711">
        <ele>72</ele>
        <time>2021-03-28T12:09:44.000Z</time>
      </trkpt>
      <trkpt lat="47.13062" lon="-1.75725">
        <ele>72</ele>
        <time>2021-03-28T12:09:46.000Z</time>
      </trkpt>
      <trkpt lat="47.13057" lon="-1.75738">
        <ele>73</ele>
        <time>2021-03-28T12:09:48.000Z</time>
      </trkpt>
      <trkpt lat="47.1305" lon="-1.75751">
        <ele>73</ele>
        <time>2021-03-28T12:09:50.000Z</time>
      </trkpt>
      <trkpt lat="47.13043" lon="-1.75763">
        <ele>73</ele>
        <time>2021-03-28T12:09:52.000Z</time>
      </trkpt>
      <trkpt lat="47.13035" lon="-1.75775">
        <ele>74</ele>
        <time>2021-03-28T12:09:54.000Z</time>
      </trkpt>
      <trkpt lat="47.13027" lon="-1.75787">
        <ele>73</ele>
        <time>2021-03-28T12:09:56.000Z</time>
      </trkpt>
      <trkpt lat="47.1302" lon="-1.75798">
        <ele>73</ele>
        <time>2021-03-28T12:09:58.000Z</time>
      </trkpt>
      <trkpt lat="47.13013" lon="-1.75811">
        <ele>74</ele>
        <time>2021-03-28T12:10:00.000Z</time>
      </trkpt>
      <trkpt lat="47.13008" lon="-1.75824">
        <ele>74</ele>
        <time>2021-03-28T12:10:02.000Z</time>
      </trkpt>
      <trkpt lat="47.13007" lon="-1.75839">
        <ele>74</ele>
        <time>2021-03-28T12:10:04.000Z</time>
      </trkpt>
      <trkpt lat="47.13009" lon="-1.75856">
        <ele>74</ele>
        <time>2021-03-28T12:10:06.000Z</time>
      </trkpt>
      <trkpt lat="47.1301" lon="-1.75872">
        <ele>74</ele>
        <time>2021-03-28T12:10:08.000Z</time>
      </trkpt>
      <trkpt lat="47.13008" lon="-1.75887">
        <ele>75</ele>
        <time>2021-03-28T12:10:10.000Z</time>
      </trkpt>
      <trkpt lat="47.13005" lon="-1.75903">
        <ele>75</ele>
        <time>2021-03-28T12:10:12.000Z</time>
      </trkpt>
      <trkpt lat="47.13002" lon="-1.75918">
        <ele>75</ele>
        <time>2021-03-28T12:10:14.000Z</time>
      </trkpt>
      <trkpt lat="47.12999" lon="-1.75933">
        <ele>75</ele>
        <time>2021-03-28T12:10:16.000Z</time>
      </trkpt>
      <trkpt lat="47.12996" lon="-1.75948">
        <ele>75</ele>
        <time>2021-03-28T12:10:18.000Z</time>
      </trkpt>
      <trkpt lat="47.12993" lon="-1.75964">
        <ele>75</ele>
        <time>2021-03-28T12:10:20.000Z</time>
      </trkpt>
      <trkpt lat="47.1299" lon="-1.7598">
        <ele>75</ele>
        <time>2021-03-28T12:10:22.000Z</time>
      </trkpt>
      <trkpt lat="47.12988" lon="-1.75996">
        <ele>76</ele>
        <time>2021-03-28T12:10:24.000Z</time>
      </trkpt>
      <trkpt lat="47.12986" lon="-1.76012">
        <ele>76</ele>
        <time>2021-03-28T12:10:26.000Z</time>
      </trkpt>
      <trkpt lat="47.12985" lon="-1.76028">
        <ele>76</ele>
        <time>2021-03-28T12:10:28.000Z</time>
      </trkpt>
      <trkpt lat="47.12985" lon="-1.76044">
        <ele>76</ele>
        <time>2021-03-28T12:10:30.000Z</time>
      </trkpt>
      <trkpt lat="47.12984" lon="-1.76061">
        <ele>76</ele>
        <time>2021-03-28T12:10:32.000Z</time>
      </trkpt>
      <trkpt lat="47.12985" lon="-1.76076">
        <ele>76</ele>
        <time>2021-03-28T12:10:34.000Z</time>
      </trkpt>
      <trkpt lat="47.12986" lon="-1.76092">
        <ele>76</ele>
        <time>2021-03-28T12:10:36.000Z</time>
      </trkpt>
      <trkpt lat="47.12987" lon="-1.76108">
        <ele>77</ele>
        <time>2021-03-28T12:10:38.000Z</time>
      </trkpt>
      <trkpt lat="47.1299" lon="-1.76124">
        <ele>77</ele>
        <time>2021-03-28T12:10:40.000Z</time>
      </trkpt>
      <trkpt lat="47.12993" lon="-1.76139">
        <ele>77</ele>
        <time>2021-03-28T12:10:42.000Z</time>
      </trkpt>
      <trkpt lat="47.12997" lon="-1.76155">
        <ele>77</ele>
        <time>2021-03-28T12:10:44.000Z</time>
      </trkpt>
      <trkpt lat="47.13001" lon="-1.76171">
        <ele>77</ele>
        <time>2021-03-28T12:10:46.000Z</time>
      </trkpt>
      <trkpt lat="47.13006" lon="-1.76188">
        <ele>77</ele>
        <time>2021-03-28T12:10:48.000Z</time>
      </trkpt>
      <trkpt lat="47.13011" lon="-1.76205">
        <ele>77</ele>
        <time>2021-03-28T12:10:50.000Z</time>
      </trkpt>
      <trkpt lat="47.13015" lon="-1.76222">
        <ele>77</ele>
        <time>2021-03-28T12:10:52.000Z</time>
      </trkpt>
      <trkpt lat="47.13019" lon="-1.76239">
        <ele>77</ele>
        <time>2021-03-28T12:10:54.000Z</time>
      </trkpt>
      <trkpt lat="47.13023" lon="-1.76256">
        <ele>77</ele>
        <time>2021-03-28T12:10:56.000Z</time>
      </trkpt>
      <trkpt lat="47.13027" lon="-1.76274">
        <ele>77</ele>
        <time>2021-03-28T12:10:58.000Z</time>
      </trkpt>
      <trkpt lat="47.1303" lon="-1.76291">
        <ele>77</ele>
        <time>2021-03-28T12:11:00.000Z</time>
      </trkpt>
      <trkpt lat="47.13034" lon="-1.76308">
        <ele>77</ele>
        <time>2021-03-28T12:11:02.000Z</time>
      </trkpt>
      <trkpt lat="47.13037" lon="-1.76325">
        <ele>77</ele>
        <time>2021-03-28T12:11:04.000Z</time>
      </trkpt>
      <trkpt lat="47.13041" lon="-1.76343">
        <ele>76</ele>
        <time>2021-03-28T12:11:06.000Z</time>
      </trkpt>
      <trkpt lat="47.13044" lon="-1.76361">
        <ele>76</ele>
        <time>2021-03-28T12:11:08.000Z</time>
      </trkpt>
      <trkpt lat="47.13047" lon="-1.76379">
        <ele>77</ele>
        <time>2021-03-28T12:11:10.000Z</time>
      </trkpt>
      <trkpt lat="47.1305" lon="-1.76396">
        <ele>76</ele>
        <time>2021-03-28T12:11:12.000Z</time>
      </trkpt>
      <trkpt lat="47.13051" lon="-1.76414">
        <ele>76</ele>
        <time>2021-03-28T12:11:14.000Z</time>
      </trkpt>
      <trkpt lat="47.13052" lon="-1.76431">
        <ele>76</ele>
        <time>2021-03-28T12:11:16.000Z</time>
      </trkpt>
      <trkpt lat="47.13053" lon="-1.76449">
        <ele>76</ele>
        <time>2021-03-28T12:11:18.000Z</time>
      </trkpt>
      <trkpt lat="47.13054" lon="-1.76468">
        <ele>76</ele>
        <time>2021-03-28T12:11:20.000Z</time>
      </trkpt>
      <trkpt lat="47.13055" lon="-1.76486">
        <ele>76</ele>
        <time>2021-03-28T12:11:22.000Z</time>
      </trkpt>
      <trkpt lat="47.13056" lon="-1.76505">
        <ele>76</ele>
        <time>2021-03-28T12:11:24.000Z</time>
      </trkpt>
      <trkpt lat="47.13057" lon="-1.76524">
        <ele>76</ele>
        <time>2021-03-28T12:11:26.000Z</time>
      </trkpt>
      <trkpt lat="47.13059" lon="-1.76543">
        <ele>76</ele>
        <time>2021-03-28T12:11:28.000Z</time>
      </trkpt>
      <trkpt lat="47.13059" lon="-1.76561">
        <ele>76</ele>
        <time>2021-03-28T12:11:30.000Z</time>
      </trkpt>
      <trkpt lat="47.13061" lon="-1.76579">
        <ele>76</ele>
        <time>2021-03-28T12:11:32.000Z</time>
      </trkpt>
      <trkpt lat="47.13062" lon="-1.76597">
        <ele>76</ele>
        <time>2021-03-28T12:11:34.000Z</time>
      </trkpt>
      <trkpt lat="47.13064" lon="-1.76615">
        <ele>76</ele>
        <time>2021-03-28T12:11:36.000Z</time>
      </trkpt>
      <trkpt lat="47.13065" lon="-1.76632">
        <ele>76</ele>
        <time>2021-03-28T12:11:38.000Z</time>
      </trkpt>
      <trkpt lat="47.13068" lon="-1.76649">
        <ele>76</ele>
        <time>2021-03-28T12:11:40.000Z</time>
      </trkpt>
      <trkpt lat="47.1307" lon="-1.76666">
        <ele>76</ele>
        <time>2021-03-28T12:11:42.000Z</time>
      </trkpt>
      <trkpt lat="47.1307" lon="-1.76682">
        <ele>76</ele>
        <time>2021-03-28T12:11:44.000Z</time>
      </trkpt>
      <trkpt lat="47.13069" lon="-1.76699">
        <ele>76</ele>
        <time>2021-03-28T12:11:46.000Z</time>
      </trkpt>
      <trkpt lat="47.13067" lon="-1.76715">
        <ele>76</ele>
        <time>2021-03-28T12:11:48.000Z</time>
      </trkpt>
      <trkpt lat="47.13065" lon="-1.7673">
        <ele>76</ele>
        <time>2021-03-28T12:11:50.000Z</time>
      </trkpt>
      <trkpt lat="47.13063" lon="-1.76746">
        <ele>76</ele>
        <time>2021-03-28T12:11:52.000Z</time>
      </trkpt>
      <trkpt lat="47.13061" lon="-1.76762">
        <ele>76</ele>
        <time>2021-03-28T12:11:54.000Z</time>
      </trkpt>
      <trkpt lat="47.13059" lon="-1.76778">
        <ele>76</ele>
        <time>2021-03-28T12:11:56.000Z</time>
      </trkpt>
      <trkpt lat="47.13057" lon="-1.76795">
        <ele>76</ele>
        <time>2021-03-28T12:11:58.000Z</time>
      </trkpt>
      <trkpt lat="47.13055" lon="-1.76811">
        <ele>76</ele>
        <time>2021-03-28T12:12:00.000Z</time>
      </trkpt>
      <trkpt lat="47.13053" lon="-1.76827">
        <ele>76</ele>
        <time>2021-03-28T12:12:02.000Z</time>
      </trkpt>
      <trkpt lat="47.13052" lon="-1.76842">
        <ele>76</ele>
        <time>2021-03-28T12:12:04.000Z</time>
      </trkpt>
      <trkpt lat="47.13049" lon="-1.76858">
        <ele>76</ele>
        <time>2021-03-28T12:12:06.000Z</time>
      </trkpt>
      <trkpt lat="47.13048" lon="-1.76875">
        <ele>76</ele>
        <time>2021-03-28T12:12:08.000Z</time>
      </trkpt>
      <trkpt lat="47.13046" lon="-1.76891">
        <ele>76</ele>
        <time>2021-03-28T12:12:10.000Z</time>
      </trkpt>
      <trkpt lat="47.13044" lon="-1.76907">
        <ele>76</ele>
        <time>2021-03-28T12:12:12.000Z</time>
      </trkpt>
      <trkpt lat="47.13043" lon="-1.76924">
        <ele>77</ele>
        <time>2021-03-28T12:12:14.000Z</time>
      </trkpt>
      <trkpt lat="47.13042" lon="-1.7694">
        <ele>77</ele>
        <time>2021-03-28T12:12:16.000Z</time>
      </trkpt>
      <trkpt lat="47.13041" lon="-1.76955">
        <ele>77</ele>
        <time>2021-03-28T12:12:18.000Z</time>
      </trkpt>
      <trkpt lat="47.1304" lon="-1.76971">
        <ele>77</ele>
        <time>2021-03-28T12:12:20.000Z</time>
      </trkpt>
      <trkpt lat="47.13039" lon="-1.76987">
        <ele>78</ele>
        <time>2021-03-28T12:12:22.000Z</time>
      </trkpt>
      <trkpt lat="47.13038" lon="-1.77003">
        <ele>77</ele>
        <time>2021-03-28T12:12:24.000Z</time>
      </trkpt>
      <trkpt lat="47.13037" lon="-1.77018">
        <ele>78</ele>
        <time>2021-03-28T12:12:26.000Z</time>
      </trkpt>
      <trkpt lat="47.13036" lon="-1.77034">
        <ele>78</ele>
        <time>2021-03-28T12:12:28.000Z</time>
      </trkpt>
      <trkpt lat="47.13035" lon="-1.77049">
        <ele>78</ele>
        <time>2021-03-28T12:12:30.000Z</time>
      </trkpt>
      <trkpt lat="47.13034" lon="-1.77065">
        <ele>79</ele>
        <time>2021-03-28T12:12:32.000Z</time>
      </trkpt>
      <trkpt lat="47.13032" lon="-1.77081">
        <ele>79</ele>
        <time>2021-03-28T12:12:34.000Z</time>
      </trkpt>
      <trkpt lat="47.1303" lon="-1.77097">
        <ele>79</ele>
        <time>2021-03-28T12:12:36.000Z</time>
      </trkpt>
      <trkpt lat="47.13029" lon="-1.77113">
        <ele>79</ele>
        <time>2021-03-28T12:12:38.000Z</time>
      </trkpt>
      <trkpt lat="47.13027" lon="-1.77129">
        <ele>79</ele>
        <time>2021-03-28T12:12:40.000Z</time>
      </trkpt>
      <trkpt lat="47.13023" lon="-1.77154">
        <ele>79</ele>
        <time>2021-03-28T12:12:43.000Z</time>
      </trkpt>
      <trkpt lat="47.13019" lon="-1.77177">
        <ele>79</ele>
        <time>2021-03-28T12:12:46.000Z</time>
      </trkpt>
      <trkpt lat="47.13013" lon="-1.772">
        <ele>79</ele>
        <time>2021-03-28T12:12:49.000Z</time>
      </trkpt>
      <trkpt lat="47.13009" lon="-1.77215">
        <ele>80</ele>
        <time>2021-03-28T12:12:51.000Z</time>
      </trkpt>
      <trkpt lat="47.13005" lon="-1.77231">
        <ele>80</ele>
        <time>2021-03-28T12:12:53.000Z</time>
      </trkpt>
      <trkpt lat="47.13" lon="-1.77246">
        <ele>80</ele>
        <time>2021-03-28T12:12:55.000Z</time>
      </trkpt>
      <trkpt lat="47.12996" lon="-1.77262">
        <ele>80</ele>
        <time>2021-03-28T12:12:57.000Z</time>
      </trkpt>
      <trkpt lat="47.12991" lon="-1.77277">
        <ele>80</ele>
        <time>2021-03-28T12:12:59.000Z</time>
      </trkpt>
      <trkpt lat="47.12986" lon="-1.77293">
        <ele>80</ele>
        <time>2021-03-28T12:13:01.000Z</time>
      </trkpt>
      <trkpt lat="47.12981" lon="-1.77308">
        <ele>80</ele>
        <time>2021-03-28T12:13:03.000Z</time>
      </trkpt>
      <trkpt lat="47.12975" lon="-1.77323">
        <ele>80</ele>
        <time>2021-03-28T12:13:05.000Z</time>
      </trkpt>
      <trkpt lat="47.12969" lon="-1.77338">
        <ele>80</ele>
        <time>2021-03-28T12:13:07.000Z</time>
      </trkpt>
      <trkpt lat="47.12963" lon="-1.77353">
        <ele>80</ele>
        <time>2021-03-28T12:13:09.000Z</time>
      </trkpt>
      <trkpt lat="47.12957" lon="-1.77368">
        <ele>80</ele>
        <time>2021-03-28T12:13:11.000Z</time>
      </trkpt>
      <trkpt lat="47.12951" lon="-1.77383">
        <ele>80</ele>
        <time>2021-03-28T12:13:13.000Z</time>
      </trkpt>
      <trkpt lat="47.12945" lon="-1.77397">
        <ele>80</ele>
        <time>2021-03-28T12:13:15.000Z</time>
      </trkpt>
      <trkpt lat="47.1294" lon="-1.77411">
        <ele>80</ele>
        <time>2021-03-28T12:13:17.000Z</time>
      </trkpt>
      <trkpt lat="47.12934" lon="-1.77425">
        <ele>80</ele>
        <time>2021-03-28T12:13:19.000Z</time>
      </trkpt>
      <trkpt lat="47.12929" lon="-1.77441">
        <ele>80</ele>
        <time>2021-03-28T12:13:21.000Z</time>
      </trkpt>
      <trkpt lat="47.12923" lon="-1.77456">
        <ele>80</ele>
        <time>2021-03-28T12:13:23.000Z</time>
      </trkpt>
      <trkpt lat="47.12918" lon="-1.77472">
        <ele>80</ele>
        <time>2021-03-28T12:13:25.000Z</time>
      </trkpt>
      <trkpt lat="47.12914" lon="-1.77487">
        <ele>80</ele>
        <time>2021-03-28T12:13:27.000Z</time>
      </trkpt>
      <trkpt lat="47.1291" lon="-1.77502">
        <ele>80</ele>
        <time>2021-03-28T12:13:29.000Z</time>
      </trkpt>
      <trkpt lat="47.12906" lon="-1.77518">
        <ele>81</ele>
        <time>2021-03-28T12:13:31.000Z</time>
      </trkpt>
      <trkpt lat="47.129" lon="-1.77542">
        <ele>81</ele>
        <time>2021-03-28T12:13:34.000Z</time>
      </trkpt>
      <trkpt lat="47.12896" lon="-1.77558">
        <ele>81</ele>
        <time>2021-03-28T12:13:36.000Z</time>
      </trkpt>
      <trkpt lat="47.12892" lon="-1.77574">
        <ele>81</ele>
        <time>2021-03-28T12:13:38.000Z</time>
      </trkpt>
      <trkpt lat="47.12887" lon="-1.7759">
        <ele>81</ele>
        <time>2021-03-28T12:13:40.000Z</time>
      </trkpt>
      <trkpt lat="47.12883" lon="-1.77606">
        <ele>81</ele>
        <time>2021-03-28T12:13:42.000Z</time>
      </trkpt>
      <trkpt lat="47.12879" lon="-1.77622">
        <ele>81</ele>
        <time>2021-03-28T12:13:44.000Z</time>
      </trkpt>
      <trkpt lat="47.12875" lon="-1.77639">
        <ele>81</ele>
        <time>2021-03-28T12:13:46.000Z</time>
      </trkpt>
      <trkpt lat="47.12869" lon="-1.77664">
        <ele>81</ele>
        <time>2021-03-28T12:13:49.000Z</time>
      </trkpt>
      <trkpt lat="47.12865" lon="-1.77681">
        <ele>81</ele>
        <time>2021-03-28T12:13:51.000Z</time>
      </trkpt>
      <trkpt lat="47.12861" lon="-1.77698">
        <ele>81</ele>
        <time>2021-03-28T12:13:53.000Z</time>
      </trkpt>
      <trkpt lat="47.12857" lon="-1.77714">
        <ele>81</ele>
        <time>2021-03-28T12:13:55.000Z</time>
      </trkpt>
      <trkpt lat="47.12853" lon="-1.7773">
        <ele>81</ele>
        <time>2021-03-28T12:13:57.000Z</time>
      </trkpt>
      <trkpt lat="47.12849" lon="-1.77746">
        <ele>81</ele>
        <time>2021-03-28T12:13:59.000Z</time>
      </trkpt>
      <trkpt lat="47.12842" lon="-1.77769">
        <ele>81</ele>
        <time>2021-03-28T12:14:02.000Z</time>
      </trkpt>
      <trkpt lat="47.12837" lon="-1.77784">
        <ele>81</ele>
        <time>2021-03-28T12:14:04.000Z</time>
      </trkpt>
      <trkpt lat="47.12831" lon="-1.77798">
        <ele>81</ele>
        <time>2021-03-28T12:14:06.000Z</time>
      </trkpt>
      <trkpt lat="47.12822" lon="-1.7782">
        <ele>81</ele>
        <time>2021-03-28T12:14:09.000Z</time>
      </trkpt>
      <trkpt lat="47.12817" lon="-1.77835">
        <ele>81</ele>
        <time>2021-03-28T12:14:11.000Z</time>
      </trkpt>
      <trkpt lat="47.12809" lon="-1.77856">
        <ele>81</ele>
        <time>2021-03-28T12:14:14.000Z</time>
      </trkpt>
      <trkpt lat="47.12804" lon="-1.77871">
        <ele>80</ele>
        <time>2021-03-28T12:14:16.000Z</time>
      </trkpt>
      <trkpt lat="47.12799" lon="-1.77886">
        <ele>80</ele>
        <time>2021-03-28T12:14:18.000Z</time>
      </trkpt>
      <trkpt lat="47.12794" lon="-1.77901">
        <ele>80</ele>
        <time>2021-03-28T12:14:20.000Z</time>
      </trkpt>
      <trkpt lat="47.1279" lon="-1.77917">
        <ele>80</ele>
        <time>2021-03-28T12:14:22.000Z</time>
      </trkpt>
      <trkpt lat="47.12785" lon="-1.77931">
        <ele>80</ele>
        <time>2021-03-28T12:14:24.000Z</time>
      </trkpt>
      <trkpt lat="47.12781" lon="-1.77946">
        <ele>79</ele>
        <time>2021-03-28T12:14:26.000Z</time>
      </trkpt>
      <trkpt lat="47.12777" lon="-1.77962">
        <ele>79</ele>
        <time>2021-03-28T12:14:28.000Z</time>
      </trkpt>
      <trkpt lat="47.12771" lon="-1.77984">
        <ele>79</ele>
        <time>2021-03-28T12:14:31.000Z</time>
      </trkpt>
      <trkpt lat="47.12766" lon="-1.77999">
        <ele>79</ele>
        <time>2021-03-28T12:14:33.000Z</time>
      </trkpt>
      <trkpt lat="47.12761" lon="-1.78015">
        <ele>79</ele>
        <time>2021-03-28T12:14:35.000Z</time>
      </trkpt>
      <trkpt lat="47.12756" lon="-1.78031">
        <ele>79</ele>
        <time>2021-03-28T12:14:37.000Z</time>
      </trkpt>
      <trkpt lat="47.1275" lon="-1.78047">
        <ele>79</ele>
        <time>2021-03-28T12:14:39.000Z</time>
      </trkpt>
      <trkpt lat="47.12742" lon="-1.78061">
        <ele>79</ele>
        <time>2021-03-28T12:14:41.000Z</time>
      </trkpt>
      <trkpt lat="47.12734" lon="-1.78073">
        <ele>79</ele>
        <time>2021-03-28T12:14:43.000Z</time>
      </trkpt>
      <trkpt lat="47.12725" lon="-1.78086">
        <ele>79</ele>
        <time>2021-03-28T12:14:45.000Z</time>
      </trkpt>
      <trkpt lat="47.12716" lon="-1.78099">
        <ele>79</ele>
        <time>2021-03-28T12:14:47.000Z</time>
      </trkpt>
      <trkpt lat="47.12707" lon="-1.78111">
        <ele>79</ele>
        <time>2021-03-28T12:14:49.000Z</time>
      </trkpt>
      <trkpt lat="47.12699" lon="-1.78123">
        <ele>79</ele>
        <time>2021-03-28T12:14:51.000Z</time>
      </trkpt>
      <trkpt lat="47.12691" lon="-1.78134">
        <ele>79</ele>
        <time>2021-03-28T12:14:53.000Z</time>
      </trkpt>
      <trkpt lat="47.12682" lon="-1.78146">
        <ele>79</ele>
        <time>2021-03-28T12:14:55.000Z</time>
      </trkpt>
      <trkpt lat="47.12674" lon="-1.78158">
        <ele>79</ele>
        <time>2021-03-28T12:14:57.000Z</time>
      </trkpt>
      <trkpt lat="47.12665" lon="-1.78169">
        <ele>78</ele>
        <time>2021-03-28T12:14:59.000Z</time>
      </trkpt>
      <trkpt lat="47.12653" lon="-1.78186">
        <ele>78</ele>
        <time>2021-03-28T12:15:02.000Z</time>
      </trkpt>
      <trkpt lat="47.12644" lon="-1.78198">
        <ele>78</ele>
        <time>2021-03-28T12:15:04.000Z</time>
      </trkpt>
      <trkpt lat="47.12637" lon="-1.7821">
        <ele>78</ele>
        <time>2021-03-28T12:15:06.000Z</time>
      </trkpt>
      <trkpt lat="47.1263" lon="-1.78223">
        <ele>78</ele>
        <time>2021-03-28T12:15:08.000Z</time>
      </trkpt>
      <trkpt lat="47.12625" lon="-1.78238">
        <ele>78</ele>
        <time>2021-03-28T12:15:10.000Z</time>
      </trkpt>
      <trkpt lat="47.1262" lon="-1.78254">
        <ele>78</ele>
        <time>2021-03-28T12:15:12.000Z</time>
      </trkpt>
      <trkpt lat="47.12617" lon="-1.7827">
        <ele>78</ele>
        <time>2021-03-28T12:15:14.000Z</time>
      </trkpt>
      <trkpt lat="47.12613" lon="-1.78286">
        <ele>78</ele>
        <time>2021-03-28T12:15:16.000Z</time>
      </trkpt>
      <trkpt lat="47.1261" lon="-1.78301">
        <ele>78</ele>
        <time>2021-03-28T12:15:18.000Z</time>
      </trkpt>
      <trkpt lat="47.12606" lon="-1.78317">
        <ele>78</ele>
        <time>2021-03-28T12:15:20.000Z</time>
      </trkpt>
      <trkpt lat="47.12602" lon="-1.78334">
        <ele>78</ele>
        <time>2021-03-28T12:15:22.000Z</time>
      </trkpt>
      <trkpt lat="47.12598" lon="-1.7835">
        <ele>77</ele>
        <time>2021-03-28T12:15:24.000Z</time>
      </trkpt>
      <trkpt lat="47.12595" lon="-1.78366">
        <ele>77</ele>
        <time>2021-03-28T12:15:26.000Z</time>
      </trkpt>
      <trkpt lat="47.12591" lon="-1.78382">
        <ele>77</ele>
        <time>2021-03-28T12:15:28.000Z</time>
      </trkpt>
      <trkpt lat="47.12587" lon="-1.78399">
        <ele>77</ele>
        <time>2021-03-28T12:15:30.000Z</time>
      </trkpt>
      <trkpt lat="47.12583" lon="-1.78414">
        <ele>77</ele>
        <time>2021-03-28T12:15:32.000Z</time>
      </trkpt>
      <trkpt lat="47.12579" lon="-1.7843">
        <ele>76</ele>
        <time>2021-03-28T12:15:34.000Z</time>
      </trkpt>
      <trkpt lat="47.12576" lon="-1.78446">
        <ele>76</ele>
        <time>2021-03-28T12:15:36.000Z</time>
      </trkpt>
      <trkpt lat="47.12572" lon="-1.78462">
        <ele>76</ele>
        <time>2021-03-28T12:15:38.000Z</time>
      </trkpt>
      <trkpt lat="47.12568" lon="-1.78478">
        <ele>76</ele>
        <time>2021-03-28T12:15:40.000Z</time>
      </trkpt>
      <trkpt lat="47.12562" lon="-1.78503">
        <ele>76</ele>
        <time>2021-03-28T12:15:43.000Z</time>
      </trkpt>
      <trkpt lat="47.12558" lon="-1.78518">
        <ele>75</ele>
        <time>2021-03-28T12:15:45.000Z</time>
      </trkpt>
      <trkpt lat="47.12554" lon="-1.78534">
        <ele>75</ele>
        <time>2021-03-28T12:15:47.000Z</time>
      </trkpt>
      <trkpt lat="47.12551" lon="-1.7855">
        <ele>75</ele>
        <time>2021-03-28T12:15:49.000Z</time>
      </trkpt>
      <trkpt lat="47.12547" lon="-1.78566">
        <ele>75</ele>
        <time>2021-03-28T12:15:51.000Z</time>
      </trkpt>
      <trkpt lat="47.12543" lon="-1.78583">
        <ele>75</ele>
        <time>2021-03-28T12:15:53.000Z</time>
      </trkpt>
      <trkpt lat="47.12539" lon="-1.78599">
        <ele>75</ele>
        <time>2021-03-28T12:15:55.000Z</time>
      </trkpt>
      <trkpt lat="47.12535" lon="-1.78615">
        <ele>75</ele>
        <time>2021-03-28T12:15:57.000Z</time>
      </trkpt>
      <trkpt lat="47.1253" lon="-1.78631">
        <ele>75</ele>
        <time>2021-03-28T12:15:59.000Z</time>
      </trkpt>
      <trkpt lat="47.12525" lon="-1.78647">
        <ele>74</ele>
        <time>2021-03-28T12:16:01.000Z</time>
      </trkpt>
      <trkpt lat="47.1252" lon="-1.78661">
        <ele>74</ele>
        <time>2021-03-28T12:16:03.000Z</time>
      </trkpt>
      <trkpt lat="47.12514" lon="-1.78676">
        <ele>74</ele>
        <time>2021-03-28T12:16:05.000Z</time>
      </trkpt>
      <trkpt lat="47.12508" lon="-1.78691">
        <ele>74</ele>
        <time>2021-03-28T12:16:07.000Z</time>
      </trkpt>
      <trkpt lat="47.12503" lon="-1.78707">
        <ele>74</ele>
        <time>2021-03-28T12:16:09.000Z</time>
      </trkpt>
      <trkpt lat="47.12498" lon="-1.78723">
        <ele>74</ele>
        <time>2021-03-28T12:16:11.000Z</time>
      </trkpt>
      <trkpt lat="47.12494" lon="-1.78739">
        <ele>74</ele>
        <time>2021-03-28T12:16:13.000Z</time>
      </trkpt>
      <trkpt lat="47.1249" lon="-1.78754">
        <ele>74</ele>
        <time>2021-03-28T12:16:15.000Z</time>
      </trkpt>
      <trkpt lat="47.12487" lon="-1.7877">
        <ele>74</ele>
        <time>2021-03-28T12:16:17.000Z</time>
      </trkpt>
      <trkpt lat="47.12483" lon="-1.78787">
        <ele>74</ele>
        <time>2021-03-28T12:16:19.000Z</time>
      </trkpt>
      <trkpt lat="47.1248" lon="-1.78804">
        <ele>74</ele>
        <time>2021-03-28T12:16:21.000Z</time>
      </trkpt>
      <trkpt lat="47.12476" lon="-1.78821">
        <ele>74</ele>
        <time>2021-03-28T12:16:23.000Z</time>
      </trkpt>
      <trkpt lat="47.12473" lon="-1.78838">
        <ele>74</ele>
        <time>2021-03-28T12:16:25.000Z</time>
      </trkpt>
      <trkpt lat="47.12471" lon="-1.78855">
        <ele>74</ele>
        <time>2021-03-28T12:16:27.000Z</time>
      </trkpt>
      <trkpt lat="47.1247" lon="-1.78873">
        <ele>74</ele>
        <time>2021-03-28T12:16:29.000Z</time>
      </trkpt>
      <trkpt lat="47.12468" lon="-1.7889">
        <ele>74</ele>
        <time>2021-03-28T12:16:31.000Z</time>
      </trkpt>
      <trkpt lat="47.12467" lon="-1.78906">
        <ele>73</ele>
        <time>2021-03-28T12:16:33.000Z</time>
      </trkpt>
      <trkpt lat="47.12465" lon="-1.78922">
        <ele>73</ele>
        <time>2021-03-28T12:16:35.000Z</time>
      </trkpt>
      <trkpt lat="47.12461" lon="-1.78937">
        <ele>73</ele>
        <time>2021-03-28T12:16:37.000Z</time>
      </trkpt>
      <trkpt lat="47.12457" lon="-1.78953">
        <ele>74</ele>
        <time>2021-03-28T12:16:39.000Z</time>
      </trkpt>
      <trkpt lat="47.12454" lon="-1.78969">
        <ele>74</ele>
        <time>2021-03-28T12:16:41.000Z</time>
      </trkpt>
      <trkpt lat="47.12449" lon="-1.78985">
        <ele>74</ele>
        <time>2021-03-28T12:16:43.000Z</time>
      </trkpt>
      <trkpt lat="47.12445" lon="-1.79001">
        <ele>74</ele>
        <time>2021-03-28T12:16:45.000Z</time>
      </trkpt>
      <trkpt lat="47.12441" lon="-1.79016">
        <ele>74</ele>
        <time>2021-03-28T12:16:47.000Z</time>
      </trkpt>
      <trkpt lat="47.12438" lon="-1.79032">
        <ele>74</ele>
        <time>2021-03-28T12:16:49.000Z</time>
      </trkpt>
      <trkpt lat="47.12434" lon="-1.79049">
        <ele>74</ele>
        <time>2021-03-28T12:16:51.000Z</time>
      </trkpt>
      <trkpt lat="47.1243" lon="-1.79066">
        <ele>74</ele>
        <time>2021-03-28T12:16:53.000Z</time>
      </trkpt>
      <trkpt lat="47.12427" lon="-1.79082">
        <ele>74</ele>
        <time>2021-03-28T12:16:55.000Z</time>
      </trkpt>
      <trkpt lat="47.12425" lon="-1.79097">
        <ele>74</ele>
        <time>2021-03-28T12:16:57.000Z</time>
      </trkpt>
      <trkpt lat="47.12422" lon="-1.79112">
        <ele>74</ele>
        <time>2021-03-28T12:16:59.000Z</time>
      </trkpt>
      <trkpt lat="47.1242" lon="-1.79128">
        <ele>74</ele>
        <time>2021-03-28T12:17:01.000Z</time>
      </trkpt>
      <trkpt lat="47.12419" lon="-1.79144">
        <ele>74</ele>
        <time>2021-03-28T12:17:03.000Z</time>
      </trkpt>
      <trkpt lat="47.12419" lon="-1.7916">
        <ele>74</ele>
        <time>2021-03-28T12:17:05.000Z</time>
      </trkpt>
      <trkpt lat="47.1242" lon="-1.79177">
        <ele>74</ele>
        <time>2021-03-28T12:17:07.000Z</time>
      </trkpt>
      <trkpt lat="47.12422" lon="-1.79194">
        <ele>74</ele>
        <time>2021-03-28T12:17:09.000Z</time>
      </trkpt>
      <trkpt lat="47.12424" lon="-1.79211">
        <ele>74</ele>
        <time>2021-03-28T12:17:11.000Z</time>
      </trkpt>
      <trkpt lat="47.12425" lon="-1.79229">
        <ele>74</ele>
        <time>2021-03-28T12:17:13.000Z</time>
      </trkpt>
      <trkpt lat="47.12425" lon="-1.79246">
        <ele>74</ele>
        <time>2021-03-28T12:17:15.000Z</time>
      </trkpt>
      <trkpt lat="47.12423" lon="-1.79264">
        <ele>74</ele>
        <time>2021-03-28T12:17:17.000Z</time>
      </trkpt>
      <trkpt lat="47.12418" lon="-1.7928">
        <ele>74</ele>
        <time>2021-03-28T12:17:19.000Z</time>
      </trkpt>
      <trkpt lat="47.12412" lon="-1.79296">
        <ele>74</ele>
        <time>2021-03-28T12:17:21.000Z</time>
      </trkpt>
      <trkpt lat="47.12406" lon="-1.7931">
        <ele>74</ele>
        <time>2021-03-28T12:17:23.000Z</time>
      </trkpt>
      <trkpt lat="47.12399" lon="-1.79325">
        <ele>74</ele>
        <time>2021-03-28T12:17:25.000Z</time>
      </trkpt>
      <trkpt lat="47.12392" lon="-1.79339">
        <ele>74</ele>
        <time>2021-03-28T12:17:27.000Z</time>
      </trkpt>
      <trkpt lat="47.12385" lon="-1.79354">
        <ele>74</ele>
        <time>2021-03-28T12:17:29.000Z</time>
      </trkpt>
      <trkpt lat="47.12379" lon="-1.79368">
        <ele>75</ele>
        <time>2021-03-28T12:17:31.000Z</time>
      </trkpt>
      <trkpt lat="47.12373" lon="-1.79383">
        <ele>75</ele>
        <time>2021-03-28T12:17:33.000Z</time>
      </trkpt>
      <trkpt lat="47.12367" lon="-1.79398">
        <ele>75</ele>
        <time>2021-03-28T12:17:35.000Z</time>
      </trkpt>
      <trkpt lat="47.12362" lon="-1.79413">
        <ele>75</ele>
        <time>2021-03-28T12:17:37.000Z</time>
      </trkpt>
      <trkpt lat="47.12357" lon="-1.79429">
        <ele>75</ele>
        <time>2021-03-28T12:17:39.000Z</time>
      </trkpt>
      <trkpt lat="47.12353" lon="-1.79446">
        <ele>75</ele>
        <time>2021-03-28T12:17:41.000Z</time>
      </trkpt>
      <trkpt lat="47.12349" lon="-1.79463">
        <ele>75</ele>
        <time>2021-03-28T12:17:43.000Z</time>
      </trkpt>
      <trkpt lat="47.12347" lon="-1.79481">
        <ele>75</ele>
        <time>2021-03-28T12:17:45.000Z</time>
      </trkpt>
      <trkpt lat="47.12344" lon="-1.79498">
        <ele>75</ele>
        <time>2021-03-28T12:17:47.000Z</time>
      </trkpt>
      <trkpt lat="47.12341" lon="-1.79516">
        <ele>75</ele>
        <time>2021-03-28T12:17:49.000Z</time>
      </trkpt>
      <trkpt lat="47.1234" lon="-1.79534">
        <ele>75</ele>
        <time>2021-03-28T12:17:51.000Z</time>
      </trkpt>
      <trkpt lat="47.12337" lon="-1.7955">
        <ele>75</ele>
        <time>2021-03-28T12:17:53.000Z</time>
      </trkpt>
      <trkpt lat="47.12334" lon="-1.79566">
        <ele>75</ele>
        <time>2021-03-28T12:17:55.000Z</time>
      </trkpt>
      <trkpt lat="47.12329" lon="-1.79581">
        <ele>75</ele>
        <time>2021-03-28T12:17:57.000Z</time>
      </trkpt>
      <trkpt lat="47.12322" lon="-1.79592">
        <ele>76</ele>
        <time>2021-03-28T12:17:59.000Z</time>
      </trkpt>
      <trkpt lat="47.12311" lon="-1.79596">
        <ele>75</ele>
        <time>2021-03-28T12:18:01.000Z</time>
      </trkpt>
      <trkpt lat="47.12299" lon="-1.79596">
        <ele>75</ele>
        <time>2021-03-28T12:18:03.000Z</time>
      </trkpt>
      <trkpt lat="47.12288" lon="-1.79596">
        <ele>75</ele>
        <time>2021-03-28T12:18:05.000Z</time>
      </trkpt>
      <trkpt lat="47.12277" lon="-1.79596">
        <ele>75</ele>
        <time>2021-03-28T12:18:07.000Z</time>
      </trkpt>
      <trkpt lat="47.12267" lon="-1.79596">
        <ele>75</ele>
        <time>2021-03-28T12:18:09.000Z</time>
      </trkpt>
      <trkpt lat="47.12256" lon="-1.79596">
        <ele>75</ele>
        <time>2021-03-28T12:18:11.000Z</time>
      </trkpt>
      <trkpt lat="47.12244" lon="-1.79596">
        <ele>75</ele>
        <time>2021-03-28T12:18:13.000Z</time>
      </trkpt>
      <trkpt lat="47.12233" lon="-1.79596">
        <ele>75</ele>
        <time>2021-03-28T12:18:15.000Z</time>
      </trkpt>
      <trkpt lat="47.12222" lon="-1.79596">
        <ele>75</ele>
        <time>2021-03-28T12:18:17.000Z</time>
      </trkpt>
      <trkpt lat="47.12211" lon="-1.79595">
        <ele>75</ele>
        <time>2021-03-28T12:18:19.000Z</time>
      </trkpt>
      <trkpt lat="47.12199" lon="-1.79595">
        <ele>76</ele>
        <time>2021-03-28T12:18:21.000Z</time>
      </trkpt>
      <trkpt lat="47.12188" lon="-1.79595">
        <ele>75</ele>
        <time>2021-03-28T12:18:23.000Z</time>
      </trkpt>
      <trkpt lat="47.12176" lon="-1.79595">
        <ele>75</ele>
        <time>2021-03-28T12:18:25.000Z</time>
      </trkpt>
      <trkpt lat="47.12164" lon="-1.79594">
        <ele>75</ele>
        <time>2021-03-28T12:18:27.000Z</time>
      </trkpt>
      <trkpt lat="47.12153" lon="-1.79595">
        <ele>75</ele>
        <time>2021-03-28T12:18:29.000Z</time>
      </trkpt>
      <trkpt lat="47.12141" lon="-1.79596">
        <ele>74</ele>
        <time>2021-03-28T12:18:31.000Z</time>
      </trkpt>
      <trkpt lat="47.12129" lon="-1.79596">
        <ele>74</ele>
        <time>2021-03-28T12:18:33.000Z</time>
      </trkpt>
      <trkpt lat="47.12117" lon="-1.79598">
        <ele>74</ele>
        <time>2021-03-28T12:18:35.000Z</time>
      </trkpt>
      <trkpt lat="47.12105" lon="-1.79599">
        <ele>74</ele>
        <time>2021-03-28T12:18:37.000Z</time>
      </trkpt>
      <trkpt lat="47.12093" lon="-1.79604">
        <ele>73</ele>
        <time>2021-03-28T12:18:39.000Z</time>
      </trkpt>
      <trkpt lat="47.12082" lon="-1.79613">
        <ele>74</ele>
        <time>2021-03-28T12:18:41.000Z</time>
      </trkpt>
      <trkpt lat="47.12072" lon="-1.79623">
        <ele>74</ele>
        <time>2021-03-28T12:18:43.000Z</time>
      </trkpt>
      <trkpt lat="47.12061" lon="-1.79634">
        <ele>73</ele>
        <time>2021-03-28T12:18:45.000Z</time>
      </trkpt>
      <trkpt lat="47.12051" lon="-1.79644">
        <ele>73</ele>
        <time>2021-03-28T12:18:47.000Z</time>
      </trkpt>
      <trkpt lat="47.12041" lon="-1.79654">
        <ele>73</ele>
        <time>2021-03-28T12:18:49.000Z</time>
      </trkpt>
      <trkpt lat="47.12031" lon="-1.79664">
        <ele>73</ele>
        <time>2021-03-28T12:18:51.000Z</time>
      </trkpt>
      <trkpt lat="47.12021" lon="-1.79674">
        <ele>73</ele>
        <time>2021-03-28T12:18:53.000Z</time>
      </trkpt>
      <trkpt lat="47.12011" lon="-1.79685">
        <ele>73</ele>
        <time>2021-03-28T12:18:55.000Z</time>
      </trkpt>
      <trkpt lat="47.12001" lon="-1.79694">
        <ele>73</ele>
        <time>2021-03-28T12:18:57.000Z</time>
      </trkpt>
      <trkpt lat="47.11991" lon="-1.79704">
        <ele>73</ele>
        <time>2021-03-28T12:18:59.000Z</time>
      </trkpt>
      <trkpt lat="47.11981" lon="-1.79715">
        <ele>72</ele>
        <time>2021-03-28T12:19:01.000Z</time>
      </trkpt>
      <trkpt lat="47.11971" lon="-1.79725">
        <ele>72</ele>
        <time>2021-03-28T12:19:03.000Z</time>
      </trkpt>
      <trkpt lat="47.11962" lon="-1.79737">
        <ele>72</ele>
        <time>2021-03-28T12:19:05.000Z</time>
      </trkpt>
      <trkpt lat="47.11953" lon="-1.79749">
        <ele>72</ele>
        <time>2021-03-28T12:19:07.000Z</time>
      </trkpt>
      <trkpt lat="47.11944" lon="-1.79761">
        <ele>72</ele>
        <time>2021-03-28T12:19:09.000Z</time>
      </trkpt>
      <trkpt lat="47.11934" lon="-1.79772">
        <ele>72</ele>
        <time>2021-03-28T12:19:11.000Z</time>
      </trkpt>
      <trkpt lat="47.11925" lon="-1.79784">
        <ele>71</ele>
        <time>2021-03-28T12:19:13.000Z</time>
      </trkpt>
      <trkpt lat="47.11916" lon="-1.79796">
        <ele>71</ele>
        <time>2021-03-28T12:19:15.000Z</time>
      </trkpt>
      <trkpt lat="47.11907" lon="-1.79807">
        <ele>72</ele>
        <time>2021-03-28T12:19:17.000Z</time>
      </trkpt>
      <trkpt lat="47.11898" lon="-1.79818">
        <ele>72</ele>
        <time>2021-03-28T12:19:19.000Z</time>
      </trkpt>
      <trkpt lat="47.11888" lon="-1.79829">
        <ele>71</ele>
        <time>2021-03-28T12:19:21.000Z</time>
      </trkpt>
      <trkpt lat="47.11879" lon="-1.7984">
        <ele>71</ele>
        <time>2021-03-28T12:19:23.000Z</time>
      </trkpt>
      <trkpt lat="47.11869" lon="-1.7985">
        <ele>71</ele>
        <time>2021-03-28T12:19:25.000Z</time>
      </trkpt>
      <trkpt lat="47.1186" lon="-1.79861">
        <ele>71</ele>
        <time>2021-03-28T12:19:27.000Z</time>
      </trkpt>
      <trkpt lat="47.1185" lon="-1.79871">
        <ele>71</ele>
        <time>2021-03-28T12:19:29.000Z</time>
      </trkpt>
      <trkpt lat="47.11841" lon="-1.79882">
        <ele>71</ele>
        <time>2021-03-28T12:19:31.000Z</time>
      </trkpt>
      <trkpt lat="47.11832" lon="-1.79892">
        <ele>71</ele>
        <time>2021-03-28T12:19:33.000Z</time>
      </trkpt>
      <trkpt lat="47.11822" lon="-1.79903">
        <ele>71</ele>
        <time>2021-03-28T12:19:35.000Z</time>
      </trkpt>
      <trkpt lat="47.11813" lon="-1.79913">
        <ele>71</ele>
        <time>2021-03-28T12:19:37.000Z</time>
      </trkpt>
      <trkpt lat="47.11804" lon="-1.79923">
        <ele>71</ele>
        <time>2021-03-28T12:19:39.000Z</time>
      </trkpt>
      <trkpt lat="47.11794" lon="-1.79933">
        <ele>71</ele>
        <time>2021-03-28T12:19:41.000Z</time>
      </trkpt>
      <trkpt lat="47.11785" lon="-1.79943">
        <ele>71</ele>
        <time>2021-03-28T12:19:43.000Z</time>
      </trkpt>
      <trkpt lat="47.11777" lon="-1.79953">
        <ele>71</ele>
        <time>2021-03-28T12:19:45.000Z</time>
      </trkpt>
      <trkpt lat="47.11769" lon="-1.79963">
        <ele>71</ele>
        <time>2021-03-28T12:19:47.000Z</time>
      </trkpt>
      <trkpt lat="47.11763" lon="-1.79973">
        <ele>72</ele>
        <time>2021-03-28T12:19:49.000Z</time>
      </trkpt>
      <trkpt lat="47.11754" lon="-1.79979">
        <ele>71</ele>
        <time>2021-03-28T12:19:51.000Z</time>
      </trkpt>
      <trkpt lat="47.11742" lon="-1.79977">
        <ele>71</ele>
        <time>2021-03-28T12:19:53.000Z</time>
      </trkpt>
      <trkpt lat="47.11728" lon="-1.79975">
        <ele>71</ele>
        <time>2021-03-28T12:19:55.000Z</time>
      </trkpt>
      <trkpt lat="47.11715" lon="-1.79972">
        <ele>71</ele>
        <time>2021-03-28T12:19:57.000Z</time>
      </trkpt>
      <trkpt lat="47.11702" lon="-1.79971">
        <ele>71</ele>
        <time>2021-03-28T12:19:59.000Z</time>
      </trkpt>
      <trkpt lat="47.11689" lon="-1.79969">
        <ele>71</ele>
        <time>2021-03-28T12:20:01.000Z</time>
      </trkpt>
      <trkpt lat="47.11676" lon="-1.79967">
        <ele>70</ele>
        <time>2021-03-28T12:20:03.000Z</time>
      </trkpt>
      <trkpt lat="47.11664" lon="-1.79966">
        <ele>70</ele>
        <time>2021-03-28T12:20:05.000Z</time>
      </trkpt>
      <trkpt lat="47.11652" lon="-1.79963">
        <ele>70</ele>
        <time>2021-03-28T12:20:07.000Z</time>
      </trkpt>
      <trkpt lat="47.11639" lon="-1.79961">
        <ele>70</ele>
        <time>2021-03-28T12:20:09.000Z</time>
      </trkpt>
      <trkpt lat="47.11627" lon="-1.79959">
        <ele>70</ele>
        <time>2021-03-28T12:20:11.000Z</time>
      </trkpt>
      <trkpt lat="47.11615" lon="-1.79957">
        <ele>69</ele>
        <time>2021-03-28T12:20:13.000Z</time>
      </trkpt>
      <trkpt lat="47.11603" lon="-1.79956">
        <ele>69</ele>
        <time>2021-03-28T12:20:15.000Z</time>
      </trkpt>
      <trkpt lat="47.1159" lon="-1.79955">
        <ele>69</ele>
        <time>2021-03-28T12:20:17.000Z</time>
      </trkpt>
      <trkpt lat="47.11578" lon="-1.79954">
        <ele>69</ele>
        <time>2021-03-28T12:20:19.000Z</time>
      </trkpt>
      <trkpt lat="47.11566" lon="-1.79955">
        <ele>69</ele>
        <time>2021-03-28T12:20:21.000Z</time>
      </trkpt>
      <trkpt lat="47.11554" lon="-1.79959">
        <ele>69</ele>
        <time>2021-03-28T12:20:23.000Z</time>
      </trkpt>
      <trkpt lat="47.11542" lon="-1.79966">
        <ele>69</ele>
        <time>2021-03-28T12:20:25.000Z</time>
      </trkpt>
      <trkpt lat="47.11532" lon="-1.79974">
        <ele>68</ele>
        <time>2021-03-28T12:20:27.000Z</time>
      </trkpt>
      <trkpt lat="47.11522" lon="-1.79985">
        <ele>69</ele>
        <time>2021-03-28T12:20:29.000Z</time>
      </trkpt>
      <trkpt lat="47.11513" lon="-1.79996">
        <ele>69</ele>
        <time>2021-03-28T12:20:31.000Z</time>
      </trkpt>
      <trkpt lat="47.11503" lon="-1.80008">
        <ele>69</ele>
        <time>2021-03-28T12:20:33.000Z</time>
      </trkpt>
      <trkpt lat="47.11495" lon="-1.8002">
        <ele>68</ele>
        <time>2021-03-28T12:20:35.000Z</time>
      </trkpt>
      <trkpt lat="47.11486" lon="-1.80032">
        <ele>68</ele>
        <time>2021-03-28T12:20:37.000Z</time>
      </trkpt>
      <trkpt lat="47.11478" lon="-1.80043">
        <ele>69</ele>
        <time>2021-03-28T12:20:39.000Z</time>
      </trkpt>
      <trkpt lat="47.11469" lon="-1.80054">
        <ele>68</ele>
        <time>2021-03-28T12:20:41.000Z</time>
      </trkpt>
      <trkpt lat="47.11461" lon="-1.80066">
        <ele>68</ele>
        <time>2021-03-28T12:20:43.000Z</time>
      </trkpt>
      <trkpt lat="47.11452" lon="-1.80077">
        <ele>68</ele>
        <time>2021-03-28T12:20:45.000Z</time>
      </trkpt>
      <trkpt lat="47.11443" lon="-1.80088">
        <ele>68</ele>
        <time>2021-03-28T12:20:47.000Z</time>
      </trkpt>
      <trkpt lat="47.11434" lon="-1.801">
        <ele>68</ele>
        <time>2021-03-28T12:20:49.000Z</time>
      </trkpt>
      <trkpt lat="47.11426" lon="-1.80112">
        <ele>68</ele>
        <time>2021-03-28T12:20:51.000Z</time>
      </trkpt>
      <trkpt lat="47.11417" lon="-1.80124">
        <ele>68</ele>
        <time>2021-03-28T12:20:53.000Z</time>
      </trkpt>
      <trkpt lat="47.11407" lon="-1.80137">
        <ele>68</ele>
        <time>2021-03-28T12:20:55.000Z</time>
      </trkpt>
      <trkpt lat="47.11398" lon="-1.80149">
        <ele>68</ele>
        <time>2021-03-28T12:20:57.000Z</time>
      </trkpt>
      <trkpt lat="47.11389" lon="-1.8016">
        <ele>67</ele>
        <time>2021-03-28T12:20:59.000Z</time>
      </trkpt>
      <trkpt lat="47.11381" lon="-1.80172">
        <ele>67</ele>
        <time>2021-03-28T12:21:01.000Z</time>
      </trkpt>
      <trkpt lat="47.11371" lon="-1.80183">
        <ele>67</ele>
        <time>2021-03-28T12:21:03.000Z</time>
      </trkpt>
      <trkpt lat="47.11362" lon="-1.80195">
        <ele>66</ele>
        <time>2021-03-28T12:21:05.000Z</time>
      </trkpt>
      <trkpt lat="47.11353" lon="-1.80207">
        <ele>66</ele>
        <time>2021-03-28T12:21:07.000Z</time>
      </trkpt>
      <trkpt lat="47.11344" lon="-1.8022">
        <ele>66</ele>
        <time>2021-03-28T12:21:09.000Z</time>
      </trkpt>
      <trkpt lat="47.11335" lon="-1.80233">
        <ele>66</ele>
        <time>2021-03-28T12:21:11.000Z</time>
      </trkpt>
      <trkpt lat="47.11326" lon="-1.80245">
        <ele>66</ele>
        <time>2021-03-28T12:21:13.000Z</time>
      </trkpt>
      <trkpt lat="47.11317" lon="-1.80257">
        <ele>66</ele>
        <time>2021-03-28T12:21:15.000Z</time>
      </trkpt>
      <trkpt lat="47.11308" lon="-1.80269">
        <ele>66</ele>
        <time>2021-03-28T12:21:17.000Z</time>
      </trkpt>
      <trkpt lat="47.11299" lon="-1.80282">
        <ele>65</ele>
        <time>2021-03-28T12:21:19.000Z</time>
      </trkpt>
      <trkpt lat="47.11291" lon="-1.80296">
        <ele>65</ele>
        <time>2021-03-28T12:21:21.000Z</time>
      </trkpt>
      <trkpt lat="47.11282" lon="-1.80309">
        <ele>65</ele>
        <time>2021-03-28T12:21:23.000Z</time>
      </trkpt>
      <trkpt lat="47.11272" lon="-1.80322">
        <ele>65</ele>
        <time>2021-03-28T12:21:25.000Z</time>
      </trkpt>
      <trkpt lat="47.11263" lon="-1.80334">
        <ele>65</ele>
        <time>2021-03-28T12:21:27.000Z</time>
      </trkpt>
      <trkpt lat="47.11254" lon="-1.80346">
        <ele>65</ele>
        <time>2021-03-28T12:21:29.000Z</time>
      </trkpt>
      <trkpt lat="47.11244" lon="-1.80358">
        <ele>64</ele>
        <time>2021-03-28T12:21:31.000Z</time>
      </trkpt>
      <trkpt lat="47.11235" lon="-1.8037">
        <ele>64</ele>
        <time>2021-03-28T12:21:33.000Z</time>
      </trkpt>
      <trkpt lat="47.11227" lon="-1.80381">
        <ele>64</ele>
        <time>2021-03-28T12:21:35.000Z</time>
      </trkpt>
      <trkpt lat="47.11218" lon="-1.80392">
        <ele>64</ele>
        <time>2021-03-28T12:21:37.000Z</time>
      </trkpt>
      <trkpt lat="47.11209" lon="-1.80402">
        <ele>64</ele>
        <time>2021-03-28T12:21:39.000Z</time>
      </trkpt>
      <trkpt lat="47.11199" lon="-1.80412">
        <ele>64</ele>
        <time>2021-03-28T12:21:41.000Z</time>
      </trkpt>
      <trkpt lat="47.1119" lon="-1.80422">
        <ele>64</ele>
        <time>2021-03-28T12:21:43.000Z</time>
      </trkpt>
      <trkpt lat="47.1118" lon="-1.8043">
        <ele>63</ele>
        <time>2021-03-28T12:21:45.000Z</time>
      </trkpt>
      <trkpt lat="47.11169" lon="-1.80438">
        <ele>63</ele>
        <time>2021-03-28T12:21:47.000Z</time>
      </trkpt>
      <trkpt lat="47.11159" lon="-1.80445">
        <ele>63</ele>
        <time>2021-03-28T12:21:49.000Z</time>
      </trkpt>
      <trkpt lat="47.11149" lon="-1.80451">
        <ele>64</ele>
        <time>2021-03-28T12:21:51.000Z</time>
      </trkpt>
      <trkpt lat="47.11139" lon="-1.80458">
        <ele>63</ele>
        <time>2021-03-28T12:21:53.000Z</time>
      </trkpt>
      <trkpt lat="47.11129" lon="-1.80464">
        <ele>64</ele>
        <time>2021-03-28T12:21:55.000Z</time>
      </trkpt>
      <trkpt lat="47.1112" lon="-1.80471">
        <ele>64</ele>
        <time>2021-03-28T12:21:57.000Z</time>
      </trkpt>
      <trkpt lat="47.1111" lon="-1.80478">
        <ele>64</ele>
        <time>2021-03-28T12:21:59.000Z</time>
      </trkpt>
      <trkpt lat="47.111" lon="-1.80485">
        <ele>64</ele>
        <time>2021-03-28T12:22:01.000Z</time>
      </trkpt>
      <trkpt lat="47.11091" lon="-1.80491">
        <ele>64</ele>
        <time>2021-03-28T12:22:03.000Z</time>
      </trkpt>
      <trkpt lat="47.11081" lon="-1.80498">
        <ele>64</ele>
        <time>2021-03-28T12:22:05.000Z</time>
      </trkpt>
      <trkpt lat="47.11071" lon="-1.80504">
        <ele>64</ele>
        <time>2021-03-28T12:22:07.000Z</time>
      </trkpt>
      <trkpt lat="47.11061" lon="-1.8051">
        <ele>64</ele>
        <time>2021-03-28T12:22:09.000Z</time>
      </trkpt>
      <trkpt lat="47.11052" lon="-1.80516">
        <ele>64</ele>
        <time>2021-03-28T12:22:11.000Z</time>
      </trkpt>
      <trkpt lat="47.11042" lon="-1.80523">
        <ele>64</ele>
        <time>2021-03-28T12:22:13.000Z</time>
      </trkpt>
      <trkpt lat="47.11033" lon="-1.80529">
        <ele>64</ele>
        <time>2021-03-28T12:22:15.000Z</time>
      </trkpt>
      <trkpt lat="47.11023" lon="-1.80536">
        <ele>64</ele>
        <time>2021-03-28T12:22:17.000Z</time>
      </trkpt>
      <trkpt lat="47.11013" lon="-1.80543">
        <ele>64</ele>
        <time>2021-03-28T12:22:19.000Z</time>
      </trkpt>
      <trkpt lat="47.11003" lon="-1.80549">
        <ele>64</ele>
        <time>2021-03-28T12:22:21.000Z</time>
      </trkpt>
      <trkpt lat="47.10993" lon="-1.80556">
        <ele>64</ele>
        <time>2021-03-28T12:22:23.000Z</time>
      </trkpt>
      <trkpt lat="47.10982" lon="-1.80563">
        <ele>64</ele>
        <time>2021-03-28T12:22:25.000Z</time>
      </trkpt>
      <trkpt lat="47.10972" lon="-1.8057">
        <ele>64</ele>
        <time>2021-03-28T12:22:27.000Z</time>
      </trkpt>
      <trkpt lat="47.10961" lon="-1.80577">
        <ele>64</ele>
        <time>2021-03-28T12:22:29.000Z</time>
      </trkpt>
      <trkpt lat="47.10951" lon="-1.80584">
        <ele>64</ele>
        <time>2021-03-28T12:22:31.000Z</time>
      </trkpt>
      <trkpt lat="47.1094" lon="-1.80591">
        <ele>63</ele>
        <time>2021-03-28T12:22:33.000Z</time>
      </trkpt>
      <trkpt lat="47.1093" lon="-1.80597">
        <ele>63</ele>
        <time>2021-03-28T12:22:35.000Z</time>
      </trkpt>
      <trkpt lat="47.1092" lon="-1.80604">
        <ele>63</ele>
        <time>2021-03-28T12:22:37.000Z</time>
      </trkpt>
      <trkpt lat="47.10909" lon="-1.80611">
        <ele>63</ele>
        <time>2021-03-28T12:22:39.000Z</time>
      </trkpt>
      <trkpt lat="47.10899" lon="-1.80618">
        <ele>63</ele>
        <time>2021-03-28T12:22:41.000Z</time>
      </trkpt>
      <trkpt lat="47.10889" lon="-1.80625">
        <ele>63</ele>
        <time>2021-03-28T12:22:43.000Z</time>
      </trkpt>
      <trkpt lat="47.10879" lon="-1.80631">
        <ele>63</ele>
        <time>2021-03-28T12:22:45.000Z</time>
      </trkpt>
      <trkpt lat="47.10868" lon="-1.80636">
        <ele>63</ele>
        <time>2021-03-28T12:22:47.000Z</time>
      </trkpt>
      <trkpt lat="47.10858" lon="-1.80641">
        <ele>63</ele>
        <time>2021-03-28T12:22:49.000Z</time>
      </trkpt>
      <trkpt lat="47.10848" lon="-1.80644">
        <ele>63</ele>
        <time>2021-03-28T12:22:51.000Z</time>
      </trkpt>
      <trkpt lat="47.10836" lon="-1.80649">
        <ele>63</ele>
        <time>2021-03-28T12:22:53.000Z</time>
      </trkpt>
      <trkpt lat="47.10825" lon="-1.80652">
        <ele>63</ele>
        <time>2021-03-28T12:22:55.000Z</time>
      </trkpt>
      <trkpt lat="47.10813" lon="-1.80657">
        <ele>62</ele>
        <time>2021-03-28T12:22:57.000Z</time>
      </trkpt>
      <trkpt lat="47.108" lon="-1.80662">
        <ele>62</ele>
        <time>2021-03-28T12:22:59.000Z</time>
      </trkpt>
      <trkpt lat="47.10788" lon="-1.80666">
        <ele>62</ele>
        <time>2021-03-28T12:23:01.000Z</time>
      </trkpt>
      <trkpt lat="47.10776" lon="-1.80671">
        <ele>62</ele>
        <time>2021-03-28T12:23:03.000Z</time>
      </trkpt>
      <trkpt lat="47.10765" lon="-1.80675">
        <ele>62</ele>
        <time>2021-03-28T12:23:05.000Z</time>
      </trkpt>
      <trkpt lat="47.10753" lon="-1.80679">
        <ele>62</ele>
        <time>2021-03-28T12:23:07.000Z</time>
      </trkpt>
      <trkpt lat="47.10741" lon="-1.80681">
        <ele>62</ele>
        <time>2021-03-28T12:23:09.000Z</time>
      </trkpt>
      <trkpt lat="47.10729" lon="-1.80684">
        <ele>62</ele>
        <time>2021-03-28T12:23:11.000Z</time>
      </trkpt>
      <trkpt lat="47.10718" lon="-1.80685">
        <ele>62</ele>
        <time>2021-03-28T12:23:13.000Z</time>
      </trkpt>
      <trkpt lat="47.10706" lon="-1.80686">
        <ele>62</ele>
        <time>2021-03-28T12:23:15.000Z</time>
      </trkpt>
      <trkpt lat="47.10694" lon="-1.80688">
        <ele>62</ele>
        <time>2021-03-28T12:23:17.000Z</time>
      </trkpt>
      <trkpt lat="47.10682" lon="-1.80688">
        <ele>62</ele>
        <time>2021-03-28T12:23:19.000Z</time>
      </trkpt>
      <trkpt lat="47.10671" lon="-1.80689">
        <ele>62</ele>
        <time>2021-03-28T12:23:21.000Z</time>
      </trkpt>
      <trkpt lat="47.10659" lon="-1.80691">
        <ele>62</ele>
        <time>2021-03-28T12:23:23.000Z</time>
      </trkpt>
      <trkpt lat="47.10648" lon="-1.80692">
        <ele>62</ele>
        <time>2021-03-28T12:23:25.000Z</time>
      </trkpt>
      <trkpt lat="47.10637" lon="-1.80694">
        <ele>62</ele>
        <time>2021-03-28T12:23:27.000Z</time>
      </trkpt>
      <trkpt lat="47.10626" lon="-1.80697">
        <ele>62</ele>
        <time>2021-03-28T12:23:29.000Z</time>
      </trkpt>
      <trkpt lat="47.10614" lon="-1.80701">
        <ele>62</ele>
        <time>2021-03-28T12:23:31.000Z</time>
      </trkpt>
      <trkpt lat="47.10603" lon="-1.80706">
        <ele>61</ele>
        <time>2021-03-28T12:23:33.000Z</time>
      </trkpt>
      <trkpt lat="47.10593" lon="-1.80712">
        <ele>61</ele>
        <time>2021-03-28T12:23:35.000Z</time>
      </trkpt>
      <trkpt lat="47.10582" lon="-1.80719">
        <ele>61</ele>
        <time>2021-03-28T12:23:37.000Z</time>
      </trkpt>
      <trkpt lat="47.10573" lon="-1.80728">
        <ele>61</ele>
        <time>2021-03-28T12:23:39.000Z</time>
      </trkpt>
      <trkpt lat="47.10564" lon="-1.80738">
        <ele>61</ele>
        <time>2021-03-28T12:23:41.000Z</time>
      </trkpt>
      <trkpt lat="47.10556" lon="-1.80749">
        <ele>61</ele>
        <time>2021-03-28T12:23:43.000Z</time>
      </trkpt>
      <trkpt lat="47.10547" lon="-1.80759">
        <ele>61</ele>
        <time>2021-03-28T12:23:45.000Z</time>
      </trkpt>
      <trkpt lat="47.10538" lon="-1.80768">
        <ele>61</ele>
        <time>2021-03-28T12:23:47.000Z</time>
      </trkpt>
      <trkpt lat="47.10529" lon="-1.80779">
        <ele>61</ele>
        <time>2021-03-28T12:23:49.000Z</time>
      </trkpt>
      <trkpt lat="47.10521" lon="-1.80792">
        <ele>60</ele>
        <time>2021-03-28T12:23:51.000Z</time>
      </trkpt>
      <trkpt lat="47.10513" lon="-1.80804">
        <ele>60</ele>
        <time>2021-03-28T12:23:53.000Z</time>
      </trkpt>
      <trkpt lat="47.10502" lon="-1.80812">
        <ele>60</ele>
        <time>2021-03-28T12:23:55.000Z</time>
      </trkpt>
      <trkpt lat="47.10491" lon="-1.8082">
        <ele>59</ele>
        <time>2021-03-28T12:23:57.000Z</time>
      </trkpt>
      <trkpt lat="47.10482" lon="-1.80831">
        <ele>59</ele>
        <time>2021-03-28T12:23:59.000Z</time>
      </trkpt>
      <trkpt lat="47.10473" lon="-1.80843">
        <ele>59</ele>
        <time>2021-03-28T12:24:01.000Z</time>
      </trkpt>
      <trkpt lat="47.10466" lon="-1.80856">
        <ele>59</ele>
        <time>2021-03-28T12:24:03.000Z</time>
      </trkpt>
      <trkpt lat="47.10458" lon="-1.80869">
        <ele>59</ele>
        <time>2021-03-28T12:24:05.000Z</time>
      </trkpt>
      <trkpt lat="47.10451" lon="-1.80882">
        <ele>60</ele>
        <time>2021-03-28T12:24:07.000Z</time>
      </trkpt>
      <trkpt lat="47.10444" lon="-1.80895">
        <ele>59</ele>
        <time>2021-03-28T12:24:09.000Z</time>
      </trkpt>
      <trkpt lat="47.10436" lon="-1.80906">
        <ele>60</ele>
        <time>2021-03-28T12:24:11.000Z</time>
      </trkpt>
      <trkpt lat="47.10428" lon="-1.80917">
        <ele>61</ele>
        <time>2021-03-28T12:24:13.000Z</time>
      </trkpt>
      <trkpt lat="47.10421" lon="-1.80929">
        <ele>61</ele>
        <time>2021-03-28T12:24:15.000Z</time>
      </trkpt>
      <trkpt lat="47.10414" lon="-1.8094">
        <ele>61</ele>
        <time>2021-03-28T12:24:17.000Z</time>
      </trkpt>
      <trkpt lat="47.10406" lon="-1.80952">
        <ele>61</ele>
        <time>2021-03-28T12:24:19.000Z</time>
      </trkpt>
      <trkpt lat="47.10399" lon="-1.80964">
        <ele>62</ele>
        <time>2021-03-28T12:24:21.000Z</time>
      </trkpt>
      <trkpt lat="47.10392" lon="-1.80974">
        <ele>62</ele>
        <time>2021-03-28T12:24:23.000Z</time>
      </trkpt>
      <trkpt lat="47.10386" lon="-1.80985">
        <ele>62</ele>
        <time>2021-03-28T12:24:25.000Z</time>
      </trkpt>
      <trkpt lat="47.1038" lon="-1.80996">
        <ele>62</ele>
        <time>2021-03-28T12:24:27.000Z</time>
      </trkpt>
      <trkpt lat="47.10375" lon="-1.81009">
        <ele>61</ele>
        <time>2021-03-28T12:24:29.000Z</time>
      </trkpt>
      <trkpt lat="47.1037" lon="-1.81022">
        <ele>61</ele>
        <time>2021-03-28T12:24:31.000Z</time>
      </trkpt>
      <trkpt lat="47.10366" lon="-1.81034">
        <ele>61</ele>
        <time>2021-03-28T12:24:33.000Z</time>
      </trkpt>
      <trkpt lat="47.10359" lon="-1.81044">
        <ele>61</ele>
        <time>2021-03-28T12:24:35.000Z</time>
      </trkpt>
      <trkpt lat="47.10349" lon="-1.8104">
        <ele>61</ele>
        <time>2021-03-28T12:24:37.000Z</time>
      </trkpt>
      <trkpt lat="47.10342" lon="-1.81026">
        <ele>60</ele>
        <time>2021-03-28T12:24:39.000Z</time>
      </trkpt>
      <trkpt lat="47.10337" lon="-1.81015">
        <ele>61</ele>
        <time>2021-03-28T12:24:41.000Z</time>
      </trkpt>
      <trkpt lat="47.10329" lon="-1.81008">
        <ele>60</ele>
        <time>2021-03-28T12:24:45.000Z</time>
      </trkpt>
      <trkpt lat="47.10319" lon="-1.8101">
        <ele>58</ele>
        <time>2021-03-28T12:24:50.000Z</time>
      </trkpt>
      <trkpt lat="47.10306" lon="-1.8101">
        <ele>58</ele>
        <time>2021-03-28T12:24:54.000Z</time>
      </trkpt>
      <trkpt lat="47.10296" lon="-1.81008">
        <ele>57</ele>
        <time>2021-03-28T12:24:56.000Z</time>
      </trkpt>
      <trkpt lat="47.10286" lon="-1.81007">
        <ele>57</ele>
        <time>2021-03-28T12:24:58.000Z</time>
      </trkpt>
      <trkpt lat="47.10276" lon="-1.81006">
        <ele>58</ele>
        <time>2021-03-28T12:25:00.000Z</time>
      </trkpt>
      <trkpt lat="47.10266" lon="-1.81006">
        <ele>59</ele>
        <time>2021-03-28T12:25:02.000Z</time>
      </trkpt>
      <trkpt lat="47.10257" lon="-1.81009">
        <ele>59</ele>
        <time>2021-03-28T12:25:04.000Z</time>
      </trkpt>
      <trkpt lat="47.10247" lon="-1.81009">
        <ele>59</ele>
        <time>2021-03-28T12:25:06.000Z</time>
      </trkpt>
      <trkpt lat="47.10237" lon="-1.8101">
        <ele>60</ele>
        <time>2021-03-28T12:25:08.000Z</time>
      </trkpt>
      <trkpt lat="47.10225" lon="-1.8101">
        <ele>59</ele>
        <time>2021-03-28T12:25:10.000Z</time>
      </trkpt>
      <trkpt lat="47.10216" lon="-1.81006">
        <ele>59</ele>
        <time>2021-03-28T12:25:12.000Z</time>
      </trkpt>
      <trkpt lat="47.10206" lon="-1.81001">
        <ele>59</ele>
        <time>2021-03-28T12:25:14.000Z</time>
      </trkpt>
      <trkpt lat="47.10196" lon="-1.80996">
        <ele>59</ele>
        <time>2021-03-28T12:25:16.000Z</time>
      </trkpt>
      <trkpt lat="47.10186" lon="-1.80993">
        <ele>58</ele>
        <time>2021-03-28T12:25:18.000Z</time>
      </trkpt>
      <trkpt lat="47.10177" lon="-1.80988">
        <ele>58</ele>
        <time>2021-03-28T12:25:20.000Z</time>
      </trkpt>
      <trkpt lat="47.10169" lon="-1.80983">
        <ele>57</ele>
        <time>2021-03-28T12:25:22.000Z</time>
      </trkpt>
      <trkpt lat="47.1016" lon="-1.80978">
        <ele>57</ele>
        <time>2021-03-28T12:25:24.000Z</time>
      </trkpt>
      <trkpt lat="47.10151" lon="-1.80973">
        <ele>57</ele>
        <time>2021-03-28T12:25:26.000Z</time>
      </trkpt>
      <trkpt lat="47.10142" lon="-1.80972">
        <ele>57</ele>
        <time>2021-03-28T12:25:28.000Z</time>
      </trkpt>
      <trkpt lat="47.10132" lon="-1.80971">
        <ele>56</ele>
        <time>2021-03-28T12:25:30.000Z</time>
      </trkpt>
      <trkpt lat="47.10122" lon="-1.80972">
        <ele>56</ele>
        <time>2021-03-28T12:25:32.000Z</time>
      </trkpt>
      <trkpt lat="47.10112" lon="-1.80972">
        <ele>55</ele>
        <time>2021-03-28T12:25:34.000Z</time>
      </trkpt>
      <trkpt lat="47.10102" lon="-1.80972">
        <ele>55</ele>
        <time>2021-03-28T12:25:36.000Z</time>
      </trkpt>
      <trkpt lat="47.10092" lon="-1.80973">
        <ele>55</ele>
        <time>2021-03-28T12:25:38.000Z</time>
      </trkpt>
      <trkpt lat="47.10082" lon="-1.80973">
        <ele>55</ele>
        <time>2021-03-28T12:25:40.000Z</time>
      </trkpt>
      <trkpt lat="47.10073" lon="-1.80973">
        <ele>55</ele>
        <time>2021-03-28T12:25:42.000Z</time>
      </trkpt>
      <trkpt lat="47.10063" lon="-1.80972">
        <ele>56</ele>
        <time>2021-03-28T12:25:44.000Z</time>
      </trkpt>
      <trkpt lat="47.10054" lon="-1.80972">
        <ele>56</ele>
        <time>2021-03-28T12:25:46.000Z</time>
      </trkpt>
      <trkpt lat="47.10045" lon="-1.80973">
        <ele>56</ele>
        <time>2021-03-28T12:25:48.000Z</time>
      </trkpt>
      <trkpt lat="47.10035" lon="-1.80974">
        <ele>56</ele>
        <time>2021-03-28T12:25:50.000Z</time>
      </trkpt>
      <trkpt lat="47.10025" lon="-1.80976">
        <ele>56</ele>
        <time>2021-03-28T12:25:52.000Z</time>
      </trkpt>
      <trkpt lat="47.10015" lon="-1.80977">
        <ele>57</ele>
        <time>2021-03-28T12:25:54.000Z</time>
      </trkpt>
      <trkpt lat="47.10005" lon="-1.80978">
        <ele>57</ele>
        <time>2021-03-28T12:25:56.000Z</time>
      </trkpt>
      <trkpt lat="47.09995" lon="-1.80978">
        <ele>57</ele>
        <time>2021-03-28T12:25:58.000Z</time>
      </trkpt>
      <trkpt lat="47.09985" lon="-1.80978">
        <ele>57</ele>
        <time>2021-03-28T12:26:00.000Z</time>
      </trkpt>
      <trkpt lat="47.09975" lon="-1.80978">
        <ele>58</ele>
        <time>2021-03-28T12:26:02.000Z</time>
      </trkpt>
      <trkpt lat="47.09966" lon="-1.80978">
        <ele>58</ele>
        <time>2021-03-28T12:26:04.000Z</time>
      </trkpt>
      <trkpt lat="47.09956" lon="-1.80979">
        <ele>58</ele>
        <time>2021-03-28T12:26:06.000Z</time>
      </trkpt>
      <trkpt lat="47.09946" lon="-1.8098">
        <ele>58</ele>
        <time>2021-03-28T12:26:08.000Z</time>
      </trkpt>
      <trkpt lat="47.09937" lon="-1.80981">
        <ele>59</ele>
        <time>2021-03-28T12:26:10.000Z</time>
      </trkpt>
      <trkpt lat="47.09927" lon="-1.80982">
        <ele>59</ele>
        <time>2021-03-28T12:26:12.000Z</time>
      </trkpt>
      <trkpt lat="47.09917" lon="-1.80983">
        <ele>59</ele>
        <time>2021-03-28T12:26:14.000Z</time>
      </trkpt>
      <trkpt lat="47.09907" lon="-1.80984">
        <ele>60</ele>
        <time>2021-03-28T12:26:16.000Z</time>
      </trkpt>
      <trkpt lat="47.09897" lon="-1.80985">
        <ele>60</ele>
        <time>2021-03-28T12:26:18.000Z</time>
      </trkpt>
      <trkpt lat="47.09887" lon="-1.80985">
        <ele>60</ele>
        <time>2021-03-28T12:26:20.000Z</time>
      </trkpt>
      <trkpt lat="47.09877" lon="-1.80985">
        <ele>61</ele>
        <time>2021-03-28T12:26:22.000Z</time>
      </trkpt>
      <trkpt lat="47.09868" lon="-1.80986">
        <ele>61</ele>
        <time>2021-03-28T12:26:24.000Z</time>
      </trkpt>
      <trkpt lat="47.09858" lon="-1.80986">
        <ele>61</ele>
        <time>2021-03-28T12:26:26.000Z</time>
      </trkpt>
      <trkpt lat="47.09848" lon="-1.80986">
        <ele>61</ele>
        <time>2021-03-28T12:26:28.000Z</time>
      </trkpt>
      <trkpt lat="47.09838" lon="-1.80987">
        <ele>61</ele>
        <time>2021-03-28T12:26:30.000Z</time>
      </trkpt>
      <trkpt lat="47.09829" lon="-1.80988">
        <ele>61</ele>
        <time>2021-03-28T12:26:32.000Z</time>
      </trkpt>
      <trkpt lat="47.09819" lon="-1.80989">
        <ele>61</ele>
        <time>2021-03-28T12:26:34.000Z</time>
      </trkpt>
      <trkpt lat="47.09806" lon="-1.8099">
        <ele>61</ele>
        <time>2021-03-28T12:26:37.000Z</time>
      </trkpt>
      <trkpt lat="47.09797" lon="-1.8099">
        <ele>61</ele>
        <time>2021-03-28T12:26:39.000Z</time>
      </trkpt>
      <trkpt lat="47.09787" lon="-1.80989">
        <ele>61</ele>
        <time>2021-03-28T12:26:41.000Z</time>
      </trkpt>
      <trkpt lat="47.09777" lon="-1.80987">
        <ele>61</ele>
        <time>2021-03-28T12:26:43.000Z</time>
      </trkpt>
      <trkpt lat="47.09767" lon="-1.80986">
        <ele>61</ele>
        <time>2021-03-28T12:26:45.000Z</time>
      </trkpt>
      <trkpt lat="47.09756" lon="-1.80984">
        <ele>61</ele>
        <time>2021-03-28T12:26:47.000Z</time>
      </trkpt>
      <trkpt lat="47.09745" lon="-1.80981">
        <ele>60</ele>
        <time>2021-03-28T12:26:49.000Z</time>
      </trkpt>
      <trkpt lat="47.09734" lon="-1.80978">
        <ele>60</ele>
        <time>2021-03-28T12:26:51.000Z</time>
      </trkpt>
      <trkpt lat="47.09722" lon="-1.80976">
        <ele>60</ele>
        <time>2021-03-28T12:26:53.000Z</time>
      </trkpt>
      <trkpt lat="47.0971" lon="-1.80973">
        <ele>59</ele>
        <time>2021-03-28T12:26:55.000Z</time>
      </trkpt>
      <trkpt lat="47.09697" lon="-1.80971">
        <ele>59</ele>
        <time>2021-03-28T12:26:57.000Z</time>
      </trkpt>
      <trkpt lat="47.09684" lon="-1.80968">
        <ele>59</ele>
        <time>2021-03-28T12:26:59.000Z</time>
      </trkpt>
      <trkpt lat="47.09672" lon="-1.80965">
        <ele>58</ele>
        <time>2021-03-28T12:27:01.000Z</time>
      </trkpt>
      <trkpt lat="47.09659" lon="-1.80962">
        <ele>58</ele>
        <time>2021-03-28T12:27:03.000Z</time>
      </trkpt>
      <trkpt lat="47.09647" lon="-1.8096">
        <ele>58</ele>
        <time>2021-03-28T12:27:05.000Z</time>
      </trkpt>
      <trkpt lat="47.09635" lon="-1.80958">
        <ele>58</ele>
        <time>2021-03-28T12:27:07.000Z</time>
      </trkpt>
      <trkpt lat="47.09623" lon="-1.80955">
        <ele>57</ele>
        <time>2021-03-28T12:27:09.000Z</time>
      </trkpt>
      <trkpt lat="47.09612" lon="-1.80953">
        <ele>57</ele>
        <time>2021-03-28T12:27:11.000Z</time>
      </trkpt>
      <trkpt lat="47.096" lon="-1.8095">
        <ele>57</ele>
        <time>2021-03-28T12:27:13.000Z</time>
      </trkpt>
      <trkpt lat="47.09588" lon="-1.80944">
        <ele>57</ele>
        <time>2021-03-28T12:27:15.000Z</time>
      </trkpt>
      <trkpt lat="47.09576" lon="-1.80941">
        <ele>57</ele>
        <time>2021-03-28T12:27:17.000Z</time>
      </trkpt>
      <trkpt lat="47.09563" lon="-1.80939">
        <ele>57</ele>
        <time>2021-03-28T12:27:19.000Z</time>
      </trkpt>
      <trkpt lat="47.09551" lon="-1.80936">
        <ele>57</ele>
        <time>2021-03-28T12:27:21.000Z</time>
      </trkpt>
      <trkpt lat="47.09539" lon="-1.80933">
        <ele>57</ele>
        <time>2021-03-28T12:27:23.000Z</time>
      </trkpt>
      <trkpt lat="47.09527" lon="-1.8093">
        <ele>57</ele>
        <time>2021-03-28T12:27:25.000Z</time>
      </trkpt>
      <trkpt lat="47.09515" lon="-1.80928">
        <ele>57</ele>
        <time>2021-03-28T12:27:27.000Z</time>
      </trkpt>
      <trkpt lat="47.09502" lon="-1.80925">
        <ele>57</ele>
        <time>2021-03-28T12:27:29.000Z</time>
      </trkpt>
      <trkpt lat="47.0949" lon="-1.80925">
        <ele>57</ele>
        <time>2021-03-28T12:27:31.000Z</time>
      </trkpt>
      <trkpt lat="47.09478" lon="-1.80929">
        <ele>57</ele>
        <time>2021-03-28T12:27:33.000Z</time>
      </trkpt>
      <trkpt lat="47.09467" lon="-1.80935">
        <ele>57</ele>
        <time>2021-03-28T12:27:35.000Z</time>
      </trkpt>
      <trkpt lat="47.09456" lon="-1.80942">
        <ele>58</ele>
        <time>2021-03-28T12:27:37.000Z</time>
      </trkpt>
      <trkpt lat="47.09445" lon="-1.80948">
        <ele>58</ele>
        <time>2021-03-28T12:27:39.000Z</time>
      </trkpt>
      <trkpt lat="47.09434" lon="-1.80955">
        <ele>58</ele>
        <time>2021-03-28T12:27:41.000Z</time>
      </trkpt>
      <trkpt lat="47.09423" lon="-1.80961">
        <ele>58</ele>
        <time>2021-03-28T12:27:43.000Z</time>
      </trkpt>
      <trkpt lat="47.09412" lon="-1.80968">
        <ele>58</ele>
        <time>2021-03-28T12:27:45.000Z</time>
      </trkpt>
      <trkpt lat="47.09401" lon="-1.80975">
        <ele>58</ele>
        <time>2021-03-28T12:27:47.000Z</time>
      </trkpt>
      <trkpt lat="47.09389" lon="-1.80983">
        <ele>57</ele>
        <time>2021-03-28T12:27:49.000Z</time>
      </trkpt>
      <trkpt lat="47.09377" lon="-1.8099">
        <ele>57</ele>
        <time>2021-03-28T12:27:51.000Z</time>
      </trkpt>
      <trkpt lat="47.09364" lon="-1.80997">
        <ele>56</ele>
        <time>2021-03-28T12:27:53.000Z</time>
      </trkpt>
      <trkpt lat="47.09351" lon="-1.81004">
        <ele>56</ele>
        <time>2021-03-28T12:27:55.000Z</time>
      </trkpt>
      <trkpt lat="47.09338" lon="-1.81011">
        <ele>55</ele>
        <time>2021-03-28T12:27:57.000Z</time>
      </trkpt>
      <trkpt lat="47.09326" lon="-1.81019">
        <ele>55</ele>
        <time>2021-03-28T12:27:59.000Z</time>
      </trkpt>
      <trkpt lat="47.09314" lon="-1.81027">
        <ele>55</ele>
        <time>2021-03-28T12:28:01.000Z</time>
      </trkpt>
      <trkpt lat="47.09302" lon="-1.81034">
        <ele>55</ele>
        <time>2021-03-28T12:28:03.000Z</time>
      </trkpt>
      <trkpt lat="47.09289" lon="-1.81041">
        <ele>54</ele>
        <time>2021-03-28T12:28:05.000Z</time>
      </trkpt>
      <trkpt lat="47.09277" lon="-1.81048">
        <ele>54</ele>
        <time>2021-03-28T12:28:07.000Z</time>
      </trkpt>
      <trkpt lat="47.09266" lon="-1.81055">
        <ele>54</ele>
        <time>2021-03-28T12:28:09.000Z</time>
      </trkpt>
      <trkpt lat="47.09255" lon="-1.81062">
        <ele>54</ele>
        <time>2021-03-28T12:28:11.000Z</time>
      </trkpt>
      <trkpt lat="47.09244" lon="-1.8107">
        <ele>53</ele>
        <time>2021-03-28T12:28:13.000Z</time>
      </trkpt>
      <trkpt lat="47.09234" lon="-1.81079">
        <ele>53</ele>
        <time>2021-03-28T12:28:15.000Z</time>
      </trkpt>
      <trkpt lat="47.09227" lon="-1.81087">
        <ele>54</ele>
        <time>2021-03-28T12:28:17.000Z</time>
      </trkpt>
      <trkpt lat="47.09212" lon="-1.81084">
        <ele>54</ele>
        <time>2021-03-28T12:28:20.000Z</time>
      </trkpt>
      <trkpt lat="47.09201" lon="-1.81076">
        <ele>53</ele>
        <time>2021-03-28T12:28:22.000Z</time>
      </trkpt>
      <trkpt lat="47.09191" lon="-1.81066">
        <ele>53</ele>
        <time>2021-03-28T12:28:24.000Z</time>
      </trkpt>
      <trkpt lat="47.0918" lon="-1.81058">
        <ele>53</ele>
        <time>2021-03-28T12:28:26.000Z</time>
      </trkpt>
      <trkpt lat="47.0917" lon="-1.81053">
        <ele>53</ele>
        <time>2021-03-28T12:28:28.000Z</time>
      </trkpt>
      <trkpt lat="47.09162" lon="-1.81067">
        <ele>53</ele>
        <time>2021-03-28T12:28:30.000Z</time>
      </trkpt>
      <trkpt lat="47.09154" lon="-1.81083">
        <ele>53</ele>
        <time>2021-03-28T12:28:32.000Z</time>
      </trkpt>
      <trkpt lat="47.09144" lon="-1.81097">
        <ele>52</ele>
        <time>2021-03-28T12:28:34.000Z</time>
      </trkpt>
      <trkpt lat="47.09134" lon="-1.81107">
        <ele>53</ele>
        <time>2021-03-28T12:28:36.000Z</time>
      </trkpt>
      <trkpt lat="47.09122" lon="-1.81113">
        <ele>53</ele>
        <time>2021-03-28T12:28:38.000Z</time>
      </trkpt>
      <trkpt lat="47.09111" lon="-1.81115">
        <ele>53</ele>
        <time>2021-03-28T12:28:40.000Z</time>
      </trkpt>
      <trkpt lat="47.09098" lon="-1.81118">
        <ele>53</ele>
        <time>2021-03-28T12:28:42.000Z</time>
      </trkpt>
      <trkpt lat="47.09086" lon="-1.8112">
        <ele>52</ele>
        <time>2021-03-28T12:28:44.000Z</time>
      </trkpt>
      <trkpt lat="47.09074" lon="-1.81124">
        <ele>52</ele>
        <time>2021-03-28T12:28:46.000Z</time>
      </trkpt>
      <trkpt lat="47.09064" lon="-1.81132">
        <ele>52</ele>
        <time>2021-03-28T12:28:48.000Z</time>
      </trkpt>
      <trkpt lat="47.09056" lon="-1.81144">
        <ele>51</ele>
        <time>2021-03-28T12:28:50.000Z</time>
      </trkpt>
      <trkpt lat="47.0905" lon="-1.81157">
        <ele>52</ele>
        <time>2021-03-28T12:28:52.000Z</time>
      </trkpt>
      <trkpt lat="47.09046" lon="-1.81171">
        <ele>53</ele>
        <time>2021-03-28T12:28:54.000Z</time>
      </trkpt>
      <trkpt lat="47.09042" lon="-1.81185">
        <ele>53</ele>
        <time>2021-03-28T12:28:56.000Z</time>
      </trkpt>
      <trkpt lat="47.09038" lon="-1.81199">
        <ele>53</ele>
        <time>2021-03-28T12:28:58.000Z</time>
      </trkpt>
      <trkpt lat="47.09034" lon="-1.81213">
        <ele>53</ele>
        <time>2021-03-28T12:29:00.000Z</time>
      </trkpt>
      <trkpt lat="47.09029" lon="-1.81226">
        <ele>54</ele>
        <time>2021-03-28T12:29:02.000Z</time>
      </trkpt>
      <trkpt lat="47.09024" lon="-1.81239">
        <ele>54</ele>
        <time>2021-03-28T12:29:04.000Z</time>
      </trkpt>
      <trkpt lat="47.09018" lon="-1.8125">
        <ele>54</ele>
        <time>2021-03-28T12:29:06.000Z</time>
      </trkpt>
      <trkpt lat="47.09012" lon="-1.81261">
        <ele>55</ele>
        <time>2021-03-28T12:29:08.000Z</time>
      </trkpt>
      <trkpt lat="47.09005" lon="-1.81272">
        <ele>55</ele>
        <time>2021-03-28T12:29:10.000Z</time>
      </trkpt>
      <trkpt lat="47.08998" lon="-1.81281">
        <ele>55</ele>
        <time>2021-03-28T12:29:12.000Z</time>
      </trkpt>
      <trkpt lat="47.08991" lon="-1.81292">
        <ele>56</ele>
        <time>2021-03-28T12:29:14.000Z</time>
      </trkpt>
      <trkpt lat="47.08984" lon="-1.81302">
        <ele>56</ele>
        <time>2021-03-28T12:29:16.000Z</time>
      </trkpt>
      <trkpt lat="47.08976" lon="-1.81312">
        <ele>56</ele>
        <time>2021-03-28T12:29:18.000Z</time>
      </trkpt>
      <trkpt lat="47.08969" lon="-1.81322">
        <ele>56</ele>
        <time>2021-03-28T12:29:20.000Z</time>
      </trkpt>
      <trkpt lat="47.08961" lon="-1.81333">
        <ele>56</ele>
        <time>2021-03-28T12:29:22.000Z</time>
      </trkpt>
      <trkpt lat="47.08953" lon="-1.81343">
        <ele>56</ele>
        <time>2021-03-28T12:29:24.000Z</time>
      </trkpt>
      <trkpt lat="47.08945" lon="-1.81353">
        <ele>56</ele>
        <time>2021-03-28T12:29:26.000Z</time>
      </trkpt>
      <trkpt lat="47.08937" lon="-1.81363">
        <ele>57</ele>
        <time>2021-03-28T12:29:28.000Z</time>
      </trkpt>
      <trkpt lat="47.08928" lon="-1.81371">
        <ele>57</ele>
        <time>2021-03-28T12:29:30.000Z</time>
      </trkpt>
      <trkpt lat="47.08919" lon="-1.81381">
        <ele>57</ele>
        <time>2021-03-28T12:29:32.000Z</time>
      </trkpt>
      <trkpt lat="47.0891" lon="-1.81389">
        <ele>57</ele>
        <time>2021-03-28T12:29:34.000Z</time>
      </trkpt>
      <trkpt lat="47.08901" lon="-1.81399">
        <ele>57</ele>
        <time>2021-03-28T12:29:36.000Z</time>
      </trkpt>
      <trkpt lat="47.08893" lon="-1.81409">
        <ele>58</ele>
        <time>2021-03-28T12:29:38.000Z</time>
      </trkpt>
      <trkpt lat="47.08885" lon="-1.81419">
        <ele>58</ele>
        <time>2021-03-28T12:29:40.000Z</time>
      </trkpt>
      <trkpt lat="47.08878" lon="-1.81429">
        <ele>58</ele>
        <time>2021-03-28T12:29:42.000Z</time>
      </trkpt>
      <trkpt lat="47.0887" lon="-1.81439">
        <ele>58</ele>
        <time>2021-03-28T12:29:44.000Z</time>
      </trkpt>
      <trkpt lat="47.08862" lon="-1.81448">
        <ele>58</ele>
        <time>2021-03-28T12:29:46.000Z</time>
      </trkpt>
      <trkpt lat="47.08853" lon="-1.81456">
        <ele>59</ele>
        <time>2021-03-28T12:29:48.000Z</time>
      </trkpt>
      <trkpt lat="47.08845" lon="-1.81464">
        <ele>59</ele>
        <time>2021-03-28T12:29:50.000Z</time>
      </trkpt>
      <trkpt lat="47.08836" lon="-1.81472">
        <ele>59</ele>
        <time>2021-03-28T12:29:52.000Z</time>
      </trkpt>
      <trkpt lat="47.08827" lon="-1.81479">
        <ele>59</ele>
        <time>2021-03-28T12:29:54.000Z</time>
      </trkpt>
      <trkpt lat="47.08819" lon="-1.81486">
        <ele>59</ele>
        <time>2021-03-28T12:29:56.000Z</time>
      </trkpt>
      <trkpt lat="47.08811" lon="-1.81492">
        <ele>60</ele>
        <time>2021-03-28T12:29:58.000Z</time>
      </trkpt>
      <trkpt lat="47.088" lon="-1.81502">
        <ele>60</ele>
        <time>2021-03-28T12:30:01.000Z</time>
      </trkpt>
      <trkpt lat="47.08791" lon="-1.81509">
        <ele>60</ele>
        <time>2021-03-28T12:30:03.000Z</time>
      </trkpt>
      <trkpt lat="47.08783" lon="-1.81515">
        <ele>60</ele>
        <time>2021-03-28T12:30:05.000Z</time>
      </trkpt>
      <trkpt lat="47.08775" lon="-1.81523">
        <ele>61</ele>
        <time>2021-03-28T12:30:07.000Z</time>
      </trkpt>
      <trkpt lat="47.08767" lon="-1.8153">
        <ele>61</ele>
        <time>2021-03-28T12:30:09.000Z</time>
      </trkpt>
      <trkpt lat="47.08759" lon="-1.81537">
        <ele>62</ele>
        <time>2021-03-28T12:30:11.000Z</time>
      </trkpt>
      <trkpt lat="47.08751" lon="-1.81544">
        <ele>62</ele>
        <time>2021-03-28T12:30:13.000Z</time>
      </trkpt>
      <trkpt lat="47.08743" lon="-1.81553">
        <ele>62</ele>
        <time>2021-03-28T12:30:15.000Z</time>
      </trkpt>
      <trkpt lat="47.08737" lon="-1.81563">
        <ele>63</ele>
        <time>2021-03-28T12:30:17.000Z</time>
      </trkpt>
      <trkpt lat="47.08731" lon="-1.81574">
        <ele>63</ele>
        <time>2021-03-28T12:30:19.000Z</time>
      </trkpt>
      <trkpt lat="47.08726" lon="-1.81586">
        <ele>63</ele>
        <time>2021-03-28T12:30:21.000Z</time>
      </trkpt>
      <trkpt lat="47.08721" lon="-1.81598">
        <ele>63</ele>
        <time>2021-03-28T12:30:23.000Z</time>
      </trkpt>
      <trkpt lat="47.08716" lon="-1.81611">
        <ele>63</ele>
        <time>2021-03-28T12:30:25.000Z</time>
      </trkpt>
      <trkpt lat="47.08711" lon="-1.81624">
        <ele>64</ele>
        <time>2021-03-28T12:30:27.000Z</time>
      </trkpt>
      <trkpt lat="47.08707" lon="-1.81636">
        <ele>64</ele>
        <time>2021-03-28T12:30:29.000Z</time>
      </trkpt>
      <trkpt lat="47.087" lon="-1.81654">
        <ele>64</ele>
        <time>2021-03-28T12:30:32.000Z</time>
      </trkpt>
      <trkpt lat="47.08695" lon="-1.81666">
        <ele>64</ele>
        <time>2021-03-28T12:30:34.000Z</time>
      </trkpt>
      <trkpt lat="47.08689" lon="-1.81677">
        <ele>64</ele>
        <time>2021-03-28T12:30:36.000Z</time>
      </trkpt>
      <trkpt lat="47.0868" lon="-1.81685">
        <ele>64</ele>
        <time>2021-03-28T12:30:38.000Z</time>
      </trkpt>
      <trkpt lat="47.08671" lon="-1.8169">
        <ele>64</ele>
        <time>2021-03-28T12:30:40.000Z</time>
      </trkpt>
      <trkpt lat="47.08661" lon="-1.81695">
        <ele>64</ele>
        <time>2021-03-28T12:30:42.000Z</time>
      </trkpt>
      <trkpt lat="47.08652" lon="-1.81696">
        <ele>65</ele>
        <time>2021-03-28T12:30:44.000Z</time>
      </trkpt>
      <trkpt lat="47.08642" lon="-1.81695">
        <ele>65</ele>
        <time>2021-03-28T12:30:46.000Z</time>
      </trkpt>
      <trkpt lat="47.08633" lon="-1.81693">
        <ele>65</ele>
        <time>2021-03-28T12:30:48.000Z</time>
      </trkpt>
      <trkpt lat="47.08623" lon="-1.8169">
        <ele>65</ele>
        <time>2021-03-28T12:30:50.000Z</time>
      </trkpt>
      <trkpt lat="47.08613" lon="-1.81687">
        <ele>66</ele>
        <time>2021-03-28T12:30:52.000Z</time>
      </trkpt>
      <trkpt lat="47.08603" lon="-1.81685">
        <ele>65</ele>
        <time>2021-03-28T12:30:54.000Z</time>
      </trkpt>
      <trkpt lat="47.08593" lon="-1.81682">
        <ele>65</ele>
        <time>2021-03-28T12:30:56.000Z</time>
      </trkpt>
      <trkpt lat="47.08584" lon="-1.81679">
        <ele>65</ele>
        <time>2021-03-28T12:30:58.000Z</time>
      </trkpt>
      <trkpt lat="47.08574" lon="-1.81678">
        <ele>65</ele>
        <time>2021-03-28T12:31:00.000Z</time>
      </trkpt>
      <trkpt lat="47.08564" lon="-1.81676">
        <ele>65</ele>
        <time>2021-03-28T12:31:02.000Z</time>
      </trkpt>
      <trkpt lat="47.08554" lon="-1.81673">
        <ele>65</ele>
        <time>2021-03-28T12:31:04.000Z</time>
      </trkpt>
      <trkpt lat="47.08543" lon="-1.8167">
        <ele>66</ele>
        <time>2021-03-28T12:31:06.000Z</time>
      </trkpt>
      <trkpt lat="47.08533" lon="-1.81668">
        <ele>66</ele>
        <time>2021-03-28T12:31:08.000Z</time>
      </trkpt>
      <trkpt lat="47.08523" lon="-1.81666">
        <ele>66</ele>
        <time>2021-03-28T12:31:10.000Z</time>
      </trkpt>
      <trkpt lat="47.08513" lon="-1.81664">
        <ele>66</ele>
        <time>2021-03-28T12:31:12.000Z</time>
      </trkpt>
      <trkpt lat="47.08502" lon="-1.81663">
        <ele>66</ele>
        <time>2021-03-28T12:31:14.000Z</time>
      </trkpt>
      <trkpt lat="47.08492" lon="-1.81661">
        <ele>66</ele>
        <time>2021-03-28T12:31:16.000Z</time>
      </trkpt>
      <trkpt lat="47.08481" lon="-1.8166">
        <ele>66</ele>
        <time>2021-03-28T12:31:18.000Z</time>
      </trkpt>
      <trkpt lat="47.08471" lon="-1.81658">
        <ele>66</ele>
        <time>2021-03-28T12:31:20.000Z</time>
      </trkpt>
      <trkpt lat="47.08461" lon="-1.81657">
        <ele>66</ele>
        <time>2021-03-28T12:31:22.000Z</time>
      </trkpt>
      <trkpt lat="47.0845" lon="-1.81655">
        <ele>66</ele>
        <time>2021-03-28T12:31:24.000Z</time>
      </trkpt>
      <trkpt lat="47.08438" lon="-1.81653">
        <ele>66</ele>
        <time>2021-03-28T12:31:26.000Z</time>
      </trkpt>
      <trkpt lat="47.08428" lon="-1.81652">
        <ele>66</ele>
        <time>2021-03-28T12:31:28.000Z</time>
      </trkpt>
      <trkpt lat="47.08417" lon="-1.8165">
        <ele>66</ele>
        <time>2021-03-28T12:31:30.000Z</time>
      </trkpt>
      <trkpt lat="47.08406" lon="-1.81649">
        <ele>66</ele>
        <time>2021-03-28T12:31:32.000Z</time>
      </trkpt>
      <trkpt lat="47.08395" lon="-1.81648">
        <ele>66</ele>
        <time>2021-03-28T12:31:34.000Z</time>
      </trkpt>
      <trkpt lat="47.08384" lon="-1.81646">
        <ele>66</ele>
        <time>2021-03-28T12:31:36.000Z</time>
      </trkpt>
      <trkpt lat="47.08374" lon="-1.81644">
        <ele>66</ele>
        <time>2021-03-28T12:31:38.000Z</time>
      </trkpt>
      <trkpt lat="47.08363" lon="-1.81643">
        <ele>66</ele>
        <time>2021-03-28T12:31:40.000Z</time>
      </trkpt>
      <trkpt lat="47.08353" lon="-1.81641">
        <ele>66</ele>
        <time>2021-03-28T12:31:42.000Z</time>
      </trkpt>
      <trkpt lat="47.08342" lon="-1.8164">
        <ele>66</ele>
        <time>2021-03-28T12:31:44.000Z</time>
      </trkpt>
      <trkpt lat="47.08332" lon="-1.81638">
        <ele>66</ele>
        <time>2021-03-28T12:31:46.000Z</time>
      </trkpt>
      <trkpt lat="47.08321" lon="-1.81637">
        <ele>66</ele>
        <time>2021-03-28T12:31:48.000Z</time>
      </trkpt>
      <trkpt lat="47.08311" lon="-1.81636">
        <ele>66</ele>
        <time>2021-03-28T12:31:50.000Z</time>
      </trkpt>
      <trkpt lat="47.08301" lon="-1.81636">
        <ele>65</ele>
        <time>2021-03-28T12:31:52.000Z</time>
      </trkpt>
      <trkpt lat="47.0829" lon="-1.81636">
        <ele>65</ele>
        <time>2021-03-28T12:31:54.000Z</time>
      </trkpt>
      <trkpt lat="47.08279" lon="-1.81636">
        <ele>66</ele>
        <time>2021-03-28T12:31:56.000Z</time>
      </trkpt>
      <trkpt lat="47.08269" lon="-1.81635">
        <ele>66</ele>
        <time>2021-03-28T12:31:58.000Z</time>
      </trkpt>
      <trkpt lat="47.08258" lon="-1.81634">
        <ele>66</ele>
        <time>2021-03-28T12:32:00.000Z</time>
      </trkpt>
      <trkpt lat="47.08247" lon="-1.81633">
        <ele>66</ele>
        <time>2021-03-28T12:32:02.000Z</time>
      </trkpt>
      <trkpt lat="47.08236" lon="-1.81633">
        <ele>66</ele>
        <time>2021-03-28T12:32:04.000Z</time>
      </trkpt>
      <trkpt lat="47.08225" lon="-1.81632">
        <ele>66</ele>
        <time>2021-03-28T12:32:06.000Z</time>
      </trkpt>
      <trkpt lat="47.08214" lon="-1.81631">
        <ele>65</ele>
        <time>2021-03-28T12:32:08.000Z</time>
      </trkpt>
      <trkpt lat="47.08203" lon="-1.81631">
        <ele>65</ele>
        <time>2021-03-28T12:32:10.000Z</time>
      </trkpt>
      <trkpt lat="47.08192" lon="-1.81631">
        <ele>65</ele>
        <time>2021-03-28T12:32:12.000Z</time>
      </trkpt>
      <trkpt lat="47.08182" lon="-1.8163">
        <ele>65</ele>
        <time>2021-03-28T12:32:14.000Z</time>
      </trkpt>
      <trkpt lat="47.08171" lon="-1.8163">
        <ele>65</ele>
        <time>2021-03-28T12:32:16.000Z</time>
      </trkpt>
      <trkpt lat="47.0816" lon="-1.81629">
        <ele>66</ele>
        <time>2021-03-28T12:32:18.000Z</time>
      </trkpt>
      <trkpt lat="47.08149" lon="-1.81628">
        <ele>66</ele>
        <time>2021-03-28T12:32:20.000Z</time>
      </trkpt>
      <trkpt lat="47.08138" lon="-1.81627">
        <ele>66</ele>
        <time>2021-03-28T12:32:22.000Z</time>
      </trkpt>
      <trkpt lat="47.08127" lon="-1.81626">
        <ele>66</ele>
        <time>2021-03-28T12:32:24.000Z</time>
      </trkpt>
      <trkpt lat="47.08116" lon="-1.81624">
        <ele>66</ele>
        <time>2021-03-28T12:32:26.000Z</time>
      </trkpt>
      <trkpt lat="47.08105" lon="-1.81622">
        <ele>66</ele>
        <time>2021-03-28T12:32:28.000Z</time>
      </trkpt>
      <trkpt lat="47.08094" lon="-1.81619">
        <ele>66</ele>
        <time>2021-03-28T12:32:30.000Z</time>
      </trkpt>
      <trkpt lat="47.08083" lon="-1.81615">
        <ele>66</ele>
        <time>2021-03-28T12:32:32.000Z</time>
      </trkpt>
      <trkpt lat="47.08072" lon="-1.81611">
        <ele>66</ele>
        <time>2021-03-28T12:32:34.000Z</time>
      </trkpt>
      <trkpt lat="47.08062" lon="-1.81606">
        <ele>66</ele>
        <time>2021-03-28T12:32:36.000Z</time>
      </trkpt>
      <trkpt lat="47.08051" lon="-1.816">
        <ele>66</ele>
        <time>2021-03-28T12:32:38.000Z</time>
      </trkpt>
      <trkpt lat="47.08041" lon="-1.81594">
        <ele>66</ele>
        <time>2021-03-28T12:32:40.000Z</time>
      </trkpt>
      <trkpt lat="47.0803" lon="-1.81588">
        <ele>66</ele>
        <time>2021-03-28T12:32:42.000Z</time>
      </trkpt>
      <trkpt lat="47.08019" lon="-1.81582">
        <ele>66</ele>
        <time>2021-03-28T12:32:44.000Z</time>
      </trkpt>
      <trkpt lat="47.08008" lon="-1.81576">
        <ele>66</ele>
        <time>2021-03-28T12:32:46.000Z</time>
      </trkpt>
      <trkpt lat="47.07997" lon="-1.8157">
        <ele>66</ele>
        <time>2021-03-28T12:32:48.000Z</time>
      </trkpt>
      <trkpt lat="47.07986" lon="-1.81566">
        <ele>66</ele>
        <time>2021-03-28T12:32:50.000Z</time>
      </trkpt>
      <trkpt lat="47.07975" lon="-1.81563">
        <ele>66</ele>
        <time>2021-03-28T12:32:52.000Z</time>
      </trkpt>
      <trkpt lat="47.07963" lon="-1.8156">
        <ele>66</ele>
        <time>2021-03-28T12:32:54.000Z</time>
      </trkpt>
      <trkpt lat="47.07951" lon="-1.81559">
        <ele>66</ele>
        <time>2021-03-28T12:32:56.000Z</time>
      </trkpt>
      <trkpt lat="47.0794" lon="-1.81559">
        <ele>66</ele>
        <time>2021-03-28T12:32:58.000Z</time>
      </trkpt>
      <trkpt lat="47.07928" lon="-1.8156">
        <ele>66</ele>
        <time>2021-03-28T12:33:00.000Z</time>
      </trkpt>
      <trkpt lat="47.07917" lon="-1.8156">
        <ele>66</ele>
        <time>2021-03-28T12:33:02.000Z</time>
      </trkpt>
      <trkpt lat="47.07906" lon="-1.81561">
        <ele>66</ele>
        <time>2021-03-28T12:33:04.000Z</time>
      </trkpt>
      <trkpt lat="47.07894" lon="-1.81562">
        <ele>66</ele>
        <time>2021-03-28T12:33:06.000Z</time>
      </trkpt>
      <trkpt lat="47.07884" lon="-1.81562">
        <ele>66</ele>
        <time>2021-03-28T12:33:08.000Z</time>
      </trkpt>
      <trkpt lat="47.07873" lon="-1.81563">
        <ele>66</ele>
        <time>2021-03-28T12:33:10.000Z</time>
      </trkpt>
      <trkpt lat="47.07863" lon="-1.81563">
        <ele>66</ele>
        <time>2021-03-28T12:33:12.000Z</time>
      </trkpt>
      <trkpt lat="47.07852" lon="-1.81562">
        <ele>67</ele>
        <time>2021-03-28T12:33:14.000Z</time>
      </trkpt>
      <trkpt lat="47.07841" lon="-1.81561">
        <ele>67</ele>
        <time>2021-03-28T12:33:16.000Z</time>
      </trkpt>
      <trkpt lat="47.0783" lon="-1.81559">
        <ele>67</ele>
        <time>2021-03-28T12:33:18.000Z</time>
      </trkpt>
      <trkpt lat="47.07819" lon="-1.81557">
        <ele>67</ele>
        <time>2021-03-28T12:33:20.000Z</time>
      </trkpt>
      <trkpt lat="47.07808" lon="-1.81554">
        <ele>67</ele>
        <time>2021-03-28T12:33:22.000Z</time>
      </trkpt>
      <trkpt lat="47.07797" lon="-1.81553">
        <ele>67</ele>
        <time>2021-03-28T12:33:24.000Z</time>
      </trkpt>
      <trkpt lat="47.07787" lon="-1.81551">
        <ele>67</ele>
        <time>2021-03-28T12:33:26.000Z</time>
      </trkpt>
      <trkpt lat="47.07776" lon="-1.8155">
        <ele>67</ele>
        <time>2021-03-28T12:33:28.000Z</time>
      </trkpt>
      <trkpt lat="47.07764" lon="-1.8155">
        <ele>67</ele>
        <time>2021-03-28T12:33:30.000Z</time>
      </trkpt>
      <trkpt lat="47.07754" lon="-1.8155">
        <ele>67</ele>
        <time>2021-03-28T12:33:32.000Z</time>
      </trkpt>
      <trkpt lat="47.07743" lon="-1.81549">
        <ele>67</ele>
        <time>2021-03-28T12:33:34.000Z</time>
      </trkpt>
      <trkpt lat="47.07733" lon="-1.81548">
        <ele>67</ele>
        <time>2021-03-28T12:33:36.000Z</time>
      </trkpt>
      <trkpt lat="47.07722" lon="-1.81548">
        <ele>67</ele>
        <time>2021-03-28T12:33:38.000Z</time>
      </trkpt>
      <trkpt lat="47.07711" lon="-1.81547">
        <ele>67</ele>
        <time>2021-03-28T12:33:40.000Z</time>
      </trkpt>
      <trkpt lat="47.07701" lon="-1.81547">
        <ele>67</ele>
        <time>2021-03-28T12:33:42.000Z</time>
      </trkpt>
      <trkpt lat="47.0769" lon="-1.81546">
        <ele>67</ele>
        <time>2021-03-28T12:33:44.000Z</time>
      </trkpt>
      <trkpt lat="47.07679" lon="-1.81545">
        <ele>67</ele>
        <time>2021-03-28T12:33:46.000Z</time>
      </trkpt>
      <trkpt lat="47.07668" lon="-1.81544">
        <ele>67</ele>
        <time>2021-03-28T12:33:48.000Z</time>
      </trkpt>
      <trkpt lat="47.07657" lon="-1.81542">
        <ele>67</ele>
        <time>2021-03-28T12:33:50.000Z</time>
      </trkpt>
      <trkpt lat="47.07646" lon="-1.81539">
        <ele>67</ele>
        <time>2021-03-28T12:33:52.000Z</time>
      </trkpt>
      <trkpt lat="47.07636" lon="-1.81534">
        <ele>67</ele>
        <time>2021-03-28T12:33:54.000Z</time>
      </trkpt>
      <trkpt lat="47.07626" lon="-1.81528">
        <ele>67</ele>
        <time>2021-03-28T12:33:56.000Z</time>
      </trkpt>
      <trkpt lat="47.07617" lon="-1.8152">
        <ele>67</ele>
        <time>2021-03-28T12:33:58.000Z</time>
      </trkpt>
      <trkpt lat="47.07608" lon="-1.81511">
        <ele>67</ele>
        <time>2021-03-28T12:34:00.000Z</time>
      </trkpt>
      <trkpt lat="47.07599" lon="-1.81502">
        <ele>67</ele>
        <time>2021-03-28T12:34:02.000Z</time>
      </trkpt>
      <trkpt lat="47.0759" lon="-1.81492">
        <ele>67</ele>
        <time>2021-03-28T12:34:04.000Z</time>
      </trkpt>
      <trkpt lat="47.07581" lon="-1.81483">
        <ele>67</ele>
        <time>2021-03-28T12:34:06.000Z</time>
      </trkpt>
      <trkpt lat="47.07572" lon="-1.81474">
        <ele>67</ele>
        <time>2021-03-28T12:34:08.000Z</time>
      </trkpt>
      <trkpt lat="47.07563" lon="-1.81465">
        <ele>67</ele>
        <time>2021-03-28T12:34:10.000Z</time>
      </trkpt>
      <trkpt lat="47.07555" lon="-1.81457">
        <ele>67</ele>
        <time>2021-03-28T12:34:12.000Z</time>
      </trkpt>
      <trkpt lat="47.07545" lon="-1.81449">
        <ele>67</ele>
        <time>2021-03-28T12:34:14.000Z</time>
      </trkpt>
      <trkpt lat="47.07535" lon="-1.81443">
        <ele>67</ele>
        <time>2021-03-28T12:34:16.000Z</time>
      </trkpt>
      <trkpt lat="47.07524" lon="-1.81443">
        <ele>67</ele>
        <time>2021-03-28T12:34:18.000Z</time>
      </trkpt>
      <trkpt lat="47.07513" lon="-1.81447">
        <ele>67</ele>
        <time>2021-03-28T12:34:20.000Z</time>
      </trkpt>
      <trkpt lat="47.07503" lon="-1.81453">
        <ele>67</ele>
        <time>2021-03-28T12:34:22.000Z</time>
      </trkpt>
      <trkpt lat="47.07492" lon="-1.8146">
        <ele>67</ele>
        <time>2021-03-28T12:34:24.000Z</time>
      </trkpt>
      <trkpt lat="47.07482" lon="-1.81466">
        <ele>67</ele>
        <time>2021-03-28T12:34:26.000Z</time>
      </trkpt>
      <trkpt lat="47.07472" lon="-1.81472">
        <ele>67</ele>
        <time>2021-03-28T12:34:28.000Z</time>
      </trkpt>
      <trkpt lat="47.07462" lon="-1.81477">
        <ele>67</ele>
        <time>2021-03-28T12:34:30.000Z</time>
      </trkpt>
      <trkpt lat="47.0745" lon="-1.81481">
        <ele>67</ele>
        <time>2021-03-28T12:34:32.000Z</time>
      </trkpt>
      <trkpt lat="47.07439" lon="-1.81483">
        <ele>66</ele>
        <time>2021-03-28T12:34:34.000Z</time>
      </trkpt>
      <trkpt lat="47.07428" lon="-1.81484">
        <ele>67</ele>
        <time>2021-03-28T12:34:36.000Z</time>
      </trkpt>
      <trkpt lat="47.07417" lon="-1.81484">
        <ele>67</ele>
        <time>2021-03-28T12:34:38.000Z</time>
      </trkpt>
      <trkpt lat="47.07405" lon="-1.81485">
        <ele>66</ele>
        <time>2021-03-28T12:34:40.000Z</time>
      </trkpt>
      <trkpt lat="47.07394" lon="-1.81485">
        <ele>67</ele>
        <time>2021-03-28T12:34:42.000Z</time>
      </trkpt>
      <trkpt lat="47.07383" lon="-1.81485">
        <ele>67</ele>
        <time>2021-03-28T12:34:44.000Z</time>
      </trkpt>
      <trkpt lat="47.07372" lon="-1.81484">
        <ele>68</ele>
        <time>2021-03-28T12:34:46.000Z</time>
      </trkpt>
      <trkpt lat="47.07361" lon="-1.81482">
        <ele>68</ele>
        <time>2021-03-28T12:34:48.000Z</time>
      </trkpt>
      <trkpt lat="47.0735" lon="-1.81478">
        <ele>69</ele>
        <time>2021-03-28T12:34:50.000Z</time>
      </trkpt>
      <trkpt lat="47.07339" lon="-1.81473">
        <ele>69</ele>
        <time>2021-03-28T12:34:52.000Z</time>
      </trkpt>
      <trkpt lat="47.07328" lon="-1.81468">
        <ele>68</ele>
        <time>2021-03-28T12:34:54.000Z</time>
      </trkpt>
      <trkpt lat="47.07317" lon="-1.81462">
        <ele>68</ele>
        <time>2021-03-28T12:34:56.000Z</time>
      </trkpt>
      <trkpt lat="47.07307" lon="-1.81457">
        <ele>69</ele>
        <time>2021-03-28T12:34:58.000Z</time>
      </trkpt>
      <trkpt lat="47.07297" lon="-1.8145">
        <ele>69</ele>
        <time>2021-03-28T12:35:00.000Z</time>
      </trkpt>
      <trkpt lat="47.07288" lon="-1.81442">
        <ele>69</ele>
        <time>2021-03-28T12:35:02.000Z</time>
      </trkpt>
      <trkpt lat="47.07278" lon="-1.81433">
        <ele>68</ele>
        <time>2021-03-28T12:35:04.000Z</time>
      </trkpt>
      <trkpt lat="47.07269" lon="-1.81425">
        <ele>69</ele>
        <time>2021-03-28T12:35:06.000Z</time>
      </trkpt>
      <trkpt lat="47.0726" lon="-1.81417">
        <ele>69</ele>
        <time>2021-03-28T12:35:08.000Z</time>
      </trkpt>
      <trkpt lat="47.07251" lon="-1.81408">
        <ele>69</ele>
        <time>2021-03-28T12:35:10.000Z</time>
      </trkpt>
      <trkpt lat="47.07242" lon="-1.81399">
        <ele>69</ele>
        <time>2021-03-28T12:35:12.000Z</time>
      </trkpt>
      <trkpt lat="47.07233" lon="-1.81391">
        <ele>69</ele>
        <time>2021-03-28T12:35:14.000Z</time>
      </trkpt>
      <trkpt lat="47.07224" lon="-1.81382">
        <ele>69</ele>
        <time>2021-03-28T12:35:16.000Z</time>
      </trkpt>
      <trkpt lat="47.07215" lon="-1.81373">
        <ele>69</ele>
        <time>2021-03-28T12:35:18.000Z</time>
      </trkpt>
      <trkpt lat="47.07206" lon="-1.81364">
        <ele>69</ele>
        <time>2021-03-28T12:35:20.000Z</time>
      </trkpt>
      <trkpt lat="47.07196" lon="-1.81356">
        <ele>69</ele>
        <time>2021-03-28T12:35:22.000Z</time>
      </trkpt>
      <trkpt lat="47.07186" lon="-1.81349">
        <ele>69</ele>
        <time>2021-03-28T12:35:24.000Z</time>
      </trkpt>
      <trkpt lat="47.07176" lon="-1.81346">
        <ele>70</ele>
        <time>2021-03-28T12:35:26.000Z</time>
      </trkpt>
      <trkpt lat="47.07166" lon="-1.8135">
        <ele>70</ele>
        <time>2021-03-28T12:35:28.000Z</time>
      </trkpt>
      <trkpt lat="47.07157" lon="-1.81358">
        <ele>70</ele>
        <time>2021-03-28T12:35:30.000Z</time>
      </trkpt>
      <trkpt lat="47.07149" lon="-1.81368">
        <ele>70</ele>
        <time>2021-03-28T12:35:32.000Z</time>
      </trkpt>
      <trkpt lat="47.0714" lon="-1.81377">
        <ele>70</ele>
        <time>2021-03-28T12:35:34.000Z</time>
      </trkpt>
      <trkpt lat="47.07132" lon="-1.81387">
        <ele>70</ele>
        <time>2021-03-28T12:35:36.000Z</time>
      </trkpt>
      <trkpt lat="47.07124" lon="-1.81396">
        <ele>70</ele>
        <time>2021-03-28T12:35:38.000Z</time>
      </trkpt>
      <trkpt lat="47.07116" lon="-1.81406">
        <ele>70</ele>
        <time>2021-03-28T12:35:40.000Z</time>
      </trkpt>
      <trkpt lat="47.07108" lon="-1.81416">
        <ele>71</ele>
        <time>2021-03-28T12:35:42.000Z</time>
      </trkpt>
      <trkpt lat="47.071" lon="-1.81427">
        <ele>71</ele>
        <time>2021-03-28T12:35:44.000Z</time>
      </trkpt>
      <trkpt lat="47.07093" lon="-1.81437">
        <ele>71</ele>
        <time>2021-03-28T12:35:46.000Z</time>
      </trkpt>
      <trkpt lat="47.07085" lon="-1.81447">
        <ele>71</ele>
        <time>2021-03-28T12:35:48.000Z</time>
      </trkpt>
      <trkpt lat="47.07078" lon="-1.81458">
        <ele>71</ele>
        <time>2021-03-28T12:35:50.000Z</time>
      </trkpt>
      <trkpt lat="47.07071" lon="-1.8147">
        <ele>71</ele>
        <time>2021-03-28T12:35:52.000Z</time>
      </trkpt>
      <trkpt lat="47.07065" lon="-1.81482">
        <ele>71</ele>
        <time>2021-03-28T12:35:54.000Z</time>
      </trkpt>
      <trkpt lat="47.07058" lon="-1.81494">
        <ele>71</ele>
        <time>2021-03-28T12:35:56.000Z</time>
      </trkpt>
      <trkpt lat="47.07052" lon="-1.81506">
        <ele>72</ele>
        <time>2021-03-28T12:35:58.000Z</time>
      </trkpt>
      <trkpt lat="47.07047" lon="-1.81519">
        <ele>73</ele>
        <time>2021-03-28T12:36:00.000Z</time>
      </trkpt>
      <trkpt lat="47.07041" lon="-1.81532">
        <ele>73</ele>
        <time>2021-03-28T12:36:02.000Z</time>
      </trkpt>
      <trkpt lat="47.07035" lon="-1.81544">
        <ele>73</ele>
        <time>2021-03-28T12:36:04.000Z</time>
      </trkpt>
      <trkpt lat="47.0703" lon="-1.81557">
        <ele>72</ele>
        <time>2021-03-28T12:36:06.000Z</time>
      </trkpt>
      <trkpt lat="47.07025" lon="-1.81571">
        <ele>73</ele>
        <time>2021-03-28T12:36:08.000Z</time>
      </trkpt>
      <trkpt lat="47.07022" lon="-1.81586">
        <ele>73</ele>
        <time>2021-03-28T12:36:10.000Z</time>
      </trkpt>
      <trkpt lat="47.07017" lon="-1.816">
        <ele>73</ele>
        <time>2021-03-28T12:36:12.000Z</time>
      </trkpt>
      <trkpt lat="47.07013" lon="-1.81614">
        <ele>73</ele>
        <time>2021-03-28T12:36:14.000Z</time>
      </trkpt>
      <trkpt lat="47.0701" lon="-1.81629">
        <ele>74</ele>
        <time>2021-03-28T12:36:16.000Z</time>
      </trkpt>
      <trkpt lat="47.07006" lon="-1.81643">
        <ele>74</ele>
        <time>2021-03-28T12:36:18.000Z</time>
      </trkpt>
      <trkpt lat="47.07001" lon="-1.81657">
        <ele>74</ele>
        <time>2021-03-28T12:36:20.000Z</time>
      </trkpt>
      <trkpt lat="47.06997" lon="-1.81672">
        <ele>74</ele>
        <time>2021-03-28T12:36:22.000Z</time>
      </trkpt>
      <trkpt lat="47.06993" lon="-1.81686">
        <ele>74</ele>
        <time>2021-03-28T12:36:24.000Z</time>
      </trkpt>
      <trkpt lat="47.06988" lon="-1.817">
        <ele>74</ele>
        <time>2021-03-28T12:36:26.000Z</time>
      </trkpt>
      <trkpt lat="47.06983" lon="-1.81714">
        <ele>74</ele>
        <time>2021-03-28T12:36:28.000Z</time>
      </trkpt>
      <trkpt lat="47.06978" lon="-1.81728">
        <ele>74</ele>
        <time>2021-03-28T12:36:30.000Z</time>
      </trkpt>
      <trkpt lat="47.06973" lon="-1.81741">
        <ele>74</ele>
        <time>2021-03-28T12:36:32.000Z</time>
      </trkpt>
      <trkpt lat="47.06968" lon="-1.81754">
        <ele>75</ele>
        <time>2021-03-28T12:36:34.000Z</time>
      </trkpt>
      <trkpt lat="47.06963" lon="-1.81767">
        <ele>75</ele>
        <time>2021-03-28T12:36:36.000Z</time>
      </trkpt>
      <trkpt lat="47.06957" lon="-1.81779">
        <ele>75</ele>
        <time>2021-03-28T12:36:38.000Z</time>
      </trkpt>
      <trkpt lat="47.06952" lon="-1.81792">
        <ele>75</ele>
        <time>2021-03-28T12:36:40.000Z</time>
      </trkpt>
      <trkpt lat="47.06946" lon="-1.81805">
        <ele>75</ele>
        <time>2021-03-28T12:36:42.000Z</time>
      </trkpt>
      <trkpt lat="47.06941" lon="-1.81819">
        <ele>75</ele>
        <time>2021-03-28T12:36:44.000Z</time>
      </trkpt>
      <trkpt lat="47.06935" lon="-1.81832">
        <ele>75</ele>
        <time>2021-03-28T12:36:46.000Z</time>
      </trkpt>
      <trkpt lat="47.06929" lon="-1.81845">
        <ele>75</ele>
        <time>2021-03-28T12:36:48.000Z</time>
      </trkpt>
      <trkpt lat="47.06924" lon="-1.81857">
        <ele>76</ele>
        <time>2021-03-28T12:36:50.000Z</time>
      </trkpt>
      <trkpt lat="47.06919" lon="-1.8187">
        <ele>76</ele>
        <time>2021-03-28T12:36:52.000Z</time>
      </trkpt>
      <trkpt lat="47.06914" lon="-1.81883">
        <ele>76</ele>
        <time>2021-03-28T12:36:54.000Z</time>
      </trkpt>
      <trkpt lat="47.06908" lon="-1.81897">
        <ele>77</ele>
        <time>2021-03-28T12:36:56.000Z</time>
      </trkpt>
      <trkpt lat="47.06903" lon="-1.81911">
        <ele>77</ele>
        <time>2021-03-28T12:36:58.000Z</time>
      </trkpt>
      <trkpt lat="47.06898" lon="-1.81926">
        <ele>77</ele>
        <time>2021-03-28T12:37:00.000Z</time>
      </trkpt>
      <trkpt lat="47.06894" lon="-1.81942">
        <ele>77</ele>
        <time>2021-03-28T12:37:02.000Z</time>
      </trkpt>
      <trkpt lat="47.06893" lon="-1.81958">
        <ele>77</ele>
        <time>2021-03-28T12:37:04.000Z</time>
      </trkpt>
      <trkpt lat="47.06893" lon="-1.81973">
        <ele>77</ele>
        <time>2021-03-28T12:37:06.000Z</time>
      </trkpt>
      <trkpt lat="47.06894" lon="-1.81989">
        <ele>77</ele>
        <time>2021-03-28T12:37:08.000Z</time>
      </trkpt>
      <trkpt lat="47.06895" lon="-1.82004">
        <ele>78</ele>
        <time>2021-03-28T12:37:10.000Z</time>
      </trkpt>
      <trkpt lat="47.06896" lon="-1.8202">
        <ele>78</ele>
        <time>2021-03-28T12:37:12.000Z</time>
      </trkpt>
      <trkpt lat="47.06898" lon="-1.82034">
        <ele>78</ele>
        <time>2021-03-28T12:37:14.000Z</time>
      </trkpt>
      <trkpt lat="47.069" lon="-1.82049">
        <ele>78</ele>
        <time>2021-03-28T12:37:16.000Z</time>
      </trkpt>
      <trkpt lat="47.06901" lon="-1.82064">
        <ele>78</ele>
        <time>2021-03-28T12:37:18.000Z</time>
      </trkpt>
      <trkpt lat="47.06903" lon="-1.82079">
        <ele>78</ele>
        <time>2021-03-28T12:37:20.000Z</time>
      </trkpt>
      <trkpt lat="47.06904" lon="-1.82093">
        <ele>77</ele>
        <time>2021-03-28T12:37:22.000Z</time>
      </trkpt>
      <trkpt lat="47.06905" lon="-1.82108">
        <ele>78</ele>
        <time>2021-03-28T12:37:24.000Z</time>
      </trkpt>
      <trkpt lat="47.06905" lon="-1.82124">
        <ele>78</ele>
        <time>2021-03-28T12:37:26.000Z</time>
      </trkpt>
      <trkpt lat="47.06905" lon="-1.8214">
        <ele>78</ele>
        <time>2021-03-28T12:37:28.000Z</time>
      </trkpt>
      <trkpt lat="47.06905" lon="-1.82156">
        <ele>79</ele>
        <time>2021-03-28T12:37:30.000Z</time>
      </trkpt>
      <trkpt lat="47.06904" lon="-1.82172">
        <ele>78</ele>
        <time>2021-03-28T12:37:32.000Z</time>
      </trkpt>
      <trkpt lat="47.06904" lon="-1.82188">
        <ele>79</ele>
        <time>2021-03-28T12:37:34.000Z</time>
      </trkpt>
      <trkpt lat="47.06904" lon="-1.82204">
        <ele>79</ele>
        <time>2021-03-28T12:37:36.000Z</time>
      </trkpt>
      <trkpt lat="47.06903" lon="-1.8222">
        <ele>79</ele>
        <time>2021-03-28T12:37:38.000Z</time>
      </trkpt>
      <trkpt lat="47.06903" lon="-1.82236">
        <ele>79</ele>
        <time>2021-03-28T12:37:40.000Z</time>
      </trkpt>
      <trkpt lat="47.06902" lon="-1.82251">
        <ele>79</ele>
        <time>2021-03-28T12:37:42.000Z</time>
      </trkpt>
      <trkpt lat="47.06902" lon="-1.82266">
        <ele>79</ele>
        <time>2021-03-28T12:37:44.000Z</time>
      </trkpt>
      <trkpt lat="47.06901" lon="-1.82282">
        <ele>80</ele>
        <time>2021-03-28T12:37:46.000Z</time>
      </trkpt>
      <trkpt lat="47.069" lon="-1.82298">
        <ele>80</ele>
        <time>2021-03-28T12:37:48.000Z</time>
      </trkpt>
      <trkpt lat="47.06899" lon="-1.82313">
        <ele>80</ele>
        <time>2021-03-28T12:37:50.000Z</time>
      </trkpt>
      <trkpt lat="47.06897" lon="-1.82329">
        <ele>80</ele>
        <time>2021-03-28T12:37:52.000Z</time>
      </trkpt>
      <trkpt lat="47.06895" lon="-1.82345">
        <ele>80</ele>
        <time>2021-03-28T12:37:54.000Z</time>
      </trkpt>
      <trkpt lat="47.06893" lon="-1.82361">
        <ele>80</ele>
        <time>2021-03-28T12:37:56.000Z</time>
      </trkpt>
      <trkpt lat="47.06891" lon="-1.82378">
        <ele>81</ele>
        <time>2021-03-28T12:37:58.000Z</time>
      </trkpt>
      <trkpt lat="47.06888" lon="-1.82393">
        <ele>81</ele>
        <time>2021-03-28T12:38:00.000Z</time>
      </trkpt>
      <trkpt lat="47.06886" lon="-1.82409">
        <ele>81</ele>
        <time>2021-03-28T12:38:02.000Z</time>
      </trkpt>
      <trkpt lat="47.06883" lon="-1.82425">
        <ele>81</ele>
        <time>2021-03-28T12:38:04.000Z</time>
      </trkpt>
      <trkpt lat="47.0688" lon="-1.82441">
        <ele>81</ele>
        <time>2021-03-28T12:38:06.000Z</time>
      </trkpt>
      <trkpt lat="47.06879" lon="-1.82458">
        <ele>81</ele>
        <time>2021-03-28T12:38:08.000Z</time>
      </trkpt>
      <trkpt lat="47.0688" lon="-1.82475">
        <ele>81</ele>
        <time>2021-03-28T12:38:10.000Z</time>
      </trkpt>
      <trkpt lat="47.0688" lon="-1.82493">
        <ele>81</ele>
        <time>2021-03-28T12:38:12.000Z</time>
      </trkpt>
      <trkpt lat="47.06882" lon="-1.8251">
        <ele>81</ele>
        <time>2021-03-28T12:38:14.000Z</time>
      </trkpt>
      <trkpt lat="47.06883" lon="-1.82528">
        <ele>81</ele>
        <time>2021-03-28T12:38:16.000Z</time>
      </trkpt>
      <trkpt lat="47.06885" lon="-1.82545">
        <ele>81</ele>
        <time>2021-03-28T12:38:18.000Z</time>
      </trkpt>
      <trkpt lat="47.06886" lon="-1.82562">
        <ele>81</ele>
        <time>2021-03-28T12:38:20.000Z</time>
      </trkpt>
      <trkpt lat="47.06888" lon="-1.82579">
        <ele>81</ele>
        <time>2021-03-28T12:38:22.000Z</time>
      </trkpt>
      <trkpt lat="47.06889" lon="-1.82596">
        <ele>81</ele>
        <time>2021-03-28T12:38:24.000Z</time>
      </trkpt>
      <trkpt lat="47.06891" lon="-1.82613">
        <ele>82</ele>
        <time>2021-03-28T12:38:26.000Z</time>
      </trkpt>
      <trkpt lat="47.06892" lon="-1.8263">
        <ele>82</ele>
        <time>2021-03-28T12:38:28.000Z</time>
      </trkpt>
      <trkpt lat="47.06894" lon="-1.82647">
        <ele>82</ele>
        <time>2021-03-28T12:38:30.000Z</time>
      </trkpt>
      <trkpt lat="47.06895" lon="-1.82663">
        <ele>81</ele>
        <time>2021-03-28T12:38:32.000Z</time>
      </trkpt>
      <trkpt lat="47.06896" lon="-1.8268">
        <ele>81</ele>
        <time>2021-03-28T12:38:34.000Z</time>
      </trkpt>
      <trkpt lat="47.06895" lon="-1.82697">
        <ele>81</ele>
        <time>2021-03-28T12:38:36.000Z</time>
      </trkpt>
      <trkpt lat="47.06895" lon="-1.82714">
        <ele>81</ele>
        <time>2021-03-28T12:38:38.000Z</time>
      </trkpt>
      <trkpt lat="47.06895" lon="-1.82731">
        <ele>81</ele>
        <time>2021-03-28T12:38:40.000Z</time>
      </trkpt>
      <trkpt lat="47.06895" lon="-1.82748">
        <ele>81</ele>
        <time>2021-03-28T12:38:42.000Z</time>
      </trkpt>
      <trkpt lat="47.06895" lon="-1.82765">
        <ele>81</ele>
        <time>2021-03-28T12:38:44.000Z</time>
      </trkpt>
      <trkpt lat="47.06895" lon="-1.82782">
        <ele>82</ele>
        <time>2021-03-28T12:38:46.000Z</time>
      </trkpt>
      <trkpt lat="47.06896" lon="-1.82798">
        <ele>82</ele>
        <time>2021-03-28T12:38:48.000Z</time>
      </trkpt>
      <trkpt lat="47.06897" lon="-1.82814">
        <ele>82</ele>
        <time>2021-03-28T12:38:50.000Z</time>
      </trkpt>
      <trkpt lat="47.06898" lon="-1.82829">
        <ele>82</ele>
        <time>2021-03-28T12:38:52.000Z</time>
      </trkpt>
      <trkpt lat="47.06899" lon="-1.82846">
        <ele>82</ele>
        <time>2021-03-28T12:38:54.000Z</time>
      </trkpt>
      <trkpt lat="47.069" lon="-1.82862">
        <ele>82</ele>
        <time>2021-03-28T12:38:56.000Z</time>
      </trkpt>
      <trkpt lat="47.06901" lon="-1.82879">
        <ele>82</ele>
        <time>2021-03-28T12:38:58.000Z</time>
      </trkpt>
      <trkpt lat="47.06902" lon="-1.82895">
        <ele>81</ele>
        <time>2021-03-28T12:39:00.000Z</time>
      </trkpt>
      <trkpt lat="47.06902" lon="-1.82912">
        <ele>81</ele>
        <time>2021-03-28T12:39:02.000Z</time>
      </trkpt>
      <trkpt lat="47.06903" lon="-1.82928">
        <ele>81</ele>
        <time>2021-03-28T12:39:04.000Z</time>
      </trkpt>
      <trkpt lat="47.06904" lon="-1.82945">
        <ele>82</ele>
        <time>2021-03-28T12:39:06.000Z</time>
      </trkpt>
      <trkpt lat="47.06905" lon="-1.82961">
        <ele>82</ele>
        <time>2021-03-28T12:39:08.000Z</time>
      </trkpt>
      <trkpt lat="47.06905" lon="-1.82977">
        <ele>82</ele>
        <time>2021-03-28T12:39:10.000Z</time>
      </trkpt>
      <trkpt lat="47.06906" lon="-1.82994">
        <ele>81</ele>
        <time>2021-03-28T12:39:12.000Z</time>
      </trkpt>
      <trkpt lat="47.06909" lon="-1.83009">
        <ele>81</ele>
        <time>2021-03-28T12:39:14.000Z</time>
      </trkpt>
      <trkpt lat="47.06914" lon="-1.83023">
        <ele>81</ele>
        <time>2021-03-28T12:39:16.000Z</time>
      </trkpt>
      <trkpt lat="47.06911" lon="-1.83041">
        <ele>81</ele>
        <time>2021-03-28T12:39:19.000Z</time>
      </trkpt>
      <trkpt lat="47.069" lon="-1.83043">
        <ele>81</ele>
        <time>2021-03-28T12:39:21.000Z</time>
      </trkpt>
      <trkpt lat="47.06887" lon="-1.8304">
        <ele>81</ele>
        <time>2021-03-28T12:39:23.000Z</time>
      </trkpt>
      <trkpt lat="47.06876" lon="-1.83039">
        <ele>80</ele>
        <time>2021-03-28T12:39:25.000Z</time>
      </trkpt>
      <trkpt lat="47.06863" lon="-1.83037">
        <ele>80</ele>
        <time>2021-03-28T12:39:27.000Z</time>
      </trkpt>
      <trkpt lat="47.06851" lon="-1.83036">
        <ele>80</ele>
        <time>2021-03-28T12:39:29.000Z</time>
      </trkpt>
      <trkpt lat="47.06838" lon="-1.83035">
        <ele>80</ele>
        <time>2021-03-28T12:39:31.000Z</time>
      </trkpt>
      <trkpt lat="47.06826" lon="-1.83034">
        <ele>80</ele>
        <time>2021-03-28T12:39:33.000Z</time>
      </trkpt>
      <trkpt lat="47.06813" lon="-1.83034">
        <ele>80</ele>
        <time>2021-03-28T12:39:35.000Z</time>
      </trkpt>
      <trkpt lat="47.06801" lon="-1.83036">
        <ele>80</ele>
        <time>2021-03-28T12:39:37.000Z</time>
      </trkpt>
      <trkpt lat="47.06788" lon="-1.83037">
        <ele>80</ele>
        <time>2021-03-28T12:39:39.000Z</time>
      </trkpt>
      <trkpt lat="47.06776" lon="-1.83039">
        <ele>80</ele>
        <time>2021-03-28T12:39:41.000Z</time>
      </trkpt>
      <trkpt lat="47.06764" lon="-1.83041">
        <ele>80</ele>
        <time>2021-03-28T12:39:43.000Z</time>
      </trkpt>
      <trkpt lat="47.06751" lon="-1.83044">
        <ele>80</ele>
        <time>2021-03-28T12:39:45.000Z</time>
      </trkpt>
      <trkpt lat="47.06738" lon="-1.83045">
        <ele>80</ele>
        <time>2021-03-28T12:39:47.000Z</time>
      </trkpt>
      <trkpt lat="47.06726" lon="-1.83048">
        <ele>80</ele>
        <time>2021-03-28T12:39:49.000Z</time>
      </trkpt>
      <trkpt lat="47.06713" lon="-1.8305">
        <ele>79</ele>
        <time>2021-03-28T12:39:51.000Z</time>
      </trkpt>
      <trkpt lat="47.06701" lon="-1.83053">
        <ele>80</ele>
        <time>2021-03-28T12:39:53.000Z</time>
      </trkpt>
      <trkpt lat="47.06688" lon="-1.83055">
        <ele>80</ele>
        <time>2021-03-28T12:39:55.000Z</time>
      </trkpt>
      <trkpt lat="47.06676" lon="-1.83058">
        <ele>80</ele>
        <time>2021-03-28T12:39:57.000Z</time>
      </trkpt>
      <trkpt lat="47.06664" lon="-1.83061">
        <ele>79</ele>
        <time>2021-03-28T12:39:59.000Z</time>
      </trkpt>
      <trkpt lat="47.06652" lon="-1.83064">
        <ele>79</ele>
        <time>2021-03-28T12:40:01.000Z</time>
      </trkpt>
      <trkpt lat="47.0664" lon="-1.83067">
        <ele>79</ele>
        <time>2021-03-28T12:40:03.000Z</time>
      </trkpt>
      <trkpt lat="47.06627" lon="-1.8307">
        <ele>79</ele>
        <time>2021-03-28T12:40:05.000Z</time>
      </trkpt>
      <trkpt lat="47.06615" lon="-1.83073">
        <ele>79</ele>
        <time>2021-03-28T12:40:07.000Z</time>
      </trkpt>
      <trkpt lat="47.06603" lon="-1.83076">
        <ele>79</ele>
        <time>2021-03-28T12:40:09.000Z</time>
      </trkpt>
      <trkpt lat="47.0659" lon="-1.83079">
        <ele>79</ele>
        <time>2021-03-28T12:40:11.000Z</time>
      </trkpt>
      <trkpt lat="47.06578" lon="-1.83083">
        <ele>80</ele>
        <time>2021-03-28T12:40:13.000Z</time>
      </trkpt>
      <trkpt lat="47.06566" lon="-1.83087">
        <ele>80</ele>
        <time>2021-03-28T12:40:15.000Z</time>
      </trkpt>
      <trkpt lat="47.06554" lon="-1.83091">
        <ele>80</ele>
        <time>2021-03-28T12:40:17.000Z</time>
      </trkpt>
      <trkpt lat="47.06543" lon="-1.83096">
        <ele>80</ele>
        <time>2021-03-28T12:40:19.000Z</time>
      </trkpt>
      <trkpt lat="47.06532" lon="-1.83101">
        <ele>80</ele>
        <time>2021-03-28T12:40:21.000Z</time>
      </trkpt>
      <trkpt lat="47.0652" lon="-1.83105">
        <ele>80</ele>
        <time>2021-03-28T12:40:23.000Z</time>
      </trkpt>
      <trkpt lat="47.06509" lon="-1.8311">
        <ele>80</ele>
        <time>2021-03-28T12:40:25.000Z</time>
      </trkpt>
      <trkpt lat="47.06498" lon="-1.83114">
        <ele>80</ele>
        <time>2021-03-28T12:40:27.000Z</time>
      </trkpt>
      <trkpt lat="47.06486" lon="-1.83119">
        <ele>80</ele>
        <time>2021-03-28T12:40:29.000Z</time>
      </trkpt>
      <trkpt lat="47.06475" lon="-1.83124">
        <ele>80</ele>
        <time>2021-03-28T12:40:31.000Z</time>
      </trkpt>
      <trkpt lat="47.06464" lon="-1.83129">
        <ele>80</ele>
        <time>2021-03-28T12:40:33.000Z</time>
      </trkpt>
      <trkpt lat="47.06453" lon="-1.83134">
        <ele>80</ele>
        <time>2021-03-28T12:40:35.000Z</time>
      </trkpt>
      <trkpt lat="47.06442" lon="-1.83138">
        <ele>80</ele>
        <time>2021-03-28T12:40:37.000Z</time>
      </trkpt>
      <trkpt lat="47.0643" lon="-1.83143">
        <ele>80</ele>
        <time>2021-03-28T12:40:39.000Z</time>
      </trkpt>
      <trkpt lat="47.06419" lon="-1.83148">
        <ele>80</ele>
        <time>2021-03-28T12:40:41.000Z</time>
      </trkpt>
      <trkpt lat="47.06407" lon="-1.83153">
        <ele>80</ele>
        <time>2021-03-28T12:40:43.000Z</time>
      </trkpt>
      <trkpt lat="47.06396" lon="-1.83158">
        <ele>80</ele>
        <time>2021-03-28T12:40:45.000Z</time>
      </trkpt>
      <trkpt lat="47.06384" lon="-1.83162">
        <ele>80</ele>
        <time>2021-03-28T12:40:47.000Z</time>
      </trkpt>
      <trkpt lat="47.06373" lon="-1.83167">
        <ele>80</ele>
        <time>2021-03-28T12:40:49.000Z</time>
      </trkpt>
      <trkpt lat="47.06362" lon="-1.83173">
        <ele>80</ele>
        <time>2021-03-28T12:40:51.000Z</time>
      </trkpt>
      <trkpt lat="47.0635" lon="-1.83178">
        <ele>80</ele>
        <time>2021-03-28T12:40:53.000Z</time>
      </trkpt>
      <trkpt lat="47.06338" lon="-1.83182">
        <ele>81</ele>
        <time>2021-03-28T12:40:55.000Z</time>
      </trkpt>
      <trkpt lat="47.06327" lon="-1.83187">
        <ele>81</ele>
        <time>2021-03-28T12:40:57.000Z</time>
      </trkpt>
      <trkpt lat="47.06316" lon="-1.83191">
        <ele>81</ele>
        <time>2021-03-28T12:40:59.000Z</time>
      </trkpt>
      <trkpt lat="47.06304" lon="-1.83196">
        <ele>82</ele>
        <time>2021-03-28T12:41:01.000Z</time>
      </trkpt>
      <trkpt lat="47.06292" lon="-1.83199">
        <ele>82</ele>
        <time>2021-03-28T12:41:03.000Z</time>
      </trkpt>
      <trkpt lat="47.06281" lon="-1.83201">
        <ele>82</ele>
        <time>2021-03-28T12:41:05.000Z</time>
      </trkpt>
      <trkpt lat="47.0627" lon="-1.83203">
        <ele>82</ele>
        <time>2021-03-28T12:41:07.000Z</time>
      </trkpt>
      <trkpt lat="47.06258" lon="-1.83204">
        <ele>82</ele>
        <time>2021-03-28T12:41:09.000Z</time>
      </trkpt>
      <trkpt lat="47.06247" lon="-1.83204">
        <ele>82</ele>
        <time>2021-03-28T12:41:11.000Z</time>
      </trkpt>
      <trkpt lat="47.06235" lon="-1.83205">
        <ele>82</ele>
        <time>2021-03-28T12:41:13.000Z</time>
      </trkpt>
      <trkpt lat="47.06223" lon="-1.83206">
        <ele>83</ele>
        <time>2021-03-28T12:41:15.000Z</time>
      </trkpt>
      <trkpt lat="47.06212" lon="-1.83206">
        <ele>83</ele>
        <time>2021-03-28T12:41:17.000Z</time>
      </trkpt>
      <trkpt lat="47.06201" lon="-1.83207">
        <ele>83</ele>
        <time>2021-03-28T12:41:19.000Z</time>
      </trkpt>
      <trkpt lat="47.06189" lon="-1.83208">
        <ele>83</ele>
        <time>2021-03-28T12:41:21.000Z</time>
      </trkpt>
      <trkpt lat="47.06177" lon="-1.83208">
        <ele>83</ele>
        <time>2021-03-28T12:41:23.000Z</time>
      </trkpt>
      <trkpt lat="47.06166" lon="-1.83209">
        <ele>83</ele>
        <time>2021-03-28T12:41:25.000Z</time>
      </trkpt>
      <trkpt lat="47.06154" lon="-1.83209">
        <ele>83</ele>
        <time>2021-03-28T12:41:27.000Z</time>
      </trkpt>
      <trkpt lat="47.06143" lon="-1.8321">
        <ele>83</ele>
        <time>2021-03-28T12:41:29.000Z</time>
      </trkpt>
      <trkpt lat="47.06131" lon="-1.8321">
        <ele>83</ele>
        <time>2021-03-28T12:41:31.000Z</time>
      </trkpt>
      <trkpt lat="47.06119" lon="-1.83211">
        <ele>83</ele>
        <time>2021-03-28T12:41:33.000Z</time>
      </trkpt>
      <trkpt lat="47.06108" lon="-1.83211">
        <ele>83</ele>
        <time>2021-03-28T12:41:35.000Z</time>
      </trkpt>
      <trkpt lat="47.06097" lon="-1.83212">
        <ele>83</ele>
        <time>2021-03-28T12:41:37.000Z</time>
      </trkpt>
      <trkpt lat="47.06085" lon="-1.83213">
        <ele>83</ele>
        <time>2021-03-28T12:41:39.000Z</time>
      </trkpt>
      <trkpt lat="47.06073" lon="-1.83214">
        <ele>83</ele>
        <time>2021-03-28T12:41:41.000Z</time>
      </trkpt>
      <trkpt lat="47.06061" lon="-1.83214">
        <ele>83</ele>
        <time>2021-03-28T12:41:43.000Z</time>
      </trkpt>
      <trkpt lat="47.06049" lon="-1.83215">
        <ele>83</ele>
        <time>2021-03-28T12:41:45.000Z</time>
      </trkpt>
      <trkpt lat="47.06037" lon="-1.83215">
        <ele>83</ele>
        <time>2021-03-28T12:41:47.000Z</time>
      </trkpt>
      <trkpt lat="47.06026" lon="-1.83215">
        <ele>83</ele>
        <time>2021-03-28T12:41:49.000Z</time>
      </trkpt>
      <trkpt lat="47.06014" lon="-1.83217">
        <ele>83</ele>
        <time>2021-03-28T12:41:51.000Z</time>
      </trkpt>
      <trkpt lat="47.06002" lon="-1.83217">
        <ele>83</ele>
        <time>2021-03-28T12:41:53.000Z</time>
      </trkpt>
      <trkpt lat="47.05991" lon="-1.83218">
        <ele>83</ele>
        <time>2021-03-28T12:41:55.000Z</time>
      </trkpt>
      <trkpt lat="47.05979" lon="-1.83221">
        <ele>83</ele>
        <time>2021-03-28T12:41:57.000Z</time>
      </trkpt>
      <trkpt lat="47.05969" lon="-1.83229">
        <ele>83</ele>
        <time>2021-03-28T12:41:59.000Z</time>
      </trkpt>
      <trkpt lat="47.05961" lon="-1.8324">
        <ele>83</ele>
        <time>2021-03-28T12:42:01.000Z</time>
      </trkpt>
      <trkpt lat="47.05953" lon="-1.83252">
        <ele>83</ele>
        <time>2021-03-28T12:42:03.000Z</time>
      </trkpt>
      <trkpt lat="47.05945" lon="-1.83264">
        <ele>83</ele>
        <time>2021-03-28T12:42:05.000Z</time>
      </trkpt>
      <trkpt lat="47.05937" lon="-1.83276">
        <ele>82</ele>
        <time>2021-03-28T12:42:07.000Z</time>
      </trkpt>
      <trkpt lat="47.05929" lon="-1.83289">
        <ele>82</ele>
        <time>2021-03-28T12:42:09.000Z</time>
      </trkpt>
      <trkpt lat="47.05921" lon="-1.83301">
        <ele>82</ele>
        <time>2021-03-28T12:42:11.000Z</time>
      </trkpt>
      <trkpt lat="47.05913" lon="-1.83313">
        <ele>82</ele>
        <time>2021-03-28T12:42:13.000Z</time>
      </trkpt>
      <trkpt lat="47.05905" lon="-1.83325">
        <ele>82</ele>
        <time>2021-03-28T12:42:15.000Z</time>
      </trkpt>
      <trkpt lat="47.05897" lon="-1.83336">
        <ele>82</ele>
        <time>2021-03-28T12:42:17.000Z</time>
      </trkpt>
      <trkpt lat="47.0589" lon="-1.83347">
        <ele>81</ele>
        <time>2021-03-28T12:42:19.000Z</time>
      </trkpt>
      <trkpt lat="47.05882" lon="-1.83358">
        <ele>82</ele>
        <time>2021-03-28T12:42:21.000Z</time>
      </trkpt>
      <trkpt lat="47.05874" lon="-1.8337">
        <ele>81</ele>
        <time>2021-03-28T12:42:23.000Z</time>
      </trkpt>
      <trkpt lat="47.05866" lon="-1.83381">
        <ele>81</ele>
        <time>2021-03-28T12:42:25.000Z</time>
      </trkpt>
      <trkpt lat="47.05858" lon="-1.83393">
        <ele>81</ele>
        <time>2021-03-28T12:42:27.000Z</time>
      </trkpt>
      <trkpt lat="47.0585" lon="-1.83405">
        <ele>81</ele>
        <time>2021-03-28T12:42:29.000Z</time>
      </trkpt>
      <trkpt lat="47.05843" lon="-1.83417">
        <ele>81</ele>
        <time>2021-03-28T12:42:31.000Z</time>
      </trkpt>
      <trkpt lat="47.05835" lon="-1.83429">
        <ele>82</ele>
        <time>2021-03-28T12:42:33.000Z</time>
      </trkpt>
      <trkpt lat="47.05827" lon="-1.8344">
        <ele>82</ele>
        <time>2021-03-28T12:42:35.000Z</time>
      </trkpt>
      <trkpt lat="47.05819" lon="-1.83452">
        <ele>82</ele>
        <time>2021-03-28T12:42:37.000Z</time>
      </trkpt>
      <trkpt lat="47.05811" lon="-1.83464">
        <ele>82</ele>
        <time>2021-03-28T12:42:39.000Z</time>
      </trkpt>
      <trkpt lat="47.05802" lon="-1.83474">
        <ele>82</ele>
        <time>2021-03-28T12:42:41.000Z</time>
      </trkpt>
      <trkpt lat="47.05793" lon="-1.83485">
        <ele>83</ele>
        <time>2021-03-28T12:42:43.000Z</time>
      </trkpt>
      <trkpt lat="47.05785" lon="-1.83496">
        <ele>83</ele>
        <time>2021-03-28T12:42:45.000Z</time>
      </trkpt>
      <trkpt lat="47.05776" lon="-1.83507">
        <ele>83</ele>
        <time>2021-03-28T12:42:47.000Z</time>
      </trkpt>
      <trkpt lat="47.05767" lon="-1.83517">
        <ele>83</ele>
        <time>2021-03-28T12:42:49.000Z</time>
      </trkpt>
      <trkpt lat="47.05758" lon="-1.83527">
        <ele>83</ele>
        <time>2021-03-28T12:42:51.000Z</time>
      </trkpt>
      <trkpt lat="47.05749" lon="-1.83538">
        <ele>84</ele>
        <time>2021-03-28T12:42:53.000Z</time>
      </trkpt>
      <trkpt lat="47.05741" lon="-1.83548">
        <ele>83</ele>
        <time>2021-03-28T12:42:55.000Z</time>
      </trkpt>
      <trkpt lat="47.05733" lon="-1.83558">
        <ele>84</ele>
        <time>2021-03-28T12:42:57.000Z</time>
      </trkpt>
      <trkpt lat="47.05725" lon="-1.8357">
        <ele>84</ele>
        <time>2021-03-28T12:42:59.000Z</time>
      </trkpt>
      <trkpt lat="47.05718" lon="-1.83584">
        <ele>84</ele>
        <time>2021-03-28T12:43:01.000Z</time>
      </trkpt>
      <trkpt lat="47.05711" lon="-1.83597">
        <ele>85</ele>
        <time>2021-03-28T12:43:03.000Z</time>
      </trkpt>
      <trkpt lat="47.05703" lon="-1.83609">
        <ele>85</ele>
        <time>2021-03-28T12:43:05.000Z</time>
      </trkpt>
      <trkpt lat="47.05696" lon="-1.83622">
        <ele>85</ele>
        <time>2021-03-28T12:43:07.000Z</time>
      </trkpt>
      <trkpt lat="47.05689" lon="-1.83635">
        <ele>85</ele>
        <time>2021-03-28T12:43:09.000Z</time>
      </trkpt>
      <trkpt lat="47.05682" lon="-1.83648">
        <ele>85</ele>
        <time>2021-03-28T12:43:11.000Z</time>
      </trkpt>
      <trkpt lat="47.05675" lon="-1.83661">
        <ele>85</ele>
        <time>2021-03-28T12:43:13.000Z</time>
      </trkpt>
      <trkpt lat="47.05667" lon="-1.83674">
        <ele>85</ele>
        <time>2021-03-28T12:43:15.000Z</time>
      </trkpt>
      <trkpt lat="47.05659" lon="-1.83687">
        <ele>85</ele>
        <time>2021-03-28T12:43:17.000Z</time>
      </trkpt>
      <trkpt lat="47.05652" lon="-1.837">
        <ele>85</ele>
        <time>2021-03-28T12:43:19.000Z</time>
      </trkpt>
      <trkpt lat="47.05645" lon="-1.83713">
        <ele>85</ele>
        <time>2021-03-28T12:43:21.000Z</time>
      </trkpt>
      <trkpt lat="47.05638" lon="-1.83724">
        <ele>85</ele>
        <time>2021-03-28T12:43:23.000Z</time>
      </trkpt>
      <trkpt lat="47.05632" lon="-1.83736">
        <ele>85</ele>
        <time>2021-03-28T12:43:25.000Z</time>
      </trkpt>
      <trkpt lat="47.05625" lon="-1.83748">
        <ele>85</ele>
        <time>2021-03-28T12:43:27.000Z</time>
      </trkpt>
      <trkpt lat="47.05618" lon="-1.8376">
        <ele>85</ele>
        <time>2021-03-28T12:43:29.000Z</time>
      </trkpt>
      <trkpt lat="47.05612" lon="-1.83773">
        <ele>85</ele>
        <time>2021-03-28T12:43:31.000Z</time>
      </trkpt>
      <trkpt lat="47.05605" lon="-1.83785">
        <ele>85</ele>
        <time>2021-03-28T12:43:33.000Z</time>
      </trkpt>
      <trkpt lat="47.05599" lon="-1.83796">
        <ele>85</ele>
        <time>2021-03-28T12:43:35.000Z</time>
      </trkpt>
      <trkpt lat="47.05592" lon="-1.83808">
        <ele>85</ele>
        <time>2021-03-28T12:43:37.000Z</time>
      </trkpt>
      <trkpt lat="47.05585" lon="-1.83821">
        <ele>85</ele>
        <time>2021-03-28T12:43:39.000Z</time>
      </trkpt>
      <trkpt lat="47.05578" lon="-1.83833">
        <ele>85</ele>
        <time>2021-03-28T12:43:41.000Z</time>
      </trkpt>
      <trkpt lat="47.05571" lon="-1.83845">
        <ele>85</ele>
        <time>2021-03-28T12:43:43.000Z</time>
      </trkpt>
      <trkpt lat="47.05564" lon="-1.83857">
        <ele>85</ele>
        <time>2021-03-28T12:43:45.000Z</time>
      </trkpt>
      <trkpt lat="47.05557" lon="-1.83869">
        <ele>85</ele>
        <time>2021-03-28T12:43:47.000Z</time>
      </trkpt>
      <trkpt lat="47.0555" lon="-1.83882">
        <ele>85</ele>
        <time>2021-03-28T12:43:49.000Z</time>
      </trkpt>
      <trkpt lat="47.05543" lon="-1.83895">
        <ele>85</ele>
        <time>2021-03-28T12:43:51.000Z</time>
      </trkpt>
      <trkpt lat="47.05537" lon="-1.83907">
        <ele>85</ele>
        <time>2021-03-28T12:43:53.000Z</time>
      </trkpt>
      <trkpt lat="47.0553" lon="-1.8392">
        <ele>85</ele>
        <time>2021-03-28T12:43:55.000Z</time>
      </trkpt>
      <trkpt lat="47.05523" lon="-1.83932">
        <ele>85</ele>
        <time>2021-03-28T12:43:57.000Z</time>
      </trkpt>
      <trkpt lat="47.05516" lon="-1.83944">
        <ele>84</ele>
        <time>2021-03-28T12:43:59.000Z</time>
      </trkpt>
      <trkpt lat="47.0551" lon="-1.83956">
        <ele>84</ele>
        <time>2021-03-28T12:44:01.000Z</time>
      </trkpt>
      <trkpt lat="47.05503" lon="-1.83967">
        <ele>84</ele>
        <time>2021-03-28T12:44:03.000Z</time>
      </trkpt>
      <trkpt lat="47.05498" lon="-1.83979">
        <ele>84</ele>
        <time>2021-03-28T12:44:05.000Z</time>
      </trkpt>
      <trkpt lat="47.05492" lon="-1.83991">
        <ele>85</ele>
        <time>2021-03-28T12:44:07.000Z</time>
      </trkpt>
      <trkpt lat="47.05486" lon="-1.84002">
        <ele>85</ele>
        <time>2021-03-28T12:44:09.000Z</time>
      </trkpt>
      <trkpt lat="47.05479" lon="-1.84014">
        <ele>85</ele>
        <time>2021-03-28T12:44:11.000Z</time>
      </trkpt>
      <trkpt lat="47.05473" lon="-1.84026">
        <ele>85</ele>
        <time>2021-03-28T12:44:13.000Z</time>
      </trkpt>
      <trkpt lat="47.05467" lon="-1.84038">
        <ele>85</ele>
        <time>2021-03-28T12:44:15.000Z</time>
      </trkpt>
      <trkpt lat="47.05462" lon="-1.8405">
        <ele>85</ele>
        <time>2021-03-28T12:44:17.000Z</time>
      </trkpt>
      <trkpt lat="47.05455" lon="-1.84062">
        <ele>85</ele>
        <time>2021-03-28T12:44:19.000Z</time>
      </trkpt>
      <trkpt lat="47.05449" lon="-1.84073">
        <ele>85</ele>
        <time>2021-03-28T12:44:21.000Z</time>
      </trkpt>
      <trkpt lat="47.05444" lon="-1.84085">
        <ele>85</ele>
        <time>2021-03-28T12:44:23.000Z</time>
      </trkpt>
      <trkpt lat="47.05438" lon="-1.84097">
        <ele>85</ele>
        <time>2021-03-28T12:44:25.000Z</time>
      </trkpt>
      <trkpt lat="47.05432" lon="-1.84109">
        <ele>85</ele>
        <time>2021-03-28T12:44:27.000Z</time>
      </trkpt>
      <trkpt lat="47.05426" lon="-1.84121">
        <ele>85</ele>
        <time>2021-03-28T12:44:29.000Z</time>
      </trkpt>
      <trkpt lat="47.05419" lon="-1.84133">
        <ele>86</ele>
        <time>2021-03-28T12:44:31.000Z</time>
      </trkpt>
      <trkpt lat="47.05413" lon="-1.84145">
        <ele>85</ele>
        <time>2021-03-28T12:44:33.000Z</time>
      </trkpt>
      <trkpt lat="47.05407" lon="-1.84157">
        <ele>85</ele>
        <time>2021-03-28T12:44:35.000Z</time>
      </trkpt>
      <trkpt lat="47.05401" lon="-1.84169">
        <ele>85</ele>
        <time>2021-03-28T12:44:37.000Z</time>
      </trkpt>
      <trkpt lat="47.05394" lon="-1.84182">
        <ele>85</ele>
        <time>2021-03-28T12:44:39.000Z</time>
      </trkpt>
      <trkpt lat="47.05388" lon="-1.84194">
        <ele>85</ele>
        <time>2021-03-28T12:44:41.000Z</time>
      </trkpt>
      <trkpt lat="47.05382" lon="-1.84207">
        <ele>85</ele>
        <time>2021-03-28T12:44:43.000Z</time>
      </trkpt>
      <trkpt lat="47.05375" lon="-1.8422">
        <ele>85</ele>
        <time>2021-03-28T12:44:45.000Z</time>
      </trkpt>
      <trkpt lat="47.05369" lon="-1.84233">
        <ele>85</ele>
        <time>2021-03-28T12:44:47.000Z</time>
      </trkpt>
      <trkpt lat="47.05362" lon="-1.84246">
        <ele>85</ele>
        <time>2021-03-28T12:44:49.000Z</time>
      </trkpt>
      <trkpt lat="47.05355" lon="-1.84259">
        <ele>85</ele>
        <time>2021-03-28T12:44:51.000Z</time>
      </trkpt>
      <trkpt lat="47.05349" lon="-1.84271">
        <ele>85</ele>
        <time>2021-03-28T12:44:53.000Z</time>
      </trkpt>
      <trkpt lat="47.05343" lon="-1.84283">
        <ele>85</ele>
        <time>2021-03-28T12:44:55.000Z</time>
      </trkpt>
      <trkpt lat="47.05337" lon="-1.84296">
        <ele>85</ele>
        <time>2021-03-28T12:44:57.000Z</time>
      </trkpt>
      <trkpt lat="47.05331" lon="-1.84309">
        <ele>85</ele>
        <time>2021-03-28T12:44:59.000Z</time>
      </trkpt>
      <trkpt lat="47.05324" lon="-1.84322">
        <ele>85</ele>
        <time>2021-03-28T12:45:01.000Z</time>
      </trkpt>
      <trkpt lat="47.05317" lon="-1.84335">
        <ele>85</ele>
        <time>2021-03-28T12:45:03.000Z</time>
      </trkpt>
      <trkpt lat="47.05311" lon="-1.84348">
        <ele>85</ele>
        <time>2021-03-28T12:45:05.000Z</time>
      </trkpt>
      <trkpt lat="47.05304" lon="-1.84362">
        <ele>85</ele>
        <time>2021-03-28T12:45:07.000Z</time>
      </trkpt>
      <trkpt lat="47.05297" lon="-1.84374">
        <ele>85</ele>
        <time>2021-03-28T12:45:09.000Z</time>
      </trkpt>
      <trkpt lat="47.05291" lon="-1.84388">
        <ele>85</ele>
        <time>2021-03-28T12:45:11.000Z</time>
      </trkpt>
      <trkpt lat="47.05285" lon="-1.84401">
        <ele>85</ele>
        <time>2021-03-28T12:45:13.000Z</time>
      </trkpt>
      <trkpt lat="47.05278" lon="-1.84414">
        <ele>85</ele>
        <time>2021-03-28T12:45:15.000Z</time>
      </trkpt>
      <trkpt lat="47.05272" lon="-1.84426">
        <ele>85</ele>
        <time>2021-03-28T12:45:17.000Z</time>
      </trkpt>
      <trkpt lat="47.05265" lon="-1.84439">
        <ele>85</ele>
        <time>2021-03-28T12:45:19.000Z</time>
      </trkpt>
      <trkpt lat="47.05259" lon="-1.84453">
        <ele>86</ele>
        <time>2021-03-28T12:45:21.000Z</time>
      </trkpt>
      <trkpt lat="47.05252" lon="-1.84465">
        <ele>86</ele>
        <time>2021-03-28T12:45:23.000Z</time>
      </trkpt>
      <trkpt lat="47.05247" lon="-1.84477">
        <ele>86</ele>
        <time>2021-03-28T12:45:25.000Z</time>
      </trkpt>
      <trkpt lat="47.05241" lon="-1.8449">
        <ele>86</ele>
        <time>2021-03-28T12:45:27.000Z</time>
      </trkpt>
      <trkpt lat="47.05234" lon="-1.84502">
        <ele>86</ele>
        <time>2021-03-28T12:45:29.000Z</time>
      </trkpt>
      <trkpt lat="47.05228" lon="-1.84514">
        <ele>86</ele>
        <time>2021-03-28T12:45:31.000Z</time>
      </trkpt>
      <trkpt lat="47.05222" lon="-1.84525">
        <ele>87</ele>
        <time>2021-03-28T12:45:33.000Z</time>
      </trkpt>
      <trkpt lat="47.05216" lon="-1.84536">
        <ele>87</ele>
        <time>2021-03-28T12:45:35.000Z</time>
      </trkpt>
      <trkpt lat="47.05205" lon="-1.84545">
        <ele>87</ele>
        <time>2021-03-28T12:45:38.000Z</time>
      </trkpt>
      <trkpt lat="47.05194" lon="-1.84535">
        <ele>86</ele>
        <time>2021-03-28T12:45:41.000Z</time>
      </trkpt>
      <trkpt lat="47.05186" lon="-1.84524">
        <ele>86</ele>
        <time>2021-03-28T12:45:43.000Z</time>
      </trkpt>
      <trkpt lat="47.05177" lon="-1.84514">
        <ele>86</ele>
        <time>2021-03-28T12:45:45.000Z</time>
      </trkpt>
      <trkpt lat="47.05169" lon="-1.84502">
        <ele>86</ele>
        <time>2021-03-28T12:45:47.000Z</time>
      </trkpt>
      <trkpt lat="47.0516" lon="-1.8449">
        <ele>85</ele>
        <time>2021-03-28T12:45:49.000Z</time>
      </trkpt>
      <trkpt lat="47.05153" lon="-1.84478">
        <ele>85</ele>
        <time>2021-03-28T12:45:51.000Z</time>
      </trkpt>
      <trkpt lat="47.05145" lon="-1.84466">
        <ele>85</ele>
        <time>2021-03-28T12:45:53.000Z</time>
      </trkpt>
      <trkpt lat="47.05137" lon="-1.84454">
        <ele>85</ele>
        <time>2021-03-28T12:45:55.000Z</time>
      </trkpt>
      <trkpt lat="47.05129" lon="-1.84443">
        <ele>85</ele>
        <time>2021-03-28T12:45:57.000Z</time>
      </trkpt>
      <trkpt lat="47.05121" lon="-1.84431">
        <ele>85</ele>
        <time>2021-03-28T12:45:59.000Z</time>
      </trkpt>
      <trkpt lat="47.05112" lon="-1.84419">
        <ele>85</ele>
        <time>2021-03-28T12:46:01.000Z</time>
      </trkpt>
      <trkpt lat="47.05104" lon="-1.84408">
        <ele>86</ele>
        <time>2021-03-28T12:46:03.000Z</time>
      </trkpt>
      <trkpt lat="47.05094" lon="-1.84397">
        <ele>85</ele>
        <time>2021-03-28T12:46:05.000Z</time>
      </trkpt>
      <trkpt lat="47.05085" lon="-1.84386">
        <ele>85</ele>
        <time>2021-03-28T12:46:07.000Z</time>
      </trkpt>
      <trkpt lat="47.05075" lon="-1.84375">
        <ele>85</ele>
        <time>2021-03-28T12:46:09.000Z</time>
      </trkpt>
      <trkpt lat="47.05066" lon="-1.84364">
        <ele>85</ele>
        <time>2021-03-28T12:46:11.000Z</time>
      </trkpt>
      <trkpt lat="47.05056" lon="-1.84353">
        <ele>85</ele>
        <time>2021-03-28T12:46:13.000Z</time>
      </trkpt>
      <trkpt lat="47.05046" lon="-1.84343">
        <ele>85</ele>
        <time>2021-03-28T12:46:15.000Z</time>
      </trkpt>
      <trkpt lat="47.05037" lon="-1.84333">
        <ele>85</ele>
        <time>2021-03-28T12:46:17.000Z</time>
      </trkpt>
      <trkpt lat="47.05028" lon="-1.84323">
        <ele>85</ele>
        <time>2021-03-28T12:46:19.000Z</time>
      </trkpt>
      <trkpt lat="47.05018" lon="-1.84314">
        <ele>85</ele>
        <time>2021-03-28T12:46:21.000Z</time>
      </trkpt>
      <trkpt lat="47.05007" lon="-1.84307">
        <ele>85</ele>
        <time>2021-03-28T12:46:23.000Z</time>
      </trkpt>
      <trkpt lat="47.04997" lon="-1.843">
        <ele>84</ele>
        <time>2021-03-28T12:46:25.000Z</time>
      </trkpt>
      <trkpt lat="47.04987" lon="-1.84291">
        <ele>85</ele>
        <time>2021-03-28T12:46:27.000Z</time>
      </trkpt>
      <trkpt lat="47.04977" lon="-1.84283">
        <ele>85</ele>
        <time>2021-03-28T12:46:29.000Z</time>
      </trkpt>
      <trkpt lat="47.04967" lon="-1.84274">
        <ele>85</ele>
        <time>2021-03-28T12:46:31.000Z</time>
      </trkpt>
      <trkpt lat="47.04956" lon="-1.84264">
        <ele>85</ele>
        <time>2021-03-28T12:46:33.000Z</time>
      </trkpt>
      <trkpt lat="47.04947" lon="-1.84254">
        <ele>85</ele>
        <time>2021-03-28T12:46:35.000Z</time>
      </trkpt>
      <trkpt lat="47.04937" lon="-1.84243">
        <ele>85</ele>
        <time>2021-03-28T12:46:37.000Z</time>
      </trkpt>
      <trkpt lat="47.04928" lon="-1.84232">
        <ele>86</ele>
        <time>2021-03-28T12:46:39.000Z</time>
      </trkpt>
      <trkpt lat="47.04917" lon="-1.84222">
        <ele>85</ele>
        <time>2021-03-28T12:46:41.000Z</time>
      </trkpt>
      <trkpt lat="47.04906" lon="-1.84212">
        <ele>85</ele>
        <time>2021-03-28T12:46:43.000Z</time>
      </trkpt>
      <trkpt lat="47.04895" lon="-1.84202">
        <ele>85</ele>
        <time>2021-03-28T12:46:45.000Z</time>
      </trkpt>
      <trkpt lat="47.04884" lon="-1.84191">
        <ele>85</ele>
        <time>2021-03-28T12:46:47.000Z</time>
      </trkpt>
      <trkpt lat="47.04874" lon="-1.8418">
        <ele>85</ele>
        <time>2021-03-28T12:46:49.000Z</time>
      </trkpt>
      <trkpt lat="47.04863" lon="-1.84169">
        <ele>85</ele>
        <time>2021-03-28T12:46:51.000Z</time>
      </trkpt>
      <trkpt lat="47.04852" lon="-1.84157">
        <ele>85</ele>
        <time>2021-03-28T12:46:53.000Z</time>
      </trkpt>
      <trkpt lat="47.04842" lon="-1.84146">
        <ele>85</ele>
        <time>2021-03-28T12:46:55.000Z</time>
      </trkpt>
      <trkpt lat="47.04832" lon="-1.84134">
        <ele>84</ele>
        <time>2021-03-28T12:46:57.000Z</time>
      </trkpt>
      <trkpt lat="47.04821" lon="-1.84122">
        <ele>84</ele>
        <time>2021-03-28T12:46:59.000Z</time>
      </trkpt>
      <trkpt lat="47.04811" lon="-1.84109">
        <ele>84</ele>
        <time>2021-03-28T12:47:01.000Z</time>
      </trkpt>
      <trkpt lat="47.04801" lon="-1.84095">
        <ele>84</ele>
        <time>2021-03-28T12:47:03.000Z</time>
      </trkpt>
      <trkpt lat="47.04791" lon="-1.84082">
        <ele>84</ele>
        <time>2021-03-28T12:47:05.000Z</time>
      </trkpt>
      <trkpt lat="47.04781" lon="-1.84069">
        <ele>84</ele>
        <time>2021-03-28T12:47:07.000Z</time>
      </trkpt>
      <trkpt lat="47.0477" lon="-1.84055">
        <ele>84</ele>
        <time>2021-03-28T12:47:09.000Z</time>
      </trkpt>
      <trkpt lat="47.0476" lon="-1.84042">
        <ele>84</ele>
        <time>2021-03-28T12:47:11.000Z</time>
      </trkpt>
      <trkpt lat="47.04749" lon="-1.84029">
        <ele>84</ele>
        <time>2021-03-28T12:47:13.000Z</time>
      </trkpt>
      <trkpt lat="47.04739" lon="-1.84016">
        <ele>83</ele>
        <time>2021-03-28T12:47:15.000Z</time>
      </trkpt>
      <trkpt lat="47.04729" lon="-1.84003">
        <ele>83</ele>
        <time>2021-03-28T12:47:17.000Z</time>
      </trkpt>
      <trkpt lat="47.04718" lon="-1.83991">
        <ele>83</ele>
        <time>2021-03-28T12:47:19.000Z</time>
      </trkpt>
      <trkpt lat="47.04707" lon="-1.83978">
        <ele>83</ele>
        <time>2021-03-28T12:47:21.000Z</time>
      </trkpt>
      <trkpt lat="47.04696" lon="-1.83966">
        <ele>82</ele>
        <time>2021-03-28T12:47:23.000Z</time>
      </trkpt>
      <trkpt lat="47.04685" lon="-1.83953">
        <ele>82</ele>
        <time>2021-03-28T12:47:25.000Z</time>
      </trkpt>
      <trkpt lat="47.04675" lon="-1.8394">
        <ele>83</ele>
        <time>2021-03-28T12:47:27.000Z</time>
      </trkpt>
      <trkpt lat="47.04664" lon="-1.83927">
        <ele>83</ele>
        <time>2021-03-28T12:47:29.000Z</time>
      </trkpt>
      <trkpt lat="47.04654" lon="-1.83914">
        <ele>82</ele>
        <time>2021-03-28T12:47:31.000Z</time>
      </trkpt>
      <trkpt lat="47.04645" lon="-1.83901">
        <ele>82</ele>
        <time>2021-03-28T12:47:33.000Z</time>
      </trkpt>
      <trkpt lat="47.04636" lon="-1.83887">
        <ele>82</ele>
        <time>2021-03-28T12:47:35.000Z</time>
      </trkpt>
      <trkpt lat="47.04626" lon="-1.83873">
        <ele>82</ele>
        <time>2021-03-28T12:47:37.000Z</time>
      </trkpt>
      <trkpt lat="47.04617" lon="-1.8386">
        <ele>82</ele>
        <time>2021-03-28T12:47:39.000Z</time>
      </trkpt>
      <trkpt lat="47.04607" lon="-1.83847">
        <ele>82</ele>
        <time>2021-03-28T12:47:41.000Z</time>
      </trkpt>
      <trkpt lat="47.04596" lon="-1.83837">
        <ele>82</ele>
        <time>2021-03-28T12:47:43.000Z</time>
      </trkpt>
      <trkpt lat="47.04585" lon="-1.83828">
        <ele>82</ele>
        <time>2021-03-28T12:47:45.000Z</time>
      </trkpt>
      <trkpt lat="47.04574" lon="-1.83819">
        <ele>82</ele>
        <time>2021-03-28T12:47:47.000Z</time>
      </trkpt>
      <trkpt lat="47.04562" lon="-1.83812">
        <ele>82</ele>
        <time>2021-03-28T12:47:49.000Z</time>
      </trkpt>
      <trkpt lat="47.04551" lon="-1.83803">
        <ele>81</ele>
        <time>2021-03-28T12:47:51.000Z</time>
      </trkpt>
      <trkpt lat="47.04539" lon="-1.83795">
        <ele>82</ele>
        <time>2021-03-28T12:47:53.000Z</time>
      </trkpt>
      <trkpt lat="47.04527" lon="-1.83787">
        <ele>82</ele>
        <time>2021-03-28T12:47:55.000Z</time>
      </trkpt>
      <trkpt lat="47.04516" lon="-1.83778">
        <ele>81</ele>
        <time>2021-03-28T12:47:57.000Z</time>
      </trkpt>
      <trkpt lat="47.04504" lon="-1.8377">
        <ele>82</ele>
        <time>2021-03-28T12:47:59.000Z</time>
      </trkpt>
      <trkpt lat="47.04493" lon="-1.83761">
        <ele>82</ele>
        <time>2021-03-28T12:48:01.000Z</time>
      </trkpt>
      <trkpt lat="47.04482" lon="-1.83752">
        <ele>82</ele>
        <time>2021-03-28T12:48:03.000Z</time>
      </trkpt>
      <trkpt lat="47.04471" lon="-1.83743">
        <ele>82</ele>
        <time>2021-03-28T12:48:05.000Z</time>
      </trkpt>
      <trkpt lat="47.0446" lon="-1.83733">
        <ele>81</ele>
        <time>2021-03-28T12:48:07.000Z</time>
      </trkpt>
      <trkpt lat="47.04449" lon="-1.83724">
        <ele>81</ele>
        <time>2021-03-28T12:48:09.000Z</time>
      </trkpt>
      <trkpt lat="47.04438" lon="-1.83715">
        <ele>81</ele>
        <time>2021-03-28T12:48:11.000Z</time>
      </trkpt>
      <trkpt lat="47.04427" lon="-1.83707">
        <ele>81</ele>
        <time>2021-03-28T12:48:13.000Z</time>
      </trkpt>
      <trkpt lat="47.04415" lon="-1.83698">
        <ele>80</ele>
        <time>2021-03-28T12:48:15.000Z</time>
      </trkpt>
      <trkpt lat="47.04404" lon="-1.8369">
        <ele>80</ele>
        <time>2021-03-28T12:48:17.000Z</time>
      </trkpt>
      <trkpt lat="47.04392" lon="-1.83682">
        <ele>80</ele>
        <time>2021-03-28T12:48:19.000Z</time>
      </trkpt>
      <trkpt lat="47.0438" lon="-1.83675">
        <ele>80</ele>
        <time>2021-03-28T12:48:21.000Z</time>
      </trkpt>
      <trkpt lat="47.04367" lon="-1.83671">
        <ele>80</ele>
        <time>2021-03-28T12:48:23.000Z</time>
      </trkpt>
      <trkpt lat="47.04353" lon="-1.83667">
        <ele>80</ele>
        <time>2021-03-28T12:48:25.000Z</time>
      </trkpt>
      <trkpt lat="47.0434" lon="-1.83663">
        <ele>80</ele>
        <time>2021-03-28T12:48:27.000Z</time>
      </trkpt>
      <trkpt lat="47.04326" lon="-1.83661">
        <ele>80</ele>
        <time>2021-03-28T12:48:29.000Z</time>
      </trkpt>
      <trkpt lat="47.04313" lon="-1.83658">
        <ele>81</ele>
        <time>2021-03-28T12:48:31.000Z</time>
      </trkpt>
      <trkpt lat="47.04299" lon="-1.83655">
        <ele>81</ele>
        <time>2021-03-28T12:48:33.000Z</time>
      </trkpt>
      <trkpt lat="47.04286" lon="-1.83651">
        <ele>82</ele>
        <time>2021-03-28T12:48:35.000Z</time>
      </trkpt>
      <trkpt lat="47.04273" lon="-1.83647">
        <ele>82</ele>
        <time>2021-03-28T12:48:37.000Z</time>
      </trkpt>
      <trkpt lat="47.04261" lon="-1.83645">
        <ele>82</ele>
        <time>2021-03-28T12:48:39.000Z</time>
      </trkpt>
      <trkpt lat="47.04248" lon="-1.83641">
        <ele>81</ele>
        <time>2021-03-28T12:48:41.000Z</time>
      </trkpt>
      <trkpt lat="47.04235" lon="-1.83637">
        <ele>81</ele>
        <time>2021-03-28T12:48:43.000Z</time>
      </trkpt>
      <trkpt lat="47.04223" lon="-1.83631">
        <ele>81</ele>
        <time>2021-03-28T12:48:45.000Z</time>
      </trkpt>
      <trkpt lat="47.04212" lon="-1.83622">
        <ele>81</ele>
        <time>2021-03-28T12:48:47.000Z</time>
      </trkpt>
      <trkpt lat="47.04201" lon="-1.83617">
        <ele>81</ele>
        <time>2021-03-28T12:48:49.000Z</time>
      </trkpt>
      <trkpt lat="47.04182" lon="-1.83616">
        <ele>81</ele>
        <time>2021-03-28T12:48:52.000Z</time>
      </trkpt>
      <trkpt lat="47.0417" lon="-1.83612">
        <ele>81</ele>
        <time>2021-03-28T12:48:54.000Z</time>
      </trkpt>
      <trkpt lat="47.04158" lon="-1.83606">
        <ele>81</ele>
        <time>2021-03-28T12:48:56.000Z</time>
      </trkpt>
      <trkpt lat="47.04146" lon="-1.836">
        <ele>81</ele>
        <time>2021-03-28T12:48:58.000Z</time>
      </trkpt>
      <trkpt lat="47.04134" lon="-1.83594">
        <ele>81</ele>
        <time>2021-03-28T12:49:00.000Z</time>
      </trkpt>
      <trkpt lat="47.04122" lon="-1.83588">
        <ele>81</ele>
        <time>2021-03-28T12:49:02.000Z</time>
      </trkpt>
      <trkpt lat="47.0411" lon="-1.83583">
        <ele>81</ele>
        <time>2021-03-28T12:49:04.000Z</time>
      </trkpt>
      <trkpt lat="47.04098" lon="-1.83579">
        <ele>81</ele>
        <time>2021-03-28T12:49:06.000Z</time>
      </trkpt>
      <trkpt lat="47.04086" lon="-1.83575">
        <ele>81</ele>
        <time>2021-03-28T12:49:08.000Z</time>
      </trkpt>
      <trkpt lat="47.04073" lon="-1.83573">
        <ele>82</ele>
        <time>2021-03-28T12:49:10.000Z</time>
      </trkpt>
      <trkpt lat="47.04061" lon="-1.8357">
        <ele>81</ele>
        <time>2021-03-28T12:49:12.000Z</time>
      </trkpt>
      <trkpt lat="47.04048" lon="-1.83568">
        <ele>82</ele>
        <time>2021-03-28T12:49:14.000Z</time>
      </trkpt>
      <trkpt lat="47.04036" lon="-1.83566">
        <ele>82</ele>
        <time>2021-03-28T12:49:16.000Z</time>
      </trkpt>
      <trkpt lat="47.04024" lon="-1.83565">
        <ele>82</ele>
        <time>2021-03-28T12:49:18.000Z</time>
      </trkpt>
      <trkpt lat="47.04012" lon="-1.83564">
        <ele>82</ele>
        <time>2021-03-28T12:49:20.000Z</time>
      </trkpt>
      <trkpt lat="47.04" lon="-1.83562">
        <ele>82</ele>
        <time>2021-03-28T12:49:22.000Z</time>
      </trkpt>
      <trkpt lat="47.03981" lon="-1.83559">
        <ele>82</ele>
        <time>2021-03-28T12:49:25.000Z</time>
      </trkpt>
      <trkpt lat="47.03969" lon="-1.83557">
        <ele>82</ele>
        <time>2021-03-28T12:49:27.000Z</time>
      </trkpt>
      <trkpt lat="47.03957" lon="-1.83556">
        <ele>82</ele>
        <time>2021-03-28T12:49:29.000Z</time>
      </trkpt>
      <trkpt lat="47.03945" lon="-1.83555">
        <ele>82</ele>
        <time>2021-03-28T12:49:31.000Z</time>
      </trkpt>
      <trkpt lat="47.03932" lon="-1.83553">
        <ele>82</ele>
        <time>2021-03-28T12:49:33.000Z</time>
      </trkpt>
      <trkpt lat="47.0392" lon="-1.83551">
        <ele>82</ele>
        <time>2021-03-28T12:49:35.000Z</time>
      </trkpt>
      <trkpt lat="47.03907" lon="-1.8355">
        <ele>82</ele>
        <time>2021-03-28T12:49:37.000Z</time>
      </trkpt>
      <trkpt lat="47.03888" lon="-1.83547">
        <ele>82</ele>
        <time>2021-03-28T12:49:40.000Z</time>
      </trkpt>
      <trkpt lat="47.03869" lon="-1.83544">
        <ele>81</ele>
        <time>2021-03-28T12:49:43.000Z</time>
      </trkpt>
      <trkpt lat="47.03857" lon="-1.83542">
        <ele>82</ele>
        <time>2021-03-28T12:49:45.000Z</time>
      </trkpt>
      <trkpt lat="47.03844" lon="-1.83541">
        <ele>81</ele>
        <time>2021-03-28T12:49:47.000Z</time>
      </trkpt>
      <trkpt lat="47.03831" lon="-1.8354">
        <ele>82</ele>
        <time>2021-03-28T12:49:49.000Z</time>
      </trkpt>
      <trkpt lat="47.03812" lon="-1.83538">
        <ele>82</ele>
        <time>2021-03-28T12:49:52.000Z</time>
      </trkpt>
      <trkpt lat="47.03799" lon="-1.83537">
        <ele>81</ele>
        <time>2021-03-28T12:49:54.000Z</time>
      </trkpt>
      <trkpt lat="47.0378" lon="-1.83535">
        <ele>81</ele>
        <time>2021-03-28T12:49:57.000Z</time>
      </trkpt>
      <trkpt lat="47.03767" lon="-1.83535">
        <ele>80</ele>
        <time>2021-03-28T12:49:59.000Z</time>
      </trkpt>
      <trkpt lat="47.03755" lon="-1.83535">
        <ele>80</ele>
        <time>2021-03-28T12:50:01.000Z</time>
      </trkpt>
      <trkpt lat="47.03742" lon="-1.83535">
        <ele>80</ele>
        <time>2021-03-28T12:50:03.000Z</time>
      </trkpt>
      <trkpt lat="47.03723" lon="-1.83536">
        <ele>80</ele>
        <time>2021-03-28T12:50:06.000Z</time>
      </trkpt>
      <trkpt lat="47.03711" lon="-1.83536">
        <ele>80</ele>
        <time>2021-03-28T12:50:08.000Z</time>
      </trkpt>
      <trkpt lat="47.03699" lon="-1.83537">
        <ele>80</ele>
        <time>2021-03-28T12:50:10.000Z</time>
      </trkpt>
      <trkpt lat="47.03687" lon="-1.83537">
        <ele>80</ele>
        <time>2021-03-28T12:50:12.000Z</time>
      </trkpt>
      <trkpt lat="47.03669" lon="-1.83537">
        <ele>80</ele>
        <time>2021-03-28T12:50:15.000Z</time>
      </trkpt>
      <trkpt lat="47.03656" lon="-1.83537">
        <ele>80</ele>
        <time>2021-03-28T12:50:17.000Z</time>
      </trkpt>
      <trkpt lat="47.03643" lon="-1.83538">
        <ele>80</ele>
        <time>2021-03-28T12:50:19.000Z</time>
      </trkpt>
      <trkpt lat="47.03631" lon="-1.83538">
        <ele>80</ele>
        <time>2021-03-28T12:50:21.000Z</time>
      </trkpt>
      <trkpt lat="47.03619" lon="-1.83538">
        <ele>80</ele>
        <time>2021-03-28T12:50:23.000Z</time>
      </trkpt>
      <trkpt lat="47.03607" lon="-1.83539">
        <ele>80</ele>
        <time>2021-03-28T12:50:25.000Z</time>
      </trkpt>
      <trkpt lat="47.03595" lon="-1.83539">
        <ele>80</ele>
        <time>2021-03-28T12:50:27.000Z</time>
      </trkpt>
      <trkpt lat="47.03583" lon="-1.83539">
        <ele>80</ele>
        <time>2021-03-28T12:50:29.000Z</time>
      </trkpt>
      <trkpt lat="47.03571" lon="-1.83539">
        <ele>80</ele>
        <time>2021-03-28T12:50:31.000Z</time>
      </trkpt>
      <trkpt lat="47.03559" lon="-1.83539">
        <ele>80</ele>
        <time>2021-03-28T12:50:33.000Z</time>
      </trkpt>
      <trkpt lat="47.03546" lon="-1.83539">
        <ele>79</ele>
        <time>2021-03-28T12:50:35.000Z</time>
      </trkpt>
      <trkpt lat="47.03534" lon="-1.83539">
        <ele>79</ele>
        <time>2021-03-28T12:50:37.000Z</time>
      </trkpt>
      <trkpt lat="47.03521" lon="-1.83538">
        <ele>79</ele>
        <time>2021-03-28T12:50:39.000Z</time>
      </trkpt>
      <trkpt lat="47.03508" lon="-1.83537">
        <ele>79</ele>
        <time>2021-03-28T12:50:41.000Z</time>
      </trkpt>
      <trkpt lat="47.03495" lon="-1.83536">
        <ele>79</ele>
        <time>2021-03-28T12:50:43.000Z</time>
      </trkpt>
      <trkpt lat="47.03481" lon="-1.83534">
        <ele>79</ele>
        <time>2021-03-28T12:50:45.000Z</time>
      </trkpt>
      <trkpt lat="47.03469" lon="-1.83531">
        <ele>79</ele>
        <time>2021-03-28T12:50:47.000Z</time>
      </trkpt>
      <trkpt lat="47.03456" lon="-1.83528">
        <ele>79</ele>
        <time>2021-03-28T12:50:49.000Z</time>
      </trkpt>
      <trkpt lat="47.03443" lon="-1.83524">
        <ele>78</ele>
        <time>2021-03-28T12:50:51.000Z</time>
      </trkpt>
      <trkpt lat="47.0343" lon="-1.8352">
        <ele>78</ele>
        <time>2021-03-28T12:50:53.000Z</time>
      </trkpt>
      <trkpt lat="47.03417" lon="-1.83517">
        <ele>78</ele>
        <time>2021-03-28T12:50:55.000Z</time>
      </trkpt>
      <trkpt lat="47.03404" lon="-1.83513">
        <ele>77</ele>
        <time>2021-03-28T12:50:57.000Z</time>
      </trkpt>
      <trkpt lat="47.03391" lon="-1.83509">
        <ele>77</ele>
        <time>2021-03-28T12:50:59.000Z</time>
      </trkpt>
      <trkpt lat="47.03379" lon="-1.83506">
        <ele>77</ele>
        <time>2021-03-28T12:51:01.000Z</time>
      </trkpt>
      <trkpt lat="47.03367" lon="-1.83502">
        <ele>77</ele>
        <time>2021-03-28T12:51:03.000Z</time>
      </trkpt>
      <trkpt lat="47.03354" lon="-1.83499">
        <ele>77</ele>
        <time>2021-03-28T12:51:05.000Z</time>
      </trkpt>
      <trkpt lat="47.03342" lon="-1.83496">
        <ele>77</ele>
        <time>2021-03-28T12:51:07.000Z</time>
      </trkpt>
      <trkpt lat="47.0333" lon="-1.83492">
        <ele>77</ele>
        <time>2021-03-28T12:51:09.000Z</time>
      </trkpt>
      <trkpt lat="47.03317" lon="-1.83489">
        <ele>77</ele>
        <time>2021-03-28T12:51:11.000Z</time>
      </trkpt>
      <trkpt lat="47.03305" lon="-1.83485">
        <ele>77</ele>
        <time>2021-03-28T12:51:13.000Z</time>
      </trkpt>
      <trkpt lat="47.03293" lon="-1.83483">
        <ele>77</ele>
        <time>2021-03-28T12:51:15.000Z</time>
      </trkpt>
      <trkpt lat="47.03281" lon="-1.83479">
        <ele>77</ele>
        <time>2021-03-28T12:51:17.000Z</time>
      </trkpt>
      <trkpt lat="47.03269" lon="-1.83476">
        <ele>77</ele>
        <time>2021-03-28T12:51:19.000Z</time>
      </trkpt>
      <trkpt lat="47.03257" lon="-1.83472">
        <ele>76</ele>
        <time>2021-03-28T12:51:21.000Z</time>
      </trkpt>
      <trkpt lat="47.03245" lon="-1.83469">
        <ele>76</ele>
        <time>2021-03-28T12:51:23.000Z</time>
      </trkpt>
      <trkpt lat="47.03233" lon="-1.83466">
        <ele>76</ele>
        <time>2021-03-28T12:51:25.000Z</time>
      </trkpt>
      <trkpt lat="47.03221" lon="-1.83462">
        <ele>76</ele>
        <time>2021-03-28T12:51:27.000Z</time>
      </trkpt>
      <trkpt lat="47.03209" lon="-1.83459">
        <ele>76</ele>
        <time>2021-03-28T12:51:29.000Z</time>
      </trkpt>
      <trkpt lat="47.03197" lon="-1.83456">
        <ele>76</ele>
        <time>2021-03-28T12:51:31.000Z</time>
      </trkpt>
      <trkpt lat="47.03186" lon="-1.83453">
        <ele>76</ele>
        <time>2021-03-28T12:51:33.000Z</time>
      </trkpt>
      <trkpt lat="47.03176" lon="-1.83451">
        <ele>76</ele>
        <time>2021-03-28T12:51:35.000Z</time>
      </trkpt>
      <trkpt lat="47.03167" lon="-1.83457">
        <ele>76</ele>
        <time>2021-03-28T12:51:37.000Z</time>
      </trkpt>
      <trkpt lat="47.03162" lon="-1.8347">
        <ele>77</ele>
        <time>2021-03-28T12:51:39.000Z</time>
      </trkpt>
      <trkpt lat="47.03156" lon="-1.83483">
        <ele>77</ele>
        <time>2021-03-28T12:51:41.000Z</time>
      </trkpt>
      <trkpt lat="47.03144" lon="-1.83489">
        <ele>78</ele>
        <time>2021-03-28T12:51:43.000Z</time>
      </trkpt>
      <trkpt lat="47.03131" lon="-1.8349">
        <ele>78</ele>
        <time>2021-03-28T12:51:45.000Z</time>
      </trkpt>
      <trkpt lat="47.03119" lon="-1.83491">
        <ele>78</ele>
        <time>2021-03-28T12:51:47.000Z</time>
      </trkpt>
      <trkpt lat="47.03106" lon="-1.83493">
        <ele>77</ele>
        <time>2021-03-28T12:51:49.000Z</time>
      </trkpt>
      <trkpt lat="47.03094" lon="-1.83495">
        <ele>77</ele>
        <time>2021-03-28T12:51:51.000Z</time>
      </trkpt>
      <trkpt lat="47.03082" lon="-1.83496">
        <ele>77</ele>
        <time>2021-03-28T12:51:53.000Z</time>
      </trkpt>
      <trkpt lat="47.0307" lon="-1.83497">
        <ele>76</ele>
        <time>2021-03-28T12:51:55.000Z</time>
      </trkpt>
      <trkpt lat="47.03057" lon="-1.83499">
        <ele>76</ele>
        <time>2021-03-28T12:51:57.000Z</time>
      </trkpt>
      <trkpt lat="47.03045" lon="-1.835">
        <ele>76</ele>
        <time>2021-03-28T12:51:59.000Z</time>
      </trkpt>
      <trkpt lat="47.03032" lon="-1.83502">
        <ele>76</ele>
        <time>2021-03-28T12:52:01.000Z</time>
      </trkpt>
      <trkpt lat="47.03019" lon="-1.83503">
        <ele>75</ele>
        <time>2021-03-28T12:52:03.000Z</time>
      </trkpt>
      <trkpt lat="47.03007" lon="-1.83504">
        <ele>75</ele>
        <time>2021-03-28T12:52:05.000Z</time>
      </trkpt>
      <trkpt lat="47.02994" lon="-1.83506">
        <ele>75</ele>
        <time>2021-03-28T12:52:07.000Z</time>
      </trkpt>
      <trkpt lat="47.02982" lon="-1.83507">
        <ele>75</ele>
        <time>2021-03-28T12:52:09.000Z</time>
      </trkpt>
      <trkpt lat="47.02969" lon="-1.83508">
        <ele>74</ele>
        <time>2021-03-28T12:52:11.000Z</time>
      </trkpt>
      <trkpt lat="47.02956" lon="-1.8351">
        <ele>74</ele>
        <time>2021-03-28T12:52:13.000Z</time>
      </trkpt>
      <trkpt lat="47.02944" lon="-1.83511">
        <ele>74</ele>
        <time>2021-03-28T12:52:15.000Z</time>
      </trkpt>
      <trkpt lat="47.02932" lon="-1.83514">
        <ele>74</ele>
        <time>2021-03-28T12:52:17.000Z</time>
      </trkpt>
      <trkpt lat="47.02919" lon="-1.83516">
        <ele>74</ele>
        <time>2021-03-28T12:52:19.000Z</time>
      </trkpt>
      <trkpt lat="47.02907" lon="-1.83519">
        <ele>75</ele>
        <time>2021-03-28T12:52:21.000Z</time>
      </trkpt>
      <trkpt lat="47.02894" lon="-1.83522">
        <ele>74</ele>
        <time>2021-03-28T12:52:23.000Z</time>
      </trkpt>
      <trkpt lat="47.02883" lon="-1.83525">
        <ele>75</ele>
        <time>2021-03-28T12:52:25.000Z</time>
      </trkpt>
      <trkpt lat="47.02871" lon="-1.83528">
        <ele>75</ele>
        <time>2021-03-28T12:52:27.000Z</time>
      </trkpt>
      <trkpt lat="47.0286" lon="-1.83532">
        <ele>75</ele>
        <time>2021-03-28T12:52:29.000Z</time>
      </trkpt>
      <trkpt lat="47.02849" lon="-1.83537">
        <ele>75</ele>
        <time>2021-03-28T12:52:31.000Z</time>
      </trkpt>
      <trkpt lat="47.02838" lon="-1.83544">
        <ele>76</ele>
        <time>2021-03-28T12:52:33.000Z</time>
      </trkpt>
      <trkpt lat="47.02828" lon="-1.83551">
        <ele>76</ele>
        <time>2021-03-28T12:52:35.000Z</time>
      </trkpt>
      <trkpt lat="47.02819" lon="-1.8356">
        <ele>75</ele>
        <time>2021-03-28T12:52:37.000Z</time>
      </trkpt>
      <trkpt lat="47.02809" lon="-1.83569">
        <ele>75</ele>
        <time>2021-03-28T12:52:39.000Z</time>
      </trkpt>
      <trkpt lat="47.02801" lon="-1.83579">
        <ele>76</ele>
        <time>2021-03-28T12:52:41.000Z</time>
      </trkpt>
      <trkpt lat="47.02791" lon="-1.83588">
        <ele>76</ele>
        <time>2021-03-28T12:52:43.000Z</time>
      </trkpt>
      <trkpt lat="47.0278" lon="-1.83596">
        <ele>76</ele>
        <time>2021-03-28T12:52:45.000Z</time>
      </trkpt>
      <trkpt lat="47.0277" lon="-1.83603">
        <ele>76</ele>
        <time>2021-03-28T12:52:47.000Z</time>
      </trkpt>
      <trkpt lat="47.02758" lon="-1.83609">
        <ele>76</ele>
        <time>2021-03-28T12:52:49.000Z</time>
      </trkpt>
      <trkpt lat="47.02747" lon="-1.83614">
        <ele>76</ele>
        <time>2021-03-28T12:52:51.000Z</time>
      </trkpt>
      <trkpt lat="47.02735" lon="-1.83617">
        <ele>76</ele>
        <time>2021-03-28T12:52:53.000Z</time>
      </trkpt>
      <trkpt lat="47.02722" lon="-1.83618">
        <ele>76</ele>
        <time>2021-03-28T12:52:55.000Z</time>
      </trkpt>
      <trkpt lat="47.0271" lon="-1.83619">
        <ele>76</ele>
        <time>2021-03-28T12:52:57.000Z</time>
      </trkpt>
      <trkpt lat="47.02697" lon="-1.8362">
        <ele>75</ele>
        <time>2021-03-28T12:52:59.000Z</time>
      </trkpt>
      <trkpt lat="47.02685" lon="-1.83621">
        <ele>75</ele>
        <time>2021-03-28T12:53:01.000Z</time>
      </trkpt>
      <trkpt lat="47.02672" lon="-1.83621">
        <ele>75</ele>
        <time>2021-03-28T12:53:03.000Z</time>
      </trkpt>
      <trkpt lat="47.0266" lon="-1.83622">
        <ele>75</ele>
        <time>2021-03-28T12:53:05.000Z</time>
      </trkpt>
      <trkpt lat="47.02648" lon="-1.83623">
        <ele>75</ele>
        <time>2021-03-28T12:53:07.000Z</time>
      </trkpt>
      <trkpt lat="47.02635" lon="-1.83623">
        <ele>75</ele>
        <time>2021-03-28T12:53:09.000Z</time>
      </trkpt>
      <trkpt lat="47.02622" lon="-1.83625">
        <ele>75</ele>
        <time>2021-03-28T12:53:11.000Z</time>
      </trkpt>
      <trkpt lat="47.02609" lon="-1.83625">
        <ele>75</ele>
        <time>2021-03-28T12:53:13.000Z</time>
      </trkpt>
      <trkpt lat="47.02597" lon="-1.83626">
        <ele>75</ele>
        <time>2021-03-28T12:53:15.000Z</time>
      </trkpt>
      <trkpt lat="47.02585" lon="-1.83626">
        <ele>75</ele>
        <time>2021-03-28T12:53:17.000Z</time>
      </trkpt>
      <trkpt lat="47.02573" lon="-1.83627">
        <ele>75</ele>
        <time>2021-03-28T12:53:19.000Z</time>
      </trkpt>
      <trkpt lat="47.02561" lon="-1.83628">
        <ele>75</ele>
        <time>2021-03-28T12:53:21.000Z</time>
      </trkpt>
      <trkpt lat="47.0255" lon="-1.83629">
        <ele>75</ele>
        <time>2021-03-28T12:53:23.000Z</time>
      </trkpt>
      <trkpt lat="47.02538" lon="-1.83631">
        <ele>75</ele>
        <time>2021-03-28T12:53:25.000Z</time>
      </trkpt>
      <trkpt lat="47.02526" lon="-1.83633">
        <ele>75</ele>
        <time>2021-03-28T12:53:27.000Z</time>
      </trkpt>
      <trkpt lat="47.02514" lon="-1.83635">
        <ele>75</ele>
        <time>2021-03-28T12:53:29.000Z</time>
      </trkpt>
      <trkpt lat="47.02503" lon="-1.83638">
        <ele>75</ele>
        <time>2021-03-28T12:53:31.000Z</time>
      </trkpt>
      <trkpt lat="47.02491" lon="-1.8364">
        <ele>75</ele>
        <time>2021-03-28T12:53:33.000Z</time>
      </trkpt>
      <trkpt lat="47.02479" lon="-1.83643">
        <ele>75</ele>
        <time>2021-03-28T12:53:35.000Z</time>
      </trkpt>
      <trkpt lat="47.02468" lon="-1.83646">
        <ele>74</ele>
        <time>2021-03-28T12:53:37.000Z</time>
      </trkpt>
      <trkpt lat="47.02456" lon="-1.83649">
        <ele>74</ele>
        <time>2021-03-28T12:53:39.000Z</time>
      </trkpt>
      <trkpt lat="47.02444" lon="-1.83651">
        <ele>74</ele>
        <time>2021-03-28T12:53:41.000Z</time>
      </trkpt>
      <trkpt lat="47.02432" lon="-1.83653">
        <ele>74</ele>
        <time>2021-03-28T12:53:43.000Z</time>
      </trkpt>
      <trkpt lat="47.0242" lon="-1.83656">
        <ele>74</ele>
        <time>2021-03-28T12:53:45.000Z</time>
      </trkpt>
      <trkpt lat="47.02408" lon="-1.83658">
        <ele>73</ele>
        <time>2021-03-28T12:53:47.000Z</time>
      </trkpt>
      <trkpt lat="47.02395" lon="-1.83659">
        <ele>74</ele>
        <time>2021-03-28T12:53:49.000Z</time>
      </trkpt>
      <trkpt lat="47.02383" lon="-1.83659">
        <ele>73</ele>
        <time>2021-03-28T12:53:51.000Z</time>
      </trkpt>
      <trkpt lat="47.0237" lon="-1.83659">
        <ele>73</ele>
        <time>2021-03-28T12:53:53.000Z</time>
      </trkpt>
      <trkpt lat="47.02357" lon="-1.83658">
        <ele>73</ele>
        <time>2021-03-28T12:53:55.000Z</time>
      </trkpt>
      <trkpt lat="47.02345" lon="-1.83657">
        <ele>73</ele>
        <time>2021-03-28T12:53:57.000Z</time>
      </trkpt>
      <trkpt lat="47.02332" lon="-1.83657">
        <ele>72</ele>
        <time>2021-03-28T12:53:59.000Z</time>
      </trkpt>
      <trkpt lat="47.02319" lon="-1.83656">
        <ele>72</ele>
        <time>2021-03-28T12:54:01.000Z</time>
      </trkpt>
      <trkpt lat="47.02306" lon="-1.83655">
        <ele>72</ele>
        <time>2021-03-28T12:54:03.000Z</time>
      </trkpt>
      <trkpt lat="47.02293" lon="-1.83654">
        <ele>72</ele>
        <time>2021-03-28T12:54:05.000Z</time>
      </trkpt>
      <trkpt lat="47.0228" lon="-1.83653">
        <ele>72</ele>
        <time>2021-03-28T12:54:07.000Z</time>
      </trkpt>
      <trkpt lat="47.02267" lon="-1.83653">
        <ele>72</ele>
        <time>2021-03-28T12:54:09.000Z</time>
      </trkpt>
      <trkpt lat="47.02254" lon="-1.83651">
        <ele>72</ele>
        <time>2021-03-28T12:54:11.000Z</time>
      </trkpt>
      <trkpt lat="47.02241" lon="-1.8365">
        <ele>71</ele>
        <time>2021-03-28T12:54:13.000Z</time>
      </trkpt>
      <trkpt lat="47.02228" lon="-1.83649">
        <ele>71</ele>
        <time>2021-03-28T12:54:15.000Z</time>
      </trkpt>
      <trkpt lat="47.02215" lon="-1.83647">
        <ele>71</ele>
        <time>2021-03-28T12:54:17.000Z</time>
      </trkpt>
      <trkpt lat="47.02202" lon="-1.83644">
        <ele>71</ele>
        <time>2021-03-28T12:54:19.000Z</time>
      </trkpt>
      <trkpt lat="47.0219" lon="-1.83639">
        <ele>71</ele>
        <time>2021-03-28T12:54:21.000Z</time>
      </trkpt>
      <trkpt lat="47.02178" lon="-1.83634">
        <ele>71</ele>
        <time>2021-03-28T12:54:23.000Z</time>
      </trkpt>
      <trkpt lat="47.02165" lon="-1.83627">
        <ele>70</ele>
        <time>2021-03-28T12:54:25.000Z</time>
      </trkpt>
      <trkpt lat="47.02153" lon="-1.8362">
        <ele>70</ele>
        <time>2021-03-28T12:54:27.000Z</time>
      </trkpt>
      <trkpt lat="47.02141" lon="-1.83613">
        <ele>70</ele>
        <time>2021-03-28T12:54:29.000Z</time>
      </trkpt>
      <trkpt lat="47.02129" lon="-1.83605">
        <ele>69</ele>
        <time>2021-03-28T12:54:31.000Z</time>
      </trkpt>
      <trkpt lat="47.02116" lon="-1.83598">
        <ele>69</ele>
        <time>2021-03-28T12:54:33.000Z</time>
      </trkpt>
      <trkpt lat="47.02104" lon="-1.83591">
        <ele>69</ele>
        <time>2021-03-28T12:54:35.000Z</time>
      </trkpt>
      <trkpt lat="47.02092" lon="-1.83584">
        <ele>69</ele>
        <time>2021-03-28T12:54:37.000Z</time>
      </trkpt>
      <trkpt lat="47.0208" lon="-1.83576">
        <ele>69</ele>
        <time>2021-03-28T12:54:39.000Z</time>
      </trkpt>
      <trkpt lat="47.02068" lon="-1.83569">
        <ele>69</ele>
        <time>2021-03-28T12:54:41.000Z</time>
      </trkpt>
      <trkpt lat="47.02056" lon="-1.83563">
        <ele>69</ele>
        <time>2021-03-28T12:54:43.000Z</time>
      </trkpt>
      <trkpt lat="47.02044" lon="-1.83555">
        <ele>69</ele>
        <time>2021-03-28T12:54:45.000Z</time>
      </trkpt>
      <trkpt lat="47.02032" lon="-1.83548">
        <ele>69</ele>
        <time>2021-03-28T12:54:47.000Z</time>
      </trkpt>
      <trkpt lat="47.0202" lon="-1.8354">
        <ele>69</ele>
        <time>2021-03-28T12:54:49.000Z</time>
      </trkpt>
      <trkpt lat="47.02008" lon="-1.83533">
        <ele>68</ele>
        <time>2021-03-28T12:54:51.000Z</time>
      </trkpt>
      <trkpt lat="47.01997" lon="-1.83526">
        <ele>68</ele>
        <time>2021-03-28T12:54:53.000Z</time>
      </trkpt>
      <trkpt lat="47.01984" lon="-1.83518">
        <ele>68</ele>
        <time>2021-03-28T12:54:55.000Z</time>
      </trkpt>
      <trkpt lat="47.01972" lon="-1.83512">
        <ele>68</ele>
        <time>2021-03-28T12:54:57.000Z</time>
      </trkpt>
      <trkpt lat="47.01959" lon="-1.83505">
        <ele>67</ele>
        <time>2021-03-28T12:54:59.000Z</time>
      </trkpt>
      <trkpt lat="47.01946" lon="-1.83499">
        <ele>67</ele>
        <time>2021-03-28T12:55:01.000Z</time>
      </trkpt>
      <trkpt lat="47.01931" lon="-1.83497">
        <ele>67</ele>
        <time>2021-03-28T12:55:03.000Z</time>
      </trkpt>
      <trkpt lat="47.01916" lon="-1.83499">
        <ele>66</ele>
        <time>2021-03-28T12:55:05.000Z</time>
      </trkpt>
      <trkpt lat="47.01901" lon="-1.83503">
        <ele>66</ele>
        <time>2021-03-28T12:55:07.000Z</time>
      </trkpt>
      <trkpt lat="47.01885" lon="-1.83506">
        <ele>65</ele>
        <time>2021-03-28T12:55:09.000Z</time>
      </trkpt>
      <trkpt lat="47.01869" lon="-1.8351">
        <ele>64</ele>
        <time>2021-03-28T12:55:11.000Z</time>
      </trkpt>
      <trkpt lat="47.01853" lon="-1.83514">
        <ele>64</ele>
        <time>2021-03-28T12:55:13.000Z</time>
      </trkpt>
      <trkpt lat="47.01838" lon="-1.83517">
        <ele>63</ele>
        <time>2021-03-28T12:55:15.000Z</time>
      </trkpt>
      <trkpt lat="47.01823" lon="-1.83521">
        <ele>63</ele>
        <time>2021-03-28T12:55:17.000Z</time>
      </trkpt>
      <trkpt lat="47.01808" lon="-1.83524">
        <ele>63</ele>
        <time>2021-03-28T12:55:19.000Z</time>
      </trkpt>
      <trkpt lat="47.01794" lon="-1.83528">
        <ele>63</ele>
        <time>2021-03-28T12:55:21.000Z</time>
      </trkpt>
      <trkpt lat="47.0178" lon="-1.83531">
        <ele>62</ele>
        <time>2021-03-28T12:55:23.000Z</time>
      </trkpt>
      <trkpt lat="47.01766" lon="-1.83536">
        <ele>62</ele>
        <time>2021-03-28T12:55:25.000Z</time>
      </trkpt>
      <trkpt lat="47.01754" lon="-1.83544">
        <ele>62</ele>
        <time>2021-03-28T12:55:27.000Z</time>
      </trkpt>
      <trkpt lat="47.01743" lon="-1.83555">
        <ele>62</ele>
        <time>2021-03-28T12:55:29.000Z</time>
      </trkpt>
      <trkpt lat="47.01734" lon="-1.83567">
        <ele>62</ele>
        <time>2021-03-28T12:55:31.000Z</time>
      </trkpt>
      <trkpt lat="47.01727" lon="-1.83581">
        <ele>62</ele>
        <time>2021-03-28T12:55:33.000Z</time>
      </trkpt>
      <trkpt lat="47.01721" lon="-1.83595">
        <ele>63</ele>
        <time>2021-03-28T12:55:35.000Z</time>
      </trkpt>
      <trkpt lat="47.01713" lon="-1.83609">
        <ele>63</ele>
        <time>2021-03-28T12:55:37.000Z</time>
      </trkpt>
      <trkpt lat="47.01706" lon="-1.83624">
        <ele>62</ele>
        <time>2021-03-28T12:55:39.000Z</time>
      </trkpt>
      <trkpt lat="47.01699" lon="-1.83637">
        <ele>62</ele>
        <time>2021-03-28T12:55:41.000Z</time>
      </trkpt>
      <trkpt lat="47.0169" lon="-1.83652">
        <ele>62</ele>
        <time>2021-03-28T12:55:43.000Z</time>
      </trkpt>
      <trkpt lat="47.01682" lon="-1.83664">
        <ele>62</ele>
        <time>2021-03-28T12:55:45.000Z</time>
      </trkpt>
      <trkpt lat="47.01673" lon="-1.83677">
        <ele>62</ele>
        <time>2021-03-28T12:55:47.000Z</time>
      </trkpt>
      <trkpt lat="47.01664" lon="-1.83689">
        <ele>62</ele>
        <time>2021-03-28T12:55:49.000Z</time>
      </trkpt>
      <trkpt lat="47.01654" lon="-1.83701">
        <ele>62</ele>
        <time>2021-03-28T12:55:51.000Z</time>
      </trkpt>
      <trkpt lat="47.01644" lon="-1.83713">
        <ele>62</ele>
        <time>2021-03-28T12:55:53.000Z</time>
      </trkpt>
      <trkpt lat="47.01634" lon="-1.83725">
        <ele>62</ele>
        <time>2021-03-28T12:55:55.000Z</time>
      </trkpt>
      <trkpt lat="47.01624" lon="-1.83736">
        <ele>62</ele>
        <time>2021-03-28T12:55:57.000Z</time>
      </trkpt>
      <trkpt lat="47.01615" lon="-1.83747">
        <ele>61</ele>
        <time>2021-03-28T12:55:59.000Z</time>
      </trkpt>
      <trkpt lat="47.01605" lon="-1.83759">
        <ele>61</ele>
        <time>2021-03-28T12:56:01.000Z</time>
      </trkpt>
      <trkpt lat="47.01596" lon="-1.83771">
        <ele>61</ele>
        <time>2021-03-28T12:56:03.000Z</time>
      </trkpt>
      <trkpt lat="47.01586" lon="-1.83782">
        <ele>60</ele>
        <time>2021-03-28T12:56:05.000Z</time>
      </trkpt>
      <trkpt lat="47.01576" lon="-1.83793">
        <ele>60</ele>
        <time>2021-03-28T12:56:07.000Z</time>
      </trkpt>
      <trkpt lat="47.01567" lon="-1.83805">
        <ele>60</ele>
        <time>2021-03-28T12:56:09.000Z</time>
      </trkpt>
      <trkpt lat="47.01557" lon="-1.83818">
        <ele>60</ele>
        <time>2021-03-28T12:56:11.000Z</time>
      </trkpt>
      <trkpt lat="47.01548" lon="-1.8383">
        <ele>60</ele>
        <time>2021-03-28T12:56:13.000Z</time>
      </trkpt>
      <trkpt lat="47.01538" lon="-1.83841">
        <ele>60</ele>
        <time>2021-03-28T12:56:15.000Z</time>
      </trkpt>
      <trkpt lat="47.0153" lon="-1.83854">
        <ele>60</ele>
        <time>2021-03-28T12:56:17.000Z</time>
      </trkpt>
      <trkpt lat="47.01521" lon="-1.83867">
        <ele>60</ele>
        <time>2021-03-28T12:56:19.000Z</time>
      </trkpt>
      <trkpt lat="47.01512" lon="-1.83882">
        <ele>60</ele>
        <time>2021-03-28T12:56:21.000Z</time>
      </trkpt>
      <trkpt lat="47.01504" lon="-1.83894">
        <ele>60</ele>
        <time>2021-03-28T12:56:23.000Z</time>
      </trkpt>
      <trkpt lat="47.01495" lon="-1.83907">
        <ele>59</ele>
        <time>2021-03-28T12:56:25.000Z</time>
      </trkpt>
      <trkpt lat="47.01486" lon="-1.8392">
        <ele>59</ele>
        <time>2021-03-28T12:56:27.000Z</time>
      </trkpt>
      <trkpt lat="47.01478" lon="-1.83933">
        <ele>59</ele>
        <time>2021-03-28T12:56:29.000Z</time>
      </trkpt>
      <trkpt lat="47.01469" lon="-1.83947">
        <ele>59</ele>
        <time>2021-03-28T12:56:31.000Z</time>
      </trkpt>
      <trkpt lat="47.0146" lon="-1.83961">
        <ele>59</ele>
        <time>2021-03-28T12:56:33.000Z</time>
      </trkpt>
      <trkpt lat="47.01451" lon="-1.83974">
        <ele>58</ele>
        <time>2021-03-28T12:56:35.000Z</time>
      </trkpt>
      <trkpt lat="47.01441" lon="-1.83989">
        <ele>58</ele>
        <time>2021-03-28T12:56:37.000Z</time>
      </trkpt>
      <trkpt lat="47.01432" lon="-1.84003">
        <ele>57</ele>
        <time>2021-03-28T12:56:39.000Z</time>
      </trkpt>
      <trkpt lat="47.01422" lon="-1.84018">
        <ele>57</ele>
        <time>2021-03-28T12:56:41.000Z</time>
      </trkpt>
      <trkpt lat="47.01413" lon="-1.84032">
        <ele>57</ele>
        <time>2021-03-28T12:56:43.000Z</time>
      </trkpt>
      <trkpt lat="47.01403" lon="-1.84046">
        <ele>56</ele>
        <time>2021-03-28T12:56:45.000Z</time>
      </trkpt>
      <trkpt lat="47.01394" lon="-1.84059">
        <ele>56</ele>
        <time>2021-03-28T12:56:47.000Z</time>
      </trkpt>
      <trkpt lat="47.01385" lon="-1.84073">
        <ele>56</ele>
        <time>2021-03-28T12:56:49.000Z</time>
      </trkpt>
      <trkpt lat="47.01375" lon="-1.84085">
        <ele>56</ele>
        <time>2021-03-28T12:56:51.000Z</time>
      </trkpt>
      <trkpt lat="47.01365" lon="-1.84097">
        <ele>56</ele>
        <time>2021-03-28T12:56:53.000Z</time>
      </trkpt>
      <trkpt lat="47.01355" lon="-1.84109">
        <ele>55</ele>
        <time>2021-03-28T12:56:55.000Z</time>
      </trkpt>
      <trkpt lat="47.01344" lon="-1.84121">
        <ele>55</ele>
        <time>2021-03-28T12:56:57.000Z</time>
      </trkpt>
      <trkpt lat="47.01334" lon="-1.84132">
        <ele>56</ele>
        <time>2021-03-28T12:56:59.000Z</time>
      </trkpt>
      <trkpt lat="47.01324" lon="-1.84143">
        <ele>56</ele>
        <time>2021-03-28T12:57:01.000Z</time>
      </trkpt>
      <trkpt lat="47.01314" lon="-1.84154">
        <ele>56</ele>
        <time>2021-03-28T12:57:03.000Z</time>
      </trkpt>
      <trkpt lat="47.01304" lon="-1.84165">
        <ele>56</ele>
        <time>2021-03-28T12:57:05.000Z</time>
      </trkpt>
      <trkpt lat="47.01294" lon="-1.84176">
        <ele>56</ele>
        <time>2021-03-28T12:57:07.000Z</time>
      </trkpt>
      <trkpt lat="47.01284" lon="-1.84186">
        <ele>56</ele>
        <time>2021-03-28T12:57:09.000Z</time>
      </trkpt>
      <trkpt lat="47.01274" lon="-1.84197">
        <ele>56</ele>
        <time>2021-03-28T12:57:11.000Z</time>
      </trkpt>
      <trkpt lat="47.01265" lon="-1.84208">
        <ele>55</ele>
        <time>2021-03-28T12:57:13.000Z</time>
      </trkpt>
      <trkpt lat="47.01255" lon="-1.84218">
        <ele>55</ele>
        <time>2021-03-28T12:57:15.000Z</time>
      </trkpt>
      <trkpt lat="47.01245" lon="-1.8423">
        <ele>55</ele>
        <time>2021-03-28T12:57:17.000Z</time>
      </trkpt>
      <trkpt lat="47.01234" lon="-1.84241">
        <ele>55</ele>
        <time>2021-03-28T12:57:19.000Z</time>
      </trkpt>
      <trkpt lat="47.01225" lon="-1.84251">
        <ele>55</ele>
        <time>2021-03-28T12:57:21.000Z</time>
      </trkpt>
      <trkpt lat="47.01215" lon="-1.84262">
        <ele>55</ele>
        <time>2021-03-28T12:57:23.000Z</time>
      </trkpt>
      <trkpt lat="47.01205" lon="-1.84273">
        <ele>55</ele>
        <time>2021-03-28T12:57:25.000Z</time>
      </trkpt>
      <trkpt lat="47.01196" lon="-1.84286">
        <ele>55</ele>
        <time>2021-03-28T12:57:27.000Z</time>
      </trkpt>
      <trkpt lat="47.01188" lon="-1.843">
        <ele>54</ele>
        <time>2021-03-28T12:57:29.000Z</time>
      </trkpt>
      <trkpt lat="47.01181" lon="-1.84315">
        <ele>55</ele>
        <time>2021-03-28T12:57:31.000Z</time>
      </trkpt>
      <trkpt lat="47.01176" lon="-1.84331">
        <ele>55</ele>
        <time>2021-03-28T12:57:33.000Z</time>
      </trkpt>
      <trkpt lat="47.01172" lon="-1.84346">
        <ele>55</ele>
        <time>2021-03-28T12:57:35.000Z</time>
      </trkpt>
      <trkpt lat="47.01168" lon="-1.84362">
        <ele>55</ele>
        <time>2021-03-28T12:57:37.000Z</time>
      </trkpt>
      <trkpt lat="47.01163" lon="-1.84377">
        <ele>55</ele>
        <time>2021-03-28T12:57:39.000Z</time>
      </trkpt>
      <trkpt lat="47.01159" lon="-1.84393">
        <ele>54</ele>
        <time>2021-03-28T12:57:41.000Z</time>
      </trkpt>
      <trkpt lat="47.01156" lon="-1.84409">
        <ele>55</ele>
        <time>2021-03-28T12:57:43.000Z</time>
      </trkpt>
      <trkpt lat="47.01151" lon="-1.84426">
        <ele>55</ele>
        <time>2021-03-28T12:57:45.000Z</time>
      </trkpt>
      <trkpt lat="47.01147" lon="-1.84442">
        <ele>55</ele>
        <time>2021-03-28T12:57:47.000Z</time>
      </trkpt>
      <trkpt lat="47.01143" lon="-1.84459">
        <ele>55</ele>
        <time>2021-03-28T12:57:49.000Z</time>
      </trkpt>
      <trkpt lat="47.01138" lon="-1.84476">
        <ele>55</ele>
        <time>2021-03-28T12:57:51.000Z</time>
      </trkpt>
      <trkpt lat="47.01134" lon="-1.84494">
        <ele>54</ele>
        <time>2021-03-28T12:57:53.000Z</time>
      </trkpt>
      <trkpt lat="47.01129" lon="-1.84511">
        <ele>55</ele>
        <time>2021-03-28T12:57:55.000Z</time>
      </trkpt>
      <trkpt lat="47.01124" lon="-1.84526">
        <ele>54</ele>
        <time>2021-03-28T12:57:57.000Z</time>
      </trkpt>
      <trkpt lat="47.01117" lon="-1.8454">
        <ele>54</ele>
        <time>2021-03-28T12:57:59.000Z</time>
      </trkpt>
      <trkpt lat="47.0111" lon="-1.84554">
        <ele>54</ele>
        <time>2021-03-28T12:58:01.000Z</time>
      </trkpt>
      <trkpt lat="47.01101" lon="-1.84566">
        <ele>54</ele>
        <time>2021-03-28T12:58:03.000Z</time>
      </trkpt>
      <trkpt lat="47.01092" lon="-1.84577">
        <ele>53</ele>
        <time>2021-03-28T12:58:05.000Z</time>
      </trkpt>
      <trkpt lat="47.01082" lon="-1.84587">
        <ele>53</ele>
        <time>2021-03-28T12:58:07.000Z</time>
      </trkpt>
      <trkpt lat="47.01073" lon="-1.84599">
        <ele>53</ele>
        <time>2021-03-28T12:58:09.000Z</time>
      </trkpt>
      <trkpt lat="47.01064" lon="-1.84609">
        <ele>53</ele>
        <time>2021-03-28T12:58:11.000Z</time>
      </trkpt>
      <trkpt lat="47.01054" lon="-1.8462">
        <ele>54</ele>
        <time>2021-03-28T12:58:13.000Z</time>
      </trkpt>
      <trkpt lat="47.01046" lon="-1.8463">
        <ele>53</ele>
        <time>2021-03-28T12:58:15.000Z</time>
      </trkpt>
      <trkpt lat="47.01036" lon="-1.84641">
        <ele>53</ele>
        <time>2021-03-28T12:58:17.000Z</time>
      </trkpt>
      <trkpt lat="47.01027" lon="-1.8465">
        <ele>53</ele>
        <time>2021-03-28T12:58:19.000Z</time>
      </trkpt>
      <trkpt lat="47.01017" lon="-1.84658">
        <ele>53</ele>
        <time>2021-03-28T12:58:21.000Z</time>
      </trkpt>
      <trkpt lat="47.01007" lon="-1.84665">
        <ele>53</ele>
        <time>2021-03-28T12:58:23.000Z</time>
      </trkpt>
      <trkpt lat="47.00997" lon="-1.84672">
        <ele>53</ele>
        <time>2021-03-28T12:58:25.000Z</time>
      </trkpt>
      <trkpt lat="47.00986" lon="-1.84678">
        <ele>53</ele>
        <time>2021-03-28T12:58:27.000Z</time>
      </trkpt>
      <trkpt lat="47.00976" lon="-1.84683">
        <ele>53</ele>
        <time>2021-03-28T12:58:29.000Z</time>
      </trkpt>
      <trkpt lat="47.00965" lon="-1.84689">
        <ele>53</ele>
        <time>2021-03-28T12:58:31.000Z</time>
      </trkpt>
      <trkpt lat="47.00955" lon="-1.84695">
        <ele>53</ele>
        <time>2021-03-28T12:58:33.000Z</time>
      </trkpt>
      <trkpt lat="47.00944" lon="-1.84701">
        <ele>53</ele>
        <time>2021-03-28T12:58:35.000Z</time>
      </trkpt>
      <trkpt lat="47.00934" lon="-1.84707">
        <ele>53</ele>
        <time>2021-03-28T12:58:37.000Z</time>
      </trkpt>
      <trkpt lat="47.00924" lon="-1.84712">
        <ele>53</ele>
        <time>2021-03-28T12:58:39.000Z</time>
      </trkpt>
      <trkpt lat="47.00914" lon="-1.84717">
        <ele>53</ele>
        <time>2021-03-28T12:58:41.000Z</time>
      </trkpt>
      <trkpt lat="47.00904" lon="-1.84723">
        <ele>53</ele>
        <time>2021-03-28T12:58:43.000Z</time>
      </trkpt>
      <trkpt lat="47.00894" lon="-1.8473">
        <ele>52</ele>
        <time>2021-03-28T12:58:46.000Z</time>
      </trkpt>
      <trkpt lat="47.00885" lon="-1.84741">
        <ele>53</ele>
        <time>2021-03-28T12:58:53.000Z</time>
      </trkpt>
      <trkpt lat="47.00873" lon="-1.8475">
        <ele>53</ele>
        <time>2021-03-28T12:58:56.000Z</time>
      </trkpt>
      <trkpt lat="47.00864" lon="-1.84757">
        <ele>53</ele>
        <time>2021-03-28T12:58:58.000Z</time>
      </trkpt>
      <trkpt lat="47.00855" lon="-1.84763">
        <ele>53</ele>
        <time>2021-03-28T12:59:00.000Z</time>
      </trkpt>
      <trkpt lat="47.00845" lon="-1.8477">
        <ele>53</ele>
        <time>2021-03-28T12:59:02.000Z</time>
      </trkpt>
      <trkpt lat="47.00835" lon="-1.84776">
        <ele>53</ele>
        <time>2021-03-28T12:59:04.000Z</time>
      </trkpt>
      <trkpt lat="47.00825" lon="-1.84783">
        <ele>53</ele>
        <time>2021-03-28T12:59:06.000Z</time>
      </trkpt>
      <trkpt lat="47.00814" lon="-1.84789">
        <ele>53</ele>
        <time>2021-03-28T12:59:08.000Z</time>
      </trkpt>
      <trkpt lat="47.00804" lon="-1.84795">
        <ele>53</ele>
        <time>2021-03-28T12:59:10.000Z</time>
      </trkpt>
      <trkpt lat="47.00794" lon="-1.84802">
        <ele>53</ele>
        <time>2021-03-28T12:59:12.000Z</time>
      </trkpt>
      <trkpt lat="47.00783" lon="-1.84808">
        <ele>53</ele>
        <time>2021-03-28T12:59:14.000Z</time>
      </trkpt>
      <trkpt lat="47.00773" lon="-1.84813">
        <ele>54</ele>
        <time>2021-03-28T12:59:16.000Z</time>
      </trkpt>
      <trkpt lat="47.00762" lon="-1.84818">
        <ele>54</ele>
        <time>2021-03-28T12:59:18.000Z</time>
      </trkpt>
      <trkpt lat="47.00751" lon="-1.84824">
        <ele>54</ele>
        <time>2021-03-28T12:59:20.000Z</time>
      </trkpt>
      <trkpt lat="47.00741" lon="-1.84829">
        <ele>54</ele>
        <time>2021-03-28T12:59:22.000Z</time>
      </trkpt>
      <trkpt lat="47.00731" lon="-1.84834">
        <ele>54</ele>
        <time>2021-03-28T12:59:24.000Z</time>
      </trkpt>
      <trkpt lat="47.00721" lon="-1.8484">
        <ele>54</ele>
        <time>2021-03-28T12:59:26.000Z</time>
      </trkpt>
      <trkpt lat="47.0071" lon="-1.84846">
        <ele>54</ele>
        <time>2021-03-28T12:59:28.000Z</time>
      </trkpt>
      <trkpt lat="47.007" lon="-1.84851">
        <ele>54</ele>
        <time>2021-03-28T12:59:30.000Z</time>
      </trkpt>
      <trkpt lat="47.0069" lon="-1.84856">
        <ele>54</ele>
        <time>2021-03-28T12:59:32.000Z</time>
      </trkpt>
      <trkpt lat="47.00679" lon="-1.84861">
        <ele>54</ele>
        <time>2021-03-28T12:59:34.000Z</time>
      </trkpt>
      <trkpt lat="47.00668" lon="-1.84867">
        <ele>54</ele>
        <time>2021-03-28T12:59:36.000Z</time>
      </trkpt>
      <trkpt lat="47.00657" lon="-1.84872">
        <ele>54</ele>
        <time>2021-03-28T12:59:38.000Z</time>
      </trkpt>
      <trkpt lat="47.00646" lon="-1.84878">
        <ele>53</ele>
        <time>2021-03-28T12:59:40.000Z</time>
      </trkpt>
      <trkpt lat="47.00636" lon="-1.84884">
        <ele>53</ele>
        <time>2021-03-28T12:59:42.000Z</time>
      </trkpt>
      <trkpt lat="47.00626" lon="-1.84891">
        <ele>53</ele>
        <time>2021-03-28T12:59:44.000Z</time>
      </trkpt>
      <trkpt lat="47.00617" lon="-1.84899">
        <ele>53</ele>
        <time>2021-03-28T12:59:46.000Z</time>
      </trkpt>
      <trkpt lat="47.00608" lon="-1.84907">
        <ele>53</ele>
        <time>2021-03-28T12:59:48.000Z</time>
      </trkpt>
      <trkpt lat="47.00599" lon="-1.84916">
        <ele>53</ele>
        <time>2021-03-28T12:59:50.000Z</time>
      </trkpt>
      <trkpt lat="47.0059" lon="-1.84925">
        <ele>53</ele>
        <time>2021-03-28T12:59:52.000Z</time>
      </trkpt>
      <trkpt lat="47.00582" lon="-1.84936">
        <ele>53</ele>
        <time>2021-03-28T12:59:54.000Z</time>
      </trkpt>
      <trkpt lat="47.00574" lon="-1.84947">
        <ele>53</ele>
        <time>2021-03-28T12:59:56.000Z</time>
      </trkpt>
      <trkpt lat="47.00567" lon="-1.84958">
        <ele>53</ele>
        <time>2021-03-28T12:59:58.000Z</time>
      </trkpt>
      <trkpt lat="47.00559" lon="-1.84968">
        <ele>53</ele>
        <time>2021-03-28T13:00:00.000Z</time>
      </trkpt>
      <trkpt lat="47.00551" lon="-1.84979">
        <ele>53</ele>
        <time>2021-03-28T13:00:02.000Z</time>
      </trkpt>
      <trkpt lat="47.00542" lon="-1.8499">
        <ele>53</ele>
        <time>2021-03-28T13:00:04.000Z</time>
      </trkpt>
      <trkpt lat="47.00534" lon="-1.85001">
        <ele>52</ele>
        <time>2021-03-28T13:00:06.000Z</time>
      </trkpt>
      <trkpt lat="47.00525" lon="-1.85012">
        <ele>52</ele>
        <time>2021-03-28T13:00:08.000Z</time>
      </trkpt>
      <trkpt lat="47.00516" lon="-1.85023">
        <ele>52</ele>
        <time>2021-03-28T13:00:10.000Z</time>
      </trkpt>
      <trkpt lat="47.00508" lon="-1.85033">
        <ele>52</ele>
        <time>2021-03-28T13:00:12.000Z</time>
      </trkpt>
      <trkpt lat="47.00499" lon="-1.85044">
        <ele>52</ele>
        <time>2021-03-28T13:00:14.000Z</time>
      </trkpt>
      <trkpt lat="47.00491" lon="-1.85053">
        <ele>52</ele>
        <time>2021-03-28T13:00:16.000Z</time>
      </trkpt>
      <trkpt lat="47.00482" lon="-1.85062">
        <ele>53</ele>
        <time>2021-03-28T13:00:18.000Z</time>
      </trkpt>
      <trkpt lat="47.00473" lon="-1.85071">
        <ele>53</ele>
        <time>2021-03-28T13:00:20.000Z</time>
      </trkpt>
      <trkpt lat="47.00463" lon="-1.85079">
        <ele>53</ele>
        <time>2021-03-28T13:00:22.000Z</time>
      </trkpt>
      <trkpt lat="47.00453" lon="-1.85088">
        <ele>53</ele>
        <time>2021-03-28T13:00:24.000Z</time>
      </trkpt>
      <trkpt lat="47.00444" lon="-1.85095">
        <ele>53</ele>
        <time>2021-03-28T13:00:26.000Z</time>
      </trkpt>
      <trkpt lat="47.00434" lon="-1.85103">
        <ele>53</ele>
        <time>2021-03-28T13:00:28.000Z</time>
      </trkpt>
      <trkpt lat="47.00425" lon="-1.8511">
        <ele>53</ele>
        <time>2021-03-28T13:00:30.000Z</time>
      </trkpt>
      <trkpt lat="47.00417" lon="-1.85118">
        <ele>54</ele>
        <time>2021-03-28T13:00:32.000Z</time>
      </trkpt>
      <trkpt lat="47.00407" lon="-1.85125">
        <ele>54</ele>
        <time>2021-03-28T13:00:34.000Z</time>
      </trkpt>
      <trkpt lat="47.00398" lon="-1.85134">
        <ele>54</ele>
        <time>2021-03-28T13:00:36.000Z</time>
      </trkpt>
      <trkpt lat="47.00389" lon="-1.85141">
        <ele>54</ele>
        <time>2021-03-28T13:00:38.000Z</time>
      </trkpt>
      <trkpt lat="47.0038" lon="-1.85149">
        <ele>54</ele>
        <time>2021-03-28T13:00:40.000Z</time>
      </trkpt>
      <trkpt lat="47.00371" lon="-1.85156">
        <ele>54</ele>
        <time>2021-03-28T13:00:42.000Z</time>
      </trkpt>
      <trkpt lat="47.00363" lon="-1.85163">
        <ele>54</ele>
        <time>2021-03-28T13:00:44.000Z</time>
      </trkpt>
      <trkpt lat="47.00354" lon="-1.85171">
        <ele>54</ele>
        <time>2021-03-28T13:00:46.000Z</time>
      </trkpt>
      <trkpt lat="47.00345" lon="-1.85178">
        <ele>54</ele>
        <time>2021-03-28T13:00:48.000Z</time>
      </trkpt>
      <trkpt lat="47.00336" lon="-1.85185">
        <ele>54</ele>
        <time>2021-03-28T13:00:50.000Z</time>
      </trkpt>
      <trkpt lat="47.00327" lon="-1.85193">
        <ele>54</ele>
        <time>2021-03-28T13:00:52.000Z</time>
      </trkpt>
      <trkpt lat="47.00318" lon="-1.85201">
        <ele>53</ele>
        <time>2021-03-28T13:00:54.000Z</time>
      </trkpt>
      <trkpt lat="47.00309" lon="-1.85209">
        <ele>53</ele>
        <time>2021-03-28T13:00:56.000Z</time>
      </trkpt>
      <trkpt lat="47.003" lon="-1.85217">
        <ele>53</ele>
        <time>2021-03-28T13:00:58.000Z</time>
      </trkpt>
      <trkpt lat="47.00291" lon="-1.85224">
        <ele>53</ele>
        <time>2021-03-28T13:01:00.000Z</time>
      </trkpt>
      <trkpt lat="47.00282" lon="-1.85232">
        <ele>53</ele>
        <time>2021-03-28T13:01:02.000Z</time>
      </trkpt>
      <trkpt lat="47.00273" lon="-1.8524">
        <ele>53</ele>
        <time>2021-03-28T13:01:04.000Z</time>
      </trkpt>
      <trkpt lat="47.00264" lon="-1.85248">
        <ele>53</ele>
        <time>2021-03-28T13:01:06.000Z</time>
      </trkpt>
      <trkpt lat="47.00255" lon="-1.85256">
        <ele>53</ele>
        <time>2021-03-28T13:01:08.000Z</time>
      </trkpt>
      <trkpt lat="47.00245" lon="-1.85264">
        <ele>53</ele>
        <time>2021-03-28T13:01:10.000Z</time>
      </trkpt>
      <trkpt lat="47.00237" lon="-1.85272">
        <ele>53</ele>
        <time>2021-03-28T13:01:12.000Z</time>
      </trkpt>
      <trkpt lat="47.00228" lon="-1.85281">
        <ele>53</ele>
        <time>2021-03-28T13:01:14.000Z</time>
      </trkpt>
      <trkpt lat="47.0022" lon="-1.85291">
        <ele>53</ele>
        <time>2021-03-28T13:01:16.000Z</time>
      </trkpt>
      <trkpt lat="47.00213" lon="-1.85302">
        <ele>52</ele>
        <time>2021-03-28T13:01:18.000Z</time>
      </trkpt>
      <trkpt lat="47.00206" lon="-1.85313">
        <ele>52</ele>
        <time>2021-03-28T13:01:20.000Z</time>
      </trkpt>
      <trkpt lat="47.002" lon="-1.85325">
        <ele>52</ele>
        <time>2021-03-28T13:01:22.000Z</time>
      </trkpt>
      <trkpt lat="47.00195" lon="-1.85338">
        <ele>52</ele>
        <time>2021-03-28T13:01:24.000Z</time>
      </trkpt>
      <trkpt lat="47.00189" lon="-1.8535">
        <ele>52</ele>
        <time>2021-03-28T13:01:26.000Z</time>
      </trkpt>
      <trkpt lat="47.00183" lon="-1.85363">
        <ele>52</ele>
        <time>2021-03-28T13:01:28.000Z</time>
      </trkpt>
      <trkpt lat="47.00177" lon="-1.85376">
        <ele>52</ele>
        <time>2021-03-28T13:01:30.000Z</time>
      </trkpt>
      <trkpt lat="47.00171" lon="-1.85388">
        <ele>52</ele>
        <time>2021-03-28T13:01:32.000Z</time>
      </trkpt>
      <trkpt lat="47.00165" lon="-1.854">
        <ele>52</ele>
        <time>2021-03-28T13:01:34.000Z</time>
      </trkpt>
      <trkpt lat="47.00158" lon="-1.85411">
        <ele>52</ele>
        <time>2021-03-28T13:01:36.000Z</time>
      </trkpt>
      <trkpt lat="47.00151" lon="-1.85422">
        <ele>52</ele>
        <time>2021-03-28T13:01:38.000Z</time>
      </trkpt>
      <trkpt lat="47.00144" lon="-1.85432">
        <ele>52</ele>
        <time>2021-03-28T13:01:40.000Z</time>
      </trkpt>
      <trkpt lat="47.00137" lon="-1.85439">
        <ele>51</ele>
        <time>2021-03-28T13:01:42.000Z</time>
      </trkpt>
      <trkpt lat="47.0013" lon="-1.85447">
        <ele>51</ele>
        <time>2021-03-28T13:01:45.000Z</time>
      </trkpt>
      <trkpt lat="47.00119" lon="-1.85452">
        <ele>49</ele>
        <time>2021-03-28T13:04:49.000Z</time>
      </trkpt>
      <trkpt lat="47.0011" lon="-1.85452">
        <ele>49</ele>
        <time>2021-03-28T13:04:52.000Z</time>
      </trkpt>
      <trkpt lat="47.00098" lon="-1.85445">
        <ele>49</ele>
        <time>2021-03-28T13:04:55.000Z</time>
      </trkpt>
      <trkpt lat="47.00089" lon="-1.85438">
        <ele>49</ele>
        <time>2021-03-28T13:04:57.000Z</time>
      </trkpt>
      <trkpt lat="47.00081" lon="-1.85429">
        <ele>50</ele>
        <time>2021-03-28T13:04:59.000Z</time>
      </trkpt>
      <trkpt lat="47.00073" lon="-1.85419">
        <ele>50</ele>
        <time>2021-03-28T13:05:01.000Z</time>
      </trkpt>
      <trkpt lat="47.00066" lon="-1.85408">
        <ele>50</ele>
        <time>2021-03-28T13:05:03.000Z</time>
      </trkpt>
      <trkpt lat="47.00057" lon="-1.85397">
        <ele>50</ele>
        <time>2021-03-28T13:05:05.000Z</time>
      </trkpt>
      <trkpt lat="47.00049" lon="-1.85386">
        <ele>51</ele>
        <time>2021-03-28T13:05:07.000Z</time>
      </trkpt>
      <trkpt lat="47.0004" lon="-1.85377">
        <ele>50</ele>
        <time>2021-03-28T13:05:09.000Z</time>
      </trkpt>
      <trkpt lat="47.00029" lon="-1.85371">
        <ele>50</ele>
        <time>2021-03-28T13:05:11.000Z</time>
      </trkpt>
      <trkpt lat="47.00017" lon="-1.85368">
        <ele>49</ele>
        <time>2021-03-28T13:05:13.000Z</time>
      </trkpt>
      <trkpt lat="47.00005" lon="-1.85367">
        <ele>49</ele>
        <time>2021-03-28T13:05:15.000Z</time>
      </trkpt>
      <trkpt lat="46.99993" lon="-1.85365">
        <ele>49</ele>
        <time>2021-03-28T13:05:17.000Z</time>
      </trkpt>
      <trkpt lat="46.99983" lon="-1.85358">
        <ele>49</ele>
        <time>2021-03-28T13:05:19.000Z</time>
      </trkpt>
      <trkpt lat="46.99975" lon="-1.85344">
        <ele>50</ele>
        <time>2021-03-28T13:05:21.000Z</time>
      </trkpt>
      <trkpt lat="46.99968" lon="-1.85329">
        <ele>50</ele>
        <time>2021-03-28T13:05:23.000Z</time>
      </trkpt>
      <trkpt lat="46.99961" lon="-1.85315">
        <ele>51</ele>
        <time>2021-03-28T13:05:25.000Z</time>
      </trkpt>
      <trkpt lat="46.99953" lon="-1.85301">
        <ele>51</ele>
        <time>2021-03-28T13:05:27.000Z</time>
      </trkpt>
      <trkpt lat="46.99945" lon="-1.85287">
        <ele>51</ele>
        <time>2021-03-28T13:05:29.000Z</time>
      </trkpt>
      <trkpt lat="46.99938" lon="-1.85272">
        <ele>51</ele>
        <time>2021-03-28T13:05:31.000Z</time>
      </trkpt>
      <trkpt lat="46.9993" lon="-1.85258">
        <ele>52</ele>
        <time>2021-03-28T13:05:33.000Z</time>
      </trkpt>
      <trkpt lat="46.99923" lon="-1.85242">
        <ele>52</ele>
        <time>2021-03-28T13:05:35.000Z</time>
      </trkpt>
      <trkpt lat="46.99918" lon="-1.85224">
        <ele>51</ele>
        <time>2021-03-28T13:05:37.000Z</time>
      </trkpt>
      <trkpt lat="46.99915" lon="-1.85206">
        <ele>51</ele>
        <time>2021-03-28T13:05:39.000Z</time>
      </trkpt>
      <trkpt lat="46.99912" lon="-1.85188">
        <ele>51</ele>
        <time>2021-03-28T13:05:41.000Z</time>
      </trkpt>
      <trkpt lat="46.9991" lon="-1.8517">
        <ele>51</ele>
        <time>2021-03-28T13:05:43.000Z</time>
      </trkpt>
      <trkpt lat="46.99907" lon="-1.85152">
        <ele>51</ele>
        <time>2021-03-28T13:05:45.000Z</time>
      </trkpt>
      <trkpt lat="46.99905" lon="-1.85135">
        <ele>51</ele>
        <time>2021-03-28T13:05:47.000Z</time>
      </trkpt>
      <trkpt lat="46.99903" lon="-1.85117">
        <ele>51</ele>
        <time>2021-03-28T13:05:49.000Z</time>
      </trkpt>
      <trkpt lat="46.99901" lon="-1.85099">
        <ele>51</ele>
        <time>2021-03-28T13:05:51.000Z</time>
      </trkpt>
      <trkpt lat="46.999" lon="-1.8508">
        <ele>51</ele>
        <time>2021-03-28T13:05:53.000Z</time>
      </trkpt>
      <trkpt lat="46.99898" lon="-1.85061">
        <ele>50</ele>
        <time>2021-03-28T13:05:55.000Z</time>
      </trkpt>
      <trkpt lat="46.99897" lon="-1.85042">
        <ele>51</ele>
        <time>2021-03-28T13:05:57.000Z</time>
      </trkpt>
      <trkpt lat="46.99896" lon="-1.85024">
        <ele>51</ele>
        <time>2021-03-28T13:05:59.000Z</time>
      </trkpt>
      <trkpt lat="46.99895" lon="-1.85006">
        <ele>51</ele>
        <time>2021-03-28T13:06:01.000Z</time>
      </trkpt>
      <trkpt lat="46.99895" lon="-1.84988">
        <ele>51</ele>
        <time>2021-03-28T13:06:03.000Z</time>
      </trkpt>
      <trkpt lat="46.99894" lon="-1.84969">
        <ele>51</ele>
        <time>2021-03-28T13:06:05.000Z</time>
      </trkpt>
      <trkpt lat="46.99893" lon="-1.84951">
        <ele>52</ele>
        <time>2021-03-28T13:06:07.000Z</time>
      </trkpt>
      <trkpt lat="46.99892" lon="-1.84933">
        <ele>52</ele>
        <time>2021-03-28T13:06:09.000Z</time>
      </trkpt>
      <trkpt lat="46.99891" lon="-1.84914">
        <ele>52</ele>
        <time>2021-03-28T13:06:11.000Z</time>
      </trkpt>
      <trkpt lat="46.99888" lon="-1.84896">
        <ele>53</ele>
        <time>2021-03-28T13:06:13.000Z</time>
      </trkpt>
      <trkpt lat="46.99887" lon="-1.84877">
        <ele>53</ele>
        <time>2021-03-28T13:06:15.000Z</time>
      </trkpt>
      <trkpt lat="46.99885" lon="-1.84858">
        <ele>53</ele>
        <time>2021-03-28T13:06:17.000Z</time>
      </trkpt>
      <trkpt lat="46.99882" lon="-1.8484">
        <ele>53</ele>
        <time>2021-03-28T13:06:19.000Z</time>
      </trkpt>
      <trkpt lat="46.99878" lon="-1.84822">
        <ele>53</ele>
        <time>2021-03-28T13:06:21.000Z</time>
      </trkpt>
      <trkpt lat="46.99874" lon="-1.84804">
        <ele>53</ele>
        <time>2021-03-28T13:06:23.000Z</time>
      </trkpt>
      <trkpt lat="46.99868" lon="-1.84785">
        <ele>53</ele>
        <time>2021-03-28T13:06:25.000Z</time>
      </trkpt>
      <trkpt lat="46.99862" lon="-1.84768">
        <ele>53</ele>
        <time>2021-03-28T13:06:27.000Z</time>
      </trkpt>
      <trkpt lat="46.99856" lon="-1.84752">
        <ele>53</ele>
        <time>2021-03-28T13:06:29.000Z</time>
      </trkpt>
      <trkpt lat="46.99849" lon="-1.84734">
        <ele>53</ele>
        <time>2021-03-28T13:06:31.000Z</time>
      </trkpt>
      <trkpt lat="46.99843" lon="-1.84717">
        <ele>53</ele>
        <time>2021-03-28T13:06:33.000Z</time>
      </trkpt>
      <trkpt lat="46.99836" lon="-1.84699">
        <ele>53</ele>
        <time>2021-03-28T13:06:35.000Z</time>
      </trkpt>
      <trkpt lat="46.99829" lon="-1.84683">
        <ele>53</ele>
        <time>2021-03-28T13:06:37.000Z</time>
      </trkpt>
      <trkpt lat="46.99823" lon="-1.84665">
        <ele>53</ele>
        <time>2021-03-28T13:06:39.000Z</time>
      </trkpt>
      <trkpt lat="46.99817" lon="-1.84648">
        <ele>52</ele>
        <time>2021-03-28T13:06:41.000Z</time>
      </trkpt>
      <trkpt lat="46.99812" lon="-1.8463">
        <ele>53</ele>
        <time>2021-03-28T13:06:43.000Z</time>
      </trkpt>
      <trkpt lat="46.99807" lon="-1.84612">
        <ele>53</ele>
        <time>2021-03-28T13:06:45.000Z</time>
      </trkpt>
      <trkpt lat="46.99803" lon="-1.84594">
        <ele>53</ele>
        <time>2021-03-28T13:06:47.000Z</time>
      </trkpt>
      <trkpt lat="46.99799" lon="-1.84575">
        <ele>53</ele>
        <time>2021-03-28T13:06:49.000Z</time>
      </trkpt>
      <trkpt lat="46.99795" lon="-1.84557">
        <ele>53</ele>
        <time>2021-03-28T13:06:51.000Z</time>
      </trkpt>
      <trkpt lat="46.99792" lon="-1.84538">
        <ele>53</ele>
        <time>2021-03-28T13:06:53.000Z</time>
      </trkpt>
      <trkpt lat="46.99788" lon="-1.84518">
        <ele>53</ele>
        <time>2021-03-28T13:06:55.000Z</time>
      </trkpt>
      <trkpt lat="46.99784" lon="-1.84499">
        <ele>53</ele>
        <time>2021-03-28T13:06:57.000Z</time>
      </trkpt>
      <trkpt lat="46.99781" lon="-1.8448">
        <ele>53</ele>
        <time>2021-03-28T13:06:59.000Z</time>
      </trkpt>
      <trkpt lat="46.99778" lon="-1.84461">
        <ele>52</ele>
        <time>2021-03-28T13:07:01.000Z</time>
      </trkpt>
      <trkpt lat="46.99774" lon="-1.84441">
        <ele>52</ele>
        <time>2021-03-28T13:07:03.000Z</time>
      </trkpt>
      <trkpt lat="46.9977" lon="-1.84422">
        <ele>53</ele>
        <time>2021-03-28T13:07:05.000Z</time>
      </trkpt>
      <trkpt lat="46.99767" lon="-1.84403">
        <ele>53</ele>
        <time>2021-03-28T13:07:07.000Z</time>
      </trkpt>
      <trkpt lat="46.99763" lon="-1.84383">
        <ele>52</ele>
        <time>2021-03-28T13:07:09.000Z</time>
      </trkpt>
      <trkpt lat="46.9976" lon="-1.84363">
        <ele>52</ele>
        <time>2021-03-28T13:07:11.000Z</time>
      </trkpt>
      <trkpt lat="46.99757" lon="-1.84344">
        <ele>52</ele>
        <time>2021-03-28T13:07:13.000Z</time>
      </trkpt>
      <trkpt lat="46.99754" lon="-1.84324">
        <ele>52</ele>
        <time>2021-03-28T13:07:15.000Z</time>
      </trkpt>
      <trkpt lat="46.99752" lon="-1.84304">
        <ele>52</ele>
        <time>2021-03-28T13:07:17.000Z</time>
      </trkpt>
      <trkpt lat="46.9975" lon="-1.84284">
        <ele>52</ele>
        <time>2021-03-28T13:07:19.000Z</time>
      </trkpt>
      <trkpt lat="46.99748" lon="-1.84265">
        <ele>52</ele>
        <time>2021-03-28T13:07:21.000Z</time>
      </trkpt>
      <trkpt lat="46.99746" lon="-1.84246">
        <ele>52</ele>
        <time>2021-03-28T13:07:23.000Z</time>
      </trkpt>
      <trkpt lat="46.99743" lon="-1.84227">
        <ele>52</ele>
        <time>2021-03-28T13:07:25.000Z</time>
      </trkpt>
      <trkpt lat="46.9974" lon="-1.84208">
        <ele>52</ele>
        <time>2021-03-28T13:07:27.000Z</time>
      </trkpt>
      <trkpt lat="46.99734" lon="-1.84192">
        <ele>51</ele>
        <time>2021-03-28T13:07:29.000Z</time>
      </trkpt>
      <trkpt lat="46.99723" lon="-1.84181">
        <ele>52</ele>
        <time>2021-03-28T13:07:31.000Z</time>
      </trkpt>
      <trkpt lat="46.99711" lon="-1.84175">
        <ele>52</ele>
        <time>2021-03-28T13:07:33.000Z</time>
      </trkpt>
      <trkpt lat="46.99699" lon="-1.84169">
        <ele>52</ele>
        <time>2021-03-28T13:07:35.000Z</time>
      </trkpt>
      <trkpt lat="46.99688" lon="-1.84162">
        <ele>51</ele>
        <time>2021-03-28T13:07:37.000Z</time>
      </trkpt>
      <trkpt lat="46.99677" lon="-1.84152">
        <ele>51</ele>
        <time>2021-03-28T13:07:39.000Z</time>
      </trkpt>
      <trkpt lat="46.99667" lon="-1.84141">
        <ele>51</ele>
        <time>2021-03-28T13:07:41.000Z</time>
      </trkpt>
      <trkpt lat="46.99657" lon="-1.8413">
        <ele>51</ele>
        <time>2021-03-28T13:07:43.000Z</time>
      </trkpt>
      <trkpt lat="46.99648" lon="-1.84117">
        <ele>51</ele>
        <time>2021-03-28T13:07:45.000Z</time>
      </trkpt>
      <trkpt lat="46.9964" lon="-1.84102">
        <ele>51</ele>
        <time>2021-03-28T13:07:47.000Z</time>
      </trkpt>
      <trkpt lat="46.99632" lon="-1.84087">
        <ele>51</ele>
        <time>2021-03-28T13:07:49.000Z</time>
      </trkpt>
      <trkpt lat="46.99626" lon="-1.84072">
        <ele>52</ele>
        <time>2021-03-28T13:07:51.000Z</time>
      </trkpt>
      <trkpt lat="46.99621" lon="-1.84056">
        <ele>52</ele>
        <time>2021-03-28T13:07:53.000Z</time>
      </trkpt>
      <trkpt lat="46.99616" lon="-1.84039">
        <ele>52</ele>
        <time>2021-03-28T13:07:55.000Z</time>
      </trkpt>
      <trkpt lat="46.99613" lon="-1.84021">
        <ele>52</ele>
        <time>2021-03-28T13:07:57.000Z</time>
      </trkpt>
      <trkpt lat="46.9961" lon="-1.84003">
        <ele>52</ele>
        <time>2021-03-28T13:07:59.000Z</time>
      </trkpt>
      <trkpt lat="46.99607" lon="-1.83985">
        <ele>52</ele>
        <time>2021-03-28T13:08:01.000Z</time>
      </trkpt>
      <trkpt lat="46.99604" lon="-1.83966">
        <ele>52</ele>
        <time>2021-03-28T13:08:03.000Z</time>
      </trkpt>
      <trkpt lat="46.99599" lon="-1.83948">
        <ele>51</ele>
        <time>2021-03-28T13:08:05.000Z</time>
      </trkpt>
      <trkpt lat="46.99591" lon="-1.83932">
        <ele>51</ele>
        <time>2021-03-28T13:08:07.000Z</time>
      </trkpt>
      <trkpt lat="46.9958" lon="-1.83922">
        <ele>51</ele>
        <time>2021-03-28T13:08:09.000Z</time>
      </trkpt>
      <trkpt lat="46.99568" lon="-1.83915">
        <ele>51</ele>
        <time>2021-03-28T13:08:11.000Z</time>
      </trkpt>
      <trkpt lat="46.99556" lon="-1.83908">
        <ele>51</ele>
        <time>2021-03-28T13:08:13.000Z</time>
      </trkpt>
      <trkpt lat="46.99545" lon="-1.83901">
        <ele>51</ele>
        <time>2021-03-28T13:08:15.000Z</time>
      </trkpt>
      <trkpt lat="46.99532" lon="-1.83895">
        <ele>51</ele>
        <time>2021-03-28T13:08:17.000Z</time>
      </trkpt>
      <trkpt lat="46.99521" lon="-1.83888">
        <ele>52</ele>
        <time>2021-03-28T13:08:19.000Z</time>
      </trkpt>
      <trkpt lat="46.99509" lon="-1.83881">
        <ele>52</ele>
        <time>2021-03-28T13:08:21.000Z</time>
      </trkpt>
      <trkpt lat="46.99497" lon="-1.83874">
        <ele>52</ele>
        <time>2021-03-28T13:08:23.000Z</time>
      </trkpt>
      <trkpt lat="46.99486" lon="-1.83865">
        <ele>53</ele>
        <time>2021-03-28T13:08:25.000Z</time>
      </trkpt>
      <trkpt lat="46.99477" lon="-1.83852">
        <ele>53</ele>
        <time>2021-03-28T13:08:27.000Z</time>
      </trkpt>
      <trkpt lat="46.99469" lon="-1.83837">
        <ele>53</ele>
        <time>2021-03-28T13:08:29.000Z</time>
      </trkpt>
      <trkpt lat="46.99462" lon="-1.83821">
        <ele>53</ele>
        <time>2021-03-28T13:08:31.000Z</time>
      </trkpt>
      <trkpt lat="46.99455" lon="-1.83805">
        <ele>53</ele>
        <time>2021-03-28T13:08:33.000Z</time>
      </trkpt>
      <trkpt lat="46.99446" lon="-1.83789">
        <ele>52</ele>
        <time>2021-03-28T13:08:35.000Z</time>
      </trkpt>
      <trkpt lat="46.99437" lon="-1.83776">
        <ele>52</ele>
        <time>2021-03-28T13:08:37.000Z</time>
      </trkpt>
      <trkpt lat="46.99426" lon="-1.83768">
        <ele>52</ele>
        <time>2021-03-28T13:08:39.000Z</time>
      </trkpt>
      <trkpt lat="46.99413" lon="-1.8376">
        <ele>52</ele>
        <time>2021-03-28T13:08:41.000Z</time>
      </trkpt>
      <trkpt lat="46.99402" lon="-1.83754">
        <ele>52</ele>
        <time>2021-03-28T13:08:43.000Z</time>
      </trkpt>
      <trkpt lat="46.99391" lon="-1.83747">
        <ele>51</ele>
        <time>2021-03-28T13:08:45.000Z</time>
      </trkpt>
      <trkpt lat="46.99379" lon="-1.8374">
        <ele>52</ele>
        <time>2021-03-28T13:08:47.000Z</time>
      </trkpt>
      <trkpt lat="46.99368" lon="-1.83733">
        <ele>52</ele>
        <time>2021-03-28T13:08:49.000Z</time>
      </trkpt>
      <trkpt lat="46.99356" lon="-1.83726">
        <ele>52</ele>
        <time>2021-03-28T13:08:51.000Z</time>
      </trkpt>
      <trkpt lat="46.99345" lon="-1.8372">
        <ele>52</ele>
        <time>2021-03-28T13:08:53.000Z</time>
      </trkpt>
      <trkpt lat="46.99333" lon="-1.83712">
        <ele>52</ele>
        <time>2021-03-28T13:08:55.000Z</time>
      </trkpt>
      <trkpt lat="46.99321" lon="-1.83705">
        <ele>52</ele>
        <time>2021-03-28T13:08:57.000Z</time>
      </trkpt>
      <trkpt lat="46.9931" lon="-1.83697">
        <ele>53</ele>
        <time>2021-03-28T13:08:59.000Z</time>
      </trkpt>
      <trkpt lat="46.99299" lon="-1.83688">
        <ele>53</ele>
        <time>2021-03-28T13:09:01.000Z</time>
      </trkpt>
      <trkpt lat="46.99288" lon="-1.83678">
        <ele>53</ele>
        <time>2021-03-28T13:09:03.000Z</time>
      </trkpt>
      <trkpt lat="46.99278" lon="-1.83667">
        <ele>53</ele>
        <time>2021-03-28T13:09:05.000Z</time>
      </trkpt>
      <trkpt lat="46.99268" lon="-1.83657">
        <ele>53</ele>
        <time>2021-03-28T13:09:07.000Z</time>
      </trkpt>
      <trkpt lat="46.9926" lon="-1.83645">
        <ele>53</ele>
        <time>2021-03-28T13:09:09.000Z</time>
      </trkpt>
      <trkpt lat="46.99251" lon="-1.83634">
        <ele>54</ele>
        <time>2021-03-28T13:09:11.000Z</time>
      </trkpt>
      <trkpt lat="46.99242" lon="-1.83623">
        <ele>53</ele>
        <time>2021-03-28T13:09:13.000Z</time>
      </trkpt>
      <trkpt lat="46.99233" lon="-1.83612">
        <ele>53</ele>
        <time>2021-03-28T13:09:15.000Z</time>
      </trkpt>
      <trkpt lat="46.99223" lon="-1.83601">
        <ele>53</ele>
        <time>2021-03-28T13:09:17.000Z</time>
      </trkpt>
      <trkpt lat="46.99214" lon="-1.83589">
        <ele>53</ele>
        <time>2021-03-28T13:09:19.000Z</time>
      </trkpt>
      <trkpt lat="46.99205" lon="-1.83577">
        <ele>52</ele>
        <time>2021-03-28T13:09:21.000Z</time>
      </trkpt>
      <trkpt lat="46.99196" lon="-1.83566">
        <ele>53</ele>
        <time>2021-03-28T13:09:23.000Z</time>
      </trkpt>
      <trkpt lat="46.99187" lon="-1.83555">
        <ele>52</ele>
        <time>2021-03-28T13:09:25.000Z</time>
      </trkpt>
      <trkpt lat="46.99178" lon="-1.83544">
        <ele>52</ele>
        <time>2021-03-28T13:09:27.000Z</time>
      </trkpt>
      <trkpt lat="46.99169" lon="-1.83533">
        <ele>52</ele>
        <time>2021-03-28T13:09:29.000Z</time>
      </trkpt>
      <trkpt lat="46.9916" lon="-1.83523">
        <ele>51</ele>
        <time>2021-03-28T13:09:31.000Z</time>
      </trkpt>
      <trkpt lat="46.99149" lon="-1.83517">
        <ele>51</ele>
        <time>2021-03-28T13:09:33.000Z</time>
      </trkpt>
      <trkpt lat="46.99142" lon="-1.83504">
        <ele>50</ele>
        <time>2021-03-28T13:09:35.000Z</time>
      </trkpt>
      <trkpt lat="46.99148" lon="-1.83488">
        <ele>51</ele>
        <time>2021-03-28T13:09:37.000Z</time>
      </trkpt>
      <trkpt lat="46.99154" lon="-1.83472">
        <ele>51</ele>
        <time>2021-03-28T13:09:39.000Z</time>
      </trkpt>
      <trkpt lat="46.99158" lon="-1.83454">
        <ele>51</ele>
        <time>2021-03-28T13:09:41.000Z</time>
      </trkpt>
      <trkpt lat="46.99162" lon="-1.83436">
        <ele>51</ele>
        <time>2021-03-28T13:09:43.000Z</time>
      </trkpt>
      <trkpt lat="46.99166" lon="-1.83418">
        <ele>52</ele>
        <time>2021-03-28T13:09:45.000Z</time>
      </trkpt>
      <trkpt lat="46.9917" lon="-1.83399">
        <ele>52</ele>
        <time>2021-03-28T13:09:47.000Z</time>
      </trkpt>
      <trkpt lat="46.99174" lon="-1.8338">
        <ele>52</ele>
        <time>2021-03-28T13:09:49.000Z</time>
      </trkpt>
      <trkpt lat="46.99178" lon="-1.83361">
        <ele>53</ele>
        <time>2021-03-28T13:09:51.000Z</time>
      </trkpt>
      <trkpt lat="46.99182" lon="-1.83342">
        <ele>52</ele>
        <time>2021-03-28T13:09:53.000Z</time>
      </trkpt>
      <trkpt lat="46.99186" lon="-1.83323">
        <ele>52</ele>
        <time>2021-03-28T13:09:55.000Z</time>
      </trkpt>
      <trkpt lat="46.99191" lon="-1.83304">
        <ele>53</ele>
        <time>2021-03-28T13:09:57.000Z</time>
      </trkpt>
      <trkpt lat="46.99195" lon="-1.83284">
        <ele>53</ele>
        <time>2021-03-28T13:09:59.000Z</time>
      </trkpt>
      <trkpt lat="46.99199" lon="-1.83265">
        <ele>53</ele>
        <time>2021-03-28T13:10:01.000Z</time>
      </trkpt>
      <trkpt lat="46.99204" lon="-1.83244">
        <ele>53</ele>
        <time>2021-03-28T13:10:03.000Z</time>
      </trkpt>
      <trkpt lat="46.99208" lon="-1.83224">
        <ele>53</ele>
        <time>2021-03-28T13:10:05.000Z</time>
      </trkpt>
      <trkpt lat="46.99213" lon="-1.83205">
        <ele>53</ele>
        <time>2021-03-28T13:10:07.000Z</time>
      </trkpt>
      <trkpt lat="46.99218" lon="-1.83185">
        <ele>53</ele>
        <time>2021-03-28T13:10:09.000Z</time>
      </trkpt>
      <trkpt lat="46.99222" lon="-1.83165">
        <ele>53</ele>
        <time>2021-03-28T13:10:11.000Z</time>
      </trkpt>
      <trkpt lat="46.99226" lon="-1.83146">
        <ele>53</ele>
        <time>2021-03-28T13:10:13.000Z</time>
      </trkpt>
      <trkpt lat="46.9923" lon="-1.83127">
        <ele>53</ele>
        <time>2021-03-28T13:10:15.000Z</time>
      </trkpt>
      <trkpt lat="46.99234" lon="-1.83106">
        <ele>53</ele>
        <time>2021-03-28T13:10:17.000Z</time>
      </trkpt>
      <trkpt lat="46.99238" lon="-1.83087">
        <ele>53</ele>
        <time>2021-03-28T13:10:19.000Z</time>
      </trkpt>
      <trkpt lat="46.99242" lon="-1.83068">
        <ele>53</ele>
        <time>2021-03-28T13:10:21.000Z</time>
      </trkpt>
      <trkpt lat="46.99247" lon="-1.83049">
        <ele>53</ele>
        <time>2021-03-28T13:10:23.000Z</time>
      </trkpt>
      <trkpt lat="46.99251" lon="-1.8303">
        <ele>53</ele>
        <time>2021-03-28T13:10:25.000Z</time>
      </trkpt>
      <trkpt lat="46.99255" lon="-1.83011">
        <ele>53</ele>
        <time>2021-03-28T13:10:27.000Z</time>
      </trkpt>
      <trkpt lat="46.9926" lon="-1.82993">
        <ele>53</ele>
        <time>2021-03-28T13:10:29.000Z</time>
      </trkpt>
      <trkpt lat="46.99264" lon="-1.82974">
        <ele>53</ele>
        <time>2021-03-28T13:10:31.000Z</time>
      </trkpt>
      <trkpt lat="46.99268" lon="-1.82956">
        <ele>53</ele>
        <time>2021-03-28T13:10:33.000Z</time>
      </trkpt>
      <trkpt lat="46.99273" lon="-1.82936">
        <ele>53</ele>
        <time>2021-03-28T13:10:35.000Z</time>
      </trkpt>
      <trkpt lat="46.99277" lon="-1.82918">
        <ele>53</ele>
        <time>2021-03-28T13:10:37.000Z</time>
      </trkpt>
      <trkpt lat="46.99281" lon="-1.829">
        <ele>53</ele>
        <time>2021-03-28T13:10:39.000Z</time>
      </trkpt>
      <trkpt lat="46.99285" lon="-1.82881">
        <ele>53</ele>
        <time>2021-03-28T13:10:41.000Z</time>
      </trkpt>
      <trkpt lat="46.99289" lon="-1.82862">
        <ele>53</ele>
        <time>2021-03-28T13:10:43.000Z</time>
      </trkpt>
      <trkpt lat="46.99293" lon="-1.82844">
        <ele>53</ele>
        <time>2021-03-28T13:10:45.000Z</time>
      </trkpt>
      <trkpt lat="46.99297" lon="-1.82826">
        <ele>53</ele>
        <time>2021-03-28T13:10:47.000Z</time>
      </trkpt>
      <trkpt lat="46.99301" lon="-1.82809">
        <ele>53</ele>
        <time>2021-03-28T13:10:49.000Z</time>
      </trkpt>
      <trkpt lat="46.99304" lon="-1.8279">
        <ele>53</ele>
        <time>2021-03-28T13:10:51.000Z</time>
      </trkpt>
      <trkpt lat="46.99308" lon="-1.82771">
        <ele>53</ele>
        <time>2021-03-28T13:10:53.000Z</time>
      </trkpt>
      <trkpt lat="46.99311" lon="-1.82753">
        <ele>52</ele>
        <time>2021-03-28T13:10:55.000Z</time>
      </trkpt>
      <trkpt lat="46.99315" lon="-1.82734">
        <ele>52</ele>
        <time>2021-03-28T13:10:57.000Z</time>
      </trkpt>
      <trkpt lat="46.9932" lon="-1.82716">
        <ele>52</ele>
        <time>2021-03-28T13:10:59.000Z</time>
      </trkpt>
      <trkpt lat="46.99324" lon="-1.82697">
        <ele>52</ele>
        <time>2021-03-28T13:11:01.000Z</time>
      </trkpt>
      <trkpt lat="46.99328" lon="-1.82679">
        <ele>52</ele>
        <time>2021-03-28T13:11:03.000Z</time>
      </trkpt>
      <trkpt lat="46.99333" lon="-1.82661">
        <ele>52</ele>
        <time>2021-03-28T13:11:05.000Z</time>
      </trkpt>
      <trkpt lat="46.99337" lon="-1.82642">
        <ele>52</ele>
        <time>2021-03-28T13:11:07.000Z</time>
      </trkpt>
      <trkpt lat="46.99343" lon="-1.82624">
        <ele>52</ele>
        <time>2021-03-28T13:11:09.000Z</time>
      </trkpt>
      <trkpt lat="46.9935" lon="-1.82608">
        <ele>52</ele>
        <time>2021-03-28T13:11:11.000Z</time>
      </trkpt>
      <trkpt lat="46.99357" lon="-1.82593">
        <ele>53</ele>
        <time>2021-03-28T13:11:13.000Z</time>
      </trkpt>
      <trkpt lat="46.99362" lon="-1.82576">
        <ele>53</ele>
        <time>2021-03-28T13:11:15.000Z</time>
      </trkpt>
      <trkpt lat="46.99363" lon="-1.82557">
        <ele>53</ele>
        <time>2021-03-28T13:11:17.000Z</time>
      </trkpt>
      <trkpt lat="46.9936" lon="-1.8254">
        <ele>53</ele>
        <time>2021-03-28T13:11:19.000Z</time>
      </trkpt>
      <trkpt lat="46.99354" lon="-1.82521">
        <ele>53</ele>
        <time>2021-03-28T13:11:21.000Z</time>
      </trkpt>
      <trkpt lat="46.99351" lon="-1.82504">
        <ele>53</ele>
        <time>2021-03-28T13:11:23.000Z</time>
      </trkpt>
      <trkpt lat="46.99345" lon="-1.82488">
        <ele>53</ele>
        <time>2021-03-28T13:11:25.000Z</time>
      </trkpt>
      <trkpt lat="46.99341" lon="-1.82471">
        <ele>53</ele>
        <time>2021-03-28T13:11:27.000Z</time>
      </trkpt>
      <trkpt lat="46.99337" lon="-1.82452">
        <ele>53</ele>
        <time>2021-03-28T13:11:29.000Z</time>
      </trkpt>
      <trkpt lat="46.99333" lon="-1.82435">
        <ele>53</ele>
        <time>2021-03-28T13:11:31.000Z</time>
      </trkpt>
      <trkpt lat="46.99328" lon="-1.82416">
        <ele>53</ele>
        <time>2021-03-28T13:11:33.000Z</time>
      </trkpt>
      <trkpt lat="46.99324" lon="-1.82397">
        <ele>53</ele>
        <time>2021-03-28T13:11:35.000Z</time>
      </trkpt>
      <trkpt lat="46.99322" lon="-1.82378">
        <ele>53</ele>
        <time>2021-03-28T13:11:37.000Z</time>
      </trkpt>
      <trkpt lat="46.9932" lon="-1.82359">
        <ele>54</ele>
        <time>2021-03-28T13:11:39.000Z</time>
      </trkpt>
      <trkpt lat="46.99317" lon="-1.82342">
        <ele>54</ele>
        <time>2021-03-28T13:11:41.000Z</time>
      </trkpt>
      <trkpt lat="46.99314" lon="-1.82324">
        <ele>55</ele>
        <time>2021-03-28T13:11:43.000Z</time>
      </trkpt>
      <trkpt lat="46.9931" lon="-1.82306">
        <ele>55</ele>
        <time>2021-03-28T13:11:45.000Z</time>
      </trkpt>
      <trkpt lat="46.99307" lon="-1.82289">
        <ele>55</ele>
        <time>2021-03-28T13:11:47.000Z</time>
      </trkpt>
      <trkpt lat="46.99303" lon="-1.82272">
        <ele>54</ele>
        <time>2021-03-28T13:11:49.000Z</time>
      </trkpt>
      <trkpt lat="46.99298" lon="-1.82255">
        <ele>54</ele>
        <time>2021-03-28T13:11:51.000Z</time>
      </trkpt>
      <trkpt lat="46.99293" lon="-1.82239">
        <ele>54</ele>
        <time>2021-03-28T13:11:53.000Z</time>
      </trkpt>
      <trkpt lat="46.99287" lon="-1.82224">
        <ele>55</ele>
        <time>2021-03-28T13:11:55.000Z</time>
      </trkpt>
      <trkpt lat="46.9928" lon="-1.82215">
        <ele>53</ele>
        <time>2021-03-28T13:11:57.000Z</time>
      </trkpt>
      <trkpt lat="46.99267" lon="-1.82216">
        <ele>53</ele>
        <time>2021-03-28T13:11:59.000Z</time>
      </trkpt>
      <trkpt lat="46.99256" lon="-1.82218">
        <ele>53</ele>
        <time>2021-03-28T13:12:01.000Z</time>
      </trkpt>
      <trkpt lat="46.99244" lon="-1.82219">
        <ele>53</ele>
        <time>2021-03-28T13:12:03.000Z</time>
      </trkpt>
      <trkpt lat="46.99232" lon="-1.82219">
        <ele>53</ele>
        <time>2021-03-28T13:12:05.000Z</time>
      </trkpt>
      <trkpt lat="46.99221" lon="-1.82216">
        <ele>53</ele>
        <time>2021-03-28T13:12:07.000Z</time>
      </trkpt>
      <trkpt lat="46.9921" lon="-1.82212">
        <ele>52</ele>
        <time>2021-03-28T13:12:09.000Z</time>
      </trkpt>
      <trkpt lat="46.99199" lon="-1.82208">
        <ele>52</ele>
        <time>2021-03-28T13:12:11.000Z</time>
      </trkpt>
      <trkpt lat="46.99188" lon="-1.82203">
        <ele>52</ele>
        <time>2021-03-28T13:12:13.000Z</time>
      </trkpt>
      <trkpt lat="46.99177" lon="-1.82199">
        <ele>53</ele>
        <time>2021-03-28T13:12:15.000Z</time>
      </trkpt>
      <trkpt lat="46.99165" lon="-1.82193">
        <ele>54</ele>
        <time>2021-03-28T13:12:17.000Z</time>
      </trkpt>
      <trkpt lat="46.99154" lon="-1.82188">
        <ele>54</ele>
        <time>2021-03-28T13:12:19.000Z</time>
      </trkpt>
      <trkpt lat="46.99143" lon="-1.82185">
        <ele>55</ele>
        <time>2021-03-28T13:12:21.000Z</time>
      </trkpt>
      <trkpt lat="46.99133" lon="-1.82183">
        <ele>55</ele>
        <time>2021-03-28T13:12:23.000Z</time>
      </trkpt>
      <trkpt lat="46.99121" lon="-1.82185">
        <ele>55</ele>
        <time>2021-03-28T13:12:25.000Z</time>
      </trkpt>
      <trkpt lat="46.9911" lon="-1.82187">
        <ele>54</ele>
        <time>2021-03-28T13:12:27.000Z</time>
      </trkpt>
      <trkpt lat="46.99098" lon="-1.82188">
        <ele>54</ele>
        <time>2021-03-28T13:12:29.000Z</time>
      </trkpt>
      <trkpt lat="46.99089" lon="-1.8218">
        <ele>53</ele>
        <time>2021-03-28T13:12:31.000Z</time>
      </trkpt>
      <trkpt lat="46.99087" lon="-1.82164">
        <ele>53</ele>
        <time>2021-03-28T13:12:33.000Z</time>
      </trkpt>
      <trkpt lat="46.99085" lon="-1.82147">
        <ele>53</ele>
        <time>2021-03-28T13:12:35.000Z</time>
      </trkpt>
      <trkpt lat="46.99082" lon="-1.82128">
        <ele>53</ele>
        <time>2021-03-28T13:12:37.000Z</time>
      </trkpt>
      <trkpt lat="46.9908" lon="-1.8211">
        <ele>52</ele>
        <time>2021-03-28T13:12:39.000Z</time>
      </trkpt>
      <trkpt lat="46.99079" lon="-1.8209">
        <ele>52</ele>
        <time>2021-03-28T13:12:41.000Z</time>
      </trkpt>
      <trkpt lat="46.99078" lon="-1.82072">
        <ele>51</ele>
        <time>2021-03-28T13:12:43.000Z</time>
      </trkpt>
      <trkpt lat="46.99079" lon="-1.82054">
        <ele>51</ele>
        <time>2021-03-28T13:12:45.000Z</time>
      </trkpt>
      <trkpt lat="46.9908" lon="-1.82035">
        <ele>52</ele>
        <time>2021-03-28T13:12:47.000Z</time>
      </trkpt>
      <trkpt lat="46.9908" lon="-1.82016">
        <ele>52</ele>
        <time>2021-03-28T13:12:49.000Z</time>
      </trkpt>
      <trkpt lat="46.99081" lon="-1.81998">
        <ele>52</ele>
        <time>2021-03-28T13:12:51.000Z</time>
      </trkpt>
      <trkpt lat="46.99083" lon="-1.8198">
        <ele>52</ele>
        <time>2021-03-28T13:12:53.000Z</time>
      </trkpt>
      <trkpt lat="46.99084" lon="-1.81962">
        <ele>51</ele>
        <time>2021-03-28T13:12:55.000Z</time>
      </trkpt>
      <trkpt lat="46.99086" lon="-1.81943">
        <ele>51</ele>
        <time>2021-03-28T13:12:57.000Z</time>
      </trkpt>
      <trkpt lat="46.99088" lon="-1.81925">
        <ele>51</ele>
        <time>2021-03-28T13:12:59.000Z</time>
      </trkpt>
      <trkpt lat="46.9909" lon="-1.81907">
        <ele>51</ele>
        <time>2021-03-28T13:13:01.000Z</time>
      </trkpt>
      <trkpt lat="46.99092" lon="-1.81888">
        <ele>52</ele>
        <time>2021-03-28T13:13:03.000Z</time>
      </trkpt>
      <trkpt lat="46.99096" lon="-1.8187">
        <ele>52</ele>
        <time>2021-03-28T13:13:05.000Z</time>
      </trkpt>
      <trkpt lat="46.991" lon="-1.81853">
        <ele>52</ele>
        <time>2021-03-28T13:13:07.000Z</time>
      </trkpt>
      <trkpt lat="46.99104" lon="-1.81835">
        <ele>52</ele>
        <time>2021-03-28T13:13:09.000Z</time>
      </trkpt>
      <trkpt lat="46.9911" lon="-1.81819">
        <ele>52</ele>
        <time>2021-03-28T13:13:11.000Z</time>
      </trkpt>
      <trkpt lat="46.99119" lon="-1.81805">
        <ele>52</ele>
        <time>2021-03-28T13:13:13.000Z</time>
      </trkpt>
      <trkpt lat="46.99129" lon="-1.81793">
        <ele>52</ele>
        <time>2021-03-28T13:13:15.000Z</time>
      </trkpt>
      <trkpt lat="46.99138" lon="-1.8178">
        <ele>51</ele>
        <time>2021-03-28T13:13:17.000Z</time>
      </trkpt>
      <trkpt lat="46.99147" lon="-1.81768">
        <ele>51</ele>
        <time>2021-03-28T13:13:19.000Z</time>
      </trkpt>
      <trkpt lat="46.99156" lon="-1.81757">
        <ele>51</ele>
        <time>2021-03-28T13:13:21.000Z</time>
      </trkpt>
      <trkpt lat="46.99165" lon="-1.81746">
        <ele>51</ele>
        <time>2021-03-28T13:13:23.000Z</time>
      </trkpt>
      <trkpt lat="46.99175" lon="-1.81734">
        <ele>51</ele>
        <time>2021-03-28T13:13:25.000Z</time>
      </trkpt>
      <trkpt lat="46.99184" lon="-1.81723">
        <ele>51</ele>
        <time>2021-03-28T13:13:27.000Z</time>
      </trkpt>
      <trkpt lat="46.99187" lon="-1.81708">
        <ele>52</ele>
        <time>2021-03-28T13:13:29.000Z</time>
      </trkpt>
      <trkpt lat="46.99177" lon="-1.81697">
        <ele>52</ele>
        <time>2021-03-28T13:13:31.000Z</time>
      </trkpt>
      <trkpt lat="46.99167" lon="-1.81687">
        <ele>52</ele>
        <time>2021-03-28T13:13:33.000Z</time>
      </trkpt>
      <trkpt lat="46.99157" lon="-1.81677">
        <ele>52</ele>
        <time>2021-03-28T13:13:35.000Z</time>
      </trkpt>
      <trkpt lat="46.99147" lon="-1.81666">
        <ele>52</ele>
        <time>2021-03-28T13:13:37.000Z</time>
      </trkpt>
      <trkpt lat="46.99137" lon="-1.81656">
        <ele>52</ele>
        <time>2021-03-28T13:13:39.000Z</time>
      </trkpt>
      <trkpt lat="46.99128" lon="-1.81645">
        <ele>52</ele>
        <time>2021-03-28T13:13:41.000Z</time>
      </trkpt>
      <trkpt lat="46.99119" lon="-1.81635">
        <ele>52</ele>
        <time>2021-03-28T13:13:43.000Z</time>
      </trkpt>
      <trkpt lat="46.99111" lon="-1.81623">
        <ele>52</ele>
        <time>2021-03-28T13:13:45.000Z</time>
      </trkpt>
      <trkpt lat="46.99103" lon="-1.81612">
        <ele>52</ele>
        <time>2021-03-28T13:13:47.000Z</time>
      </trkpt>
      <trkpt lat="46.99099" lon="-1.81597">
        <ele>53</ele>
        <time>2021-03-28T13:13:49.000Z</time>
      </trkpt>
      <trkpt lat="46.9911" lon="-1.81588">
        <ele>52</ele>
        <time>2021-03-28T13:13:51.000Z</time>
      </trkpt>
      <trkpt lat="46.99124" lon="-1.81587">
        <ele>52</ele>
        <time>2021-03-28T13:13:53.000Z</time>
      </trkpt>
      <trkpt lat="46.99137" lon="-1.81588">
        <ele>52</ele>
        <time>2021-03-28T13:13:55.000Z</time>
      </trkpt>
      <trkpt lat="46.99149" lon="-1.8159">
        <ele>52</ele>
        <time>2021-03-28T13:13:57.000Z</time>
      </trkpt>
      <trkpt lat="46.99162" lon="-1.81591">
        <ele>51</ele>
        <time>2021-03-28T13:13:59.000Z</time>
      </trkpt>
      <trkpt lat="46.99175" lon="-1.81593">
        <ele>52</ele>
        <time>2021-03-28T13:14:01.000Z</time>
      </trkpt>
      <trkpt lat="46.99189" lon="-1.81595">
        <ele>53</ele>
        <time>2021-03-28T13:14:03.000Z</time>
      </trkpt>
      <trkpt lat="46.99202" lon="-1.81597">
        <ele>53</ele>
        <time>2021-03-28T13:14:05.000Z</time>
      </trkpt>
      <trkpt lat="46.99216" lon="-1.81599">
        <ele>53</ele>
        <time>2021-03-28T13:14:07.000Z</time>
      </trkpt>
      <trkpt lat="46.99229" lon="-1.81601">
        <ele>53</ele>
        <time>2021-03-28T13:14:09.000Z</time>
      </trkpt>
      <trkpt lat="46.99241" lon="-1.81601">
        <ele>53</ele>
        <time>2021-03-28T13:14:11.000Z</time>
      </trkpt>
      <trkpt lat="46.9925" lon="-1.8159">
        <ele>53</ele>
        <time>2021-03-28T13:14:13.000Z</time>
      </trkpt>
      <trkpt lat="46.99251" lon="-1.81574">
        <ele>53</ele>
        <time>2021-03-28T13:14:15.000Z</time>
      </trkpt>
      <trkpt lat="46.99249" lon="-1.81557">
        <ele>53</ele>
        <time>2021-03-28T13:14:17.000Z</time>
      </trkpt>
      <trkpt lat="46.99247" lon="-1.81539">
        <ele>53</ele>
        <time>2021-03-28T13:14:19.000Z</time>
      </trkpt>
      <trkpt lat="46.99244" lon="-1.81519">
        <ele>52</ele>
        <time>2021-03-28T13:14:21.000Z</time>
      </trkpt>
      <trkpt lat="46.99241" lon="-1.815">
        <ele>51</ele>
        <time>2021-03-28T13:14:23.000Z</time>
      </trkpt>
      <trkpt lat="46.99237" lon="-1.81481">
        <ele>51</ele>
        <time>2021-03-28T13:14:25.000Z</time>
      </trkpt>
      <trkpt lat="46.99234" lon="-1.81461">
        <ele>51</ele>
        <time>2021-03-28T13:14:27.000Z</time>
      </trkpt>
      <trkpt lat="46.99232" lon="-1.81441">
        <ele>52</ele>
        <time>2021-03-28T13:14:29.000Z</time>
      </trkpt>
      <trkpt lat="46.9923" lon="-1.81422">
        <ele>52</ele>
        <time>2021-03-28T13:14:31.000Z</time>
      </trkpt>
      <trkpt lat="46.99227" lon="-1.81402">
        <ele>51</ele>
        <time>2021-03-28T13:14:33.000Z</time>
      </trkpt>
      <trkpt lat="46.99224" lon="-1.81383">
        <ele>51</ele>
        <time>2021-03-28T13:14:35.000Z</time>
      </trkpt>
      <trkpt lat="46.99222" lon="-1.81364">
        <ele>51</ele>
        <time>2021-03-28T13:14:37.000Z</time>
      </trkpt>
      <trkpt lat="46.9922" lon="-1.81346">
        <ele>51</ele>
        <time>2021-03-28T13:14:39.000Z</time>
      </trkpt>
      <trkpt lat="46.99218" lon="-1.81326">
        <ele>50</ele>
        <time>2021-03-28T13:14:41.000Z</time>
      </trkpt>
      <trkpt lat="46.99215" lon="-1.81307">
        <ele>51</ele>
        <time>2021-03-28T13:14:43.000Z</time>
      </trkpt>
      <trkpt lat="46.99212" lon="-1.81288">
        <ele>51</ele>
        <time>2021-03-28T13:14:45.000Z</time>
      </trkpt>
      <trkpt lat="46.99209" lon="-1.81269">
        <ele>51</ele>
        <time>2021-03-28T13:14:47.000Z</time>
      </trkpt>
      <trkpt lat="46.99206" lon="-1.81249">
        <ele>51</ele>
        <time>2021-03-28T13:14:49.000Z</time>
      </trkpt>
      <trkpt lat="46.99204" lon="-1.8123">
        <ele>50</ele>
        <time>2021-03-28T13:14:51.000Z</time>
      </trkpt>
      <trkpt lat="46.99201" lon="-1.81211">
        <ele>51</ele>
        <time>2021-03-28T13:14:53.000Z</time>
      </trkpt>
      <trkpt lat="46.99199" lon="-1.81192">
        <ele>51</ele>
        <time>2021-03-28T13:14:55.000Z</time>
      </trkpt>
      <trkpt lat="46.99196" lon="-1.81172">
        <ele>51</ele>
        <time>2021-03-28T13:14:57.000Z</time>
      </trkpt>
      <trkpt lat="46.99193" lon="-1.81152">
        <ele>51</ele>
        <time>2021-03-28T13:14:59.000Z</time>
      </trkpt>
      <trkpt lat="46.9919" lon="-1.81132">
        <ele>50</ele>
        <time>2021-03-28T13:15:01.000Z</time>
      </trkpt>
      <trkpt lat="46.99188" lon="-1.81114">
        <ele>50</ele>
        <time>2021-03-28T13:15:03.000Z</time>
      </trkpt>
      <trkpt lat="46.99185" lon="-1.81095">
        <ele>51</ele>
        <time>2021-03-28T13:15:05.000Z</time>
      </trkpt>
      <trkpt lat="46.99182" lon="-1.81076">
        <ele>51</ele>
        <time>2021-03-28T13:15:07.000Z</time>
      </trkpt>
      <trkpt lat="46.99179" lon="-1.81058">
        <ele>51</ele>
        <time>2021-03-28T13:15:09.000Z</time>
      </trkpt>
      <trkpt lat="46.99177" lon="-1.8104">
        <ele>51</ele>
        <time>2021-03-28T13:15:11.000Z</time>
      </trkpt>
      <trkpt lat="46.99174" lon="-1.81022">
        <ele>51</ele>
        <time>2021-03-28T13:15:13.000Z</time>
      </trkpt>
      <trkpt lat="46.99172" lon="-1.81003">
        <ele>51</ele>
        <time>2021-03-28T13:15:15.000Z</time>
      </trkpt>
      <trkpt lat="46.99169" lon="-1.80984">
        <ele>51</ele>
        <time>2021-03-28T13:15:17.000Z</time>
      </trkpt>
      <trkpt lat="46.99167" lon="-1.80966">
        <ele>51</ele>
        <time>2021-03-28T13:15:19.000Z</time>
      </trkpt>
      <trkpt lat="46.99164" lon="-1.80949">
        <ele>52</ele>
        <time>2021-03-28T13:15:21.000Z</time>
      </trkpt>
      <trkpt lat="46.99162" lon="-1.80931">
        <ele>52</ele>
        <time>2021-03-28T13:15:23.000Z</time>
      </trkpt>
      <trkpt lat="46.99162" lon="-1.80913">
        <ele>53</ele>
        <time>2021-03-28T13:15:25.000Z</time>
      </trkpt>
      <trkpt lat="46.99166" lon="-1.80895">
        <ele>53</ele>
        <time>2021-03-28T13:15:27.000Z</time>
      </trkpt>
      <trkpt lat="46.99178" lon="-1.80884">
        <ele>53</ele>
        <time>2021-03-28T13:15:29.000Z</time>
      </trkpt>
      <trkpt lat="46.99191" lon="-1.80876">
        <ele>53</ele>
        <time>2021-03-28T13:15:31.000Z</time>
      </trkpt>
      <trkpt lat="46.99203" lon="-1.80868">
        <ele>53</ele>
        <time>2021-03-28T13:15:33.000Z</time>
      </trkpt>
      <trkpt lat="46.99217" lon="-1.80859">
        <ele>53</ele>
        <time>2021-03-28T13:15:35.000Z</time>
      </trkpt>
      <trkpt lat="46.99229" lon="-1.80851">
        <ele>53</ele>
        <time>2021-03-28T13:15:37.000Z</time>
      </trkpt>
      <trkpt lat="46.99242" lon="-1.80843">
        <ele>52</ele>
        <time>2021-03-28T13:15:39.000Z</time>
      </trkpt>
      <trkpt lat="46.99255" lon="-1.80835">
        <ele>52</ele>
        <time>2021-03-28T13:15:41.000Z</time>
      </trkpt>
      <trkpt lat="46.99268" lon="-1.80827">
        <ele>53</ele>
        <time>2021-03-28T13:15:43.000Z</time>
      </trkpt>
      <trkpt lat="46.99281" lon="-1.80819">
        <ele>52</ele>
        <time>2021-03-28T13:15:45.000Z</time>
      </trkpt>
      <trkpt lat="46.99293" lon="-1.80811">
        <ele>52</ele>
        <time>2021-03-28T13:15:47.000Z</time>
      </trkpt>
      <trkpt lat="46.99306" lon="-1.80801">
        <ele>51</ele>
        <time>2021-03-28T13:15:49.000Z</time>
      </trkpt>
      <trkpt lat="46.99319" lon="-1.80793">
        <ele>51</ele>
        <time>2021-03-28T13:15:51.000Z</time>
      </trkpt>
      <trkpt lat="46.99332" lon="-1.80784">
        <ele>51</ele>
        <time>2021-03-28T13:15:53.000Z</time>
      </trkpt>
      <trkpt lat="46.99344" lon="-1.80776">
        <ele>51</ele>
        <time>2021-03-28T13:15:55.000Z</time>
      </trkpt>
      <trkpt lat="46.99357" lon="-1.80769">
        <ele>51</ele>
        <time>2021-03-28T13:15:57.000Z</time>
      </trkpt>
      <trkpt lat="46.9937" lon="-1.8076">
        <ele>51</ele>
        <time>2021-03-28T13:15:59.000Z</time>
      </trkpt>
      <trkpt lat="46.99383" lon="-1.80752">
        <ele>51</ele>
        <time>2021-03-28T13:16:01.000Z</time>
      </trkpt>
      <trkpt lat="46.99396" lon="-1.80744">
        <ele>51</ele>
        <time>2021-03-28T13:16:03.000Z</time>
      </trkpt>
      <trkpt lat="46.99409" lon="-1.80736">
        <ele>51</ele>
        <time>2021-03-28T13:16:05.000Z</time>
      </trkpt>
      <trkpt lat="46.99422" lon="-1.80728">
        <ele>51</ele>
        <time>2021-03-28T13:16:07.000Z</time>
      </trkpt>
      <trkpt lat="46.99434" lon="-1.8072">
        <ele>51</ele>
        <time>2021-03-28T13:16:09.000Z</time>
      </trkpt>
      <trkpt lat="46.99447" lon="-1.80713">
        <ele>51</ele>
        <time>2021-03-28T13:16:11.000Z</time>
      </trkpt>
      <trkpt lat="46.99459" lon="-1.80705">
        <ele>51</ele>
        <time>2021-03-28T13:16:13.000Z</time>
      </trkpt>
      <trkpt lat="46.99469" lon="-1.80696">
        <ele>51</ele>
        <time>2021-03-28T13:16:15.000Z</time>
      </trkpt>
      <trkpt lat="46.99475" lon="-1.80682">
        <ele>51</ele>
        <time>2021-03-28T13:16:17.000Z</time>
      </trkpt>
      <trkpt lat="46.99481" lon="-1.80667">
        <ele>52</ele>
        <time>2021-03-28T13:16:19.000Z</time>
      </trkpt>
      <trkpt lat="46.99492" lon="-1.80658">
        <ele>51</ele>
        <time>2021-03-28T13:16:21.000Z</time>
      </trkpt>
      <trkpt lat="46.99505" lon="-1.80654">
        <ele>51</ele>
        <time>2021-03-28T13:16:23.000Z</time>
      </trkpt>
      <trkpt lat="46.99517" lon="-1.80644">
        <ele>51</ele>
        <time>2021-03-28T13:16:25.000Z</time>
      </trkpt>
      <trkpt lat="46.99528" lon="-1.80633">
        <ele>51</ele>
        <time>2021-03-28T13:16:27.000Z</time>
      </trkpt>
      <trkpt lat="46.99539" lon="-1.8062">
        <ele>51</ele>
        <time>2021-03-28T13:16:29.000Z</time>
      </trkpt>
      <trkpt lat="46.9955" lon="-1.80607">
        <ele>51</ele>
        <time>2021-03-28T13:16:31.000Z</time>
      </trkpt>
      <trkpt lat="46.9956" lon="-1.80594">
        <ele>52</ele>
        <time>2021-03-28T13:16:33.000Z</time>
      </trkpt>
      <trkpt lat="46.99571" lon="-1.8058">
        <ele>51</ele>
        <time>2021-03-28T13:16:35.000Z</time>
      </trkpt>
      <trkpt lat="46.99581" lon="-1.80566">
        <ele>51</ele>
        <time>2021-03-28T13:16:37.000Z</time>
      </trkpt>
      <trkpt lat="46.99592" lon="-1.80553">
        <ele>51</ele>
        <time>2021-03-28T13:16:39.000Z</time>
      </trkpt>
      <trkpt lat="46.99603" lon="-1.80539">
        <ele>51</ele>
        <time>2021-03-28T13:16:41.000Z</time>
      </trkpt>
      <trkpt lat="46.99613" lon="-1.80525">
        <ele>51</ele>
        <time>2021-03-28T13:16:43.000Z</time>
      </trkpt>
      <trkpt lat="46.99624" lon="-1.80511">
        <ele>51</ele>
        <time>2021-03-28T13:16:45.000Z</time>
      </trkpt>
      <trkpt lat="46.99635" lon="-1.80498">
        <ele>51</ele>
        <time>2021-03-28T13:16:47.000Z</time>
      </trkpt>
      <trkpt lat="46.99646" lon="-1.80484">
        <ele>51</ele>
        <time>2021-03-28T13:16:49.000Z</time>
      </trkpt>
      <trkpt lat="46.99656" lon="-1.8047">
        <ele>51</ele>
        <time>2021-03-28T13:16:51.000Z</time>
      </trkpt>
      <trkpt lat="46.99667" lon="-1.80457">
        <ele>52</ele>
        <time>2021-03-28T13:16:53.000Z</time>
      </trkpt>
      <trkpt lat="46.99677" lon="-1.80444">
        <ele>52</ele>
        <time>2021-03-28T13:16:55.000Z</time>
      </trkpt>
      <trkpt lat="46.99688" lon="-1.8043">
        <ele>51</ele>
        <time>2021-03-28T13:16:57.000Z</time>
      </trkpt>
      <trkpt lat="46.99698" lon="-1.80416">
        <ele>51</ele>
        <time>2021-03-28T13:16:59.000Z</time>
      </trkpt>
      <trkpt lat="46.99708" lon="-1.80403">
        <ele>51</ele>
        <time>2021-03-28T13:17:01.000Z</time>
      </trkpt>
      <trkpt lat="46.99718" lon="-1.8039">
        <ele>51</ele>
        <time>2021-03-28T13:17:03.000Z</time>
      </trkpt>
      <trkpt lat="46.99728" lon="-1.80377">
        <ele>51</ele>
        <time>2021-03-28T13:17:05.000Z</time>
      </trkpt>
      <trkpt lat="46.99738" lon="-1.80364">
        <ele>52</ele>
        <time>2021-03-28T13:17:07.000Z</time>
      </trkpt>
      <trkpt lat="46.99748" lon="-1.80351">
        <ele>52</ele>
        <time>2021-03-28T13:17:09.000Z</time>
      </trkpt>
      <trkpt lat="46.99758" lon="-1.80338">
        <ele>52</ele>
        <time>2021-03-28T13:17:11.000Z</time>
      </trkpt>
      <trkpt lat="46.99769" lon="-1.80324">
        <ele>52</ele>
        <time>2021-03-28T13:17:13.000Z</time>
      </trkpt>
      <trkpt lat="46.99779" lon="-1.80311">
        <ele>52</ele>
        <time>2021-03-28T13:17:15.000Z</time>
      </trkpt>
      <trkpt lat="46.99789" lon="-1.80298">
        <ele>52</ele>
        <time>2021-03-28T13:17:17.000Z</time>
      </trkpt>
      <trkpt lat="46.99799" lon="-1.80284">
        <ele>52</ele>
        <time>2021-03-28T13:17:19.000Z</time>
      </trkpt>
      <trkpt lat="46.99809" lon="-1.80271">
        <ele>52</ele>
        <time>2021-03-28T13:17:21.000Z</time>
      </trkpt>
      <trkpt lat="46.99819" lon="-1.80258">
        <ele>52</ele>
        <time>2021-03-28T13:17:23.000Z</time>
      </trkpt>
      <trkpt lat="46.99829" lon="-1.80244">
        <ele>52</ele>
        <time>2021-03-28T13:17:25.000Z</time>
      </trkpt>
      <trkpt lat="46.99839" lon="-1.8023">
        <ele>52</ele>
        <time>2021-03-28T13:17:27.000Z</time>
      </trkpt>
      <trkpt lat="46.99847" lon="-1.80215">
        <ele>52</ele>
        <time>2021-03-28T13:17:29.000Z</time>
      </trkpt>
      <trkpt lat="46.99856" lon="-1.80199">
        <ele>52</ele>
        <time>2021-03-28T13:17:31.000Z</time>
      </trkpt>
      <trkpt lat="46.99864" lon="-1.80183">
        <ele>52</ele>
        <time>2021-03-28T13:17:33.000Z</time>
      </trkpt>
      <trkpt lat="46.99873" lon="-1.80166">
        <ele>52</ele>
        <time>2021-03-28T13:17:35.000Z</time>
      </trkpt>
      <trkpt lat="46.99881" lon="-1.80149">
        <ele>52</ele>
        <time>2021-03-28T13:17:37.000Z</time>
      </trkpt>
      <trkpt lat="46.99889" lon="-1.80132">
        <ele>52</ele>
        <time>2021-03-28T13:17:39.000Z</time>
      </trkpt>
      <trkpt lat="46.99897" lon="-1.80115">
        <ele>52</ele>
        <time>2021-03-28T13:17:41.000Z</time>
      </trkpt>
      <trkpt lat="46.99906" lon="-1.80097">
        <ele>52</ele>
        <time>2021-03-28T13:17:43.000Z</time>
      </trkpt>
      <trkpt lat="46.99914" lon="-1.8008">
        <ele>52</ele>
        <time>2021-03-28T13:17:45.000Z</time>
      </trkpt>
      <trkpt lat="46.99922" lon="-1.80063">
        <ele>52</ele>
        <time>2021-03-28T13:17:47.000Z</time>
      </trkpt>
      <trkpt lat="46.9993" lon="-1.80047">
        <ele>52</ele>
        <time>2021-03-28T13:17:49.000Z</time>
      </trkpt>
      <trkpt lat="46.99938" lon="-1.80031">
        <ele>53</ele>
        <time>2021-03-28T13:17:51.000Z</time>
      </trkpt>
      <trkpt lat="46.99947" lon="-1.80016">
        <ele>53</ele>
        <time>2021-03-28T13:17:53.000Z</time>
      </trkpt>
      <trkpt lat="46.99957" lon="-1.80002">
        <ele>53</ele>
        <time>2021-03-28T13:17:55.000Z</time>
      </trkpt>
      <trkpt lat="46.99969" lon="-1.7999">
        <ele>52</ele>
        <time>2021-03-28T13:17:57.000Z</time>
      </trkpt>
      <trkpt lat="46.99981" lon="-1.7998">
        <ele>52</ele>
        <time>2021-03-28T13:17:59.000Z</time>
      </trkpt>
      <trkpt lat="46.99993" lon="-1.79971">
        <ele>52</ele>
        <time>2021-03-28T13:18:01.000Z</time>
      </trkpt>
      <trkpt lat="47.00005" lon="-1.79962">
        <ele>52</ele>
        <time>2021-03-28T13:18:03.000Z</time>
      </trkpt>
      <trkpt lat="47.00017" lon="-1.79952">
        <ele>53</ele>
        <time>2021-03-28T13:18:05.000Z</time>
      </trkpt>
      <trkpt lat="47.00029" lon="-1.79943">
        <ele>53</ele>
        <time>2021-03-28T13:18:07.000Z</time>
      </trkpt>
      <trkpt lat="47.00042" lon="-1.79934">
        <ele>53</ele>
        <time>2021-03-28T13:18:09.000Z</time>
      </trkpt>
      <trkpt lat="47.00054" lon="-1.79925">
        <ele>53</ele>
        <time>2021-03-28T13:18:11.000Z</time>
      </trkpt>
      <trkpt lat="47.00067" lon="-1.79916">
        <ele>53</ele>
        <time>2021-03-28T13:18:13.000Z</time>
      </trkpt>
      <trkpt lat="47.00079" lon="-1.79906">
        <ele>52</ele>
        <time>2021-03-28T13:18:15.000Z</time>
      </trkpt>
      <trkpt lat="47.00091" lon="-1.79896">
        <ele>52</ele>
        <time>2021-03-28T13:18:17.000Z</time>
      </trkpt>
      <trkpt lat="47.00102" lon="-1.79884">
        <ele>52</ele>
        <time>2021-03-28T13:18:19.000Z</time>
      </trkpt>
      <trkpt lat="47.00113" lon="-1.79871">
        <ele>52</ele>
        <time>2021-03-28T13:18:21.000Z</time>
      </trkpt>
      <trkpt lat="47.00122" lon="-1.79857">
        <ele>52</ele>
        <time>2021-03-28T13:18:23.000Z</time>
      </trkpt>
      <trkpt lat="47.0013" lon="-1.79841">
        <ele>52</ele>
        <time>2021-03-28T13:18:25.000Z</time>
      </trkpt>
      <trkpt lat="47.00138" lon="-1.79824">
        <ele>52</ele>
        <time>2021-03-28T13:18:27.000Z</time>
      </trkpt>
      <trkpt lat="47.00144" lon="-1.79806">
        <ele>52</ele>
        <time>2021-03-28T13:18:29.000Z</time>
      </trkpt>
      <trkpt lat="47.0015" lon="-1.79788">
        <ele>52</ele>
        <time>2021-03-28T13:18:31.000Z</time>
      </trkpt>
      <trkpt lat="47.00156" lon="-1.7977">
        <ele>52</ele>
        <time>2021-03-28T13:18:33.000Z</time>
      </trkpt>
      <trkpt lat="47.00162" lon="-1.79751">
        <ele>52</ele>
        <time>2021-03-28T13:18:35.000Z</time>
      </trkpt>
      <trkpt lat="47.00167" lon="-1.79732">
        <ele>52</ele>
        <time>2021-03-28T13:18:37.000Z</time>
      </trkpt>
      <trkpt lat="47.00172" lon="-1.79713">
        <ele>53</ele>
        <time>2021-03-28T13:18:39.000Z</time>
      </trkpt>
      <trkpt lat="47.00177" lon="-1.79695">
        <ele>53</ele>
        <time>2021-03-28T13:18:41.000Z</time>
      </trkpt>
      <trkpt lat="47.00183" lon="-1.79677">
        <ele>53</ele>
        <time>2021-03-28T13:18:43.000Z</time>
      </trkpt>
      <trkpt lat="47.00189" lon="-1.79658">
        <ele>52</ele>
        <time>2021-03-28T13:18:45.000Z</time>
      </trkpt>
      <trkpt lat="47.00194" lon="-1.7964">
        <ele>52</ele>
        <time>2021-03-28T13:18:47.000Z</time>
      </trkpt>
      <trkpt lat="47.002" lon="-1.79621">
        <ele>52</ele>
        <time>2021-03-28T13:18:49.000Z</time>
      </trkpt>
      <trkpt lat="47.00205" lon="-1.79603">
        <ele>53</ele>
        <time>2021-03-28T13:18:51.000Z</time>
      </trkpt>
      <trkpt lat="47.00211" lon="-1.79584">
        <ele>53</ele>
        <time>2021-03-28T13:18:53.000Z</time>
      </trkpt>
      <trkpt lat="47.00216" lon="-1.79565">
        <ele>54</ele>
        <time>2021-03-28T13:18:55.000Z</time>
      </trkpt>
      <trkpt lat="47.00221" lon="-1.79546">
        <ele>54</ele>
        <time>2021-03-28T13:18:57.000Z</time>
      </trkpt>
      <trkpt lat="47.00227" lon="-1.79527">
        <ele>54</ele>
        <time>2021-03-28T13:18:59.000Z</time>
      </trkpt>
      <trkpt lat="47.00233" lon="-1.79509">
        <ele>54</ele>
        <time>2021-03-28T13:19:01.000Z</time>
      </trkpt>
      <trkpt lat="47.00238" lon="-1.7949">
        <ele>54</ele>
        <time>2021-03-28T13:19:03.000Z</time>
      </trkpt>
      <trkpt lat="47.00243" lon="-1.79472">
        <ele>54</ele>
        <time>2021-03-28T13:19:05.000Z</time>
      </trkpt>
      <trkpt lat="47.00249" lon="-1.79453">
        <ele>54</ele>
        <time>2021-03-28T13:19:07.000Z</time>
      </trkpt>
      <trkpt lat="47.00254" lon="-1.79434">
        <ele>54</ele>
        <time>2021-03-28T13:19:09.000Z</time>
      </trkpt>
      <trkpt lat="47.0026" lon="-1.79416">
        <ele>54</ele>
        <time>2021-03-28T13:19:11.000Z</time>
      </trkpt>
      <trkpt lat="47.00265" lon="-1.79398">
        <ele>54</ele>
        <time>2021-03-28T13:19:13.000Z</time>
      </trkpt>
      <trkpt lat="47.00271" lon="-1.79379">
        <ele>54</ele>
        <time>2021-03-28T13:19:15.000Z</time>
      </trkpt>
      <trkpt lat="47.00276" lon="-1.7936">
        <ele>54</ele>
        <time>2021-03-28T13:19:17.000Z</time>
      </trkpt>
      <trkpt lat="47.0028" lon="-1.7934">
        <ele>54</ele>
        <time>2021-03-28T13:19:19.000Z</time>
      </trkpt>
      <trkpt lat="47.00284" lon="-1.7932">
        <ele>54</ele>
        <time>2021-03-28T13:19:21.000Z</time>
      </trkpt>
      <trkpt lat="47.00287" lon="-1.793">
        <ele>54</ele>
        <time>2021-03-28T13:19:23.000Z</time>
      </trkpt>
      <trkpt lat="47.0029" lon="-1.7928">
        <ele>54</ele>
        <time>2021-03-28T13:19:25.000Z</time>
      </trkpt>
      <trkpt lat="47.00292" lon="-1.7926">
        <ele>54</ele>
        <time>2021-03-28T13:19:27.000Z</time>
      </trkpt>
      <trkpt lat="47.00296" lon="-1.79241">
        <ele>55</ele>
        <time>2021-03-28T13:19:29.000Z</time>
      </trkpt>
      <trkpt lat="47.00299" lon="-1.79221">
        <ele>55</ele>
        <time>2021-03-28T13:19:31.000Z</time>
      </trkpt>
      <trkpt lat="47.00302" lon="-1.79201">
        <ele>54</ele>
        <time>2021-03-28T13:19:33.000Z</time>
      </trkpt>
      <trkpt lat="47.00306" lon="-1.79181">
        <ele>54</ele>
        <time>2021-03-28T13:19:35.000Z</time>
      </trkpt>
      <trkpt lat="47.00309" lon="-1.79161">
        <ele>54</ele>
        <time>2021-03-28T13:19:37.000Z</time>
      </trkpt>
      <trkpt lat="47.00314" lon="-1.79142">
        <ele>54</ele>
        <time>2021-03-28T13:19:39.000Z</time>
      </trkpt>
      <trkpt lat="47.00319" lon="-1.79122">
        <ele>54</ele>
        <time>2021-03-28T13:19:41.000Z</time>
      </trkpt>
      <trkpt lat="47.00324" lon="-1.79104">
        <ele>54</ele>
        <time>2021-03-28T13:19:43.000Z</time>
      </trkpt>
      <trkpt lat="47.0033" lon="-1.79085">
        <ele>54</ele>
        <time>2021-03-28T13:19:45.000Z</time>
      </trkpt>
      <trkpt lat="47.00335" lon="-1.79066">
        <ele>54</ele>
        <time>2021-03-28T13:19:47.000Z</time>
      </trkpt>
      <trkpt lat="47.00341" lon="-1.79047">
        <ele>54</ele>
        <time>2021-03-28T13:19:49.000Z</time>
      </trkpt>
      <trkpt lat="47.00346" lon="-1.79028">
        <ele>54</ele>
        <time>2021-03-28T13:19:51.000Z</time>
      </trkpt>
      <trkpt lat="47.0035" lon="-1.79009">
        <ele>54</ele>
        <time>2021-03-28T13:19:53.000Z</time>
      </trkpt>
      <trkpt lat="47.00355" lon="-1.78989">
        <ele>55</ele>
        <time>2021-03-28T13:19:55.000Z</time>
      </trkpt>
      <trkpt lat="47.00359" lon="-1.7897">
        <ele>55</ele>
        <time>2021-03-28T13:19:57.000Z</time>
      </trkpt>
      <trkpt lat="47.00363" lon="-1.78951">
        <ele>55</ele>
        <time>2021-03-28T13:19:59.000Z</time>
      </trkpt>
      <trkpt lat="47.00367" lon="-1.78933">
        <ele>55</ele>
        <time>2021-03-28T13:20:01.000Z</time>
      </trkpt>
      <trkpt lat="47.00371" lon="-1.78915">
        <ele>55</ele>
        <time>2021-03-28T13:20:03.000Z</time>
      </trkpt>
      <trkpt lat="47.00375" lon="-1.78896">
        <ele>55</ele>
        <time>2021-03-28T13:20:05.000Z</time>
      </trkpt>
      <trkpt lat="47.00379" lon="-1.78877">
        <ele>55</ele>
        <time>2021-03-28T13:20:07.000Z</time>
      </trkpt>
      <trkpt lat="47.00383" lon="-1.78857">
        <ele>55</ele>
        <time>2021-03-28T13:20:09.000Z</time>
      </trkpt>
      <trkpt lat="47.00387" lon="-1.78838">
        <ele>55</ele>
        <time>2021-03-28T13:20:11.000Z</time>
      </trkpt>
      <trkpt lat="47.00391" lon="-1.78819">
        <ele>55</ele>
        <time>2021-03-28T13:20:13.000Z</time>
      </trkpt>
      <trkpt lat="47.00394" lon="-1.78799">
        <ele>55</ele>
        <time>2021-03-28T13:20:15.000Z</time>
      </trkpt>
      <trkpt lat="47.00398" lon="-1.78779">
        <ele>55</ele>
        <time>2021-03-28T13:20:17.000Z</time>
      </trkpt>
      <trkpt lat="47.00401" lon="-1.78759">
        <ele>55</ele>
        <time>2021-03-28T13:20:19.000Z</time>
      </trkpt>
      <trkpt lat="47.00403" lon="-1.78738">
        <ele>54</ele>
        <time>2021-03-28T13:20:21.000Z</time>
      </trkpt>
      <trkpt lat="47.00406" lon="-1.78718">
        <ele>55</ele>
        <time>2021-03-28T13:20:23.000Z</time>
      </trkpt>
      <trkpt lat="47.00409" lon="-1.78698">
        <ele>54</ele>
        <time>2021-03-28T13:20:25.000Z</time>
      </trkpt>
      <trkpt lat="47.00412" lon="-1.78678">
        <ele>54</ele>
        <time>2021-03-28T13:20:27.000Z</time>
      </trkpt>
      <trkpt lat="47.00415" lon="-1.78658">
        <ele>54</ele>
        <time>2021-03-28T13:20:29.000Z</time>
      </trkpt>
      <trkpt lat="47.00418" lon="-1.78638">
        <ele>54</ele>
        <time>2021-03-28T13:20:31.000Z</time>
      </trkpt>
      <trkpt lat="47.0042" lon="-1.78618">
        <ele>54</ele>
        <time>2021-03-28T13:20:33.000Z</time>
      </trkpt>
      <trkpt lat="47.00422" lon="-1.78598">
        <ele>54</ele>
        <time>2021-03-28T13:20:35.000Z</time>
      </trkpt>
      <trkpt lat="47.00425" lon="-1.78578">
        <ele>53</ele>
        <time>2021-03-28T13:20:37.000Z</time>
      </trkpt>
      <trkpt lat="47.00428" lon="-1.78558">
        <ele>53</ele>
        <time>2021-03-28T13:20:39.000Z</time>
      </trkpt>
      <trkpt lat="47.00431" lon="-1.78538">
        <ele>53</ele>
        <time>2021-03-28T13:20:41.000Z</time>
      </trkpt>
      <trkpt lat="47.00434" lon="-1.78517">
        <ele>53</ele>
        <time>2021-03-28T13:20:43.000Z</time>
      </trkpt>
      <trkpt lat="47.00437" lon="-1.78497">
        <ele>53</ele>
        <time>2021-03-28T13:20:45.000Z</time>
      </trkpt>
      <trkpt lat="47.0044" lon="-1.78477">
        <ele>53</ele>
        <time>2021-03-28T13:20:47.000Z</time>
      </trkpt>
      <trkpt lat="47.00444" lon="-1.78457">
        <ele>53</ele>
        <time>2021-03-28T13:20:49.000Z</time>
      </trkpt>
      <trkpt lat="47.00448" lon="-1.78438">
        <ele>53</ele>
        <time>2021-03-28T13:20:51.000Z</time>
      </trkpt>
      <trkpt lat="47.00452" lon="-1.78419">
        <ele>53</ele>
        <time>2021-03-28T13:20:53.000Z</time>
      </trkpt>
      <trkpt lat="47.00457" lon="-1.78399">
        <ele>53</ele>
        <time>2021-03-28T13:20:55.000Z</time>
      </trkpt>
      <trkpt lat="47.00461" lon="-1.78381">
        <ele>53</ele>
        <time>2021-03-28T13:20:57.000Z</time>
      </trkpt>
      <trkpt lat="47.00465" lon="-1.78362">
        <ele>52</ele>
        <time>2021-03-28T13:20:59.000Z</time>
      </trkpt>
      <trkpt lat="47.0047" lon="-1.78344">
        <ele>52</ele>
        <time>2021-03-28T13:21:01.000Z</time>
      </trkpt>
      <trkpt lat="47.00475" lon="-1.78326">
        <ele>52</ele>
        <time>2021-03-28T13:21:03.000Z</time>
      </trkpt>
      <trkpt lat="47.0048" lon="-1.78307">
        <ele>52</ele>
        <time>2021-03-28T13:21:05.000Z</time>
      </trkpt>
      <trkpt lat="47.00485" lon="-1.78288">
        <ele>52</ele>
        <time>2021-03-28T13:21:07.000Z</time>
      </trkpt>
      <trkpt lat="47.00489" lon="-1.7827">
        <ele>52</ele>
        <time>2021-03-28T13:21:09.000Z</time>
      </trkpt>
      <trkpt lat="47.00494" lon="-1.78251">
        <ele>52</ele>
        <time>2021-03-28T13:21:11.000Z</time>
      </trkpt>
      <trkpt lat="47.00499" lon="-1.78233">
        <ele>52</ele>
        <time>2021-03-28T13:21:13.000Z</time>
      </trkpt>
      <trkpt lat="47.00503" lon="-1.78214">
        <ele>52</ele>
        <time>2021-03-28T13:21:15.000Z</time>
      </trkpt>
      <trkpt lat="47.00507" lon="-1.78197">
        <ele>52</ele>
        <time>2021-03-28T13:21:17.000Z</time>
      </trkpt>
      <trkpt lat="47.00512" lon="-1.78179">
        <ele>52</ele>
        <time>2021-03-28T13:21:19.000Z</time>
      </trkpt>
      <trkpt lat="47.00516" lon="-1.7816">
        <ele>52</ele>
        <time>2021-03-28T13:21:21.000Z</time>
      </trkpt>
      <trkpt lat="47.00522" lon="-1.7814">
        <ele>52</ele>
        <time>2021-03-28T13:21:23.000Z</time>
      </trkpt>
      <trkpt lat="47.00526" lon="-1.78121">
        <ele>52</ele>
        <time>2021-03-28T13:21:25.000Z</time>
      </trkpt>
      <trkpt lat="47.00531" lon="-1.781">
        <ele>52</ele>
        <time>2021-03-28T13:21:27.000Z</time>
      </trkpt>
      <trkpt lat="47.00536" lon="-1.7808">
        <ele>52</ele>
        <time>2021-03-28T13:21:29.000Z</time>
      </trkpt>
      <trkpt lat="47.0054" lon="-1.7806">
        <ele>52</ele>
        <time>2021-03-28T13:21:31.000Z</time>
      </trkpt>
      <trkpt lat="47.00545" lon="-1.78041">
        <ele>52</ele>
        <time>2021-03-28T13:21:33.000Z</time>
      </trkpt>
      <trkpt lat="47.0055" lon="-1.78021">
        <ele>52</ele>
        <time>2021-03-28T13:21:35.000Z</time>
      </trkpt>
      <trkpt lat="47.00555" lon="-1.78003">
        <ele>52</ele>
        <time>2021-03-28T13:21:37.000Z</time>
      </trkpt>
      <trkpt lat="47.0056" lon="-1.77984">
        <ele>52</ele>
        <time>2021-03-28T13:21:39.000Z</time>
      </trkpt>
      <trkpt lat="47.00564" lon="-1.77964">
        <ele>52</ele>
        <time>2021-03-28T13:21:41.000Z</time>
      </trkpt>
      <trkpt lat="47.00569" lon="-1.77945">
        <ele>51</ele>
        <time>2021-03-28T13:21:43.000Z</time>
      </trkpt>
      <trkpt lat="47.00574" lon="-1.77925">
        <ele>52</ele>
        <time>2021-03-28T13:21:45.000Z</time>
      </trkpt>
      <trkpt lat="47.00579" lon="-1.77906">
        <ele>51</ele>
        <time>2021-03-28T13:21:47.000Z</time>
      </trkpt>
      <trkpt lat="47.00584" lon="-1.77886">
        <ele>52</ele>
        <time>2021-03-28T13:21:49.000Z</time>
      </trkpt>
      <trkpt lat="47.00588" lon="-1.77867">
        <ele>52</ele>
        <time>2021-03-28T13:21:51.000Z</time>
      </trkpt>
      <trkpt lat="47.00593" lon="-1.77847">
        <ele>51</ele>
        <time>2021-03-28T13:21:53.000Z</time>
      </trkpt>
      <trkpt lat="47.00598" lon="-1.77828">
        <ele>52</ele>
        <time>2021-03-28T13:21:55.000Z</time>
      </trkpt>
      <trkpt lat="47.00603" lon="-1.77809">
        <ele>52</ele>
        <time>2021-03-28T13:21:57.000Z</time>
      </trkpt>
      <trkpt lat="47.00608" lon="-1.7779">
        <ele>52</ele>
        <time>2021-03-28T13:21:59.000Z</time>
      </trkpt>
      <trkpt lat="47.00613" lon="-1.77771">
        <ele>52</ele>
        <time>2021-03-28T13:22:01.000Z</time>
      </trkpt>
      <trkpt lat="47.00617" lon="-1.77752">
        <ele>52</ele>
        <time>2021-03-28T13:22:03.000Z</time>
      </trkpt>
      <trkpt lat="47.00621" lon="-1.77732">
        <ele>52</ele>
        <time>2021-03-28T13:22:05.000Z</time>
      </trkpt>
      <trkpt lat="47.00626" lon="-1.77713">
        <ele>53</ele>
        <time>2021-03-28T13:22:07.000Z</time>
      </trkpt>
      <trkpt lat="47.00631" lon="-1.77695">
        <ele>53</ele>
        <time>2021-03-28T13:22:09.000Z</time>
      </trkpt>
      <trkpt lat="47.00636" lon="-1.77675">
        <ele>53</ele>
        <time>2021-03-28T13:22:11.000Z</time>
      </trkpt>
      <trkpt lat="47.0064" lon="-1.77656">
        <ele>53</ele>
        <time>2021-03-28T13:22:13.000Z</time>
      </trkpt>
      <trkpt lat="47.00645" lon="-1.77637">
        <ele>53</ele>
        <time>2021-03-28T13:22:15.000Z</time>
      </trkpt>
      <trkpt lat="47.00649" lon="-1.77618">
        <ele>54</ele>
        <time>2021-03-28T13:22:17.000Z</time>
      </trkpt>
      <trkpt lat="47.00654" lon="-1.77598">
        <ele>54</ele>
        <time>2021-03-28T13:22:19.000Z</time>
      </trkpt>
      <trkpt lat="47.00659" lon="-1.7758">
        <ele>54</ele>
        <time>2021-03-28T13:22:21.000Z</time>
      </trkpt>
      <trkpt lat="47.00663" lon="-1.7756">
        <ele>54</ele>
        <time>2021-03-28T13:22:23.000Z</time>
      </trkpt>
      <trkpt lat="47.00668" lon="-1.77541">
        <ele>55</ele>
        <time>2021-03-28T13:22:25.000Z</time>
      </trkpt>
      <trkpt lat="47.00673" lon="-1.77523">
        <ele>54</ele>
        <time>2021-03-28T13:22:27.000Z</time>
      </trkpt>
      <trkpt lat="47.00679" lon="-1.77504">
        <ele>55</ele>
        <time>2021-03-28T13:22:29.000Z</time>
      </trkpt>
      <trkpt lat="47.00686" lon="-1.77487">
        <ele>55</ele>
        <time>2021-03-28T13:22:31.000Z</time>
      </trkpt>
      <trkpt lat="47.00692" lon="-1.7747">
        <ele>55</ele>
        <time>2021-03-28T13:22:33.000Z</time>
      </trkpt>
      <trkpt lat="47.00699" lon="-1.77453">
        <ele>56</ele>
        <time>2021-03-28T13:22:35.000Z</time>
      </trkpt>
      <trkpt lat="47.00705" lon="-1.77437">
        <ele>56</ele>
        <time>2021-03-28T13:22:37.000Z</time>
      </trkpt>
      <trkpt lat="47.00711" lon="-1.7742">
        <ele>56</ele>
        <time>2021-03-28T13:22:39.000Z</time>
      </trkpt>
      <trkpt lat="47.00717" lon="-1.77404">
        <ele>57</ele>
        <time>2021-03-28T13:22:41.000Z</time>
      </trkpt>
      <trkpt lat="47.00724" lon="-1.77387">
        <ele>57</ele>
        <time>2021-03-28T13:22:43.000Z</time>
      </trkpt>
      <trkpt lat="47.00732" lon="-1.77371">
        <ele>57</ele>
        <time>2021-03-28T13:22:45.000Z</time>
      </trkpt>
      <trkpt lat="47.00741" lon="-1.77355">
        <ele>57</ele>
        <time>2021-03-28T13:22:47.000Z</time>
      </trkpt>
      <trkpt lat="47.00751" lon="-1.77339">
        <ele>57</ele>
        <time>2021-03-28T13:22:49.000Z</time>
      </trkpt>
      <trkpt lat="47.00762" lon="-1.77326">
        <ele>57</ele>
        <time>2021-03-28T13:22:51.000Z</time>
      </trkpt>
      <trkpt lat="47.00774" lon="-1.77315">
        <ele>57</ele>
        <time>2021-03-28T13:22:53.000Z</time>
      </trkpt>
      <trkpt lat="47.00787" lon="-1.77306">
        <ele>57</ele>
        <time>2021-03-28T13:22:55.000Z</time>
      </trkpt>
      <trkpt lat="47.00799" lon="-1.77299">
        <ele>57</ele>
        <time>2021-03-28T13:22:57.000Z</time>
      </trkpt>
      <trkpt lat="47.0081" lon="-1.77291">
        <ele>57</ele>
        <time>2021-03-28T13:22:59.000Z</time>
      </trkpt>
      <trkpt lat="47.00822" lon="-1.77285">
        <ele>58</ele>
        <time>2021-03-28T13:23:01.000Z</time>
      </trkpt>
      <trkpt lat="47.00835" lon="-1.77278">
        <ele>58</ele>
        <time>2021-03-28T13:23:03.000Z</time>
      </trkpt>
      <trkpt lat="47.00847" lon="-1.77271">
        <ele>58</ele>
        <time>2021-03-28T13:23:05.000Z</time>
      </trkpt>
      <trkpt lat="47.00859" lon="-1.77262">
        <ele>58</ele>
        <time>2021-03-28T13:23:07.000Z</time>
      </trkpt>
      <trkpt lat="47.0087" lon="-1.77252">
        <ele>58</ele>
        <time>2021-03-28T13:23:09.000Z</time>
      </trkpt>
      <trkpt lat="47.00881" lon="-1.77242">
        <ele>58</ele>
        <time>2021-03-28T13:23:11.000Z</time>
      </trkpt>
      <trkpt lat="47.00892" lon="-1.77232">
        <ele>58</ele>
        <time>2021-03-28T13:23:13.000Z</time>
      </trkpt>
      <trkpt lat="47.00903" lon="-1.7722">
        <ele>58</ele>
        <time>2021-03-28T13:23:15.000Z</time>
      </trkpt>
      <trkpt lat="47.00913" lon="-1.77209">
        <ele>58</ele>
        <time>2021-03-28T13:23:17.000Z</time>
      </trkpt>
      <trkpt lat="47.00924" lon="-1.77198">
        <ele>58</ele>
        <time>2021-03-28T13:23:19.000Z</time>
      </trkpt>
      <trkpt lat="47.00933" lon="-1.77188">
        <ele>58</ele>
        <time>2021-03-28T13:23:21.000Z</time>
      </trkpt>
      <trkpt lat="47.00942" lon="-1.77179">
        <ele>59</ele>
        <time>2021-03-28T13:23:23.000Z</time>
      </trkpt>
      <trkpt lat="47.00951" lon="-1.7717">
        <ele>59</ele>
        <time>2021-03-28T13:23:25.000Z</time>
      </trkpt>
      <trkpt lat="47.00958" lon="-1.77161">
        <ele>59</ele>
        <time>2021-03-28T13:23:27.000Z</time>
      </trkpt>
      <trkpt lat="47.00967" lon="-1.77153">
        <ele>59</ele>
        <time>2021-03-28T13:23:29.000Z</time>
      </trkpt>
      <trkpt lat="47.00977" lon="-1.77142">
        <ele>59</ele>
        <time>2021-03-28T13:23:31.000Z</time>
      </trkpt>
      <trkpt lat="47.00988" lon="-1.77131">
        <ele>59</ele>
        <time>2021-03-28T13:23:33.000Z</time>
      </trkpt>
      <trkpt lat="47.01" lon="-1.77119">
        <ele>60</ele>
        <time>2021-03-28T13:23:35.000Z</time>
      </trkpt>
      <trkpt lat="47.01011" lon="-1.77108">
        <ele>60</ele>
        <time>2021-03-28T13:23:37.000Z</time>
      </trkpt>
      <trkpt lat="47.01021" lon="-1.77096">
        <ele>60</ele>
        <time>2021-03-28T13:23:39.000Z</time>
      </trkpt>
      <trkpt lat="47.01032" lon="-1.77085">
        <ele>60</ele>
        <time>2021-03-28T13:23:41.000Z</time>
      </trkpt>
      <trkpt lat="47.01042" lon="-1.77073">
        <ele>60</ele>
        <time>2021-03-28T13:23:43.000Z</time>
      </trkpt>
      <trkpt lat="47.01052" lon="-1.77062">
        <ele>60</ele>
        <time>2021-03-28T13:23:45.000Z</time>
      </trkpt>
      <trkpt lat="47.01063" lon="-1.7705">
        <ele>60</ele>
        <time>2021-03-28T13:23:47.000Z</time>
      </trkpt>
      <trkpt lat="47.01072" lon="-1.77038">
        <ele>60</ele>
        <time>2021-03-28T13:23:49.000Z</time>
      </trkpt>
      <trkpt lat="47.01082" lon="-1.77027">
        <ele>60</ele>
        <time>2021-03-28T13:23:51.000Z</time>
      </trkpt>
      <trkpt lat="47.01092" lon="-1.77015">
        <ele>61</ele>
        <time>2021-03-28T13:23:53.000Z</time>
      </trkpt>
      <trkpt lat="47.01101" lon="-1.77004">
        <ele>61</ele>
        <time>2021-03-28T13:23:55.000Z</time>
      </trkpt>
      <trkpt lat="47.01111" lon="-1.76992">
        <ele>61</ele>
        <time>2021-03-28T13:23:57.000Z</time>
      </trkpt>
      <trkpt lat="47.01121" lon="-1.76981">
        <ele>61</ele>
        <time>2021-03-28T13:23:59.000Z</time>
      </trkpt>
      <trkpt lat="47.01131" lon="-1.76969">
        <ele>61</ele>
        <time>2021-03-28T13:24:01.000Z</time>
      </trkpt>
      <trkpt lat="47.0114" lon="-1.76957">
        <ele>61</ele>
        <time>2021-03-28T13:24:03.000Z</time>
      </trkpt>
      <trkpt lat="47.0115" lon="-1.76945">
        <ele>62</ele>
        <time>2021-03-28T13:24:05.000Z</time>
      </trkpt>
      <trkpt lat="47.0116" lon="-1.76934">
        <ele>63</ele>
        <time>2021-03-28T13:24:07.000Z</time>
      </trkpt>
      <trkpt lat="47.01169" lon="-1.76923">
        <ele>63</ele>
        <time>2021-03-28T13:24:09.000Z</time>
      </trkpt>
      <trkpt lat="47.01179" lon="-1.76912">
        <ele>63</ele>
        <time>2021-03-28T13:24:11.000Z</time>
      </trkpt>
      <trkpt lat="47.01189" lon="-1.76901">
        <ele>63</ele>
        <time>2021-03-28T13:24:13.000Z</time>
      </trkpt>
      <trkpt lat="47.012" lon="-1.76891">
        <ele>63</ele>
        <time>2021-03-28T13:24:15.000Z</time>
      </trkpt>
      <trkpt lat="47.0121" lon="-1.76881">
        <ele>64</ele>
        <time>2021-03-28T13:24:17.000Z</time>
      </trkpt>
      <trkpt lat="47.01221" lon="-1.76872">
        <ele>64</ele>
        <time>2021-03-28T13:24:19.000Z</time>
      </trkpt>
      <trkpt lat="47.01232" lon="-1.76864">
        <ele>64</ele>
        <time>2021-03-28T13:24:21.000Z</time>
      </trkpt>
      <trkpt lat="47.01244" lon="-1.76856">
        <ele>64</ele>
        <time>2021-03-28T13:24:23.000Z</time>
      </trkpt>
      <trkpt lat="47.01255" lon="-1.76847">
        <ele>64</ele>
        <time>2021-03-28T13:24:25.000Z</time>
      </trkpt>
      <trkpt lat="47.01266" lon="-1.76837">
        <ele>65</ele>
        <time>2021-03-28T13:24:27.000Z</time>
      </trkpt>
      <trkpt lat="47.01276" lon="-1.76827">
        <ele>65</ele>
        <time>2021-03-28T13:24:29.000Z</time>
      </trkpt>
      <trkpt lat="47.01286" lon="-1.76816">
        <ele>65</ele>
        <time>2021-03-28T13:24:31.000Z</time>
      </trkpt>
      <trkpt lat="47.01295" lon="-1.76803">
        <ele>65</ele>
        <time>2021-03-28T13:24:33.000Z</time>
      </trkpt>
      <trkpt lat="47.01304" lon="-1.7679">
        <ele>65</ele>
        <time>2021-03-28T13:24:35.000Z</time>
      </trkpt>
      <trkpt lat="47.01313" lon="-1.76776">
        <ele>66</ele>
        <time>2021-03-28T13:24:37.000Z</time>
      </trkpt>
      <trkpt lat="47.0132" lon="-1.76763">
        <ele>66</ele>
        <time>2021-03-28T13:24:39.000Z</time>
      </trkpt>
      <trkpt lat="47.01328" lon="-1.76749">
        <ele>66</ele>
        <time>2021-03-28T13:24:41.000Z</time>
      </trkpt>
      <trkpt lat="47.01336" lon="-1.76736">
        <ele>67</ele>
        <time>2021-03-28T13:24:43.000Z</time>
      </trkpt>
      <trkpt lat="47.01343" lon="-1.76721">
        <ele>67</ele>
        <time>2021-03-28T13:24:45.000Z</time>
      </trkpt>
      <trkpt lat="47.0135" lon="-1.76707">
        <ele>67</ele>
        <time>2021-03-28T13:24:47.000Z</time>
      </trkpt>
      <trkpt lat="47.01356" lon="-1.76691">
        <ele>67</ele>
        <time>2021-03-28T13:24:49.000Z</time>
      </trkpt>
      <trkpt lat="47.01361" lon="-1.76674">
        <ele>67</ele>
        <time>2021-03-28T13:24:51.000Z</time>
      </trkpt>
      <trkpt lat="47.01365" lon="-1.76657">
        <ele>67</ele>
        <time>2021-03-28T13:24:53.000Z</time>
      </trkpt>
      <trkpt lat="47.01369" lon="-1.76639">
        <ele>67</ele>
        <time>2021-03-28T13:24:55.000Z</time>
      </trkpt>
      <trkpt lat="47.01373" lon="-1.76621">
        <ele>67</ele>
        <time>2021-03-28T13:24:57.000Z</time>
      </trkpt>
      <trkpt lat="47.01376" lon="-1.76603">
        <ele>67</ele>
        <time>2021-03-28T13:24:59.000Z</time>
      </trkpt>
      <trkpt lat="47.0138" lon="-1.76586">
        <ele>67</ele>
        <time>2021-03-28T13:25:01.000Z</time>
      </trkpt>
      <trkpt lat="47.01384" lon="-1.76568">
        <ele>67</ele>
        <time>2021-03-28T13:25:03.000Z</time>
      </trkpt>
      <trkpt lat="47.01388" lon="-1.7655">
        <ele>66</ele>
        <time>2021-03-28T13:25:05.000Z</time>
      </trkpt>
      <trkpt lat="47.01392" lon="-1.76531">
        <ele>66</ele>
        <time>2021-03-28T13:25:07.000Z</time>
      </trkpt>
      <trkpt lat="47.01396" lon="-1.76513">
        <ele>66</ele>
        <time>2021-03-28T13:25:09.000Z</time>
      </trkpt>
      <trkpt lat="47.01401" lon="-1.76495">
        <ele>66</ele>
        <time>2021-03-28T13:25:11.000Z</time>
      </trkpt>
      <trkpt lat="47.01406" lon="-1.76477">
        <ele>67</ele>
        <time>2021-03-28T13:25:13.000Z</time>
      </trkpt>
      <trkpt lat="47.01413" lon="-1.7646">
        <ele>66</ele>
        <time>2021-03-28T13:25:15.000Z</time>
      </trkpt>
      <trkpt lat="47.01421" lon="-1.76444">
        <ele>66</ele>
        <time>2021-03-28T13:25:17.000Z</time>
      </trkpt>
      <trkpt lat="47.01429" lon="-1.76426">
        <ele>66</ele>
        <time>2021-03-28T13:25:19.000Z</time>
      </trkpt>
      <trkpt lat="47.01437" lon="-1.76409">
        <ele>66</ele>
        <time>2021-03-28T13:25:21.000Z</time>
      </trkpt>
      <trkpt lat="47.01445" lon="-1.76391">
        <ele>65</ele>
        <time>2021-03-28T13:25:23.000Z</time>
      </trkpt>
      <trkpt lat="47.01454" lon="-1.76373">
        <ele>65</ele>
        <time>2021-03-28T13:25:25.000Z</time>
      </trkpt>
      <trkpt lat="47.01462" lon="-1.76356">
        <ele>64</ele>
        <time>2021-03-28T13:25:27.000Z</time>
      </trkpt>
      <trkpt lat="47.0147" lon="-1.76339">
        <ele>64</ele>
        <time>2021-03-28T13:25:29.000Z</time>
      </trkpt>
      <trkpt lat="47.01478" lon="-1.76322">
        <ele>64</ele>
        <time>2021-03-28T13:25:31.000Z</time>
      </trkpt>
      <trkpt lat="47.01486" lon="-1.76305">
        <ele>64</ele>
        <time>2021-03-28T13:25:33.000Z</time>
      </trkpt>
      <trkpt lat="47.01493" lon="-1.76288">
        <ele>64</ele>
        <time>2021-03-28T13:25:35.000Z</time>
      </trkpt>
      <trkpt lat="47.01501" lon="-1.76271">
        <ele>64</ele>
        <time>2021-03-28T13:25:37.000Z</time>
      </trkpt>
      <trkpt lat="47.01509" lon="-1.76252">
        <ele>63</ele>
        <time>2021-03-28T13:25:39.000Z</time>
      </trkpt>
      <trkpt lat="47.01516" lon="-1.76233">
        <ele>63</ele>
        <time>2021-03-28T13:25:41.000Z</time>
      </trkpt>
      <trkpt lat="47.01523" lon="-1.76215">
        <ele>63</ele>
        <time>2021-03-28T13:25:43.000Z</time>
      </trkpt>
      <trkpt lat="47.01531" lon="-1.76197">
        <ele>64</ele>
        <time>2021-03-28T13:25:45.000Z</time>
      </trkpt>
      <trkpt lat="47.01538" lon="-1.76179">
        <ele>64</ele>
        <time>2021-03-28T13:25:47.000Z</time>
      </trkpt>
      <trkpt lat="47.01548" lon="-1.76165">
        <ele>64</ele>
        <time>2021-03-28T13:25:49.000Z</time>
      </trkpt>
      <trkpt lat="47.01559" lon="-1.76152">
        <ele>64</ele>
        <time>2021-03-28T13:25:51.000Z</time>
      </trkpt>
      <trkpt lat="47.01571" lon="-1.76142">
        <ele>64</ele>
        <time>2021-03-28T13:25:53.000Z</time>
      </trkpt>
      <trkpt lat="47.01583" lon="-1.76132">
        <ele>64</ele>
        <time>2021-03-28T13:25:55.000Z</time>
      </trkpt>
      <trkpt lat="47.01594" lon="-1.76122">
        <ele>64</ele>
        <time>2021-03-28T13:25:57.000Z</time>
      </trkpt>
      <trkpt lat="47.01606" lon="-1.76113">
        <ele>64</ele>
        <time>2021-03-28T13:25:59.000Z</time>
      </trkpt>
      <trkpt lat="47.01618" lon="-1.76103">
        <ele>65</ele>
        <time>2021-03-28T13:26:01.000Z</time>
      </trkpt>
      <trkpt lat="47.01629" lon="-1.76093">
        <ele>65</ele>
        <time>2021-03-28T13:26:03.000Z</time>
      </trkpt>
      <trkpt lat="47.0164" lon="-1.76084">
        <ele>65</ele>
        <time>2021-03-28T13:26:05.000Z</time>
      </trkpt>
      <trkpt lat="47.01651" lon="-1.76075">
        <ele>65</ele>
        <time>2021-03-28T13:26:07.000Z</time>
      </trkpt>
      <trkpt lat="47.01662" lon="-1.76066">
        <ele>65</ele>
        <time>2021-03-28T13:26:09.000Z</time>
      </trkpt>
      <trkpt lat="47.01674" lon="-1.76056">
        <ele>65</ele>
        <time>2021-03-28T13:26:11.000Z</time>
      </trkpt>
      <trkpt lat="47.01686" lon="-1.76045">
        <ele>65</ele>
        <time>2021-03-28T13:26:13.000Z</time>
      </trkpt>
      <trkpt lat="47.01698" lon="-1.76035">
        <ele>65</ele>
        <time>2021-03-28T13:26:15.000Z</time>
      </trkpt>
      <trkpt lat="47.01708" lon="-1.76023">
        <ele>66</ele>
        <time>2021-03-28T13:26:17.000Z</time>
      </trkpt>
      <trkpt lat="47.01717" lon="-1.76009">
        <ele>66</ele>
        <time>2021-03-28T13:26:19.000Z</time>
      </trkpt>
      <trkpt lat="47.01726" lon="-1.75993">
        <ele>66</ele>
        <time>2021-03-28T13:26:21.000Z</time>
      </trkpt>
      <trkpt lat="47.01735" lon="-1.75978">
        <ele>66</ele>
        <time>2021-03-28T13:26:23.000Z</time>
      </trkpt>
      <trkpt lat="47.01744" lon="-1.75963">
        <ele>66</ele>
        <time>2021-03-28T13:26:25.000Z</time>
      </trkpt>
      <trkpt lat="47.01753" lon="-1.75948">
        <ele>66</ele>
        <time>2021-03-28T13:26:27.000Z</time>
      </trkpt>
      <trkpt lat="47.01762" lon="-1.75932">
        <ele>66</ele>
        <time>2021-03-28T13:26:29.000Z</time>
      </trkpt>
      <trkpt lat="47.01771" lon="-1.75917">
        <ele>67</ele>
        <time>2021-03-28T13:26:31.000Z</time>
      </trkpt>
      <trkpt lat="47.01779" lon="-1.75902">
        <ele>67</ele>
        <time>2021-03-28T13:26:33.000Z</time>
      </trkpt>
      <trkpt lat="47.01788" lon="-1.75888">
        <ele>67</ele>
        <time>2021-03-28T13:26:35.000Z</time>
      </trkpt>
      <trkpt lat="47.01796" lon="-1.75873">
        <ele>67</ele>
        <time>2021-03-28T13:26:37.000Z</time>
      </trkpt>
      <trkpt lat="47.01805" lon="-1.75858">
        <ele>67</ele>
        <time>2021-03-28T13:26:39.000Z</time>
      </trkpt>
      <trkpt lat="47.01814" lon="-1.75844">
        <ele>67</ele>
        <time>2021-03-28T13:26:41.000Z</time>
      </trkpt>
      <trkpt lat="47.01822" lon="-1.7583">
        <ele>68</ele>
        <time>2021-03-28T13:26:43.000Z</time>
      </trkpt>
      <trkpt lat="47.0183" lon="-1.75816">
        <ele>69</ele>
        <time>2021-03-28T13:26:45.000Z</time>
      </trkpt>
      <trkpt lat="47.01838" lon="-1.75802">
        <ele>69</ele>
        <time>2021-03-28T13:26:47.000Z</time>
      </trkpt>
      <trkpt lat="47.01847" lon="-1.75787">
        <ele>70</ele>
        <time>2021-03-28T13:26:49.000Z</time>
      </trkpt>
      <trkpt lat="47.01855" lon="-1.75773">
        <ele>70</ele>
        <time>2021-03-28T13:26:51.000Z</time>
      </trkpt>
      <trkpt lat="47.01864" lon="-1.75758">
        <ele>70</ele>
        <time>2021-03-28T13:26:53.000Z</time>
      </trkpt>
      <trkpt lat="47.01872" lon="-1.75743">
        <ele>70</ele>
        <time>2021-03-28T13:26:55.000Z</time>
      </trkpt>
      <trkpt lat="47.0188" lon="-1.75728">
        <ele>70</ele>
        <time>2021-03-28T13:26:57.000Z</time>
      </trkpt>
      <trkpt lat="47.01889" lon="-1.75714">
        <ele>70</ele>
        <time>2021-03-28T13:26:59.000Z</time>
      </trkpt>
      <trkpt lat="47.01897" lon="-1.757">
        <ele>70</ele>
        <time>2021-03-28T13:27:01.000Z</time>
      </trkpt>
      <trkpt lat="47.01905" lon="-1.75685">
        <ele>70</ele>
        <time>2021-03-28T13:27:03.000Z</time>
      </trkpt>
      <trkpt lat="47.01914" lon="-1.7567">
        <ele>70</ele>
        <time>2021-03-28T13:27:05.000Z</time>
      </trkpt>
      <trkpt lat="47.01922" lon="-1.75656">
        <ele>70</ele>
        <time>2021-03-28T13:27:07.000Z</time>
      </trkpt>
      <trkpt lat="47.01931" lon="-1.75641">
        <ele>70</ele>
        <time>2021-03-28T13:27:09.000Z</time>
      </trkpt>
      <trkpt lat="47.0194" lon="-1.75626">
        <ele>70</ele>
        <time>2021-03-28T13:27:11.000Z</time>
      </trkpt>
      <trkpt lat="47.01949" lon="-1.75611">
        <ele>70</ele>
        <time>2021-03-28T13:27:13.000Z</time>
      </trkpt>
      <trkpt lat="47.01957" lon="-1.75595">
        <ele>70</ele>
        <time>2021-03-28T13:27:15.000Z</time>
      </trkpt>
      <trkpt lat="47.01967" lon="-1.7558">
        <ele>70</ele>
        <time>2021-03-28T13:27:17.000Z</time>
      </trkpt>
      <trkpt lat="47.01976" lon="-1.75564">
        <ele>69</ele>
        <time>2021-03-28T13:27:19.000Z</time>
      </trkpt>
      <trkpt lat="47.01985" lon="-1.75547">
        <ele>70</ele>
        <time>2021-03-28T13:27:21.000Z</time>
      </trkpt>
      <trkpt lat="47.01994" lon="-1.75531">
        <ele>70</ele>
        <time>2021-03-28T13:27:23.000Z</time>
      </trkpt>
      <trkpt lat="47.02003" lon="-1.75516">
        <ele>70</ele>
        <time>2021-03-28T13:27:25.000Z</time>
      </trkpt>
      <trkpt lat="47.02016" lon="-1.75492">
        <ele>70</ele>
        <time>2021-03-28T13:27:28.000Z</time>
      </trkpt>
      <trkpt lat="47.02025" lon="-1.75476">
        <ele>70</ele>
        <time>2021-03-28T13:27:30.000Z</time>
      </trkpt>
      <trkpt lat="47.02034" lon="-1.7546">
        <ele>70</ele>
        <time>2021-03-28T13:27:32.000Z</time>
      </trkpt>
      <trkpt lat="47.02042" lon="-1.75444">
        <ele>70</ele>
        <time>2021-03-28T13:27:34.000Z</time>
      </trkpt>
      <trkpt lat="47.02049" lon="-1.75427">
        <ele>70</ele>
        <time>2021-03-28T13:27:36.000Z</time>
      </trkpt>
      <trkpt lat="47.02056" lon="-1.75408">
        <ele>70</ele>
        <time>2021-03-28T13:27:38.000Z</time>
      </trkpt>
      <trkpt lat="47.0206" lon="-1.75389">
        <ele>69</ele>
        <time>2021-03-28T13:27:40.000Z</time>
      </trkpt>
      <trkpt lat="47.02064" lon="-1.75369">
        <ele>69</ele>
        <time>2021-03-28T13:27:42.000Z</time>
      </trkpt>
      <trkpt lat="47.02068" lon="-1.75349">
        <ele>69</ele>
        <time>2021-03-28T13:27:44.000Z</time>
      </trkpt>
      <trkpt lat="47.02072" lon="-1.7533">
        <ele>69</ele>
        <time>2021-03-28T13:27:46.000Z</time>
      </trkpt>
      <trkpt lat="47.02075" lon="-1.75311">
        <ele>70</ele>
        <time>2021-03-28T13:27:48.000Z</time>
      </trkpt>
      <trkpt lat="47.02079" lon="-1.75292">
        <ele>69</ele>
        <time>2021-03-28T13:27:50.000Z</time>
      </trkpt>
      <trkpt lat="47.02083" lon="-1.75272">
        <ele>70</ele>
        <time>2021-03-28T13:27:52.000Z</time>
      </trkpt>
      <trkpt lat="47.02087" lon="-1.75252">
        <ele>70</ele>
        <time>2021-03-28T13:27:54.000Z</time>
      </trkpt>
      <trkpt lat="47.0209" lon="-1.75232">
        <ele>69</ele>
        <time>2021-03-28T13:27:56.000Z</time>
      </trkpt>
      <trkpt lat="47.02094" lon="-1.75212">
        <ele>69</ele>
        <time>2021-03-28T13:27:58.000Z</time>
      </trkpt>
      <trkpt lat="47.021" lon="-1.75183">
        <ele>69</ele>
        <time>2021-03-28T13:28:01.000Z</time>
      </trkpt>
      <trkpt lat="47.02103" lon="-1.75163">
        <ele>69</ele>
        <time>2021-03-28T13:28:03.000Z</time>
      </trkpt>
      <trkpt lat="47.02107" lon="-1.75143">
        <ele>69</ele>
        <time>2021-03-28T13:28:05.000Z</time>
      </trkpt>
      <trkpt lat="47.02111" lon="-1.75124">
        <ele>69</ele>
        <time>2021-03-28T13:28:07.000Z</time>
      </trkpt>
      <trkpt lat="47.02114" lon="-1.75105">
        <ele>69</ele>
        <time>2021-03-28T13:28:09.000Z</time>
      </trkpt>
      <trkpt lat="47.02117" lon="-1.75087">
        <ele>69</ele>
        <time>2021-03-28T13:28:11.000Z</time>
      </trkpt>
      <trkpt lat="47.02121" lon="-1.75068">
        <ele>69</ele>
        <time>2021-03-28T13:28:13.000Z</time>
      </trkpt>
      <trkpt lat="47.02124" lon="-1.75049">
        <ele>69</ele>
        <time>2021-03-28T13:28:15.000Z</time>
      </trkpt>
      <trkpt lat="47.02127" lon="-1.7503">
        <ele>69</ele>
        <time>2021-03-28T13:28:17.000Z</time>
      </trkpt>
      <trkpt lat="47.02131" lon="-1.75011">
        <ele>69</ele>
        <time>2021-03-28T13:28:19.000Z</time>
      </trkpt>
      <trkpt lat="47.02134" lon="-1.74992">
        <ele>69</ele>
        <time>2021-03-28T13:28:21.000Z</time>
      </trkpt>
      <trkpt lat="47.02137" lon="-1.74973">
        <ele>69</ele>
        <time>2021-03-28T13:28:23.000Z</time>
      </trkpt>
      <trkpt lat="47.0214" lon="-1.74953">
        <ele>69</ele>
        <time>2021-03-28T13:28:25.000Z</time>
      </trkpt>
      <trkpt lat="47.02143" lon="-1.74934">
        <ele>69</ele>
        <time>2021-03-28T13:28:27.000Z</time>
      </trkpt>
      <trkpt lat="47.02146" lon="-1.74914">
        <ele>70</ele>
        <time>2021-03-28T13:28:29.000Z</time>
      </trkpt>
      <trkpt lat="47.0215" lon="-1.74895">
        <ele>69</ele>
        <time>2021-03-28T13:28:31.000Z</time>
      </trkpt>
      <trkpt lat="47.02154" lon="-1.74875">
        <ele>69</ele>
        <time>2021-03-28T13:28:33.000Z</time>
      </trkpt>
      <trkpt lat="47.02157" lon="-1.74856">
        <ele>69</ele>
        <time>2021-03-28T13:28:35.000Z</time>
      </trkpt>
      <trkpt lat="47.0216" lon="-1.74837">
        <ele>69</ele>
        <time>2021-03-28T13:28:37.000Z</time>
      </trkpt>
      <trkpt lat="47.02165" lon="-1.7481">
        <ele>69</ele>
        <time>2021-03-28T13:28:40.000Z</time>
      </trkpt>
      <trkpt lat="47.0217" lon="-1.74783">
        <ele>69</ele>
        <time>2021-03-28T13:28:43.000Z</time>
      </trkpt>
      <trkpt lat="47.02172" lon="-1.74765">
        <ele>69</ele>
        <time>2021-03-28T13:28:45.000Z</time>
      </trkpt>
      <trkpt lat="47.02175" lon="-1.74746">
        <ele>69</ele>
        <time>2021-03-28T13:28:47.000Z</time>
      </trkpt>
      <trkpt lat="47.02179" lon="-1.74726">
        <ele>70</ele>
        <time>2021-03-28T13:28:49.000Z</time>
      </trkpt>
      <trkpt lat="47.02182" lon="-1.74708">
        <ele>70</ele>
        <time>2021-03-28T13:28:51.000Z</time>
      </trkpt>
      <trkpt lat="47.02185" lon="-1.74689">
        <ele>70</ele>
        <time>2021-03-28T13:28:53.000Z</time>
      </trkpt>
      <trkpt lat="47.02188" lon="-1.7467">
        <ele>71</ele>
        <time>2021-03-28T13:28:55.000Z</time>
      </trkpt>
      <trkpt lat="47.02191" lon="-1.74651">
        <ele>70</ele>
        <time>2021-03-28T13:28:57.000Z</time>
      </trkpt>
      <trkpt lat="47.02194" lon="-1.74632">
        <ele>70</ele>
        <time>2021-03-28T13:28:59.000Z</time>
      </trkpt>
      <trkpt lat="47.02197" lon="-1.74613">
        <ele>70</ele>
        <time>2021-03-28T13:29:01.000Z</time>
      </trkpt>
      <trkpt lat="47.022" lon="-1.74593">
        <ele>71</ele>
        <time>2021-03-28T13:29:03.000Z</time>
      </trkpt>
      <trkpt lat="47.02204" lon="-1.74573">
        <ele>71</ele>
        <time>2021-03-28T13:29:05.000Z</time>
      </trkpt>
      <trkpt lat="47.02206" lon="-1.74554">
        <ele>71</ele>
        <time>2021-03-28T13:29:07.000Z</time>
      </trkpt>
      <trkpt lat="47.02208" lon="-1.74536">
        <ele>72</ele>
        <time>2021-03-28T13:29:09.000Z</time>
      </trkpt>
      <trkpt lat="47.0221" lon="-1.74517">
        <ele>72</ele>
        <time>2021-03-28T13:29:11.000Z</time>
      </trkpt>
      <trkpt lat="47.02213" lon="-1.74497">
        <ele>72</ele>
        <time>2021-03-28T13:29:13.000Z</time>
      </trkpt>
      <trkpt lat="47.02215" lon="-1.74478">
        <ele>72</ele>
        <time>2021-03-28T13:29:15.000Z</time>
      </trkpt>
      <trkpt lat="47.02217" lon="-1.74459">
        <ele>73</ele>
        <time>2021-03-28T13:29:17.000Z</time>
      </trkpt>
      <trkpt lat="47.02221" lon="-1.74439">
        <ele>72</ele>
        <time>2021-03-28T13:29:19.000Z</time>
      </trkpt>
      <trkpt lat="47.02223" lon="-1.74421">
        <ele>73</ele>
        <time>2021-03-28T13:29:21.000Z</time>
      </trkpt>
      <trkpt lat="47.02225" lon="-1.74403">
        <ele>73</ele>
        <time>2021-03-28T13:29:23.000Z</time>
      </trkpt>
      <trkpt lat="47.02227" lon="-1.74386">
        <ele>72</ele>
        <time>2021-03-28T13:29:25.000Z</time>
      </trkpt>
      <trkpt lat="47.02229" lon="-1.74367">
        <ele>72</ele>
        <time>2021-03-28T13:29:27.000Z</time>
      </trkpt>
      <trkpt lat="47.02232" lon="-1.74347">
        <ele>72</ele>
        <time>2021-03-28T13:29:29.000Z</time>
      </trkpt>
      <trkpt lat="47.02235" lon="-1.74327">
        <ele>72</ele>
        <time>2021-03-28T13:29:31.000Z</time>
      </trkpt>
      <trkpt lat="47.02238" lon="-1.74307">
        <ele>72</ele>
        <time>2021-03-28T13:29:33.000Z</time>
      </trkpt>
      <trkpt lat="47.02241" lon="-1.74288">
        <ele>72</ele>
        <time>2021-03-28T13:29:35.000Z</time>
      </trkpt>
      <trkpt lat="47.02244" lon="-1.74269">
        <ele>71</ele>
        <time>2021-03-28T13:29:37.000Z</time>
      </trkpt>
      <trkpt lat="47.02247" lon="-1.74248">
        <ele>71</ele>
        <time>2021-03-28T13:29:39.000Z</time>
      </trkpt>
      <trkpt lat="47.02251" lon="-1.74229">
        <ele>72</ele>
        <time>2021-03-28T13:29:41.000Z</time>
      </trkpt>
      <trkpt lat="47.02254" lon="-1.74209">
        <ele>72</ele>
        <time>2021-03-28T13:29:43.000Z</time>
      </trkpt>
      <trkpt lat="47.02257" lon="-1.7419">
        <ele>72</ele>
        <time>2021-03-28T13:29:45.000Z</time>
      </trkpt>
      <trkpt lat="47.0226" lon="-1.7417">
        <ele>73</ele>
        <time>2021-03-28T13:29:47.000Z</time>
      </trkpt>
      <trkpt lat="47.02264" lon="-1.7415">
        <ele>74</ele>
        <time>2021-03-28T13:29:49.000Z</time>
      </trkpt>
      <trkpt lat="47.02268" lon="-1.74131">
        <ele>74</ele>
        <time>2021-03-28T13:29:51.000Z</time>
      </trkpt>
      <trkpt lat="47.02272" lon="-1.74111">
        <ele>74</ele>
        <time>2021-03-28T13:29:53.000Z</time>
      </trkpt>
      <trkpt lat="47.02275" lon="-1.74093">
        <ele>74</ele>
        <time>2021-03-28T13:29:55.000Z</time>
      </trkpt>
      <trkpt lat="47.02278" lon="-1.74074">
        <ele>74</ele>
        <time>2021-03-28T13:29:57.000Z</time>
      </trkpt>
      <trkpt lat="47.02279" lon="-1.74055">
        <ele>74</ele>
        <time>2021-03-28T13:29:59.000Z</time>
      </trkpt>
      <trkpt lat="47.0228" lon="-1.74036">
        <ele>74</ele>
        <time>2021-03-28T13:30:01.000Z</time>
      </trkpt>
      <trkpt lat="47.0228" lon="-1.74017">
        <ele>74</ele>
        <time>2021-03-28T13:30:03.000Z</time>
      </trkpt>
      <trkpt lat="47.0228" lon="-1.73997">
        <ele>75</ele>
        <time>2021-03-28T13:30:05.000Z</time>
      </trkpt>
      <trkpt lat="47.02278" lon="-1.73977">
        <ele>75</ele>
        <time>2021-03-28T13:30:07.000Z</time>
      </trkpt>
      <trkpt lat="47.02277" lon="-1.73958">
        <ele>75</ele>
        <time>2021-03-28T13:30:09.000Z</time>
      </trkpt>
      <trkpt lat="47.02276" lon="-1.73938">
        <ele>75</ele>
        <time>2021-03-28T13:30:11.000Z</time>
      </trkpt>
      <trkpt lat="47.02275" lon="-1.73909">
        <ele>75</ele>
        <time>2021-03-28T13:30:14.000Z</time>
      </trkpt>
      <trkpt lat="47.02274" lon="-1.73889">
        <ele>75</ele>
        <time>2021-03-28T13:30:16.000Z</time>
      </trkpt>
      <trkpt lat="47.02274" lon="-1.73868">
        <ele>74</ele>
        <time>2021-03-28T13:30:18.000Z</time>
      </trkpt>
      <trkpt lat="47.02274" lon="-1.73849">
        <ele>74</ele>
        <time>2021-03-28T13:30:20.000Z</time>
      </trkpt>
      <trkpt lat="47.02273" lon="-1.7383">
        <ele>73</ele>
        <time>2021-03-28T13:30:22.000Z</time>
      </trkpt>
      <trkpt lat="47.02273" lon="-1.73812">
        <ele>72</ele>
        <time>2021-03-28T13:30:24.000Z</time>
      </trkpt>
      <trkpt lat="47.02273" lon="-1.73795">
        <ele>72</ele>
        <time>2021-03-28T13:30:26.000Z</time>
      </trkpt>
      <trkpt lat="47.02272" lon="-1.73778">
        <ele>71</ele>
        <time>2021-03-28T13:30:28.000Z</time>
      </trkpt>
      <trkpt lat="47.02272" lon="-1.73762">
        <ele>71</ele>
        <time>2021-03-28T13:30:30.000Z</time>
      </trkpt>
      <trkpt lat="47.02276" lon="-1.73746">
        <ele>71</ele>
        <time>2021-03-28T13:30:33.000Z</time>
      </trkpt>
      <trkpt lat="47.02286" lon="-1.73741">
        <ele>71</ele>
        <time>2021-03-28T13:30:35.000Z</time>
      </trkpt>
      <trkpt lat="47.02298" lon="-1.7374">
        <ele>71</ele>
        <time>2021-03-28T13:30:37.000Z</time>
      </trkpt>
      <trkpt lat="47.0231" lon="-1.73738">
        <ele>71</ele>
        <time>2021-03-28T13:30:39.000Z</time>
      </trkpt>
      <trkpt lat="47.02323" lon="-1.73736">
        <ele>71</ele>
        <time>2021-03-28T13:30:41.000Z</time>
      </trkpt>
      <trkpt lat="47.02336" lon="-1.73734">
        <ele>71</ele>
        <time>2021-03-28T13:30:43.000Z</time>
      </trkpt>
      <trkpt lat="47.0235" lon="-1.73731">
        <ele>71</ele>
        <time>2021-03-28T13:30:45.000Z</time>
      </trkpt>
      <trkpt lat="47.02363" lon="-1.7373">
        <ele>71</ele>
        <time>2021-03-28T13:30:47.000Z</time>
      </trkpt>
      <trkpt lat="47.02376" lon="-1.73727">
        <ele>71</ele>
        <time>2021-03-28T13:30:49.000Z</time>
      </trkpt>
      <trkpt lat="47.02388" lon="-1.73725">
        <ele>71</ele>
        <time>2021-03-28T13:30:51.000Z</time>
      </trkpt>
      <trkpt lat="47.02401" lon="-1.73722">
        <ele>72</ele>
        <time>2021-03-28T13:30:53.000Z</time>
      </trkpt>
      <trkpt lat="47.02414" lon="-1.7372">
        <ele>72</ele>
        <time>2021-03-28T13:30:55.000Z</time>
      </trkpt>
      <trkpt lat="47.02426" lon="-1.73717">
        <ele>72</ele>
        <time>2021-03-28T13:30:57.000Z</time>
      </trkpt>
      <trkpt lat="47.02439" lon="-1.73715">
        <ele>72</ele>
        <time>2021-03-28T13:30:59.000Z</time>
      </trkpt>
      <trkpt lat="47.02451" lon="-1.73712">
        <ele>73</ele>
        <time>2021-03-28T13:31:01.000Z</time>
      </trkpt>
      <trkpt lat="47.02463" lon="-1.73709">
        <ele>73</ele>
        <time>2021-03-28T13:31:03.000Z</time>
      </trkpt>
      <trkpt lat="47.02475" lon="-1.73706">
        <ele>74</ele>
        <time>2021-03-28T13:31:05.000Z</time>
      </trkpt>
      <trkpt lat="47.02488" lon="-1.73703">
        <ele>75</ele>
        <time>2021-03-28T13:31:07.000Z</time>
      </trkpt>
      <trkpt lat="47.025" lon="-1.73701">
        <ele>75</ele>
        <time>2021-03-28T13:31:09.000Z</time>
      </trkpt>
      <trkpt lat="47.02513" lon="-1.73699">
        <ele>76</ele>
        <time>2021-03-28T13:31:11.000Z</time>
      </trkpt>
      <trkpt lat="47.02527" lon="-1.73697">
        <ele>77</ele>
        <time>2021-03-28T13:31:13.000Z</time>
      </trkpt>
      <trkpt lat="47.0254" lon="-1.73695">
        <ele>77</ele>
        <time>2021-03-28T13:31:15.000Z</time>
      </trkpt>
      <trkpt lat="47.02553" lon="-1.73693">
        <ele>77</ele>
        <time>2021-03-28T13:31:17.000Z</time>
      </trkpt>
      <trkpt lat="47.02565" lon="-1.73691">
        <ele>78</ele>
        <time>2021-03-28T13:31:19.000Z</time>
      </trkpt>
      <trkpt lat="47.02577" lon="-1.73689">
        <ele>78</ele>
        <time>2021-03-28T13:31:21.000Z</time>
      </trkpt>
      <trkpt lat="47.02589" lon="-1.73687">
        <ele>78</ele>
        <time>2021-03-28T13:31:23.000Z</time>
      </trkpt>
      <trkpt lat="47.02601" lon="-1.73684">
        <ele>78</ele>
        <time>2021-03-28T13:31:25.000Z</time>
      </trkpt>
      <trkpt lat="47.02614" lon="-1.73682">
        <ele>78</ele>
        <time>2021-03-28T13:31:27.000Z</time>
      </trkpt>
      <trkpt lat="47.02626" lon="-1.7368">
        <ele>78</ele>
        <time>2021-03-28T13:31:29.000Z</time>
      </trkpt>
      <trkpt lat="47.02638" lon="-1.73677">
        <ele>78</ele>
        <time>2021-03-28T13:31:31.000Z</time>
      </trkpt>
      <trkpt lat="47.0265" lon="-1.73675">
        <ele>78</ele>
        <time>2021-03-28T13:31:33.000Z</time>
      </trkpt>
      <trkpt lat="47.02661" lon="-1.73672">
        <ele>78</ele>
        <time>2021-03-28T13:31:35.000Z</time>
      </trkpt>
      <trkpt lat="47.02673" lon="-1.7367">
        <ele>79</ele>
        <time>2021-03-28T13:31:37.000Z</time>
      </trkpt>
      <trkpt lat="47.02685" lon="-1.73668">
        <ele>79</ele>
        <time>2021-03-28T13:31:39.000Z</time>
      </trkpt>
      <trkpt lat="47.02697" lon="-1.73665">
        <ele>80</ele>
        <time>2021-03-28T13:31:41.000Z</time>
      </trkpt>
      <trkpt lat="47.02709" lon="-1.73663">
        <ele>80</ele>
        <time>2021-03-28T13:31:43.000Z</time>
      </trkpt>
      <trkpt lat="47.02721" lon="-1.73659">
        <ele>80</ele>
        <time>2021-03-28T13:31:45.000Z</time>
      </trkpt>
      <trkpt lat="47.02733" lon="-1.73656">
        <ele>80</ele>
        <time>2021-03-28T13:31:47.000Z</time>
      </trkpt>
      <trkpt lat="47.02744" lon="-1.73653">
        <ele>81</ele>
        <time>2021-03-28T13:31:49.000Z</time>
      </trkpt>
      <trkpt lat="47.02756" lon="-1.73652">
        <ele>80</ele>
        <time>2021-03-28T13:31:51.000Z</time>
      </trkpt>
      <trkpt lat="47.02769" lon="-1.73651">
        <ele>80</ele>
        <time>2021-03-28T13:31:53.000Z</time>
      </trkpt>
      <trkpt lat="47.02781" lon="-1.73649">
        <ele>79</ele>
        <time>2021-03-28T13:31:55.000Z</time>
      </trkpt>
      <trkpt lat="47.02794" lon="-1.73647">
        <ele>79</ele>
        <time>2021-03-28T13:31:57.000Z</time>
      </trkpt>
      <trkpt lat="47.02805" lon="-1.73645">
        <ele>78</ele>
        <time>2021-03-28T13:31:59.000Z</time>
      </trkpt>
      <trkpt lat="47.02817" lon="-1.73643">
        <ele>78</ele>
        <time>2021-03-28T13:32:01.000Z</time>
      </trkpt>
      <trkpt lat="47.02828" lon="-1.7364">
        <ele>79</ele>
        <time>2021-03-28T13:32:03.000Z</time>
      </trkpt>
      <trkpt lat="47.02841" lon="-1.73639">
        <ele>78</ele>
        <time>2021-03-28T13:32:05.000Z</time>
      </trkpt>
      <trkpt lat="47.02853" lon="-1.73636">
        <ele>78</ele>
        <time>2021-03-28T13:32:07.000Z</time>
      </trkpt>
      <trkpt lat="47.02865" lon="-1.73634">
        <ele>78</ele>
        <time>2021-03-28T13:32:09.000Z</time>
      </trkpt>
      <trkpt lat="47.02877" lon="-1.73631">
        <ele>78</ele>
        <time>2021-03-28T13:32:11.000Z</time>
      </trkpt>
      <trkpt lat="47.02889" lon="-1.73629">
        <ele>78</ele>
        <time>2021-03-28T13:32:13.000Z</time>
      </trkpt>
      <trkpt lat="47.02901" lon="-1.73626">
        <ele>79</ele>
        <time>2021-03-28T13:32:15.000Z</time>
      </trkpt>
      <trkpt lat="47.02913" lon="-1.73624">
        <ele>79</ele>
        <time>2021-03-28T13:32:17.000Z</time>
      </trkpt>
      <trkpt lat="47.02925" lon="-1.73622">
        <ele>79</ele>
        <time>2021-03-28T13:32:19.000Z</time>
      </trkpt>
      <trkpt lat="47.02937" lon="-1.7362">
        <ele>79</ele>
        <time>2021-03-28T13:32:21.000Z</time>
      </trkpt>
      <trkpt lat="47.02949" lon="-1.73617">
        <ele>79</ele>
        <time>2021-03-28T13:32:23.000Z</time>
      </trkpt>
      <trkpt lat="47.02961" lon="-1.73615">
        <ele>79</ele>
        <time>2021-03-28T13:32:25.000Z</time>
      </trkpt>
      <trkpt lat="47.02974" lon="-1.73612">
        <ele>79</ele>
        <time>2021-03-28T13:32:27.000Z</time>
      </trkpt>
      <trkpt lat="47.02986" lon="-1.7361">
        <ele>80</ele>
        <time>2021-03-28T13:32:29.000Z</time>
      </trkpt>
      <trkpt lat="47.02998" lon="-1.73608">
        <ele>80</ele>
        <time>2021-03-28T13:32:31.000Z</time>
      </trkpt>
      <trkpt lat="47.0301" lon="-1.73606">
        <ele>80</ele>
        <time>2021-03-28T13:32:33.000Z</time>
      </trkpt>
      <trkpt lat="47.03022" lon="-1.73603">
        <ele>80</ele>
        <time>2021-03-28T13:32:35.000Z</time>
      </trkpt>
      <trkpt lat="47.03035" lon="-1.73601">
        <ele>80</ele>
        <time>2021-03-28T13:32:37.000Z</time>
      </trkpt>
      <trkpt lat="47.03047" lon="-1.73598">
        <ele>80</ele>
        <time>2021-03-28T13:32:39.000Z</time>
      </trkpt>
      <trkpt lat="47.03059" lon="-1.73596">
        <ele>80</ele>
        <time>2021-03-28T13:32:41.000Z</time>
      </trkpt>
      <trkpt lat="47.03078" lon="-1.73592">
        <ele>79</ele>
        <time>2021-03-28T13:32:44.000Z</time>
      </trkpt>
      <trkpt lat="47.0309" lon="-1.7359">
        <ele>79</ele>
        <time>2021-03-28T13:32:46.000Z</time>
      </trkpt>
      <trkpt lat="47.03102" lon="-1.73588">
        <ele>79</ele>
        <time>2021-03-28T13:32:48.000Z</time>
      </trkpt>
      <trkpt lat="47.03115" lon="-1.73585">
        <ele>79</ele>
        <time>2021-03-28T13:32:50.000Z</time>
      </trkpt>
      <trkpt lat="47.03128" lon="-1.73583">
        <ele>79</ele>
        <time>2021-03-28T13:32:52.000Z</time>
      </trkpt>
      <trkpt lat="47.03141" lon="-1.73581">
        <ele>78</ele>
        <time>2021-03-28T13:32:54.000Z</time>
      </trkpt>
      <trkpt lat="47.03154" lon="-1.7358">
        <ele>79</ele>
        <time>2021-03-28T13:32:56.000Z</time>
      </trkpt>
      <trkpt lat="47.03166" lon="-1.7358">
        <ele>79</ele>
        <time>2021-03-28T13:32:58.000Z</time>
      </trkpt>
      <trkpt lat="47.03179" lon="-1.73583">
        <ele>79</ele>
        <time>2021-03-28T13:33:00.000Z</time>
      </trkpt>
      <trkpt lat="47.03192" lon="-1.73586">
        <ele>78</ele>
        <time>2021-03-28T13:33:02.000Z</time>
      </trkpt>
      <trkpt lat="47.03205" lon="-1.73591">
        <ele>78</ele>
        <time>2021-03-28T13:33:04.000Z</time>
      </trkpt>
      <trkpt lat="47.03217" lon="-1.73597">
        <ele>78</ele>
        <time>2021-03-28T13:33:06.000Z</time>
      </trkpt>
      <trkpt lat="47.0323" lon="-1.73604">
        <ele>78</ele>
        <time>2021-03-28T13:33:08.000Z</time>
      </trkpt>
      <trkpt lat="47.03243" lon="-1.73611">
        <ele>77</ele>
        <time>2021-03-28T13:33:10.000Z</time>
      </trkpt>
      <trkpt lat="47.03256" lon="-1.73619">
        <ele>77</ele>
        <time>2021-03-28T13:33:12.000Z</time>
      </trkpt>
      <trkpt lat="47.03269" lon="-1.73626">
        <ele>77</ele>
        <time>2021-03-28T13:33:14.000Z</time>
      </trkpt>
      <trkpt lat="47.03283" lon="-1.73633">
        <ele>77</ele>
        <time>2021-03-28T13:33:16.000Z</time>
      </trkpt>
      <trkpt lat="47.03296" lon="-1.73641">
        <ele>77</ele>
        <time>2021-03-28T13:33:18.000Z</time>
      </trkpt>
      <trkpt lat="47.03309" lon="-1.73649">
        <ele>76</ele>
        <time>2021-03-28T13:33:20.000Z</time>
      </trkpt>
      <trkpt lat="47.03323" lon="-1.73657">
        <ele>76</ele>
        <time>2021-03-28T13:33:22.000Z</time>
      </trkpt>
      <trkpt lat="47.03336" lon="-1.73664">
        <ele>77</ele>
        <time>2021-03-28T13:33:24.000Z</time>
      </trkpt>
      <trkpt lat="47.0335" lon="-1.73673">
        <ele>77</ele>
        <time>2021-03-28T13:33:26.000Z</time>
      </trkpt>
      <trkpt lat="47.03364" lon="-1.73681">
        <ele>77</ele>
        <time>2021-03-28T13:33:28.000Z</time>
      </trkpt>
      <trkpt lat="47.03379" lon="-1.73689">
        <ele>76</ele>
        <time>2021-03-28T13:33:30.000Z</time>
      </trkpt>
      <trkpt lat="47.03393" lon="-1.73698">
        <ele>76</ele>
        <time>2021-03-28T13:33:32.000Z</time>
      </trkpt>
      <trkpt lat="47.03406" lon="-1.73706">
        <ele>76</ele>
        <time>2021-03-28T13:33:34.000Z</time>
      </trkpt>
      <trkpt lat="47.03421" lon="-1.73714">
        <ele>76</ele>
        <time>2021-03-28T13:33:36.000Z</time>
      </trkpt>
      <trkpt lat="47.03435" lon="-1.73721">
        <ele>76</ele>
        <time>2021-03-28T13:33:38.000Z</time>
      </trkpt>
      <trkpt lat="47.03449" lon="-1.73728">
        <ele>76</ele>
        <time>2021-03-28T13:33:40.000Z</time>
      </trkpt>
      <trkpt lat="47.03462" lon="-1.73735">
        <ele>76</ele>
        <time>2021-03-28T13:33:42.000Z</time>
      </trkpt>
      <trkpt lat="47.03476" lon="-1.73741">
        <ele>75</ele>
        <time>2021-03-28T13:33:44.000Z</time>
      </trkpt>
      <trkpt lat="47.03491" lon="-1.73746">
        <ele>75</ele>
        <time>2021-03-28T13:33:46.000Z</time>
      </trkpt>
      <trkpt lat="47.03504" lon="-1.73752">
        <ele>75</ele>
        <time>2021-03-28T13:33:48.000Z</time>
      </trkpt>
      <trkpt lat="47.03518" lon="-1.73757">
        <ele>74</ele>
        <time>2021-03-28T13:33:50.000Z</time>
      </trkpt>
      <trkpt lat="47.03532" lon="-1.73762">
        <ele>74</ele>
        <time>2021-03-28T13:33:52.000Z</time>
      </trkpt>
      <trkpt lat="47.03546" lon="-1.73767">
        <ele>75</ele>
        <time>2021-03-28T13:33:54.000Z</time>
      </trkpt>
      <trkpt lat="47.0356" lon="-1.73772">
        <ele>74</ele>
        <time>2021-03-28T13:33:56.000Z</time>
      </trkpt>
      <trkpt lat="47.03574" lon="-1.73777">
        <ele>74</ele>
        <time>2021-03-28T13:33:58.000Z</time>
      </trkpt>
      <trkpt lat="47.03589" lon="-1.73783">
        <ele>74</ele>
        <time>2021-03-28T13:34:00.000Z</time>
      </trkpt>
      <trkpt lat="47.03603" lon="-1.73789">
        <ele>73</ele>
        <time>2021-03-28T13:34:02.000Z</time>
      </trkpt>
      <trkpt lat="47.03617" lon="-1.73795">
        <ele>73</ele>
        <time>2021-03-28T13:34:04.000Z</time>
      </trkpt>
      <trkpt lat="47.03631" lon="-1.73801">
        <ele>73</ele>
        <time>2021-03-28T13:34:06.000Z</time>
      </trkpt>
      <trkpt lat="47.03646" lon="-1.73806">
        <ele>72</ele>
        <time>2021-03-28T13:34:08.000Z</time>
      </trkpt>
      <trkpt lat="47.03661" lon="-1.73811">
        <ele>72</ele>
        <time>2021-03-28T13:34:10.000Z</time>
      </trkpt>
      <trkpt lat="47.03676" lon="-1.73814">
        <ele>72</ele>
        <time>2021-03-28T13:34:12.000Z</time>
      </trkpt>
      <trkpt lat="47.03691" lon="-1.73815">
        <ele>72</ele>
        <time>2021-03-28T13:34:14.000Z</time>
      </trkpt>
      <trkpt lat="47.03705" lon="-1.73814">
        <ele>72</ele>
        <time>2021-03-28T13:34:16.000Z</time>
      </trkpt>
      <trkpt lat="47.0372" lon="-1.73811">
        <ele>72</ele>
        <time>2021-03-28T13:34:18.000Z</time>
      </trkpt>
      <trkpt lat="47.03734" lon="-1.73809">
        <ele>73</ele>
        <time>2021-03-28T13:34:20.000Z</time>
      </trkpt>
      <trkpt lat="47.03748" lon="-1.73808">
        <ele>73</ele>
        <time>2021-03-28T13:34:22.000Z</time>
      </trkpt>
      <trkpt lat="47.03762" lon="-1.73806">
        <ele>74</ele>
        <time>2021-03-28T13:34:24.000Z</time>
      </trkpt>
      <trkpt lat="47.03776" lon="-1.73804">
        <ele>74</ele>
        <time>2021-03-28T13:34:26.000Z</time>
      </trkpt>
      <trkpt lat="47.0379" lon="-1.73802">
        <ele>74</ele>
        <time>2021-03-28T13:34:28.000Z</time>
      </trkpt>
      <trkpt lat="47.03803" lon="-1.73801">
        <ele>74</ele>
        <time>2021-03-28T13:34:30.000Z</time>
      </trkpt>
      <trkpt lat="47.03817" lon="-1.73799">
        <ele>74</ele>
        <time>2021-03-28T13:34:32.000Z</time>
      </trkpt>
      <trkpt lat="47.03831" lon="-1.73797">
        <ele>74</ele>
        <time>2021-03-28T13:34:34.000Z</time>
      </trkpt>
      <trkpt lat="47.03844" lon="-1.73793">
        <ele>74</ele>
        <time>2021-03-28T13:34:36.000Z</time>
      </trkpt>
      <trkpt lat="47.03856" lon="-1.73789">
        <ele>75</ele>
        <time>2021-03-28T13:34:38.000Z</time>
      </trkpt>
      <trkpt lat="47.03869" lon="-1.73783">
        <ele>75</ele>
        <time>2021-03-28T13:34:40.000Z</time>
      </trkpt>
      <trkpt lat="47.0388" lon="-1.73777">
        <ele>75</ele>
        <time>2021-03-28T13:34:42.000Z</time>
      </trkpt>
      <trkpt lat="47.03891" lon="-1.73769">
        <ele>75</ele>
        <time>2021-03-28T13:34:44.000Z</time>
      </trkpt>
      <trkpt lat="47.03902" lon="-1.73762">
        <ele>75</ele>
        <time>2021-03-28T13:34:46.000Z</time>
      </trkpt>
      <trkpt lat="47.03912" lon="-1.73752">
        <ele>76</ele>
        <time>2021-03-28T13:34:48.000Z</time>
      </trkpt>
      <trkpt lat="47.03922" lon="-1.73743">
        <ele>76</ele>
        <time>2021-03-28T13:34:50.000Z</time>
      </trkpt>
      <trkpt lat="47.03932" lon="-1.73733">
        <ele>76</ele>
        <time>2021-03-28T13:34:52.000Z</time>
      </trkpt>
      <trkpt lat="47.03942" lon="-1.73723">
        <ele>76</ele>
        <time>2021-03-28T13:34:54.000Z</time>
      </trkpt>
      <trkpt lat="47.03952" lon="-1.73713">
        <ele>77</ele>
        <time>2021-03-28T13:34:56.000Z</time>
      </trkpt>
      <trkpt lat="47.03962" lon="-1.73703">
        <ele>77</ele>
        <time>2021-03-28T13:34:58.000Z</time>
      </trkpt>
      <trkpt lat="47.03972" lon="-1.73693">
        <ele>77</ele>
        <time>2021-03-28T13:35:00.000Z</time>
      </trkpt>
      <trkpt lat="47.03981" lon="-1.73684">
        <ele>77</ele>
        <time>2021-03-28T13:35:02.000Z</time>
      </trkpt>
      <trkpt lat="47.03991" lon="-1.73674">
        <ele>77</ele>
        <time>2021-03-28T13:35:04.000Z</time>
      </trkpt>
      <trkpt lat="47.04001" lon="-1.73664">
        <ele>77</ele>
        <time>2021-03-28T13:35:06.000Z</time>
      </trkpt>
      <trkpt lat="47.0401" lon="-1.73655">
        <ele>77</ele>
        <time>2021-03-28T13:35:08.000Z</time>
      </trkpt>
      <trkpt lat="47.0402" lon="-1.73645">
        <ele>77</ele>
        <time>2021-03-28T13:35:10.000Z</time>
      </trkpt>
      <trkpt lat="47.0403" lon="-1.73635">
        <ele>77</ele>
        <time>2021-03-28T13:35:12.000Z</time>
      </trkpt>
      <trkpt lat="47.0404" lon="-1.73625">
        <ele>77</ele>
        <time>2021-03-28T13:35:14.000Z</time>
      </trkpt>
      <trkpt lat="47.04051" lon="-1.73615">
        <ele>76</ele>
        <time>2021-03-28T13:35:16.000Z</time>
      </trkpt>
      <trkpt lat="47.0406" lon="-1.73605">
        <ele>77</ele>
        <time>2021-03-28T13:35:18.000Z</time>
      </trkpt>
      <trkpt lat="47.0407" lon="-1.73595">
        <ele>77</ele>
        <time>2021-03-28T13:35:20.000Z</time>
      </trkpt>
      <trkpt lat="47.04081" lon="-1.73585">
        <ele>77</ele>
        <time>2021-03-28T13:35:22.000Z</time>
      </trkpt>
      <trkpt lat="47.04091" lon="-1.73575">
        <ele>78</ele>
        <time>2021-03-28T13:35:24.000Z</time>
      </trkpt>
      <trkpt lat="47.04101" lon="-1.73565">
        <ele>78</ele>
        <time>2021-03-28T13:35:26.000Z</time>
      </trkpt>
      <trkpt lat="47.04111" lon="-1.73555">
        <ele>78</ele>
        <time>2021-03-28T13:35:28.000Z</time>
      </trkpt>
      <trkpt lat="47.04121" lon="-1.73545">
        <ele>79</ele>
        <time>2021-03-28T13:35:30.000Z</time>
      </trkpt>
      <trkpt lat="47.0413" lon="-1.73535">
        <ele>79</ele>
        <time>2021-03-28T13:35:32.000Z</time>
      </trkpt>
      <trkpt lat="47.0414" lon="-1.73526">
        <ele>79</ele>
        <time>2021-03-28T13:35:34.000Z</time>
      </trkpt>
      <trkpt lat="47.0415" lon="-1.73515">
        <ele>79</ele>
        <time>2021-03-28T13:35:36.000Z</time>
      </trkpt>
      <trkpt lat="47.04159" lon="-1.73505">
        <ele>79</ele>
        <time>2021-03-28T13:35:38.000Z</time>
      </trkpt>
      <trkpt lat="47.0417" lon="-1.73495">
        <ele>79</ele>
        <time>2021-03-28T13:35:40.000Z</time>
      </trkpt>
      <trkpt lat="47.0418" lon="-1.73484">
        <ele>79</ele>
        <time>2021-03-28T13:35:42.000Z</time>
      </trkpt>
      <trkpt lat="47.0419" lon="-1.73475">
        <ele>80</ele>
        <time>2021-03-28T13:35:44.000Z</time>
      </trkpt>
      <trkpt lat="47.042" lon="-1.73465">
        <ele>80</ele>
        <time>2021-03-28T13:35:46.000Z</time>
      </trkpt>
      <trkpt lat="47.0421" lon="-1.73455">
        <ele>80</ele>
        <time>2021-03-28T13:35:48.000Z</time>
      </trkpt>
      <trkpt lat="47.0422" lon="-1.73445">
        <ele>80</ele>
        <time>2021-03-28T13:35:50.000Z</time>
      </trkpt>
      <trkpt lat="47.04231" lon="-1.73435">
        <ele>81</ele>
        <time>2021-03-28T13:35:52.000Z</time>
      </trkpt>
      <trkpt lat="47.04241" lon="-1.73426">
        <ele>81</ele>
        <time>2021-03-28T13:35:54.000Z</time>
      </trkpt>
      <trkpt lat="47.04251" lon="-1.73416">
        <ele>81</ele>
        <time>2021-03-28T13:35:56.000Z</time>
      </trkpt>
      <trkpt lat="47.04261" lon="-1.73406">
        <ele>82</ele>
        <time>2021-03-28T13:35:58.000Z</time>
      </trkpt>
      <trkpt lat="47.04272" lon="-1.73395">
        <ele>82</ele>
        <time>2021-03-28T13:36:00.000Z</time>
      </trkpt>
      <trkpt lat="47.04282" lon="-1.73385">
        <ele>82</ele>
        <time>2021-03-28T13:36:02.000Z</time>
      </trkpt>
      <trkpt lat="47.04292" lon="-1.73375">
        <ele>82</ele>
        <time>2021-03-28T13:36:04.000Z</time>
      </trkpt>
      <trkpt lat="47.04302" lon="-1.73365">
        <ele>82</ele>
        <time>2021-03-28T13:36:06.000Z</time>
      </trkpt>
      <trkpt lat="47.04312" lon="-1.73355">
        <ele>82</ele>
        <time>2021-03-28T13:36:08.000Z</time>
      </trkpt>
      <trkpt lat="47.04322" lon="-1.73344">
        <ele>82</ele>
        <time>2021-03-28T13:36:10.000Z</time>
      </trkpt>
      <trkpt lat="47.04332" lon="-1.73334">
        <ele>82</ele>
        <time>2021-03-28T13:36:12.000Z</time>
      </trkpt>
      <trkpt lat="47.04342" lon="-1.73324">
        <ele>82</ele>
        <time>2021-03-28T13:36:14.000Z</time>
      </trkpt>
      <trkpt lat="47.04353" lon="-1.73314">
        <ele>82</ele>
        <time>2021-03-28T13:36:16.000Z</time>
      </trkpt>
      <trkpt lat="47.04363" lon="-1.73303">
        <ele>83</ele>
        <time>2021-03-28T13:36:18.000Z</time>
      </trkpt>
      <trkpt lat="47.04373" lon="-1.73292">
        <ele>83</ele>
        <time>2021-03-28T13:36:20.000Z</time>
      </trkpt>
      <trkpt lat="47.04384" lon="-1.73281">
        <ele>83</ele>
        <time>2021-03-28T13:36:22.000Z</time>
      </trkpt>
      <trkpt lat="47.04393" lon="-1.73269">
        <ele>83</ele>
        <time>2021-03-28T13:36:24.000Z</time>
      </trkpt>
      <trkpt lat="47.04403" lon="-1.73256">
        <ele>83</ele>
        <time>2021-03-28T13:36:26.000Z</time>
      </trkpt>
      <trkpt lat="47.04412" lon="-1.73243">
        <ele>83</ele>
        <time>2021-03-28T13:36:28.000Z</time>
      </trkpt>
      <trkpt lat="47.04422" lon="-1.73231">
        <ele>83</ele>
        <time>2021-03-28T13:36:30.000Z</time>
      </trkpt>
      <trkpt lat="47.04432" lon="-1.73217">
        <ele>83</ele>
        <time>2021-03-28T13:36:32.000Z</time>
      </trkpt>
      <trkpt lat="47.04441" lon="-1.73204">
        <ele>83</ele>
        <time>2021-03-28T13:36:34.000Z</time>
      </trkpt>
      <trkpt lat="47.04451" lon="-1.73191">
        <ele>83</ele>
        <time>2021-03-28T13:36:36.000Z</time>
      </trkpt>
      <trkpt lat="47.04461" lon="-1.73177">
        <ele>83</ele>
        <time>2021-03-28T13:36:38.000Z</time>
      </trkpt>
      <trkpt lat="47.04471" lon="-1.73164">
        <ele>83</ele>
        <time>2021-03-28T13:36:40.000Z</time>
      </trkpt>
      <trkpt lat="47.0448" lon="-1.7315">
        <ele>84</ele>
        <time>2021-03-28T13:36:42.000Z</time>
      </trkpt>
      <trkpt lat="47.0449" lon="-1.73136">
        <ele>84</ele>
        <time>2021-03-28T13:36:44.000Z</time>
      </trkpt>
      <trkpt lat="47.045" lon="-1.73123">
        <ele>84</ele>
        <time>2021-03-28T13:36:46.000Z</time>
      </trkpt>
      <trkpt lat="47.0451" lon="-1.7311">
        <ele>84</ele>
        <time>2021-03-28T13:36:48.000Z</time>
      </trkpt>
      <trkpt lat="47.0452" lon="-1.73096">
        <ele>83</ele>
        <time>2021-03-28T13:36:50.000Z</time>
      </trkpt>
      <trkpt lat="47.04529" lon="-1.73083">
        <ele>84</ele>
        <time>2021-03-28T13:36:52.000Z</time>
      </trkpt>
      <trkpt lat="47.04539" lon="-1.73069">
        <ele>84</ele>
        <time>2021-03-28T13:36:54.000Z</time>
      </trkpt>
      <trkpt lat="47.04549" lon="-1.73055">
        <ele>84</ele>
        <time>2021-03-28T13:36:56.000Z</time>
      </trkpt>
      <trkpt lat="47.04559" lon="-1.73042">
        <ele>84</ele>
        <time>2021-03-28T13:36:58.000Z</time>
      </trkpt>
      <trkpt lat="47.04569" lon="-1.73028">
        <ele>84</ele>
        <time>2021-03-28T13:37:00.000Z</time>
      </trkpt>
      <trkpt lat="47.04579" lon="-1.73014">
        <ele>84</ele>
        <time>2021-03-28T13:37:02.000Z</time>
      </trkpt>
      <trkpt lat="47.04589" lon="-1.73001">
        <ele>84</ele>
        <time>2021-03-28T13:37:04.000Z</time>
      </trkpt>
      <trkpt lat="47.04599" lon="-1.72986">
        <ele>85</ele>
        <time>2021-03-28T13:37:06.000Z</time>
      </trkpt>
      <trkpt lat="47.04608" lon="-1.72973">
        <ele>85</ele>
        <time>2021-03-28T13:37:08.000Z</time>
      </trkpt>
      <trkpt lat="47.04618" lon="-1.72959">
        <ele>84</ele>
        <time>2021-03-28T13:37:10.000Z</time>
      </trkpt>
      <trkpt lat="47.04628" lon="-1.72946">
        <ele>84</ele>
        <time>2021-03-28T13:37:12.000Z</time>
      </trkpt>
      <trkpt lat="47.04638" lon="-1.72932">
        <ele>83</ele>
        <time>2021-03-28T13:37:14.000Z</time>
      </trkpt>
      <trkpt lat="47.04649" lon="-1.72917">
        <ele>83</ele>
        <time>2021-03-28T13:37:16.000Z</time>
      </trkpt>
      <trkpt lat="47.04659" lon="-1.72903">
        <ele>83</ele>
        <time>2021-03-28T13:37:18.000Z</time>
      </trkpt>
      <trkpt lat="47.0467" lon="-1.7289">
        <ele>82</ele>
        <time>2021-03-28T13:37:20.000Z</time>
      </trkpt>
      <trkpt lat="47.04683" lon="-1.72877">
        <ele>81</ele>
        <time>2021-03-28T13:37:22.000Z</time>
      </trkpt>
      <trkpt lat="47.04697" lon="-1.72866">
        <ele>80</ele>
        <time>2021-03-28T13:37:24.000Z</time>
      </trkpt>
      <trkpt lat="47.04711" lon="-1.72854">
        <ele>80</ele>
        <time>2021-03-28T13:37:26.000Z</time>
      </trkpt>
      <trkpt lat="47.04725" lon="-1.72843">
        <ele>80</ele>
        <time>2021-03-28T13:37:28.000Z</time>
      </trkpt>
      <trkpt lat="47.0474" lon="-1.72832">
        <ele>79</ele>
        <time>2021-03-28T13:37:30.000Z</time>
      </trkpt>
      <trkpt lat="47.04754" lon="-1.72822">
        <ele>78</ele>
        <time>2021-03-28T13:37:32.000Z</time>
      </trkpt>
      <trkpt lat="47.04769" lon="-1.72813">
        <ele>78</ele>
        <time>2021-03-28T13:37:34.000Z</time>
      </trkpt>
      <trkpt lat="47.04784" lon="-1.72807">
        <ele>77</ele>
        <time>2021-03-28T13:37:36.000Z</time>
      </trkpt>
      <trkpt lat="47.04796" lon="-1.72803">
        <ele>77</ele>
        <time>2021-03-28T13:37:38.000Z</time>
      </trkpt>
      <trkpt lat="47.04806" lon="-1.72806">
        <ele>77</ele>
        <time>2021-03-28T13:37:40.000Z</time>
      </trkpt>
      <trkpt lat="47.04811" lon="-1.7282">
        <ele>78</ele>
        <time>2021-03-28T13:37:42.000Z</time>
      </trkpt>
      <trkpt lat="47.04813" lon="-1.72839">
        <ele>78</ele>
        <time>2021-03-28T13:37:44.000Z</time>
      </trkpt>
      <trkpt lat="47.04817" lon="-1.72857">
        <ele>79</ele>
        <time>2021-03-28T13:37:46.000Z</time>
      </trkpt>
      <trkpt lat="47.04822" lon="-1.72875">
        <ele>80</ele>
        <time>2021-03-28T13:37:48.000Z</time>
      </trkpt>
      <trkpt lat="47.04828" lon="-1.72893">
        <ele>80</ele>
        <time>2021-03-28T13:37:50.000Z</time>
      </trkpt>
      <trkpt lat="47.04835" lon="-1.72912">
        <ele>80</ele>
        <time>2021-03-28T13:37:52.000Z</time>
      </trkpt>
      <trkpt lat="47.04842" lon="-1.72929">
        <ele>80</ele>
        <time>2021-03-28T13:37:54.000Z</time>
      </trkpt>
      <trkpt lat="47.04848" lon="-1.72947">
        <ele>80</ele>
        <time>2021-03-28T13:37:56.000Z</time>
      </trkpt>
      <trkpt lat="47.04855" lon="-1.72964">
        <ele>81</ele>
        <time>2021-03-28T13:37:58.000Z</time>
      </trkpt>
      <trkpt lat="47.04862" lon="-1.7298">
        <ele>81</ele>
        <time>2021-03-28T13:38:00.000Z</time>
      </trkpt>
      <trkpt lat="47.04869" lon="-1.72997">
        <ele>81</ele>
        <time>2021-03-28T13:38:02.000Z</time>
      </trkpt>
      <trkpt lat="47.04876" lon="-1.73014">
        <ele>81</ele>
        <time>2021-03-28T13:38:04.000Z</time>
      </trkpt>
      <trkpt lat="47.04883" lon="-1.7303">
        <ele>81</ele>
        <time>2021-03-28T13:38:06.000Z</time>
      </trkpt>
      <trkpt lat="47.04889" lon="-1.73046">
        <ele>81</ele>
        <time>2021-03-28T13:38:08.000Z</time>
      </trkpt>
      <trkpt lat="47.04896" lon="-1.73062">
        <ele>81</ele>
        <time>2021-03-28T13:38:10.000Z</time>
      </trkpt>
      <trkpt lat="47.04901" lon="-1.73079">
        <ele>81</ele>
        <time>2021-03-28T13:38:12.000Z</time>
      </trkpt>
      <trkpt lat="47.04905" lon="-1.73096">
        <ele>81</ele>
        <time>2021-03-28T13:38:14.000Z</time>
      </trkpt>
      <trkpt lat="47.04908" lon="-1.73114">
        <ele>81</ele>
        <time>2021-03-28T13:38:16.000Z</time>
      </trkpt>
      <trkpt lat="47.0491" lon="-1.73132">
        <ele>81</ele>
        <time>2021-03-28T13:38:18.000Z</time>
      </trkpt>
      <trkpt lat="47.04911" lon="-1.73151">
        <ele>81</ele>
        <time>2021-03-28T13:38:20.000Z</time>
      </trkpt>
      <trkpt lat="47.04912" lon="-1.73168">
        <ele>81</ele>
        <time>2021-03-28T13:38:22.000Z</time>
      </trkpt>
      <trkpt lat="47.04912" lon="-1.73186">
        <ele>81</ele>
        <time>2021-03-28T13:38:24.000Z</time>
      </trkpt>
      <trkpt lat="47.04914" lon="-1.73202">
        <ele>81</ele>
        <time>2021-03-28T13:38:26.000Z</time>
      </trkpt>
      <trkpt lat="47.04918" lon="-1.73219">
        <ele>80</ele>
        <time>2021-03-28T13:38:28.000Z</time>
      </trkpt>
      <trkpt lat="47.04923" lon="-1.73235">
        <ele>80</ele>
        <time>2021-03-28T13:38:30.000Z</time>
      </trkpt>
      <trkpt lat="47.04931" lon="-1.73249">
        <ele>80</ele>
        <time>2021-03-28T13:38:32.000Z</time>
      </trkpt>
      <trkpt lat="47.04938" lon="-1.73265">
        <ele>79</ele>
        <time>2021-03-28T13:38:34.000Z</time>
      </trkpt>
      <trkpt lat="47.04946" lon="-1.7328">
        <ele>79</ele>
        <time>2021-03-28T13:38:36.000Z</time>
      </trkpt>
      <trkpt lat="47.04955" lon="-1.73295">
        <ele>79</ele>
        <time>2021-03-28T13:38:38.000Z</time>
      </trkpt>
      <trkpt lat="47.04964" lon="-1.73311">
        <ele>78</ele>
        <time>2021-03-28T13:38:40.000Z</time>
      </trkpt>
      <trkpt lat="47.04972" lon="-1.73327">
        <ele>78</ele>
        <time>2021-03-28T13:38:42.000Z</time>
      </trkpt>
      <trkpt lat="47.0498" lon="-1.73342">
        <ele>79</ele>
        <time>2021-03-28T13:38:44.000Z</time>
      </trkpt>
      <trkpt lat="47.04988" lon="-1.73357">
        <ele>79</ele>
        <time>2021-03-28T13:38:46.000Z</time>
      </trkpt>
      <trkpt lat="47.04995" lon="-1.73372">
        <ele>79</ele>
        <time>2021-03-28T13:38:48.000Z</time>
      </trkpt>
      <trkpt lat="47.05003" lon="-1.73387">
        <ele>79</ele>
        <time>2021-03-28T13:38:50.000Z</time>
      </trkpt>
      <trkpt lat="47.05011" lon="-1.73402">
        <ele>79</ele>
        <time>2021-03-28T13:38:52.000Z</time>
      </trkpt>
      <trkpt lat="47.0502" lon="-1.73417">
        <ele>78</ele>
        <time>2021-03-28T13:38:54.000Z</time>
      </trkpt>
      <trkpt lat="47.05027" lon="-1.73432">
        <ele>78</ele>
        <time>2021-03-28T13:38:56.000Z</time>
      </trkpt>
      <trkpt lat="47.05035" lon="-1.73448">
        <ele>78</ele>
        <time>2021-03-28T13:38:58.000Z</time>
      </trkpt>
      <trkpt lat="47.05043" lon="-1.73463">
        <ele>78</ele>
        <time>2021-03-28T13:39:00.000Z</time>
      </trkpt>
      <trkpt lat="47.05051" lon="-1.73478">
        <ele>78</ele>
        <time>2021-03-28T13:39:02.000Z</time>
      </trkpt>
      <trkpt lat="47.05059" lon="-1.73493">
        <ele>78</ele>
        <time>2021-03-28T13:39:04.000Z</time>
      </trkpt>
      <trkpt lat="47.05068" lon="-1.73508">
        <ele>77</ele>
        <time>2021-03-28T13:39:06.000Z</time>
      </trkpt>
      <trkpt lat="47.05076" lon="-1.73524">
        <ele>77</ele>
        <time>2021-03-28T13:39:08.000Z</time>
      </trkpt>
      <trkpt lat="47.05084" lon="-1.7354">
        <ele>77</ele>
        <time>2021-03-28T13:39:10.000Z</time>
      </trkpt>
      <trkpt lat="47.05093" lon="-1.73556">
        <ele>76</ele>
        <time>2021-03-28T13:39:12.000Z</time>
      </trkpt>
      <trkpt lat="47.05102" lon="-1.73573">
        <ele>75</ele>
        <time>2021-03-28T13:39:14.000Z</time>
      </trkpt>
      <trkpt lat="47.05112" lon="-1.7359">
        <ele>75</ele>
        <time>2021-03-28T13:39:16.000Z</time>
      </trkpt>
      <trkpt lat="47.05122" lon="-1.73608">
        <ele>74</ele>
        <time>2021-03-28T13:39:18.000Z</time>
      </trkpt>
      <trkpt lat="47.05132" lon="-1.73627">
        <ele>73</ele>
        <time>2021-03-28T13:39:20.000Z</time>
      </trkpt>
      <trkpt lat="47.05144" lon="-1.73643">
        <ele>73</ele>
        <time>2021-03-28T13:39:22.000Z</time>
      </trkpt>
      <trkpt lat="47.05157" lon="-1.73658">
        <ele>73</ele>
        <time>2021-03-28T13:39:24.000Z</time>
      </trkpt>
      <trkpt lat="47.05171" lon="-1.73669">
        <ele>72</ele>
        <time>2021-03-28T13:39:26.000Z</time>
      </trkpt>
      <trkpt lat="47.05187" lon="-1.73679">
        <ele>71</ele>
        <time>2021-03-28T13:39:28.000Z</time>
      </trkpt>
      <trkpt lat="47.05203" lon="-1.73688">
        <ele>71</ele>
        <time>2021-03-28T13:39:30.000Z</time>
      </trkpt>
      <trkpt lat="47.05218" lon="-1.73691">
        <ele>71</ele>
        <time>2021-03-28T13:39:32.000Z</time>
      </trkpt>
      <trkpt lat="47.0523" lon="-1.73692">
        <ele>71</ele>
        <time>2021-03-28T13:39:34.000Z</time>
      </trkpt>
      <trkpt lat="47.05238" lon="-1.73707">
        <ele>70</ele>
        <time>2021-03-28T13:39:36.000Z</time>
      </trkpt>
      <trkpt lat="47.05238" lon="-1.73728">
        <ele>69</ele>
        <time>2021-03-28T13:39:38.000Z</time>
      </trkpt>
      <trkpt lat="47.05237" lon="-1.73748">
        <ele>70</ele>
        <time>2021-03-28T13:39:40.000Z</time>
      </trkpt>
      <trkpt lat="47.05237" lon="-1.73768">
        <ele>69</ele>
        <time>2021-03-28T13:39:42.000Z</time>
      </trkpt>
      <trkpt lat="47.05237" lon="-1.73787">
        <ele>70</ele>
        <time>2021-03-28T13:39:44.000Z</time>
      </trkpt>
      <trkpt lat="47.05236" lon="-1.73807">
        <ele>69</ele>
        <time>2021-03-28T13:39:46.000Z</time>
      </trkpt>
      <trkpt lat="47.05236" lon="-1.73827">
        <ele>70</ele>
        <time>2021-03-28T13:39:48.000Z</time>
      </trkpt>
      <trkpt lat="47.05236" lon="-1.73846">
        <ele>70</ele>
        <time>2021-03-28T13:39:50.000Z</time>
      </trkpt>
      <trkpt lat="47.05236" lon="-1.73866">
        <ele>70</ele>
        <time>2021-03-28T13:39:52.000Z</time>
      </trkpt>
      <trkpt lat="47.05235" lon="-1.73885">
        <ele>70</ele>
        <time>2021-03-28T13:39:54.000Z</time>
      </trkpt>
      <trkpt lat="47.05234" lon="-1.73904">
        <ele>69</ele>
        <time>2021-03-28T13:39:56.000Z</time>
      </trkpt>
      <trkpt lat="47.05234" lon="-1.73925">
        <ele>69</ele>
        <time>2021-03-28T13:39:58.000Z</time>
      </trkpt>
      <trkpt lat="47.05234" lon="-1.73945">
        <ele>69</ele>
        <time>2021-03-28T13:40:00.000Z</time>
      </trkpt>
      <trkpt lat="47.05234" lon="-1.73965">
        <ele>69</ele>
        <time>2021-03-28T13:40:02.000Z</time>
      </trkpt>
      <trkpt lat="47.05233" lon="-1.73985">
        <ele>69</ele>
        <time>2021-03-28T13:40:04.000Z</time>
      </trkpt>
      <trkpt lat="47.05233" lon="-1.74004">
        <ele>69</ele>
        <time>2021-03-28T13:40:06.000Z</time>
      </trkpt>
      <trkpt lat="47.05233" lon="-1.74024">
        <ele>69</ele>
        <time>2021-03-28T13:40:08.000Z</time>
      </trkpt>
      <trkpt lat="47.05232" lon="-1.74043">
        <ele>68</ele>
        <time>2021-03-28T13:40:10.000Z</time>
      </trkpt>
      <trkpt lat="47.05232" lon="-1.74064">
        <ele>68</ele>
        <time>2021-03-28T13:40:12.000Z</time>
      </trkpt>
      <trkpt lat="47.05232" lon="-1.74084">
        <ele>68</ele>
        <time>2021-03-28T13:40:14.000Z</time>
      </trkpt>
      <trkpt lat="47.05231" lon="-1.74105">
        <ele>68</ele>
        <time>2021-03-28T13:40:16.000Z</time>
      </trkpt>
      <trkpt lat="47.05231" lon="-1.74126">
        <ele>67</ele>
        <time>2021-03-28T13:40:18.000Z</time>
      </trkpt>
      <trkpt lat="47.05231" lon="-1.74146">
        <ele>67</ele>
        <time>2021-03-28T13:40:20.000Z</time>
      </trkpt>
      <trkpt lat="47.0523" lon="-1.74166">
        <ele>67</ele>
        <time>2021-03-28T13:40:22.000Z</time>
      </trkpt>
      <trkpt lat="47.0523" lon="-1.74185">
        <ele>67</ele>
        <time>2021-03-28T13:40:24.000Z</time>
      </trkpt>
      <trkpt lat="47.0523" lon="-1.74205">
        <ele>66</ele>
        <time>2021-03-28T13:40:26.000Z</time>
      </trkpt>
      <trkpt lat="47.0523" lon="-1.74225">
        <ele>66</ele>
        <time>2021-03-28T13:40:28.000Z</time>
      </trkpt>
      <trkpt lat="47.05229" lon="-1.74245">
        <ele>65</ele>
        <time>2021-03-28T13:40:30.000Z</time>
      </trkpt>
      <trkpt lat="47.05229" lon="-1.74267">
        <ele>65</ele>
        <time>2021-03-28T13:40:32.000Z</time>
      </trkpt>
      <trkpt lat="47.05229" lon="-1.74289">
        <ele>64</ele>
        <time>2021-03-28T13:40:34.000Z</time>
      </trkpt>
      <trkpt lat="47.05228" lon="-1.74311">
        <ele>64</ele>
        <time>2021-03-28T13:40:36.000Z</time>
      </trkpt>
      <trkpt lat="47.05228" lon="-1.74334">
        <ele>63</ele>
        <time>2021-03-28T13:40:38.000Z</time>
      </trkpt>
      <trkpt lat="47.05227" lon="-1.74358">
        <ele>62</ele>
        <time>2021-03-28T13:40:40.000Z</time>
      </trkpt>
      <trkpt lat="47.05227" lon="-1.74382">
        <ele>61</ele>
        <time>2021-03-28T13:40:42.000Z</time>
      </trkpt>
      <trkpt lat="47.05227" lon="-1.74406">
        <ele>60</ele>
        <time>2021-03-28T13:40:44.000Z</time>
      </trkpt>
      <trkpt lat="47.05226" lon="-1.7443">
        <ele>60</ele>
        <time>2021-03-28T13:40:46.000Z</time>
      </trkpt>
      <trkpt lat="47.05228" lon="-1.74454">
        <ele>59</ele>
        <time>2021-03-28T13:40:48.000Z</time>
      </trkpt>
      <trkpt lat="47.0523" lon="-1.74477">
        <ele>58</ele>
        <time>2021-03-28T13:40:50.000Z</time>
      </trkpt>
      <trkpt lat="47.05234" lon="-1.74501">
        <ele>58</ele>
        <time>2021-03-28T13:40:52.000Z</time>
      </trkpt>
      <trkpt lat="47.0524" lon="-1.74523">
        <ele>57</ele>
        <time>2021-03-28T13:40:54.000Z</time>
      </trkpt>
      <trkpt lat="47.05249" lon="-1.74544">
        <ele>56</ele>
        <time>2021-03-28T13:40:56.000Z</time>
      </trkpt>
      <trkpt lat="47.05257" lon="-1.74564">
        <ele>55</ele>
        <time>2021-03-28T13:40:58.000Z</time>
      </trkpt>
      <trkpt lat="47.05266" lon="-1.74584">
        <ele>54</ele>
        <time>2021-03-28T13:41:00.000Z</time>
      </trkpt>
      <trkpt lat="47.05276" lon="-1.74604">
        <ele>54</ele>
        <time>2021-03-28T13:41:02.000Z</time>
      </trkpt>
      <trkpt lat="47.05285" lon="-1.74623">
        <ele>53</ele>
        <time>2021-03-28T13:41:04.000Z</time>
      </trkpt>
      <trkpt lat="47.05294" lon="-1.74642">
        <ele>53</ele>
        <time>2021-03-28T13:41:06.000Z</time>
      </trkpt>
      <trkpt lat="47.05303" lon="-1.74661">
        <ele>53</ele>
        <time>2021-03-28T13:41:08.000Z</time>
      </trkpt>
      <trkpt lat="47.05312" lon="-1.7468">
        <ele>53</ele>
        <time>2021-03-28T13:41:10.000Z</time>
      </trkpt>
      <trkpt lat="47.0532" lon="-1.74699">
        <ele>52</ele>
        <time>2021-03-28T13:41:12.000Z</time>
      </trkpt>
      <trkpt lat="47.05329" lon="-1.74717">
        <ele>52</ele>
        <time>2021-03-28T13:41:14.000Z</time>
      </trkpt>
      <trkpt lat="47.05338" lon="-1.74734">
        <ele>51</ele>
        <time>2021-03-28T13:41:16.000Z</time>
      </trkpt>
      <trkpt lat="47.05348" lon="-1.74751">
        <ele>51</ele>
        <time>2021-03-28T13:41:18.000Z</time>
      </trkpt>
      <trkpt lat="47.05358" lon="-1.74767">
        <ele>51</ele>
        <time>2021-03-28T13:41:20.000Z</time>
      </trkpt>
      <trkpt lat="47.05369" lon="-1.74781">
        <ele>51</ele>
        <time>2021-03-28T13:41:22.000Z</time>
      </trkpt>
      <trkpt lat="47.0538" lon="-1.74792">
        <ele>51</ele>
        <time>2021-03-28T13:41:24.000Z</time>
      </trkpt>
      <trkpt lat="47.05393" lon="-1.74802">
        <ele>52</ele>
        <time>2021-03-28T13:41:26.000Z</time>
      </trkpt>
      <trkpt lat="47.05406" lon="-1.74812">
        <ele>53</ele>
        <time>2021-03-28T13:41:28.000Z</time>
      </trkpt>
      <trkpt lat="47.05419" lon="-1.74822">
        <ele>52</ele>
        <time>2021-03-28T13:41:30.000Z</time>
      </trkpt>
      <trkpt lat="47.05432" lon="-1.74832">
        <ele>52</ele>
        <time>2021-03-28T13:41:32.000Z</time>
      </trkpt>
      <trkpt lat="47.05445" lon="-1.74842">
        <ele>52</ele>
        <time>2021-03-28T13:41:34.000Z</time>
      </trkpt>
      <trkpt lat="47.05457" lon="-1.74852">
        <ele>52</ele>
        <time>2021-03-28T13:41:36.000Z</time>
      </trkpt>
      <trkpt lat="47.05468" lon="-1.74862">
        <ele>52</ele>
        <time>2021-03-28T13:41:38.000Z</time>
      </trkpt>
      <trkpt lat="47.05479" lon="-1.74871">
        <ele>52</ele>
        <time>2021-03-28T13:41:40.000Z</time>
      </trkpt>
      <trkpt lat="47.0549" lon="-1.74881">
        <ele>52</ele>
        <time>2021-03-28T13:41:42.000Z</time>
      </trkpt>
      <trkpt lat="47.055" lon="-1.7489">
        <ele>52</ele>
        <time>2021-03-28T13:41:44.000Z</time>
      </trkpt>
      <trkpt lat="47.05511" lon="-1.749">
        <ele>53</ele>
        <time>2021-03-28T13:41:46.000Z</time>
      </trkpt>
      <trkpt lat="47.05521" lon="-1.74911">
        <ele>53</ele>
        <time>2021-03-28T13:41:48.000Z</time>
      </trkpt>
      <trkpt lat="47.05532" lon="-1.74921">
        <ele>54</ele>
        <time>2021-03-28T13:41:50.000Z</time>
      </trkpt>
      <trkpt lat="47.05542" lon="-1.74931">
        <ele>55</ele>
        <time>2021-03-28T13:41:52.000Z</time>
      </trkpt>
      <trkpt lat="47.05551" lon="-1.74941">
        <ele>55</ele>
        <time>2021-03-28T13:41:54.000Z</time>
      </trkpt>
      <trkpt lat="47.05561" lon="-1.7495">
        <ele>56</ele>
        <time>2021-03-28T13:41:56.000Z</time>
      </trkpt>
      <trkpt lat="47.0557" lon="-1.74958">
        <ele>57</ele>
        <time>2021-03-28T13:41:58.000Z</time>
      </trkpt>
      <trkpt lat="47.05579" lon="-1.74967">
        <ele>57</ele>
        <time>2021-03-28T13:42:00.000Z</time>
      </trkpt>
      <trkpt lat="47.05588" lon="-1.74976">
        <ele>58</ele>
        <time>2021-03-28T13:42:02.000Z</time>
      </trkpt>
      <trkpt lat="47.05596" lon="-1.74984">
        <ele>59</ele>
        <time>2021-03-28T13:42:04.000Z</time>
      </trkpt>
      <trkpt lat="47.05605" lon="-1.74994">
        <ele>59</ele>
        <time>2021-03-28T13:42:06.000Z</time>
      </trkpt>
      <trkpt lat="47.05614" lon="-1.75002">
        <ele>60</ele>
        <time>2021-03-28T13:42:08.000Z</time>
      </trkpt>
      <trkpt lat="47.05623" lon="-1.75011">
        <ele>61</ele>
        <time>2021-03-28T13:42:10.000Z</time>
      </trkpt>
      <trkpt lat="47.05631" lon="-1.7502">
        <ele>61</ele>
        <time>2021-03-28T13:42:12.000Z</time>
      </trkpt>
      <trkpt lat="47.0564" lon="-1.75029">
        <ele>61</ele>
        <time>2021-03-28T13:42:14.000Z</time>
      </trkpt>
      <trkpt lat="47.05649" lon="-1.75038">
        <ele>61</ele>
        <time>2021-03-28T13:42:16.000Z</time>
      </trkpt>
      <trkpt lat="47.05658" lon="-1.75047">
        <ele>62</ele>
        <time>2021-03-28T13:42:18.000Z</time>
      </trkpt>
      <trkpt lat="47.05667" lon="-1.75057">
        <ele>62</ele>
        <time>2021-03-28T13:42:20.000Z</time>
      </trkpt>
      <trkpt lat="47.05675" lon="-1.75067">
        <ele>63</ele>
        <time>2021-03-28T13:42:22.000Z</time>
      </trkpt>
      <trkpt lat="47.05681" lon="-1.75077">
        <ele>63</ele>
        <time>2021-03-28T13:42:24.000Z</time>
      </trkpt>
      <trkpt lat="47.05688" lon="-1.75089">
        <ele>63</ele>
        <time>2021-03-28T13:42:26.000Z</time>
      </trkpt>
      <trkpt lat="47.05695" lon="-1.751">
        <ele>63</ele>
        <time>2021-03-28T13:42:28.000Z</time>
      </trkpt>
      <trkpt lat="47.057" lon="-1.75112">
        <ele>64</ele>
        <time>2021-03-28T13:42:30.000Z</time>
      </trkpt>
      <trkpt lat="47.05706" lon="-1.75125">
        <ele>65</ele>
        <time>2021-03-28T13:42:32.000Z</time>
      </trkpt>
      <trkpt lat="47.05711" lon="-1.75137">
        <ele>65</ele>
        <time>2021-03-28T13:42:34.000Z</time>
      </trkpt>
      <trkpt lat="47.05716" lon="-1.75149">
        <ele>65</ele>
        <time>2021-03-28T13:42:36.000Z</time>
      </trkpt>
      <trkpt lat="47.05721" lon="-1.7516">
        <ele>66</ele>
        <time>2021-03-28T13:42:38.000Z</time>
      </trkpt>
      <trkpt lat="47.05727" lon="-1.75173">
        <ele>66</ele>
        <time>2021-03-28T13:42:40.000Z</time>
      </trkpt>
      <trkpt lat="47.05733" lon="-1.75185">
        <ele>66</ele>
        <time>2021-03-28T13:42:42.000Z</time>
      </trkpt>
      <trkpt lat="47.05738" lon="-1.75196">
        <ele>66</ele>
        <time>2021-03-28T13:42:44.000Z</time>
      </trkpt>
      <trkpt lat="47.05743" lon="-1.75208">
        <ele>67</ele>
        <time>2021-03-28T13:42:46.000Z</time>
      </trkpt>
      <trkpt lat="47.05749" lon="-1.7522">
        <ele>67</ele>
        <time>2021-03-28T13:42:48.000Z</time>
      </trkpt>
      <trkpt lat="47.05754" lon="-1.75233">
        <ele>67</ele>
        <time>2021-03-28T13:42:50.000Z</time>
      </trkpt>
      <trkpt lat="47.05759" lon="-1.75244">
        <ele>67</ele>
        <time>2021-03-28T13:42:52.000Z</time>
      </trkpt>
      <trkpt lat="47.05764" lon="-1.75256">
        <ele>68</ele>
        <time>2021-03-28T13:42:54.000Z</time>
      </trkpt>
      <trkpt lat="47.0577" lon="-1.75268">
        <ele>68</ele>
        <time>2021-03-28T13:42:56.000Z</time>
      </trkpt>
      <trkpt lat="47.05776" lon="-1.75281">
        <ele>68</ele>
        <time>2021-03-28T13:42:58.000Z</time>
      </trkpt>
      <trkpt lat="47.05781" lon="-1.75294">
        <ele>68</ele>
        <time>2021-03-28T13:43:00.000Z</time>
      </trkpt>
      <trkpt lat="47.05787" lon="-1.75307">
        <ele>68</ele>
        <time>2021-03-28T13:43:02.000Z</time>
      </trkpt>
      <trkpt lat="47.05793" lon="-1.75321">
        <ele>68</ele>
        <time>2021-03-28T13:43:04.000Z</time>
      </trkpt>
      <trkpt lat="47.05799" lon="-1.75334">
        <ele>69</ele>
        <time>2021-03-28T13:43:06.000Z</time>
      </trkpt>
      <trkpt lat="47.05805" lon="-1.75347">
        <ele>69</ele>
        <time>2021-03-28T13:43:08.000Z</time>
      </trkpt>
      <trkpt lat="47.05811" lon="-1.7536">
        <ele>69</ele>
        <time>2021-03-28T13:43:10.000Z</time>
      </trkpt>
      <trkpt lat="47.05817" lon="-1.75374">
        <ele>69</ele>
        <time>2021-03-28T13:43:12.000Z</time>
      </trkpt>
      <trkpt lat="47.05823" lon="-1.75388">
        <ele>69</ele>
        <time>2021-03-28T13:43:14.000Z</time>
      </trkpt>
      <trkpt lat="47.05829" lon="-1.75402">
        <ele>69</ele>
        <time>2021-03-28T13:43:16.000Z</time>
      </trkpt>
      <trkpt lat="47.05834" lon="-1.75417">
        <ele>69</ele>
        <time>2021-03-28T13:43:18.000Z</time>
      </trkpt>
      <trkpt lat="47.0584" lon="-1.75431">
        <ele>69</ele>
        <time>2021-03-28T13:43:20.000Z</time>
      </trkpt>
      <trkpt lat="47.05845" lon="-1.75446">
        <ele>69</ele>
        <time>2021-03-28T13:43:22.000Z</time>
      </trkpt>
      <trkpt lat="47.0585" lon="-1.75462">
        <ele>69</ele>
        <time>2021-03-28T13:43:24.000Z</time>
      </trkpt>
      <trkpt lat="47.05856" lon="-1.75477">
        <ele>69</ele>
        <time>2021-03-28T13:43:26.000Z</time>
      </trkpt>
      <trkpt lat="47.05861" lon="-1.75493">
        <ele>69</ele>
        <time>2021-03-28T13:43:28.000Z</time>
      </trkpt>
      <trkpt lat="47.05866" lon="-1.75508">
        <ele>69</ele>
        <time>2021-03-28T13:43:30.000Z</time>
      </trkpt>
      <trkpt lat="47.05872" lon="-1.75524">
        <ele>69</ele>
        <time>2021-03-28T13:43:32.000Z</time>
      </trkpt>
      <trkpt lat="47.05877" lon="-1.7554">
        <ele>69</ele>
        <time>2021-03-28T13:43:34.000Z</time>
      </trkpt>
      <trkpt lat="47.05883" lon="-1.75555">
        <ele>69</ele>
        <time>2021-03-28T13:43:36.000Z</time>
      </trkpt>
      <trkpt lat="47.05888" lon="-1.75571">
        <ele>69</ele>
        <time>2021-03-28T13:43:38.000Z</time>
      </trkpt>
      <trkpt lat="47.05894" lon="-1.75588">
        <ele>69</ele>
        <time>2021-03-28T13:43:40.000Z</time>
      </trkpt>
      <trkpt lat="47.059" lon="-1.75605">
        <ele>69</ele>
        <time>2021-03-28T13:43:42.000Z</time>
      </trkpt>
      <trkpt lat="47.05906" lon="-1.75621">
        <ele>69</ele>
        <time>2021-03-28T13:43:44.000Z</time>
      </trkpt>
      <trkpt lat="47.05911" lon="-1.75637">
        <ele>69</ele>
        <time>2021-03-28T13:43:46.000Z</time>
      </trkpt>
      <trkpt lat="47.05917" lon="-1.75653">
        <ele>69</ele>
        <time>2021-03-28T13:43:48.000Z</time>
      </trkpt>
      <trkpt lat="47.05923" lon="-1.75669">
        <ele>69</ele>
        <time>2021-03-28T13:43:50.000Z</time>
      </trkpt>
      <trkpt lat="47.05929" lon="-1.75685">
        <ele>69</ele>
        <time>2021-03-28T13:43:52.000Z</time>
      </trkpt>
      <trkpt lat="47.05935" lon="-1.75702">
        <ele>69</ele>
        <time>2021-03-28T13:43:54.000Z</time>
      </trkpt>
      <trkpt lat="47.05941" lon="-1.75717">
        <ele>69</ele>
        <time>2021-03-28T13:43:56.000Z</time>
      </trkpt>
      <trkpt lat="47.05948" lon="-1.75732">
        <ele>69</ele>
        <time>2021-03-28T13:43:58.000Z</time>
      </trkpt>
      <trkpt lat="47.05955" lon="-1.75748">
        <ele>69</ele>
        <time>2021-03-28T13:44:00.000Z</time>
      </trkpt>
      <trkpt lat="47.05962" lon="-1.75762">
        <ele>70</ele>
        <time>2021-03-28T13:44:02.000Z</time>
      </trkpt>
      <trkpt lat="47.05971" lon="-1.75776">
        <ele>70</ele>
        <time>2021-03-28T13:44:04.000Z</time>
      </trkpt>
      <trkpt lat="47.0598" lon="-1.75789">
        <ele>70</ele>
        <time>2021-03-28T13:44:06.000Z</time>
      </trkpt>
      <trkpt lat="47.05989" lon="-1.75802">
        <ele>71</ele>
        <time>2021-03-28T13:44:08.000Z</time>
      </trkpt>
      <trkpt lat="47.05999" lon="-1.75814">
        <ele>71</ele>
        <time>2021-03-28T13:44:10.000Z</time>
      </trkpt>
      <trkpt lat="47.06009" lon="-1.75826">
        <ele>71</ele>
        <time>2021-03-28T13:44:12.000Z</time>
      </trkpt>
      <trkpt lat="47.06019" lon="-1.75838">
        <ele>71</ele>
        <time>2021-03-28T13:44:14.000Z</time>
      </trkpt>
      <trkpt lat="47.06028" lon="-1.7585">
        <ele>71</ele>
        <time>2021-03-28T13:44:16.000Z</time>
      </trkpt>
      <trkpt lat="47.06038" lon="-1.75863">
        <ele>71</ele>
        <time>2021-03-28T13:44:18.000Z</time>
      </trkpt>
      <trkpt lat="47.06048" lon="-1.75875">
        <ele>71</ele>
        <time>2021-03-28T13:44:20.000Z</time>
      </trkpt>
      <trkpt lat="47.06057" lon="-1.75886">
        <ele>71</ele>
        <time>2021-03-28T13:44:22.000Z</time>
      </trkpt>
      <trkpt lat="47.06067" lon="-1.75897">
        <ele>71</ele>
        <time>2021-03-28T13:44:24.000Z</time>
      </trkpt>
      <trkpt lat="47.06076" lon="-1.75908">
        <ele>71</ele>
        <time>2021-03-28T13:44:26.000Z</time>
      </trkpt>
      <trkpt lat="47.06085" lon="-1.7592">
        <ele>71</ele>
        <time>2021-03-28T13:44:28.000Z</time>
      </trkpt>
      <trkpt lat="47.06095" lon="-1.75931">
        <ele>71</ele>
        <time>2021-03-28T13:44:30.000Z</time>
      </trkpt>
      <trkpt lat="47.06105" lon="-1.75942">
        <ele>72</ele>
        <time>2021-03-28T13:44:32.000Z</time>
      </trkpt>
      <trkpt lat="47.06114" lon="-1.75953">
        <ele>72</ele>
        <time>2021-03-28T13:44:34.000Z</time>
      </trkpt>
      <trkpt lat="47.06123" lon="-1.75964">
        <ele>73</ele>
        <time>2021-03-28T13:44:36.000Z</time>
      </trkpt>
      <trkpt lat="47.06132" lon="-1.75974">
        <ele>73</ele>
        <time>2021-03-28T13:44:38.000Z</time>
      </trkpt>
      <trkpt lat="47.06141" lon="-1.75984">
        <ele>74</ele>
        <time>2021-03-28T13:44:40.000Z</time>
      </trkpt>
      <trkpt lat="47.0615" lon="-1.75995">
        <ele>74</ele>
        <time>2021-03-28T13:44:42.000Z</time>
      </trkpt>
      <trkpt lat="47.06159" lon="-1.76005">
        <ele>74</ele>
        <time>2021-03-28T13:44:44.000Z</time>
      </trkpt>
      <trkpt lat="47.06168" lon="-1.76016">
        <ele>75</ele>
        <time>2021-03-28T13:44:46.000Z</time>
      </trkpt>
      <trkpt lat="47.06176" lon="-1.76026">
        <ele>75</ele>
        <time>2021-03-28T13:44:48.000Z</time>
      </trkpt>
      <trkpt lat="47.06185" lon="-1.76037">
        <ele>75</ele>
        <time>2021-03-28T13:44:50.000Z</time>
      </trkpt>
      <trkpt lat="47.06194" lon="-1.76048">
        <ele>75</ele>
        <time>2021-03-28T13:44:52.000Z</time>
      </trkpt>
      <trkpt lat="47.06203" lon="-1.76058">
        <ele>75</ele>
        <time>2021-03-28T13:44:54.000Z</time>
      </trkpt>
      <trkpt lat="47.06212" lon="-1.7607">
        <ele>75</ele>
        <time>2021-03-28T13:44:56.000Z</time>
      </trkpt>
      <trkpt lat="47.06221" lon="-1.7608">
        <ele>75</ele>
        <time>2021-03-28T13:44:58.000Z</time>
      </trkpt>
      <trkpt lat="47.0623" lon="-1.76091">
        <ele>75</ele>
        <time>2021-03-28T13:45:00.000Z</time>
      </trkpt>
      <trkpt lat="47.06239" lon="-1.76102">
        <ele>75</ele>
        <time>2021-03-28T13:45:02.000Z</time>
      </trkpt>
      <trkpt lat="47.06248" lon="-1.76112">
        <ele>76</ele>
        <time>2021-03-28T13:45:04.000Z</time>
      </trkpt>
      <trkpt lat="47.06257" lon="-1.76122">
        <ele>76</ele>
        <time>2021-03-28T13:45:06.000Z</time>
      </trkpt>
      <trkpt lat="47.06265" lon="-1.76133">
        <ele>76</ele>
        <time>2021-03-28T13:45:08.000Z</time>
      </trkpt>
      <trkpt lat="47.06273" lon="-1.76144">
        <ele>76</ele>
        <time>2021-03-28T13:45:10.000Z</time>
      </trkpt>
      <trkpt lat="47.06281" lon="-1.76155">
        <ele>76</ele>
        <time>2021-03-28T13:45:12.000Z</time>
      </trkpt>
      <trkpt lat="47.06288" lon="-1.76168">
        <ele>77</ele>
        <time>2021-03-28T13:45:14.000Z</time>
      </trkpt>
      <trkpt lat="47.06294" lon="-1.76183">
        <ele>77</ele>
        <time>2021-03-28T13:45:16.000Z</time>
      </trkpt>
      <trkpt lat="47.06299" lon="-1.76198">
        <ele>77</ele>
        <time>2021-03-28T13:45:18.000Z</time>
      </trkpt>
      <trkpt lat="47.06302" lon="-1.76214">
        <ele>77</ele>
        <time>2021-03-28T13:45:20.000Z</time>
      </trkpt>
      <trkpt lat="47.06305" lon="-1.76231">
        <ele>77</ele>
        <time>2021-03-28T13:45:22.000Z</time>
      </trkpt>
      <trkpt lat="47.06306" lon="-1.76247">
        <ele>77</ele>
        <time>2021-03-28T13:45:24.000Z</time>
      </trkpt>
      <trkpt lat="47.06306" lon="-1.76264">
        <ele>77</ele>
        <time>2021-03-28T13:45:26.000Z</time>
      </trkpt>
      <trkpt lat="47.06305" lon="-1.7628">
        <ele>77</ele>
        <time>2021-03-28T13:45:28.000Z</time>
      </trkpt>
      <trkpt lat="47.06304" lon="-1.76296">
        <ele>77</ele>
        <time>2021-03-28T13:45:30.000Z</time>
      </trkpt>
      <trkpt lat="47.06306" lon="-1.76311">
        <ele>77</ele>
        <time>2021-03-28T13:45:32.000Z</time>
      </trkpt>
      <trkpt lat="47.06317" lon="-1.76321">
        <ele>77</ele>
        <time>2021-03-28T13:45:35.000Z</time>
      </trkpt>
      <trkpt lat="47.06328" lon="-1.76316">
        <ele>77</ele>
        <time>2021-03-28T13:45:37.000Z</time>
      </trkpt>
      <trkpt lat="47.0634" lon="-1.76309">
        <ele>77</ele>
        <time>2021-03-28T13:45:39.000Z</time>
      </trkpt>
      <trkpt lat="47.06352" lon="-1.76304">
        <ele>78</ele>
        <time>2021-03-28T13:45:41.000Z</time>
      </trkpt>
      <trkpt lat="47.06364" lon="-1.763">
        <ele>78</ele>
        <time>2021-03-28T13:45:43.000Z</time>
      </trkpt>
      <trkpt lat="47.06376" lon="-1.76293">
        <ele>78</ele>
        <time>2021-03-28T13:45:45.000Z</time>
      </trkpt>
      <trkpt lat="47.06388" lon="-1.76287">
        <ele>77</ele>
        <time>2021-03-28T13:45:47.000Z</time>
      </trkpt>
      <trkpt lat="47.06399" lon="-1.76282">
        <ele>77</ele>
        <time>2021-03-28T13:45:49.000Z</time>
      </trkpt>
      <trkpt lat="47.06412" lon="-1.76277">
        <ele>77</ele>
        <time>2021-03-28T13:45:51.000Z</time>
      </trkpt>
      <trkpt lat="47.06424" lon="-1.76272">
        <ele>78</ele>
        <time>2021-03-28T13:45:53.000Z</time>
      </trkpt>
      <trkpt lat="47.06436" lon="-1.76266">
        <ele>78</ele>
        <time>2021-03-28T13:45:55.000Z</time>
      </trkpt>
      <trkpt lat="47.06448" lon="-1.7626">
        <ele>78</ele>
        <time>2021-03-28T13:45:57.000Z</time>
      </trkpt>
      <trkpt lat="47.06459" lon="-1.76255">
        <ele>79</ele>
        <time>2021-03-28T13:45:59.000Z</time>
      </trkpt>
      <trkpt lat="47.06471" lon="-1.76249">
        <ele>79</ele>
        <time>2021-03-28T13:46:01.000Z</time>
      </trkpt>
      <trkpt lat="47.06482" lon="-1.76244">
        <ele>79</ele>
        <time>2021-03-28T13:46:03.000Z</time>
      </trkpt>
      <trkpt lat="47.06493" lon="-1.76239">
        <ele>79</ele>
        <time>2021-03-28T13:46:05.000Z</time>
      </trkpt>
      <trkpt lat="47.06504" lon="-1.76234">
        <ele>80</ele>
        <time>2021-03-28T13:46:07.000Z</time>
      </trkpt>
      <trkpt lat="47.06515" lon="-1.76229">
        <ele>80</ele>
        <time>2021-03-28T13:46:09.000Z</time>
      </trkpt>
      <trkpt lat="47.06526" lon="-1.76223">
        <ele>80</ele>
        <time>2021-03-28T13:46:11.000Z</time>
      </trkpt>
      <trkpt lat="47.06537" lon="-1.76218">
        <ele>80</ele>
        <time>2021-03-28T13:46:13.000Z</time>
      </trkpt>
      <trkpt lat="47.06548" lon="-1.76213">
        <ele>81</ele>
        <time>2021-03-28T13:46:15.000Z</time>
      </trkpt>
      <trkpt lat="47.06559" lon="-1.76207">
        <ele>81</ele>
        <time>2021-03-28T13:46:17.000Z</time>
      </trkpt>
      <trkpt lat="47.0657" lon="-1.76202">
        <ele>81</ele>
        <time>2021-03-28T13:46:19.000Z</time>
      </trkpt>
      <trkpt lat="47.06581" lon="-1.76196">
        <ele>81</ele>
        <time>2021-03-28T13:46:21.000Z</time>
      </trkpt>
      <trkpt lat="47.06593" lon="-1.76191">
        <ele>80</ele>
        <time>2021-03-28T13:46:23.000Z</time>
      </trkpt>
      <trkpt lat="47.06606" lon="-1.76185">
        <ele>80</ele>
        <time>2021-03-28T13:46:25.000Z</time>
      </trkpt>
      <trkpt lat="47.06619" lon="-1.76179">
        <ele>80</ele>
        <time>2021-03-28T13:46:27.000Z</time>
      </trkpt>
      <trkpt lat="47.06632" lon="-1.76173">
        <ele>79</ele>
        <time>2021-03-28T13:46:29.000Z</time>
      </trkpt>
      <trkpt lat="47.06646" lon="-1.76167">
        <ele>79</ele>
        <time>2021-03-28T13:46:31.000Z</time>
      </trkpt>
      <trkpt lat="47.0666" lon="-1.7616">
        <ele>78</ele>
        <time>2021-03-28T13:46:33.000Z</time>
      </trkpt>
      <trkpt lat="47.06675" lon="-1.76154">
        <ele>78</ele>
        <time>2021-03-28T13:46:35.000Z</time>
      </trkpt>
      <trkpt lat="47.0669" lon="-1.76147">
        <ele>77</ele>
        <time>2021-03-28T13:46:37.000Z</time>
      </trkpt>
      <trkpt lat="47.06706" lon="-1.7614">
        <ele>77</ele>
        <time>2021-03-28T13:46:39.000Z</time>
      </trkpt>
      <trkpt lat="47.06723" lon="-1.76133">
        <ele>76</ele>
        <time>2021-03-28T13:46:41.000Z</time>
      </trkpt>
      <trkpt lat="47.06739" lon="-1.76126">
        <ele>76</ele>
        <time>2021-03-28T13:46:43.000Z</time>
      </trkpt>
      <trkpt lat="47.06756" lon="-1.76118">
        <ele>75</ele>
        <time>2021-03-28T13:46:45.000Z</time>
      </trkpt>
      <trkpt lat="47.06765" lon="-1.76114">
        <ele>74</ele>
        <time>2021-03-28T13:46:46.000Z</time>
      </trkpt>
      <trkpt lat="47.06774" lon="-1.76111">
        <ele>74</ele>
        <time>2021-03-28T13:46:47.000Z</time>
      </trkpt>
      <trkpt lat="47.06782" lon="-1.76107">
        <ele>74</ele>
        <time>2021-03-28T13:46:48.000Z</time>
      </trkpt>
      <trkpt lat="47.06799" lon="-1.76099">
        <ele>74</ele>
        <time>2021-03-28T13:46:50.000Z</time>
      </trkpt>
      <trkpt lat="47.06808" lon="-1.76095">
        <ele>73</ele>
        <time>2021-03-28T13:46:51.000Z</time>
      </trkpt>
      <trkpt lat="47.06825" lon="-1.76088">
        <ele>73</ele>
        <time>2021-03-28T13:46:53.000Z</time>
      </trkpt>
      <trkpt lat="47.06842" lon="-1.7608">
        <ele>72</ele>
        <time>2021-03-28T13:46:55.000Z</time>
      </trkpt>
      <trkpt lat="47.0686" lon="-1.76072">
        <ele>72</ele>
        <time>2021-03-28T13:46:57.000Z</time>
      </trkpt>
      <trkpt lat="47.06868" lon="-1.76067">
        <ele>71</ele>
        <time>2021-03-28T13:46:58.000Z</time>
      </trkpt>
      <trkpt lat="47.06877" lon="-1.76063">
        <ele>71</ele>
        <time>2021-03-28T13:46:59.000Z</time>
      </trkpt>
      <trkpt lat="47.06886" lon="-1.76058">
        <ele>71</ele>
        <time>2021-03-28T13:47:00.000Z</time>
      </trkpt>
      <trkpt lat="47.06894" lon="-1.76054">
        <ele>70</ele>
        <time>2021-03-28T13:47:01.000Z</time>
      </trkpt>
      <trkpt lat="47.06903" lon="-1.76048">
        <ele>70</ele>
        <time>2021-03-28T13:47:02.000Z</time>
      </trkpt>
      <trkpt lat="47.06911" lon="-1.76043">
        <ele>70</ele>
        <time>2021-03-28T13:47:03.000Z</time>
      </trkpt>
      <trkpt lat="47.06919" lon="-1.76037">
        <ele>70</ele>
        <time>2021-03-28T13:47:04.000Z</time>
      </trkpt>
      <trkpt lat="47.06927" lon="-1.76031">
        <ele>70</ele>
        <time>2021-03-28T13:47:05.000Z</time>
      </trkpt>
      <trkpt lat="47.06935" lon="-1.76024">
        <ele>70</ele>
        <time>2021-03-28T13:47:06.000Z</time>
      </trkpt>
      <trkpt lat="47.06943" lon="-1.76016">
        <ele>69</ele>
        <time>2021-03-28T13:47:07.000Z</time>
      </trkpt>
      <trkpt lat="47.06951" lon="-1.76009">
        <ele>69</ele>
        <time>2021-03-28T13:47:08.000Z</time>
      </trkpt>
      <trkpt lat="47.06958" lon="-1.76001">
        <ele>69</ele>
        <time>2021-03-28T13:47:09.000Z</time>
      </trkpt>
      <trkpt lat="47.06965" lon="-1.75992">
        <ele>69</ele>
        <time>2021-03-28T13:47:10.000Z</time>
      </trkpt>
      <trkpt lat="47.06972" lon="-1.75984">
        <ele>69</ele>
        <time>2021-03-28T13:47:11.000Z</time>
      </trkpt>
      <trkpt lat="47.0698" lon="-1.75976">
        <ele>69</ele>
        <time>2021-03-28T13:47:12.000Z</time>
      </trkpt>
      <trkpt lat="47.06987" lon="-1.75967">
        <ele>69</ele>
        <time>2021-03-28T13:47:13.000Z</time>
      </trkpt>
      <trkpt lat="47.06994" lon="-1.75959">
        <ele>69</ele>
        <time>2021-03-28T13:47:14.000Z</time>
      </trkpt>
      <trkpt lat="47.07001" lon="-1.75951">
        <ele>69</ele>
        <time>2021-03-28T13:47:15.000Z</time>
      </trkpt>
      <trkpt lat="47.07008" lon="-1.75942">
        <ele>69</ele>
        <time>2021-03-28T13:47:16.000Z</time>
      </trkpt>
      <trkpt lat="47.07022" lon="-1.75926">
        <ele>68</ele>
        <time>2021-03-28T13:47:18.000Z</time>
      </trkpt>
      <trkpt lat="47.0703" lon="-1.75917">
        <ele>68</ele>
        <time>2021-03-28T13:47:19.000Z</time>
      </trkpt>
      <trkpt lat="47.07044" lon="-1.75901">
        <ele>68</ele>
        <time>2021-03-28T13:47:21.000Z</time>
      </trkpt>
      <trkpt lat="47.07051" lon="-1.75892">
        <ele>68</ele>
        <time>2021-03-28T13:47:22.000Z</time>
      </trkpt>
      <trkpt lat="47.07058" lon="-1.75884">
        <ele>68</ele>
        <time>2021-03-28T13:47:23.000Z</time>
      </trkpt>
      <trkpt lat="47.07072" lon="-1.75868">
        <ele>67</ele>
        <time>2021-03-28T13:47:25.000Z</time>
      </trkpt>
      <trkpt lat="47.0708" lon="-1.75859">
        <ele>67</ele>
        <time>2021-03-28T13:47:26.000Z</time>
      </trkpt>
      <trkpt lat="47.07087" lon="-1.75851">
        <ele>67</ele>
        <time>2021-03-28T13:47:27.000Z</time>
      </trkpt>
      <trkpt lat="47.071" lon="-1.75834">
        <ele>67</ele>
        <time>2021-03-28T13:47:29.000Z</time>
      </trkpt>
      <trkpt lat="47.07114" lon="-1.75818">
        <ele>67</ele>
        <time>2021-03-28T13:47:31.000Z</time>
      </trkpt>
      <trkpt lat="47.07128" lon="-1.75802">
        <ele>67</ele>
        <time>2021-03-28T13:47:33.000Z</time>
      </trkpt>
      <trkpt lat="47.07135" lon="-1.75793">
        <ele>67</ele>
        <time>2021-03-28T13:47:34.000Z</time>
      </trkpt>
      <trkpt lat="47.07149" lon="-1.75778">
        <ele>67</ele>
        <time>2021-03-28T13:47:36.000Z</time>
      </trkpt>
      <trkpt lat="47.07163" lon="-1.75761">
        <ele>67</ele>
        <time>2021-03-28T13:47:38.000Z</time>
      </trkpt>
      <trkpt lat="47.07177" lon="-1.75746">
        <ele>67</ele>
        <time>2021-03-28T13:47:40.000Z</time>
      </trkpt>
      <trkpt lat="47.0719" lon="-1.7573">
        <ele>67</ele>
        <time>2021-03-28T13:47:42.000Z</time>
      </trkpt>
      <trkpt lat="47.07204" lon="-1.75713">
        <ele>66</ele>
        <time>2021-03-28T13:47:44.000Z</time>
      </trkpt>
      <trkpt lat="47.07218" lon="-1.75697">
        <ele>66</ele>
        <time>2021-03-28T13:47:46.000Z</time>
      </trkpt>
      <trkpt lat="47.07226" lon="-1.75688">
        <ele>66</ele>
        <time>2021-03-28T13:47:47.000Z</time>
      </trkpt>
      <trkpt lat="47.0724" lon="-1.75672">
        <ele>66</ele>
        <time>2021-03-28T13:47:49.000Z</time>
      </trkpt>
      <trkpt lat="47.07254" lon="-1.75656">
        <ele>65</ele>
        <time>2021-03-28T13:47:51.000Z</time>
      </trkpt>
      <trkpt lat="47.07269" lon="-1.75642">
        <ele>65</ele>
        <time>2021-03-28T13:47:53.000Z</time>
      </trkpt>
      <trkpt lat="47.07284" lon="-1.7563">
        <ele>65</ele>
        <time>2021-03-28T13:47:55.000Z</time>
      </trkpt>
      <trkpt lat="47.073" lon="-1.7562">
        <ele>65</ele>
        <time>2021-03-28T13:47:57.000Z</time>
      </trkpt>
      <trkpt lat="47.07316" lon="-1.75611">
        <ele>64</ele>
        <time>2021-03-28T13:47:59.000Z</time>
      </trkpt>
      <trkpt lat="47.07333" lon="-1.75604">
        <ele>64</ele>
        <time>2021-03-28T13:48:01.000Z</time>
      </trkpt>
      <trkpt lat="47.0735" lon="-1.75597">
        <ele>64</ele>
        <time>2021-03-28T13:48:03.000Z</time>
      </trkpt>
      <trkpt lat="47.07366" lon="-1.7559">
        <ele>63</ele>
        <time>2021-03-28T13:48:05.000Z</time>
      </trkpt>
      <trkpt lat="47.07383" lon="-1.75584">
        <ele>63</ele>
        <time>2021-03-28T13:48:07.000Z</time>
      </trkpt>
      <trkpt lat="47.07399" lon="-1.75578">
        <ele>63</ele>
        <time>2021-03-28T13:48:09.000Z</time>
      </trkpt>
      <trkpt lat="47.07415" lon="-1.75572">
        <ele>62</ele>
        <time>2021-03-28T13:48:11.000Z</time>
      </trkpt>
      <trkpt lat="47.07431" lon="-1.75565">
        <ele>62</ele>
        <time>2021-03-28T13:48:13.000Z</time>
      </trkpt>
      <trkpt lat="47.07447" lon="-1.75559">
        <ele>61</ele>
        <time>2021-03-28T13:48:15.000Z</time>
      </trkpt>
      <trkpt lat="47.07464" lon="-1.75553">
        <ele>61</ele>
        <time>2021-03-28T13:48:17.000Z</time>
      </trkpt>
      <trkpt lat="47.07481" lon="-1.75546">
        <ele>60</ele>
        <time>2021-03-28T13:48:19.000Z</time>
      </trkpt>
      <trkpt lat="47.07497" lon="-1.7554">
        <ele>60</ele>
        <time>2021-03-28T13:48:21.000Z</time>
      </trkpt>
      <trkpt lat="47.07514" lon="-1.75533">
        <ele>59</ele>
        <time>2021-03-28T13:48:23.000Z</time>
      </trkpt>
      <trkpt lat="47.07531" lon="-1.75527">
        <ele>58</ele>
        <time>2021-03-28T13:48:25.000Z</time>
      </trkpt>
      <trkpt lat="47.07548" lon="-1.7552">
        <ele>58</ele>
        <time>2021-03-28T13:48:27.000Z</time>
      </trkpt>
      <trkpt lat="47.07565" lon="-1.75514">
        <ele>57</ele>
        <time>2021-03-28T13:48:29.000Z</time>
      </trkpt>
      <trkpt lat="47.07582" lon="-1.75507">
        <ele>57</ele>
        <time>2021-03-28T13:48:31.000Z</time>
      </trkpt>
      <trkpt lat="47.07599" lon="-1.75501">
        <ele>56</ele>
        <time>2021-03-28T13:48:33.000Z</time>
      </trkpt>
      <trkpt lat="47.07616" lon="-1.75494">
        <ele>56</ele>
        <time>2021-03-28T13:48:35.000Z</time>
      </trkpt>
      <trkpt lat="47.07633" lon="-1.75487">
        <ele>55</ele>
        <time>2021-03-28T13:48:37.000Z</time>
      </trkpt>
      <trkpt lat="47.0765" lon="-1.7548">
        <ele>55</ele>
        <time>2021-03-28T13:48:39.000Z</time>
      </trkpt>
      <trkpt lat="47.07667" lon="-1.75474">
        <ele>55</ele>
        <time>2021-03-28T13:48:41.000Z</time>
      </trkpt>
      <trkpt lat="47.07683" lon="-1.75468">
        <ele>54</ele>
        <time>2021-03-28T13:48:43.000Z</time>
      </trkpt>
      <trkpt lat="47.077" lon="-1.75461">
        <ele>54</ele>
        <time>2021-03-28T13:48:45.000Z</time>
      </trkpt>
      <trkpt lat="47.07717" lon="-1.75454">
        <ele>53</ele>
        <time>2021-03-28T13:48:47.000Z</time>
      </trkpt>
      <trkpt lat="47.07734" lon="-1.75448">
        <ele>53</ele>
        <time>2021-03-28T13:48:49.000Z</time>
      </trkpt>
      <trkpt lat="47.0775" lon="-1.75441">
        <ele>53</ele>
        <time>2021-03-28T13:48:51.000Z</time>
      </trkpt>
      <trkpt lat="47.07766" lon="-1.75435">
        <ele>52</ele>
        <time>2021-03-28T13:48:53.000Z</time>
      </trkpt>
      <trkpt lat="47.07783" lon="-1.75429">
        <ele>52</ele>
        <time>2021-03-28T13:48:55.000Z</time>
      </trkpt>
      <trkpt lat="47.07798" lon="-1.75424">
        <ele>51</ele>
        <time>2021-03-28T13:48:57.000Z</time>
      </trkpt>
      <trkpt lat="47.07808" lon="-1.75411">
        <ele>51</ele>
        <time>2021-03-28T13:48:59.000Z</time>
      </trkpt>
      <trkpt lat="47.07804" lon="-1.7539">
        <ele>52</ele>
        <time>2021-03-28T13:49:01.000Z</time>
      </trkpt>
      <trkpt lat="47.07796" lon="-1.75374">
        <ele>51</ele>
        <time>2021-03-28T13:49:03.000Z</time>
      </trkpt>
      <trkpt lat="47.07789" lon="-1.75356">
        <ele>51</ele>
        <time>2021-03-28T13:49:05.000Z</time>
      </trkpt>
      <trkpt lat="47.07781" lon="-1.75337">
        <ele>51</ele>
        <time>2021-03-28T13:49:07.000Z</time>
      </trkpt>
      <trkpt lat="47.07773" lon="-1.75319">
        <ele>50</ele>
        <time>2021-03-28T13:49:09.000Z</time>
      </trkpt>
      <trkpt lat="47.07765" lon="-1.753">
        <ele>51</ele>
        <time>2021-03-28T13:49:11.000Z</time>
      </trkpt>
      <trkpt lat="47.07758" lon="-1.75283">
        <ele>51</ele>
        <time>2021-03-28T13:49:13.000Z</time>
      </trkpt>
      <trkpt lat="47.07751" lon="-1.75265">
        <ele>51</ele>
        <time>2021-03-28T13:49:15.000Z</time>
      </trkpt>
      <trkpt lat="47.07745" lon="-1.75246">
        <ele>51</ele>
        <time>2021-03-28T13:49:17.000Z</time>
      </trkpt>
      <trkpt lat="47.07739" lon="-1.75228">
        <ele>51</ele>
        <time>2021-03-28T13:49:19.000Z</time>
      </trkpt>
      <trkpt lat="47.07733" lon="-1.75209">
        <ele>51</ele>
        <time>2021-03-28T13:49:21.000Z</time>
      </trkpt>
      <trkpt lat="47.07728" lon="-1.75191">
        <ele>51</ele>
        <time>2021-03-28T13:49:23.000Z</time>
      </trkpt>
      <trkpt lat="47.07723" lon="-1.75172">
        <ele>51</ele>
        <time>2021-03-28T13:49:25.000Z</time>
      </trkpt>
      <trkpt lat="47.07718" lon="-1.75153">
        <ele>51</ele>
        <time>2021-03-28T13:49:27.000Z</time>
      </trkpt>
      <trkpt lat="47.07713" lon="-1.75135">
        <ele>51</ele>
        <time>2021-03-28T13:49:29.000Z</time>
      </trkpt>
      <trkpt lat="47.07709" lon="-1.75116">
        <ele>52</ele>
        <time>2021-03-28T13:49:31.000Z</time>
      </trkpt>
      <trkpt lat="47.07708" lon="-1.75096">
        <ele>52</ele>
        <time>2021-03-28T13:49:33.000Z</time>
      </trkpt>
      <trkpt lat="47.07708" lon="-1.75077">
        <ele>52</ele>
        <time>2021-03-28T13:49:35.000Z</time>
      </trkpt>
      <trkpt lat="47.0771" lon="-1.75061">
        <ele>52</ele>
        <time>2021-03-28T13:49:37.000Z</time>
      </trkpt>
      <trkpt lat="47.07722" lon="-1.75057">
        <ele>52</ele>
        <time>2021-03-28T13:49:39.000Z</time>
      </trkpt>
      <trkpt lat="47.07736" lon="-1.75056">
        <ele>52</ele>
        <time>2021-03-28T13:49:41.000Z</time>
      </trkpt>
      <trkpt lat="47.0775" lon="-1.75055">
        <ele>52</ele>
        <time>2021-03-28T13:49:43.000Z</time>
      </trkpt>
      <trkpt lat="47.07764" lon="-1.75055">
        <ele>51</ele>
        <time>2021-03-28T13:49:45.000Z</time>
      </trkpt>
      <trkpt lat="47.07778" lon="-1.75054">
        <ele>51</ele>
        <time>2021-03-28T13:49:47.000Z</time>
      </trkpt>
      <trkpt lat="47.07792" lon="-1.75053">
        <ele>51</ele>
        <time>2021-03-28T13:49:49.000Z</time>
      </trkpt>
      <trkpt lat="47.07806" lon="-1.75052">
        <ele>51</ele>
        <time>2021-03-28T13:49:51.000Z</time>
      </trkpt>
      <trkpt lat="47.0782" lon="-1.75051">
        <ele>50</ele>
        <time>2021-03-28T13:49:53.000Z</time>
      </trkpt>
      <trkpt lat="47.07835" lon="-1.75049">
        <ele>50</ele>
        <time>2021-03-28T13:49:55.000Z</time>
      </trkpt>
      <trkpt lat="47.07849" lon="-1.75044">
        <ele>50</ele>
        <time>2021-03-28T13:49:57.000Z</time>
      </trkpt>
      <trkpt lat="47.07863" lon="-1.75037">
        <ele>50</ele>
        <time>2021-03-28T13:49:59.000Z</time>
      </trkpt>
      <trkpt lat="47.07877" lon="-1.75029">
        <ele>49</ele>
        <time>2021-03-28T13:50:01.000Z</time>
      </trkpt>
      <trkpt lat="47.0789" lon="-1.7502">
        <ele>49</ele>
        <time>2021-03-28T13:50:03.000Z</time>
      </trkpt>
      <trkpt lat="47.07904" lon="-1.75013">
        <ele>49</ele>
        <time>2021-03-28T13:50:05.000Z</time>
      </trkpt>
      <trkpt lat="47.07917" lon="-1.75005">
        <ele>48</ele>
        <time>2021-03-28T13:50:07.000Z</time>
      </trkpt>
      <trkpt lat="47.0793" lon="-1.74998">
        <ele>47</ele>
        <time>2021-03-28T13:50:09.000Z</time>
      </trkpt>
      <trkpt lat="47.07943" lon="-1.7499">
        <ele>47</ele>
        <time>2021-03-28T13:50:11.000Z</time>
      </trkpt>
      <trkpt lat="47.07957" lon="-1.74982">
        <ele>47</ele>
        <time>2021-03-28T13:50:13.000Z</time>
      </trkpt>
      <trkpt lat="47.0797" lon="-1.74974">
        <ele>48</ele>
        <time>2021-03-28T13:50:15.000Z</time>
      </trkpt>
      <trkpt lat="47.07984" lon="-1.74966">
        <ele>47</ele>
        <time>2021-03-28T13:50:17.000Z</time>
      </trkpt>
      <trkpt lat="47.07997" lon="-1.74958">
        <ele>47</ele>
        <time>2021-03-28T13:50:19.000Z</time>
      </trkpt>
      <trkpt lat="47.08011" lon="-1.7495">
        <ele>47</ele>
        <time>2021-03-28T13:50:21.000Z</time>
      </trkpt>
      <trkpt lat="47.08024" lon="-1.74942">
        <ele>48</ele>
        <time>2021-03-28T13:50:23.000Z</time>
      </trkpt>
      <trkpt lat="47.08036" lon="-1.74933">
        <ele>48</ele>
        <time>2021-03-28T13:50:25.000Z</time>
      </trkpt>
      <trkpt lat="47.08048" lon="-1.74923">
        <ele>48</ele>
        <time>2021-03-28T13:50:27.000Z</time>
      </trkpt>
      <trkpt lat="47.08059" lon="-1.74909">
        <ele>49</ele>
        <time>2021-03-28T13:50:29.000Z</time>
      </trkpt>
      <trkpt lat="47.08071" lon="-1.74897">
        <ele>49</ele>
        <time>2021-03-28T13:50:31.000Z</time>
      </trkpt>
      <trkpt lat="47.08085" lon="-1.74886">
        <ele>49</ele>
        <time>2021-03-28T13:50:33.000Z</time>
      </trkpt>
      <trkpt lat="47.081" lon="-1.7488">
        <ele>49</ele>
        <time>2021-03-28T13:50:35.000Z</time>
      </trkpt>
      <trkpt lat="47.08114" lon="-1.74876">
        <ele>50</ele>
        <time>2021-03-28T13:50:37.000Z</time>
      </trkpt>
      <trkpt lat="47.08129" lon="-1.74871">
        <ele>50</ele>
        <time>2021-03-28T13:50:39.000Z</time>
      </trkpt>
      <trkpt lat="47.08143" lon="-1.74864">
        <ele>49</ele>
        <time>2021-03-28T13:50:41.000Z</time>
      </trkpt>
      <trkpt lat="47.08157" lon="-1.74854">
        <ele>49</ele>
        <time>2021-03-28T13:50:43.000Z</time>
      </trkpt>
      <trkpt lat="47.0817" lon="-1.74845">
        <ele>49</ele>
        <time>2021-03-28T13:50:45.000Z</time>
      </trkpt>
      <trkpt lat="47.08182" lon="-1.74834">
        <ele>49</ele>
        <time>2021-03-28T13:50:47.000Z</time>
      </trkpt>
      <trkpt lat="47.08192" lon="-1.74819">
        <ele>49</ele>
        <time>2021-03-28T13:50:49.000Z</time>
      </trkpt>
      <trkpt lat="47.08198" lon="-1.74801">
        <ele>48</ele>
        <time>2021-03-28T13:50:51.000Z</time>
      </trkpt>
      <trkpt lat="47.08202" lon="-1.74782">
        <ele>48</ele>
        <time>2021-03-28T13:50:53.000Z</time>
      </trkpt>
      <trkpt lat="47.08205" lon="-1.74763">
        <ele>48</ele>
        <time>2021-03-28T13:50:55.000Z</time>
      </trkpt>
      <trkpt lat="47.0821" lon="-1.74743">
        <ele>48</ele>
        <time>2021-03-28T13:50:57.000Z</time>
      </trkpt>
      <trkpt lat="47.08217" lon="-1.74725">
        <ele>48</ele>
        <time>2021-03-28T13:50:59.000Z</time>
      </trkpt>
      <trkpt lat="47.08225" lon="-1.74708">
        <ele>48</ele>
        <time>2021-03-28T13:51:01.000Z</time>
      </trkpt>
      <trkpt lat="47.08235" lon="-1.74693">
        <ele>49</ele>
        <time>2021-03-28T13:51:03.000Z</time>
      </trkpt>
      <trkpt lat="47.08244" lon="-1.74678">
        <ele>48</ele>
        <time>2021-03-28T13:51:05.000Z</time>
      </trkpt>
      <trkpt lat="47.08254" lon="-1.74664">
        <ele>48</ele>
        <time>2021-03-28T13:51:07.000Z</time>
      </trkpt>
      <trkpt lat="47.08264" lon="-1.7465">
        <ele>48</ele>
        <time>2021-03-28T13:51:09.000Z</time>
      </trkpt>
      <trkpt lat="47.08273" lon="-1.74636">
        <ele>48</ele>
        <time>2021-03-28T13:51:11.000Z</time>
      </trkpt>
      <trkpt lat="47.08283" lon="-1.74622">
        <ele>48</ele>
        <time>2021-03-28T13:51:13.000Z</time>
      </trkpt>
      <trkpt lat="47.08293" lon="-1.74608">
        <ele>48</ele>
        <time>2021-03-28T13:51:15.000Z</time>
      </trkpt>
      <trkpt lat="47.08302" lon="-1.74594">
        <ele>49</ele>
        <time>2021-03-28T13:51:17.000Z</time>
      </trkpt>
      <trkpt lat="47.08313" lon="-1.74583">
        <ele>49</ele>
        <time>2021-03-28T13:51:19.000Z</time>
      </trkpt>
      <trkpt lat="47.08325" lon="-1.74575">
        <ele>49</ele>
        <time>2021-03-28T13:51:21.000Z</time>
      </trkpt>
      <trkpt lat="47.08337" lon="-1.74568">
        <ele>49</ele>
        <time>2021-03-28T13:51:23.000Z</time>
      </trkpt>
      <trkpt lat="47.08349" lon="-1.74562">
        <ele>49</ele>
        <time>2021-03-28T13:51:25.000Z</time>
      </trkpt>
      <trkpt lat="47.08361" lon="-1.74556">
        <ele>49</ele>
        <time>2021-03-28T13:51:27.000Z</time>
      </trkpt>
      <trkpt lat="47.08373" lon="-1.74547">
        <ele>48</ele>
        <time>2021-03-28T13:51:29.000Z</time>
      </trkpt>
      <trkpt lat="47.08384" lon="-1.74535">
        <ele>48</ele>
        <time>2021-03-28T13:51:31.000Z</time>
      </trkpt>
      <trkpt lat="47.08394" lon="-1.74523">
        <ele>48</ele>
        <time>2021-03-28T13:51:33.000Z</time>
      </trkpt>
      <trkpt lat="47.08406" lon="-1.7451">
        <ele>48</ele>
        <time>2021-03-28T13:51:35.000Z</time>
      </trkpt>
      <trkpt lat="47.08418" lon="-1.74497">
        <ele>48</ele>
        <time>2021-03-28T13:51:37.000Z</time>
      </trkpt>
      <trkpt lat="47.08429" lon="-1.74484">
        <ele>48</ele>
        <time>2021-03-28T13:51:39.000Z</time>
      </trkpt>
      <trkpt lat="47.08441" lon="-1.74471">
        <ele>48</ele>
        <time>2021-03-28T13:51:41.000Z</time>
      </trkpt>
      <trkpt lat="47.08452" lon="-1.74458">
        <ele>48</ele>
        <time>2021-03-28T13:51:43.000Z</time>
      </trkpt>
      <trkpt lat="47.08463" lon="-1.74446">
        <ele>48</ele>
        <time>2021-03-28T13:51:45.000Z</time>
      </trkpt>
      <trkpt lat="47.08473" lon="-1.74434">
        <ele>48</ele>
        <time>2021-03-28T13:51:47.000Z</time>
      </trkpt>
      <trkpt lat="47.08483" lon="-1.74422">
        <ele>48</ele>
        <time>2021-03-28T13:51:49.000Z</time>
      </trkpt>
      <trkpt lat="47.08493" lon="-1.7441">
        <ele>48</ele>
        <time>2021-03-28T13:51:51.000Z</time>
      </trkpt>
      <trkpt lat="47.08503" lon="-1.74399">
        <ele>48</ele>
        <time>2021-03-28T13:51:53.000Z</time>
      </trkpt>
      <trkpt lat="47.08513" lon="-1.74387">
        <ele>49</ele>
        <time>2021-03-28T13:51:55.000Z</time>
      </trkpt>
      <trkpt lat="47.08523" lon="-1.74374">
        <ele>48</ele>
        <time>2021-03-28T13:51:57.000Z</time>
      </trkpt>
      <trkpt lat="47.0853" lon="-1.74358">
        <ele>48</ele>
        <time>2021-03-28T13:51:59.000Z</time>
      </trkpt>
      <trkpt lat="47.08534" lon="-1.74342">
        <ele>48</ele>
        <time>2021-03-28T13:52:01.000Z</time>
      </trkpt>
      <trkpt lat="47.08536" lon="-1.74324">
        <ele>47</ele>
        <time>2021-03-28T13:52:03.000Z</time>
      </trkpt>
      <trkpt lat="47.0854" lon="-1.74306">
        <ele>47</ele>
        <time>2021-03-28T13:52:05.000Z</time>
      </trkpt>
      <trkpt lat="47.08545" lon="-1.74289">
        <ele>47</ele>
        <time>2021-03-28T13:52:07.000Z</time>
      </trkpt>
      <trkpt lat="47.08553" lon="-1.74273">
        <ele>48</ele>
        <time>2021-03-28T13:52:09.000Z</time>
      </trkpt>
      <trkpt lat="47.08563" lon="-1.74259">
        <ele>48</ele>
        <time>2021-03-28T13:52:11.000Z</time>
      </trkpt>
      <trkpt lat="47.08573" lon="-1.74246">
        <ele>49</ele>
        <time>2021-03-28T13:52:13.000Z</time>
      </trkpt>
      <trkpt lat="47.08584" lon="-1.74233">
        <ele>48</ele>
        <time>2021-03-28T13:52:15.000Z</time>
      </trkpt>
      <trkpt lat="47.08595" lon="-1.7422">
        <ele>48</ele>
        <time>2021-03-28T13:52:17.000Z</time>
      </trkpt>
      <trkpt lat="47.08605" lon="-1.74207">
        <ele>48</ele>
        <time>2021-03-28T13:52:19.000Z</time>
      </trkpt>
      <trkpt lat="47.08616" lon="-1.74195">
        <ele>48</ele>
        <time>2021-03-28T13:52:21.000Z</time>
      </trkpt>
      <trkpt lat="47.08626" lon="-1.74182">
        <ele>49</ele>
        <time>2021-03-28T13:52:23.000Z</time>
      </trkpt>
      <trkpt lat="47.08636" lon="-1.7417">
        <ele>49</ele>
        <time>2021-03-28T13:52:25.000Z</time>
      </trkpt>
      <trkpt lat="47.08647" lon="-1.74157">
        <ele>50</ele>
        <time>2021-03-28T13:52:27.000Z</time>
      </trkpt>
      <trkpt lat="47.08656" lon="-1.74143">
        <ele>50</ele>
        <time>2021-03-28T13:52:29.000Z</time>
      </trkpt>
      <trkpt lat="47.08665" lon="-1.74127">
        <ele>50</ele>
        <time>2021-03-28T13:52:31.000Z</time>
      </trkpt>
      <trkpt lat="47.08673" lon="-1.7411">
        <ele>50</ele>
        <time>2021-03-28T13:52:33.000Z</time>
      </trkpt>
      <trkpt lat="47.08681" lon="-1.74092">
        <ele>50</ele>
        <time>2021-03-28T13:52:35.000Z</time>
      </trkpt>
      <trkpt lat="47.08688" lon="-1.74074">
        <ele>50</ele>
        <time>2021-03-28T13:52:37.000Z</time>
      </trkpt>
      <trkpt lat="47.08697" lon="-1.74056">
        <ele>51</ele>
        <time>2021-03-28T13:52:39.000Z</time>
      </trkpt>
      <trkpt lat="47.08704" lon="-1.74037">
        <ele>51</ele>
        <time>2021-03-28T13:52:41.000Z</time>
      </trkpt>
      <trkpt lat="47.08711" lon="-1.74018">
        <ele>51</ele>
        <time>2021-03-28T13:52:43.000Z</time>
      </trkpt>
      <trkpt lat="47.08718" lon="-1.74">
        <ele>51</ele>
        <time>2021-03-28T13:52:45.000Z</time>
      </trkpt>
      <trkpt lat="47.08727" lon="-1.73981">
        <ele>51</ele>
        <time>2021-03-28T13:52:47.000Z</time>
      </trkpt>
      <trkpt lat="47.08735" lon="-1.73964">
        <ele>51</ele>
        <time>2021-03-28T13:52:49.000Z</time>
      </trkpt>
      <trkpt lat="47.08744" lon="-1.73947">
        <ele>51</ele>
        <time>2021-03-28T13:52:51.000Z</time>
      </trkpt>
      <trkpt lat="47.08752" lon="-1.73928">
        <ele>51</ele>
        <time>2021-03-28T13:52:53.000Z</time>
      </trkpt>
      <trkpt lat="47.08761" lon="-1.73908">
        <ele>51</ele>
        <time>2021-03-28T13:52:55.000Z</time>
      </trkpt>
      <trkpt lat="47.0877" lon="-1.73889">
        <ele>51</ele>
        <time>2021-03-28T13:52:57.000Z</time>
      </trkpt>
      <trkpt lat="47.08779" lon="-1.73871">
        <ele>51</ele>
        <time>2021-03-28T13:52:59.000Z</time>
      </trkpt>
      <trkpt lat="47.08791" lon="-1.73854">
        <ele>51</ele>
        <time>2021-03-28T13:53:01.000Z</time>
      </trkpt>
      <trkpt lat="47.08802" lon="-1.73838">
        <ele>51</ele>
        <time>2021-03-28T13:53:03.000Z</time>
      </trkpt>
      <trkpt lat="47.08814" lon="-1.73824">
        <ele>50</ele>
        <time>2021-03-28T13:53:05.000Z</time>
      </trkpt>
      <trkpt lat="47.08825" lon="-1.7381">
        <ele>50</ele>
        <time>2021-03-28T13:53:07.000Z</time>
      </trkpt>
      <trkpt lat="47.08838" lon="-1.73795">
        <ele>50</ele>
        <time>2021-03-28T13:53:09.000Z</time>
      </trkpt>
      <trkpt lat="47.08849" lon="-1.7378">
        <ele>50</ele>
        <time>2021-03-28T13:53:11.000Z</time>
      </trkpt>
      <trkpt lat="47.0886" lon="-1.73762">
        <ele>50</ele>
        <time>2021-03-28T13:53:13.000Z</time>
      </trkpt>
      <trkpt lat="47.08869" lon="-1.73744">
        <ele>50</ele>
        <time>2021-03-28T13:53:15.000Z</time>
      </trkpt>
      <trkpt lat="47.08878" lon="-1.73727">
        <ele>50</ele>
        <time>2021-03-28T13:53:17.000Z</time>
      </trkpt>
      <trkpt lat="47.08887" lon="-1.73709">
        <ele>50</ele>
        <time>2021-03-28T13:53:19.000Z</time>
      </trkpt>
      <trkpt lat="47.08895" lon="-1.73692">
        <ele>50</ele>
        <time>2021-03-28T13:53:21.000Z</time>
      </trkpt>
      <trkpt lat="47.08904" lon="-1.73674">
        <ele>50</ele>
        <time>2021-03-28T13:53:23.000Z</time>
      </trkpt>
      <trkpt lat="47.08911" lon="-1.73656">
        <ele>50</ele>
        <time>2021-03-28T13:53:25.000Z</time>
      </trkpt>
      <trkpt lat="47.08916" lon="-1.73636">
        <ele>51</ele>
        <time>2021-03-28T13:53:27.000Z</time>
      </trkpt>
      <trkpt lat="47.08919" lon="-1.73615">
        <ele>51</ele>
        <time>2021-03-28T13:53:29.000Z</time>
      </trkpt>
      <trkpt lat="47.08922" lon="-1.73593">
        <ele>51</ele>
        <time>2021-03-28T13:53:31.000Z</time>
      </trkpt>
      <trkpt lat="47.08926" lon="-1.73574">
        <ele>51</ele>
        <time>2021-03-28T13:53:33.000Z</time>
      </trkpt>
      <trkpt lat="47.0893" lon="-1.73554">
        <ele>50</ele>
        <time>2021-03-28T13:53:35.000Z</time>
      </trkpt>
      <trkpt lat="47.08935" lon="-1.73534">
        <ele>50</ele>
        <time>2021-03-28T13:53:37.000Z</time>
      </trkpt>
      <trkpt lat="47.0894" lon="-1.73513">
        <ele>50</ele>
        <time>2021-03-28T13:53:39.000Z</time>
      </trkpt>
      <trkpt lat="47.08945" lon="-1.73493">
        <ele>50</ele>
        <time>2021-03-28T13:53:41.000Z</time>
      </trkpt>
      <trkpt lat="47.08951" lon="-1.73473">
        <ele>50</ele>
        <time>2021-03-28T13:53:43.000Z</time>
      </trkpt>
      <trkpt lat="47.0896" lon="-1.73456">
        <ele>50</ele>
        <time>2021-03-28T13:53:45.000Z</time>
      </trkpt>
      <trkpt lat="47.08969" lon="-1.7344">
        <ele>50</ele>
        <time>2021-03-28T13:53:47.000Z</time>
      </trkpt>
      <trkpt lat="47.0898" lon="-1.73426">
        <ele>49</ele>
        <time>2021-03-28T13:53:49.000Z</time>
      </trkpt>
      <trkpt lat="47.0899" lon="-1.73412">
        <ele>49</ele>
        <time>2021-03-28T13:53:51.000Z</time>
      </trkpt>
      <trkpt lat="47.09001" lon="-1.734">
        <ele>49</ele>
        <time>2021-03-28T13:53:53.000Z</time>
      </trkpt>
      <trkpt lat="47.09013" lon="-1.73389">
        <ele>49</ele>
        <time>2021-03-28T13:53:55.000Z</time>
      </trkpt>
      <trkpt lat="47.09025" lon="-1.73379">
        <ele>49</ele>
        <time>2021-03-28T13:53:57.000Z</time>
      </trkpt>
      <trkpt lat="47.09037" lon="-1.73368">
        <ele>49</ele>
        <time>2021-03-28T13:53:59.000Z</time>
      </trkpt>
      <trkpt lat="47.0905" lon="-1.73356">
        <ele>49</ele>
        <time>2021-03-28T13:54:01.000Z</time>
      </trkpt>
      <trkpt lat="47.09061" lon="-1.73345">
        <ele>49</ele>
        <time>2021-03-28T13:54:03.000Z</time>
      </trkpt>
      <trkpt lat="47.09074" lon="-1.73333">
        <ele>50</ele>
        <time>2021-03-28T13:54:05.000Z</time>
      </trkpt>
      <trkpt lat="47.09088" lon="-1.73321">
        <ele>50</ele>
        <time>2021-03-28T13:54:07.000Z</time>
      </trkpt>
      <trkpt lat="47.09103" lon="-1.73309">
        <ele>49</ele>
        <time>2021-03-28T13:54:09.000Z</time>
      </trkpt>
      <trkpt lat="47.09117" lon="-1.73297">
        <ele>49</ele>
        <time>2021-03-28T13:54:11.000Z</time>
      </trkpt>
      <trkpt lat="47.09131" lon="-1.73286">
        <ele>50</ele>
        <time>2021-03-28T13:54:13.000Z</time>
      </trkpt>
      <trkpt lat="47.09144" lon="-1.73276">
        <ele>49</ele>
        <time>2021-03-28T13:54:15.000Z</time>
      </trkpt>
      <trkpt lat="47.09157" lon="-1.73266">
        <ele>49</ele>
        <time>2021-03-28T13:54:17.000Z</time>
      </trkpt>
      <trkpt lat="47.0917" lon="-1.73255">
        <ele>49</ele>
        <time>2021-03-28T13:54:19.000Z</time>
      </trkpt>
      <trkpt lat="47.09183" lon="-1.73245">
        <ele>49</ele>
        <time>2021-03-28T13:54:21.000Z</time>
      </trkpt>
      <trkpt lat="47.09196" lon="-1.73236">
        <ele>49</ele>
        <time>2021-03-28T13:54:23.000Z</time>
      </trkpt>
      <trkpt lat="47.09208" lon="-1.73226">
        <ele>48</ele>
        <time>2021-03-28T13:54:25.000Z</time>
      </trkpt>
      <trkpt lat="47.0922" lon="-1.73216">
        <ele>49</ele>
        <time>2021-03-28T13:54:27.000Z</time>
      </trkpt>
      <trkpt lat="47.09232" lon="-1.73206">
        <ele>48</ele>
        <time>2021-03-28T13:54:29.000Z</time>
      </trkpt>
      <trkpt lat="47.09245" lon="-1.73197">
        <ele>48</ele>
        <time>2021-03-28T13:54:31.000Z</time>
      </trkpt>
      <trkpt lat="47.09257" lon="-1.73187">
        <ele>48</ele>
        <time>2021-03-28T13:54:33.000Z</time>
      </trkpt>
      <trkpt lat="47.09269" lon="-1.73179">
        <ele>48</ele>
        <time>2021-03-28T13:54:35.000Z</time>
      </trkpt>
      <trkpt lat="47.0928" lon="-1.73169">
        <ele>48</ele>
        <time>2021-03-28T13:54:37.000Z</time>
      </trkpt>
      <trkpt lat="47.09292" lon="-1.73159">
        <ele>48</ele>
        <time>2021-03-28T13:54:39.000Z</time>
      </trkpt>
      <trkpt lat="47.09305" lon="-1.73148">
        <ele>48</ele>
        <time>2021-03-28T13:54:41.000Z</time>
      </trkpt>
      <trkpt lat="47.09317" lon="-1.73138">
        <ele>48</ele>
        <time>2021-03-28T13:54:43.000Z</time>
      </trkpt>
      <trkpt lat="47.0933" lon="-1.73128">
        <ele>48</ele>
        <time>2021-03-28T13:54:45.000Z</time>
      </trkpt>
      <trkpt lat="47.09342" lon="-1.73118">
        <ele>48</ele>
        <time>2021-03-28T13:54:47.000Z</time>
      </trkpt>
      <trkpt lat="47.09354" lon="-1.73108">
        <ele>48</ele>
        <time>2021-03-28T13:54:49.000Z</time>
      </trkpt>
      <trkpt lat="47.09365" lon="-1.73097">
        <ele>48</ele>
        <time>2021-03-28T13:54:51.000Z</time>
      </trkpt>
      <trkpt lat="47.09374" lon="-1.73084">
        <ele>48</ele>
        <time>2021-03-28T13:54:53.000Z</time>
      </trkpt>
      <trkpt lat="47.0938" lon="-1.73068">
        <ele>48</ele>
        <time>2021-03-28T13:54:55.000Z</time>
      </trkpt>
      <trkpt lat="47.09384" lon="-1.73047">
        <ele>48</ele>
        <time>2021-03-28T13:54:57.000Z</time>
      </trkpt>
      <trkpt lat="47.09387" lon="-1.73024">
        <ele>48</ele>
        <time>2021-03-28T13:54:59.000Z</time>
      </trkpt>
      <trkpt lat="47.09389" lon="-1.73001">
        <ele>48</ele>
        <time>2021-03-28T13:55:01.000Z</time>
      </trkpt>
      <trkpt lat="47.09391" lon="-1.7298">
        <ele>48</ele>
        <time>2021-03-28T13:55:03.000Z</time>
      </trkpt>
      <trkpt lat="47.09397" lon="-1.7296">
        <ele>48</ele>
        <time>2021-03-28T13:55:05.000Z</time>
      </trkpt>
      <trkpt lat="47.09404" lon="-1.72941">
        <ele>49</ele>
        <time>2021-03-28T13:55:07.000Z</time>
      </trkpt>
      <trkpt lat="47.09412" lon="-1.72923">
        <ele>49</ele>
        <time>2021-03-28T13:55:09.000Z</time>
      </trkpt>
      <trkpt lat="47.0942" lon="-1.72908">
        <ele>49</ele>
        <time>2021-03-28T13:55:11.000Z</time>
      </trkpt>
      <trkpt lat="47.09428" lon="-1.72892">
        <ele>49</ele>
        <time>2021-03-28T13:55:13.000Z</time>
      </trkpt>
      <trkpt lat="47.09435" lon="-1.72877">
        <ele>49</ele>
        <time>2021-03-28T13:55:15.000Z</time>
      </trkpt>
      <trkpt lat="47.09443" lon="-1.7286">
        <ele>49</ele>
        <time>2021-03-28T13:55:17.000Z</time>
      </trkpt>
      <trkpt lat="47.09451" lon="-1.72843">
        <ele>49</ele>
        <time>2021-03-28T13:55:19.000Z</time>
      </trkpt>
      <trkpt lat="47.09458" lon="-1.72826">
        <ele>49</ele>
        <time>2021-03-28T13:55:21.000Z</time>
      </trkpt>
      <trkpt lat="47.09466" lon="-1.72808">
        <ele>50</ele>
        <time>2021-03-28T13:55:23.000Z</time>
      </trkpt>
      <trkpt lat="47.09474" lon="-1.72791">
        <ele>50</ele>
        <time>2021-03-28T13:55:25.000Z</time>
      </trkpt>
      <trkpt lat="47.09483" lon="-1.72773">
        <ele>50</ele>
        <time>2021-03-28T13:55:27.000Z</time>
      </trkpt>
      <trkpt lat="47.09492" lon="-1.72756">
        <ele>50</ele>
        <time>2021-03-28T13:55:29.000Z</time>
      </trkpt>
      <trkpt lat="47.095" lon="-1.72739">
        <ele>50</ele>
        <time>2021-03-28T13:55:31.000Z</time>
      </trkpt>
      <trkpt lat="47.09508" lon="-1.72721">
        <ele>50</ele>
        <time>2021-03-28T13:55:33.000Z</time>
      </trkpt>
      <trkpt lat="47.09517" lon="-1.72705">
        <ele>50</ele>
        <time>2021-03-28T13:55:35.000Z</time>
      </trkpt>
      <trkpt lat="47.09526" lon="-1.72689">
        <ele>49</ele>
        <time>2021-03-28T13:55:37.000Z</time>
      </trkpt>
      <trkpt lat="47.09538" lon="-1.7268">
        <ele>49</ele>
        <time>2021-03-28T13:55:39.000Z</time>
      </trkpt>
      <trkpt lat="47.09551" lon="-1.72679">
        <ele>50</ele>
        <time>2021-03-28T13:55:41.000Z</time>
      </trkpt>
      <trkpt lat="47.09563" lon="-1.72684">
        <ele>50</ele>
        <time>2021-03-28T13:55:43.000Z</time>
      </trkpt>
      <trkpt lat="47.09576" lon="-1.72688">
        <ele>51</ele>
        <time>2021-03-28T13:55:45.000Z</time>
      </trkpt>
      <trkpt lat="47.09588" lon="-1.72693">
        <ele>51</ele>
        <time>2021-03-28T13:55:47.000Z</time>
      </trkpt>
      <trkpt lat="47.09599" lon="-1.72699">
        <ele>52</ele>
        <time>2021-03-28T13:55:49.000Z</time>
      </trkpt>
      <trkpt lat="47.09611" lon="-1.72704">
        <ele>52</ele>
        <time>2021-03-28T13:55:51.000Z</time>
      </trkpt>
      <trkpt lat="47.09622" lon="-1.72709">
        <ele>52</ele>
        <time>2021-03-28T13:55:53.000Z</time>
      </trkpt>
      <trkpt lat="47.09632" lon="-1.72714">
        <ele>52</ele>
        <time>2021-03-28T13:55:55.000Z</time>
      </trkpt>
      <trkpt lat="47.09643" lon="-1.72718">
        <ele>52</ele>
        <time>2021-03-28T13:55:57.000Z</time>
      </trkpt>
      <trkpt lat="47.09653" lon="-1.72721">
        <ele>52</ele>
        <time>2021-03-28T13:55:59.000Z</time>
      </trkpt>
      <trkpt lat="47.09665" lon="-1.72724">
        <ele>53</ele>
        <time>2021-03-28T13:56:01.000Z</time>
      </trkpt>
      <trkpt lat="47.09676" lon="-1.72727">
        <ele>53</ele>
        <time>2021-03-28T13:56:03.000Z</time>
      </trkpt>
      <trkpt lat="47.09687" lon="-1.72731">
        <ele>53</ele>
        <time>2021-03-28T13:56:05.000Z</time>
      </trkpt>
      <trkpt lat="47.09698" lon="-1.72738">
        <ele>52</ele>
        <time>2021-03-28T13:56:07.000Z</time>
      </trkpt>
      <trkpt lat="47.09707" lon="-1.72748">
        <ele>53</ele>
        <time>2021-03-28T13:56:09.000Z</time>
      </trkpt>
      <trkpt lat="47.09715" lon="-1.72762">
        <ele>53</ele>
        <time>2021-03-28T13:56:11.000Z</time>
      </trkpt>
      <trkpt lat="47.09721" lon="-1.72776">
        <ele>53</ele>
        <time>2021-03-28T13:56:13.000Z</time>
      </trkpt>
      <trkpt lat="47.09727" lon="-1.7279">
        <ele>53</ele>
        <time>2021-03-28T13:56:15.000Z</time>
      </trkpt>
      <trkpt lat="47.09734" lon="-1.72805">
        <ele>54</ele>
        <time>2021-03-28T13:56:17.000Z</time>
      </trkpt>
      <trkpt lat="47.0974" lon="-1.7282">
        <ele>53</ele>
        <time>2021-03-28T13:56:19.000Z</time>
      </trkpt>
      <trkpt lat="47.09746" lon="-1.72834">
        <ele>54</ele>
        <time>2021-03-28T13:56:21.000Z</time>
      </trkpt>
      <trkpt lat="47.09752" lon="-1.72848">
        <ele>53</ele>
        <time>2021-03-28T13:56:23.000Z</time>
      </trkpt>
      <trkpt lat="47.09758" lon="-1.72861">
        <ele>54</ele>
        <time>2021-03-28T13:56:25.000Z</time>
      </trkpt>
      <trkpt lat="47.09765" lon="-1.72872">
        <ele>54</ele>
        <time>2021-03-28T13:56:27.000Z</time>
      </trkpt>
      <trkpt lat="47.09776" lon="-1.7287">
        <ele>54</ele>
        <time>2021-03-28T13:56:29.000Z</time>
      </trkpt>
      <trkpt lat="47.09784" lon="-1.7286">
        <ele>54</ele>
        <time>2021-03-28T13:56:31.000Z</time>
      </trkpt>
      <trkpt lat="47.09794" lon="-1.72848">
        <ele>54</ele>
        <time>2021-03-28T13:56:33.000Z</time>
      </trkpt>
      <trkpt lat="47.09806" lon="-1.72837">
        <ele>54</ele>
        <time>2021-03-28T13:56:35.000Z</time>
      </trkpt>
      <trkpt lat="47.09819" lon="-1.72828">
        <ele>54</ele>
        <time>2021-03-28T13:56:37.000Z</time>
      </trkpt>
      <trkpt lat="47.09831" lon="-1.72821">
        <ele>55</ele>
        <time>2021-03-28T13:56:39.000Z</time>
      </trkpt>
      <trkpt lat="47.09843" lon="-1.72814">
        <ele>55</ele>
        <time>2021-03-28T13:56:41.000Z</time>
      </trkpt>
      <trkpt lat="47.09855" lon="-1.72808">
        <ele>55</ele>
        <time>2021-03-28T13:56:43.000Z</time>
      </trkpt>
      <trkpt lat="47.09867" lon="-1.72802">
        <ele>55</ele>
        <time>2021-03-28T13:56:45.000Z</time>
      </trkpt>
      <trkpt lat="47.09878" lon="-1.72796">
        <ele>55</ele>
        <time>2021-03-28T13:56:47.000Z</time>
      </trkpt>
      <trkpt lat="47.09889" lon="-1.72791">
        <ele>55</ele>
        <time>2021-03-28T13:56:49.000Z</time>
      </trkpt>
      <trkpt lat="47.099" lon="-1.72785">
        <ele>55</ele>
        <time>2021-03-28T13:56:51.000Z</time>
      </trkpt>
      <trkpt lat="47.09912" lon="-1.72779">
        <ele>56</ele>
        <time>2021-03-28T13:56:53.000Z</time>
      </trkpt>
      <trkpt lat="47.09923" lon="-1.72773">
        <ele>56</ele>
        <time>2021-03-28T13:56:55.000Z</time>
      </trkpt>
      <trkpt lat="47.09934" lon="-1.72767">
        <ele>56</ele>
        <time>2021-03-28T13:56:57.000Z</time>
      </trkpt>
      <trkpt lat="47.09946" lon="-1.72761">
        <ele>56</ele>
        <time>2021-03-28T13:56:59.000Z</time>
      </trkpt>
      <trkpt lat="47.09957" lon="-1.72755">
        <ele>57</ele>
        <time>2021-03-28T13:57:01.000Z</time>
      </trkpt>
      <trkpt lat="47.09969" lon="-1.72749">
        <ele>57</ele>
        <time>2021-03-28T13:57:03.000Z</time>
      </trkpt>
      <trkpt lat="47.09981" lon="-1.72742">
        <ele>57</ele>
        <time>2021-03-28T13:57:05.000Z</time>
      </trkpt>
      <trkpt lat="47.09992" lon="-1.72734">
        <ele>57</ele>
        <time>2021-03-28T13:57:07.000Z</time>
      </trkpt>
      <trkpt lat="47.10003" lon="-1.72726">
        <ele>57</ele>
        <time>2021-03-28T13:57:09.000Z</time>
      </trkpt>
      <trkpt lat="47.10015" lon="-1.72717">
        <ele>57</ele>
        <time>2021-03-28T13:57:11.000Z</time>
      </trkpt>
      <trkpt lat="47.10026" lon="-1.72708">
        <ele>57</ele>
        <time>2021-03-28T13:57:13.000Z</time>
      </trkpt>
      <trkpt lat="47.10037" lon="-1.72697">
        <ele>57</ele>
        <time>2021-03-28T13:57:15.000Z</time>
      </trkpt>
      <trkpt lat="47.10048" lon="-1.72688">
        <ele>57</ele>
        <time>2021-03-28T13:57:17.000Z</time>
      </trkpt>
      <trkpt lat="47.10058" lon="-1.72678">
        <ele>57</ele>
        <time>2021-03-28T13:57:19.000Z</time>
      </trkpt>
      <trkpt lat="47.10068" lon="-1.72667">
        <ele>58</ele>
        <time>2021-03-28T13:57:21.000Z</time>
      </trkpt>
      <trkpt lat="47.10079" lon="-1.72657">
        <ele>58</ele>
        <time>2021-03-28T13:57:23.000Z</time>
      </trkpt>
      <trkpt lat="47.10089" lon="-1.72646">
        <ele>58</ele>
        <time>2021-03-28T13:57:25.000Z</time>
      </trkpt>
      <trkpt lat="47.10099" lon="-1.72635">
        <ele>58</ele>
        <time>2021-03-28T13:57:27.000Z</time>
      </trkpt>
      <trkpt lat="47.1011" lon="-1.72625">
        <ele>58</ele>
        <time>2021-03-28T13:57:29.000Z</time>
      </trkpt>
      <trkpt lat="47.1012" lon="-1.72615">
        <ele>59</ele>
        <time>2021-03-28T13:57:31.000Z</time>
      </trkpt>
      <trkpt lat="47.1013" lon="-1.72605">
        <ele>59</ele>
        <time>2021-03-28T13:57:33.000Z</time>
      </trkpt>
      <trkpt lat="47.1014" lon="-1.72594">
        <ele>59</ele>
        <time>2021-03-28T13:57:35.000Z</time>
      </trkpt>
      <trkpt lat="47.10151" lon="-1.72583">
        <ele>59</ele>
        <time>2021-03-28T13:57:37.000Z</time>
      </trkpt>
      <trkpt lat="47.10161" lon="-1.7257">
        <ele>59</ele>
        <time>2021-03-28T13:57:39.000Z</time>
      </trkpt>
      <trkpt lat="47.1017" lon="-1.72557">
        <ele>59</ele>
        <time>2021-03-28T13:57:41.000Z</time>
      </trkpt>
      <trkpt lat="47.1018" lon="-1.72544">
        <ele>59</ele>
        <time>2021-03-28T13:57:43.000Z</time>
      </trkpt>
      <trkpt lat="47.1019" lon="-1.7253">
        <ele>58</ele>
        <time>2021-03-28T13:57:45.000Z</time>
      </trkpt>
      <trkpt lat="47.10199" lon="-1.72516">
        <ele>58</ele>
        <time>2021-03-28T13:57:47.000Z</time>
      </trkpt>
      <trkpt lat="47.10207" lon="-1.72501">
        <ele>57</ele>
        <time>2021-03-28T13:57:49.000Z</time>
      </trkpt>
      <trkpt lat="47.10215" lon="-1.72487">
        <ele>57</ele>
        <time>2021-03-28T13:57:51.000Z</time>
      </trkpt>
      <trkpt lat="47.10223" lon="-1.72472">
        <ele>57</ele>
        <time>2021-03-28T13:57:53.000Z</time>
      </trkpt>
      <trkpt lat="47.10231" lon="-1.72458">
        <ele>58</ele>
        <time>2021-03-28T13:57:55.000Z</time>
      </trkpt>
      <trkpt lat="47.1024" lon="-1.72443">
        <ele>58</ele>
        <time>2021-03-28T13:57:57.000Z</time>
      </trkpt>
      <trkpt lat="47.1025" lon="-1.72428">
        <ele>58</ele>
        <time>2021-03-28T13:57:59.000Z</time>
      </trkpt>
      <trkpt lat="47.10261" lon="-1.72415">
        <ele>57</ele>
        <time>2021-03-28T13:58:01.000Z</time>
      </trkpt>
      <trkpt lat="47.10273" lon="-1.72405">
        <ele>57</ele>
        <time>2021-03-28T13:58:03.000Z</time>
      </trkpt>
      <trkpt lat="47.10286" lon="-1.72396">
        <ele>57</ele>
        <time>2021-03-28T13:58:05.000Z</time>
      </trkpt>
      <trkpt lat="47.10299" lon="-1.72389">
        <ele>57</ele>
        <time>2021-03-28T13:58:07.000Z</time>
      </trkpt>
      <trkpt lat="47.10313" lon="-1.72381">
        <ele>57</ele>
        <time>2021-03-28T13:58:09.000Z</time>
      </trkpt>
      <trkpt lat="47.10326" lon="-1.72374">
        <ele>56</ele>
        <time>2021-03-28T13:58:11.000Z</time>
      </trkpt>
      <trkpt lat="47.10339" lon="-1.72367">
        <ele>56</ele>
        <time>2021-03-28T13:58:13.000Z</time>
      </trkpt>
      <trkpt lat="47.10353" lon="-1.7236">
        <ele>56</ele>
        <time>2021-03-28T13:58:15.000Z</time>
      </trkpt>
      <trkpt lat="47.10366" lon="-1.72353">
        <ele>55</ele>
        <time>2021-03-28T13:58:17.000Z</time>
      </trkpt>
      <trkpt lat="47.1038" lon="-1.72347">
        <ele>55</ele>
        <time>2021-03-28T13:58:19.000Z</time>
      </trkpt>
      <trkpt lat="47.10394" lon="-1.7234">
        <ele>54</ele>
        <time>2021-03-28T13:58:21.000Z</time>
      </trkpt>
      <trkpt lat="47.10407" lon="-1.72332">
        <ele>54</ele>
        <time>2021-03-28T13:58:23.000Z</time>
      </trkpt>
      <trkpt lat="47.10421" lon="-1.72325">
        <ele>54</ele>
        <time>2021-03-28T13:58:25.000Z</time>
      </trkpt>
      <trkpt lat="47.10435" lon="-1.72318">
        <ele>54</ele>
        <time>2021-03-28T13:58:27.000Z</time>
      </trkpt>
      <trkpt lat="47.10449" lon="-1.72311">
        <ele>54</ele>
        <time>2021-03-28T13:58:29.000Z</time>
      </trkpt>
      <trkpt lat="47.10463" lon="-1.72304">
        <ele>53</ele>
        <time>2021-03-28T13:58:31.000Z</time>
      </trkpt>
      <trkpt lat="47.10476" lon="-1.72297">
        <ele>53</ele>
        <time>2021-03-28T13:58:33.000Z</time>
      </trkpt>
      <trkpt lat="47.1049" lon="-1.72288">
        <ele>52</ele>
        <time>2021-03-28T13:58:35.000Z</time>
      </trkpt>
      <trkpt lat="47.10503" lon="-1.7228">
        <ele>52</ele>
        <time>2021-03-28T13:58:37.000Z</time>
      </trkpt>
      <trkpt lat="47.10516" lon="-1.72268">
        <ele>51</ele>
        <time>2021-03-28T13:58:39.000Z</time>
      </trkpt>
      <trkpt lat="47.10529" lon="-1.72254">
        <ele>51</ele>
        <time>2021-03-28T13:58:41.000Z</time>
      </trkpt>
      <trkpt lat="47.10539" lon="-1.72237">
        <ele>51</ele>
        <time>2021-03-28T13:58:43.000Z</time>
      </trkpt>
      <trkpt lat="47.1055" lon="-1.72222">
        <ele>51</ele>
        <time>2021-03-28T13:58:45.000Z</time>
      </trkpt>
      <trkpt lat="47.1056" lon="-1.72206">
        <ele>51</ele>
        <time>2021-03-28T13:58:47.000Z</time>
      </trkpt>
      <trkpt lat="47.1057" lon="-1.72191">
        <ele>51</ele>
        <time>2021-03-28T13:58:49.000Z</time>
      </trkpt>
      <trkpt lat="47.1058" lon="-1.72176">
        <ele>50</ele>
        <time>2021-03-28T13:58:51.000Z</time>
      </trkpt>
      <trkpt lat="47.1059" lon="-1.72162">
        <ele>50</ele>
        <time>2021-03-28T13:58:53.000Z</time>
      </trkpt>
      <trkpt lat="47.10602" lon="-1.7215">
        <ele>51</ele>
        <time>2021-03-28T13:58:55.000Z</time>
      </trkpt>
      <trkpt lat="47.10614" lon="-1.7214">
        <ele>51</ele>
        <time>2021-03-28T13:58:57.000Z</time>
      </trkpt>
      <trkpt lat="47.10626" lon="-1.72131">
        <ele>52</ele>
        <time>2021-03-28T13:58:59.000Z</time>
      </trkpt>
      <trkpt lat="47.10639" lon="-1.72125">
        <ele>52</ele>
        <time>2021-03-28T13:59:01.000Z</time>
      </trkpt>
      <trkpt lat="47.10653" lon="-1.7212">
        <ele>52</ele>
        <time>2021-03-28T13:59:03.000Z</time>
      </trkpt>
      <trkpt lat="47.10667" lon="-1.72116">
        <ele>53</ele>
        <time>2021-03-28T13:59:05.000Z</time>
      </trkpt>
      <trkpt lat="47.1068" lon="-1.72111">
        <ele>53</ele>
        <time>2021-03-28T13:59:07.000Z</time>
      </trkpt>
      <trkpt lat="47.10693" lon="-1.72109">
        <ele>53</ele>
        <time>2021-03-28T13:59:09.000Z</time>
      </trkpt>
      <trkpt lat="47.10706" lon="-1.72106">
        <ele>53</ele>
        <time>2021-03-28T13:59:11.000Z</time>
      </trkpt>
      <trkpt lat="47.10719" lon="-1.72103">
        <ele>53</ele>
        <time>2021-03-28T13:59:13.000Z</time>
      </trkpt>
      <trkpt lat="47.10732" lon="-1.721">
        <ele>52</ele>
        <time>2021-03-28T13:59:15.000Z</time>
      </trkpt>
      <trkpt lat="47.10747" lon="-1.72096">
        <ele>52</ele>
        <time>2021-03-28T13:59:17.000Z</time>
      </trkpt>
      <trkpt lat="47.10761" lon="-1.72097">
        <ele>51</ele>
        <time>2021-03-28T13:59:19.000Z</time>
      </trkpt>
      <trkpt lat="47.10775" lon="-1.721">
        <ele>51</ele>
        <time>2021-03-28T13:59:21.000Z</time>
      </trkpt>
      <trkpt lat="47.10788" lon="-1.72106">
        <ele>51</ele>
        <time>2021-03-28T13:59:23.000Z</time>
      </trkpt>
      <trkpt lat="47.10801" lon="-1.72114">
        <ele>51</ele>
        <time>2021-03-28T13:59:25.000Z</time>
      </trkpt>
      <trkpt lat="47.10812" lon="-1.72124">
        <ele>52</ele>
        <time>2021-03-28T13:59:27.000Z</time>
      </trkpt>
      <trkpt lat="47.10823" lon="-1.72137">
        <ele>52</ele>
        <time>2021-03-28T13:59:29.000Z</time>
      </trkpt>
      <trkpt lat="47.10835" lon="-1.7214">
        <ele>52</ele>
        <time>2021-03-28T13:59:31.000Z</time>
      </trkpt>
      <trkpt lat="47.10847" lon="-1.72137">
        <ele>52</ele>
        <time>2021-03-28T13:59:33.000Z</time>
      </trkpt>
      <trkpt lat="47.1086" lon="-1.72128">
        <ele>52</ele>
        <time>2021-03-28T13:59:35.000Z</time>
      </trkpt>
      <trkpt lat="47.1087" lon="-1.72115">
        <ele>53</ele>
        <time>2021-03-28T13:59:37.000Z</time>
      </trkpt>
      <trkpt lat="47.1088" lon="-1.72099">
        <ele>53</ele>
        <time>2021-03-28T13:59:39.000Z</time>
      </trkpt>
      <trkpt lat="47.10891" lon="-1.72084">
        <ele>53</ele>
        <time>2021-03-28T13:59:41.000Z</time>
      </trkpt>
      <trkpt lat="47.10901" lon="-1.72068">
        <ele>53</ele>
        <time>2021-03-28T13:59:43.000Z</time>
      </trkpt>
      <trkpt lat="47.1091" lon="-1.72054">
        <ele>53</ele>
        <time>2021-03-28T13:59:45.000Z</time>
      </trkpt>
      <trkpt lat="47.1092" lon="-1.7204">
        <ele>53</ele>
        <time>2021-03-28T13:59:47.000Z</time>
      </trkpt>
      <trkpt lat="47.1093" lon="-1.72026">
        <ele>54</ele>
        <time>2021-03-28T13:59:49.000Z</time>
      </trkpt>
      <trkpt lat="47.10939" lon="-1.72012">
        <ele>54</ele>
        <time>2021-03-28T13:59:51.000Z</time>
      </trkpt>
      <trkpt lat="47.10949" lon="-1.71998">
        <ele>54</ele>
        <time>2021-03-28T13:59:53.000Z</time>
      </trkpt>
      <trkpt lat="47.10959" lon="-1.71984">
        <ele>54</ele>
        <time>2021-03-28T13:59:55.000Z</time>
      </trkpt>
      <trkpt lat="47.10969" lon="-1.7197">
        <ele>55</ele>
        <time>2021-03-28T13:59:57.000Z</time>
      </trkpt>
      <trkpt lat="47.10978" lon="-1.71956">
        <ele>55</ele>
        <time>2021-03-28T13:59:59.000Z</time>
      </trkpt>
      <trkpt lat="47.10988" lon="-1.71943">
        <ele>55</ele>
        <time>2021-03-28T14:00:01.000Z</time>
      </trkpt>
      <trkpt lat="47.10998" lon="-1.71929">
        <ele>55</ele>
        <time>2021-03-28T14:00:03.000Z</time>
      </trkpt>
      <trkpt lat="47.11007" lon="-1.71915">
        <ele>55</ele>
        <time>2021-03-28T14:00:05.000Z</time>
      </trkpt>
      <trkpt lat="47.11016" lon="-1.71902">
        <ele>56</ele>
        <time>2021-03-28T14:00:07.000Z</time>
      </trkpt>
      <trkpt lat="47.11026" lon="-1.71888">
        <ele>56</ele>
        <time>2021-03-28T14:00:09.000Z</time>
      </trkpt>
      <trkpt lat="47.11036" lon="-1.71873">
        <ele>56</ele>
        <time>2021-03-28T14:00:11.000Z</time>
      </trkpt>
      <trkpt lat="47.11046" lon="-1.71859">
        <ele>56</ele>
        <time>2021-03-28T14:00:13.000Z</time>
      </trkpt>
      <trkpt lat="47.11057" lon="-1.71845">
        <ele>56</ele>
        <time>2021-03-28T14:00:15.000Z</time>
      </trkpt>
      <trkpt lat="47.11068" lon="-1.71832">
        <ele>55</ele>
        <time>2021-03-28T14:00:17.000Z</time>
      </trkpt>
      <trkpt lat="47.11079" lon="-1.7182">
        <ele>55</ele>
        <time>2021-03-28T14:00:19.000Z</time>
      </trkpt>
      <trkpt lat="47.1109" lon="-1.71808">
        <ele>55</ele>
        <time>2021-03-28T14:00:21.000Z</time>
      </trkpt>
      <trkpt lat="47.11101" lon="-1.71797">
        <ele>55</ele>
        <time>2021-03-28T14:00:23.000Z</time>
      </trkpt>
      <trkpt lat="47.11113" lon="-1.71787">
        <ele>55</ele>
        <time>2021-03-28T14:00:25.000Z</time>
      </trkpt>
      <trkpt lat="47.11125" lon="-1.71777">
        <ele>55</ele>
        <time>2021-03-28T14:00:27.000Z</time>
      </trkpt>
      <trkpt lat="47.11137" lon="-1.71766">
        <ele>55</ele>
        <time>2021-03-28T14:00:29.000Z</time>
      </trkpt>
      <trkpt lat="47.11149" lon="-1.71756">
        <ele>55</ele>
        <time>2021-03-28T14:00:31.000Z</time>
      </trkpt>
      <trkpt lat="47.11161" lon="-1.71745">
        <ele>54</ele>
        <time>2021-03-28T14:00:33.000Z</time>
      </trkpt>
      <trkpt lat="47.11173" lon="-1.71734">
        <ele>54</ele>
        <time>2021-03-28T14:00:35.000Z</time>
      </trkpt>
      <trkpt lat="47.11185" lon="-1.71723">
        <ele>54</ele>
        <time>2021-03-28T14:00:37.000Z</time>
      </trkpt>
      <trkpt lat="47.11198" lon="-1.71712">
        <ele>54</ele>
        <time>2021-03-28T14:00:39.000Z</time>
      </trkpt>
      <trkpt lat="47.1121" lon="-1.71701">
        <ele>53</ele>
        <time>2021-03-28T14:00:41.000Z</time>
      </trkpt>
      <trkpt lat="47.11223" lon="-1.7169">
        <ele>53</ele>
        <time>2021-03-28T14:00:43.000Z</time>
      </trkpt>
      <trkpt lat="47.11235" lon="-1.7168">
        <ele>53</ele>
        <time>2021-03-28T14:00:45.000Z</time>
      </trkpt>
      <trkpt lat="47.11249" lon="-1.71672">
        <ele>52</ele>
        <time>2021-03-28T14:00:47.000Z</time>
      </trkpt>
      <trkpt lat="47.11262" lon="-1.71671">
        <ele>52</ele>
        <time>2021-03-28T14:00:49.000Z</time>
      </trkpt>
      <trkpt lat="47.11277" lon="-1.71672">
        <ele>52</ele>
        <time>2021-03-28T14:00:51.000Z</time>
      </trkpt>
      <trkpt lat="47.1129" lon="-1.71668">
        <ele>52</ele>
        <time>2021-03-28T14:00:53.000Z</time>
      </trkpt>
      <trkpt lat="47.11304" lon="-1.71662">
        <ele>53</ele>
        <time>2021-03-28T14:00:55.000Z</time>
      </trkpt>
      <trkpt lat="47.11316" lon="-1.71653">
        <ele>53</ele>
        <time>2021-03-28T14:00:57.000Z</time>
      </trkpt>
      <trkpt lat="47.11328" lon="-1.71645">
        <ele>52</ele>
        <time>2021-03-28T14:00:59.000Z</time>
      </trkpt>
      <trkpt lat="47.1134" lon="-1.71636">
        <ele>52</ele>
        <time>2021-03-28T14:01:01.000Z</time>
      </trkpt>
      <trkpt lat="47.11349" lon="-1.7162">
        <ele>51</ele>
        <time>2021-03-28T14:01:03.000Z</time>
      </trkpt>
      <trkpt lat="47.11357" lon="-1.71602">
        <ele>51</ele>
        <time>2021-03-28T14:01:05.000Z</time>
      </trkpt>
      <trkpt lat="47.11367" lon="-1.71584">
        <ele>51</ele>
        <time>2021-03-28T14:01:07.000Z</time>
      </trkpt>
      <trkpt lat="47.11376" lon="-1.71566">
        <ele>51</ele>
        <time>2021-03-28T14:01:09.000Z</time>
      </trkpt>
      <trkpt lat="47.11384" lon="-1.71549">
        <ele>51</ele>
        <time>2021-03-28T14:01:11.000Z</time>
      </trkpt>
      <trkpt lat="47.11393" lon="-1.71532">
        <ele>51</ele>
        <time>2021-03-28T14:01:13.000Z</time>
      </trkpt>
      <trkpt lat="47.11402" lon="-1.71514">
        <ele>51</ele>
        <time>2021-03-28T14:01:15.000Z</time>
      </trkpt>
      <trkpt lat="47.11412" lon="-1.71497">
        <ele>51</ele>
        <time>2021-03-28T14:01:17.000Z</time>
      </trkpt>
      <trkpt lat="47.1142" lon="-1.7148">
        <ele>51</ele>
        <time>2021-03-28T14:01:19.000Z</time>
      </trkpt>
      <trkpt lat="47.11429" lon="-1.71462">
        <ele>51</ele>
        <time>2021-03-28T14:01:21.000Z</time>
      </trkpt>
      <trkpt lat="47.11438" lon="-1.71445">
        <ele>51</ele>
        <time>2021-03-28T14:01:23.000Z</time>
      </trkpt>
      <trkpt lat="47.11447" lon="-1.71428">
        <ele>51</ele>
        <time>2021-03-28T14:01:25.000Z</time>
      </trkpt>
      <trkpt lat="47.11455" lon="-1.71411">
        <ele>51</ele>
        <time>2021-03-28T14:01:27.000Z</time>
      </trkpt>
      <trkpt lat="47.11464" lon="-1.71394">
        <ele>52</ele>
        <time>2021-03-28T14:01:29.000Z</time>
      </trkpt>
      <trkpt lat="47.11472" lon="-1.71378">
        <ele>52</ele>
        <time>2021-03-28T14:01:31.000Z</time>
      </trkpt>
      <trkpt lat="47.11481" lon="-1.71361">
        <ele>52</ele>
        <time>2021-03-28T14:01:33.000Z</time>
      </trkpt>
      <trkpt lat="47.1149" lon="-1.71345">
        <ele>52</ele>
        <time>2021-03-28T14:01:35.000Z</time>
      </trkpt>
      <trkpt lat="47.11498" lon="-1.71329">
        <ele>53</ele>
        <time>2021-03-28T14:01:37.000Z</time>
      </trkpt>
      <trkpt lat="47.11506" lon="-1.71312">
        <ele>53</ele>
        <time>2021-03-28T14:01:39.000Z</time>
      </trkpt>
      <trkpt lat="47.11515" lon="-1.71295">
        <ele>53</ele>
        <time>2021-03-28T14:01:41.000Z</time>
      </trkpt>
      <trkpt lat="47.11523" lon="-1.71279">
        <ele>53</ele>
        <time>2021-03-28T14:01:43.000Z</time>
      </trkpt>
      <trkpt lat="47.11531" lon="-1.71263">
        <ele>53</ele>
        <time>2021-03-28T14:01:45.000Z</time>
      </trkpt>
      <trkpt lat="47.1154" lon="-1.71247">
        <ele>53</ele>
        <time>2021-03-28T14:01:47.000Z</time>
      </trkpt>
      <trkpt lat="47.11548" lon="-1.71232">
        <ele>53</ele>
        <time>2021-03-28T14:01:49.000Z</time>
      </trkpt>
      <trkpt lat="47.11558" lon="-1.71218">
        <ele>54</ele>
        <time>2021-03-28T14:01:51.000Z</time>
      </trkpt>
      <trkpt lat="47.11568" lon="-1.71204">
        <ele>54</ele>
        <time>2021-03-28T14:01:53.000Z</time>
      </trkpt>
      <trkpt lat="47.11577" lon="-1.71191">
        <ele>54</ele>
        <time>2021-03-28T14:01:55.000Z</time>
      </trkpt>
      <trkpt lat="47.11587" lon="-1.71178">
        <ele>54</ele>
        <time>2021-03-28T14:01:57.000Z</time>
      </trkpt>
      <trkpt lat="47.11598" lon="-1.71166">
        <ele>54</ele>
        <time>2021-03-28T14:01:59.000Z</time>
      </trkpt>
      <trkpt lat="47.11609" lon="-1.71155">
        <ele>54</ele>
        <time>2021-03-28T14:02:01.000Z</time>
      </trkpt>
      <trkpt lat="47.1162" lon="-1.71144">
        <ele>54</ele>
        <time>2021-03-28T14:02:03.000Z</time>
      </trkpt>
      <trkpt lat="47.11631" lon="-1.71133">
        <ele>54</ele>
        <time>2021-03-28T14:02:05.000Z</time>
      </trkpt>
      <trkpt lat="47.11642" lon="-1.71122">
        <ele>55</ele>
        <time>2021-03-28T14:02:07.000Z</time>
      </trkpt>
      <trkpt lat="47.11654" lon="-1.71113">
        <ele>55</ele>
        <time>2021-03-28T14:02:09.000Z</time>
      </trkpt>
      <trkpt lat="47.11666" lon="-1.71105">
        <ele>55</ele>
        <time>2021-03-28T14:02:11.000Z</time>
      </trkpt>
      <trkpt lat="47.11677" lon="-1.71097">
        <ele>54</ele>
        <time>2021-03-28T14:02:13.000Z</time>
      </trkpt>
      <trkpt lat="47.11689" lon="-1.71089">
        <ele>54</ele>
        <time>2021-03-28T14:02:15.000Z</time>
      </trkpt>
      <trkpt lat="47.11701" lon="-1.71081">
        <ele>54</ele>
        <time>2021-03-28T14:02:17.000Z</time>
      </trkpt>
      <trkpt lat="47.11713" lon="-1.71073">
        <ele>54</ele>
        <time>2021-03-28T14:02:19.000Z</time>
      </trkpt>
      <trkpt lat="47.11726" lon="-1.71065">
        <ele>54</ele>
        <time>2021-03-28T14:02:21.000Z</time>
      </trkpt>
      <trkpt lat="47.11739" lon="-1.71057">
        <ele>53</ele>
        <time>2021-03-28T14:02:23.000Z</time>
      </trkpt>
      <trkpt lat="47.11752" lon="-1.71048">
        <ele>53</ele>
        <time>2021-03-28T14:02:25.000Z</time>
      </trkpt>
      <trkpt lat="47.11765" lon="-1.7104">
        <ele>52</ele>
        <time>2021-03-28T14:02:27.000Z</time>
      </trkpt>
      <trkpt lat="47.11778" lon="-1.71031">
        <ele>52</ele>
        <time>2021-03-28T14:02:29.000Z</time>
      </trkpt>
      <trkpt lat="47.11791" lon="-1.71023">
        <ele>52</ele>
        <time>2021-03-28T14:02:31.000Z</time>
      </trkpt>
      <trkpt lat="47.11804" lon="-1.71014">
        <ele>52</ele>
        <time>2021-03-28T14:02:33.000Z</time>
      </trkpt>
      <trkpt lat="47.11816" lon="-1.71006">
        <ele>52</ele>
        <time>2021-03-28T14:02:35.000Z</time>
      </trkpt>
      <trkpt lat="47.11829" lon="-1.70997">
        <ele>52</ele>
        <time>2021-03-28T14:02:37.000Z</time>
      </trkpt>
      <trkpt lat="47.11841" lon="-1.70989">
        <ele>52</ele>
        <time>2021-03-28T14:02:39.000Z</time>
      </trkpt>
      <trkpt lat="47.11854" lon="-1.70981">
        <ele>52</ele>
        <time>2021-03-28T14:02:41.000Z</time>
      </trkpt>
      <trkpt lat="47.11866" lon="-1.70973">
        <ele>52</ele>
        <time>2021-03-28T14:02:43.000Z</time>
      </trkpt>
      <trkpt lat="47.11879" lon="-1.70965">
        <ele>52</ele>
        <time>2021-03-28T14:02:45.000Z</time>
      </trkpt>
      <trkpt lat="47.11891" lon="-1.70957">
        <ele>52</ele>
        <time>2021-03-28T14:02:47.000Z</time>
      </trkpt>
      <trkpt lat="47.11903" lon="-1.70949">
        <ele>52</ele>
        <time>2021-03-28T14:02:49.000Z</time>
      </trkpt>
      <trkpt lat="47.11916" lon="-1.70941">
        <ele>52</ele>
        <time>2021-03-28T14:02:51.000Z</time>
      </trkpt>
      <trkpt lat="47.11928" lon="-1.70932">
        <ele>51</ele>
        <time>2021-03-28T14:02:53.000Z</time>
      </trkpt>
      <trkpt lat="47.11941" lon="-1.70924">
        <ele>52</ele>
        <time>2021-03-28T14:02:55.000Z</time>
      </trkpt>
      <trkpt lat="47.11953" lon="-1.70917">
        <ele>52</ele>
        <time>2021-03-28T14:02:57.000Z</time>
      </trkpt>
      <trkpt lat="47.11965" lon="-1.70909">
        <ele>52</ele>
        <time>2021-03-28T14:02:59.000Z</time>
      </trkpt>
      <trkpt lat="47.11977" lon="-1.70902">
        <ele>53</ele>
        <time>2021-03-28T14:03:01.000Z</time>
      </trkpt>
      <trkpt lat="47.11989" lon="-1.70894">
        <ele>53</ele>
        <time>2021-03-28T14:03:03.000Z</time>
      </trkpt>
      <trkpt lat="47.12001" lon="-1.70886">
        <ele>54</ele>
        <time>2021-03-28T14:03:05.000Z</time>
      </trkpt>
      <trkpt lat="47.12014" lon="-1.70877">
        <ele>54</ele>
        <time>2021-03-28T14:03:07.000Z</time>
      </trkpt>
      <trkpt lat="47.12027" lon="-1.70869">
        <ele>54</ele>
        <time>2021-03-28T14:03:09.000Z</time>
      </trkpt>
      <trkpt lat="47.1204" lon="-1.70861">
        <ele>55</ele>
        <time>2021-03-28T14:03:11.000Z</time>
      </trkpt>
      <trkpt lat="47.12052" lon="-1.70853">
        <ele>54</ele>
        <time>2021-03-28T14:03:13.000Z</time>
      </trkpt>
      <trkpt lat="47.12065" lon="-1.70845">
        <ele>54</ele>
        <time>2021-03-28T14:03:15.000Z</time>
      </trkpt>
      <trkpt lat="47.12078" lon="-1.70836">
        <ele>54</ele>
        <time>2021-03-28T14:03:17.000Z</time>
      </trkpt>
      <trkpt lat="47.1209" lon="-1.70828">
        <ele>54</ele>
        <time>2021-03-28T14:03:19.000Z</time>
      </trkpt>
      <trkpt lat="47.12103" lon="-1.70819">
        <ele>54</ele>
        <time>2021-03-28T14:03:21.000Z</time>
      </trkpt>
      <trkpt lat="47.12116" lon="-1.70811">
        <ele>54</ele>
        <time>2021-03-28T14:03:23.000Z</time>
      </trkpt>
      <trkpt lat="47.12129" lon="-1.70803">
        <ele>54</ele>
        <time>2021-03-28T14:03:25.000Z</time>
      </trkpt>
      <trkpt lat="47.12142" lon="-1.70794">
        <ele>53</ele>
        <time>2021-03-28T14:03:27.000Z</time>
      </trkpt>
      <trkpt lat="47.12156" lon="-1.70786">
        <ele>53</ele>
        <time>2021-03-28T14:03:29.000Z</time>
      </trkpt>
      <trkpt lat="47.12169" lon="-1.70776">
        <ele>53</ele>
        <time>2021-03-28T14:03:31.000Z</time>
      </trkpt>
      <trkpt lat="47.12182" lon="-1.70767">
        <ele>53</ele>
        <time>2021-03-28T14:03:33.000Z</time>
      </trkpt>
      <trkpt lat="47.12195" lon="-1.70757">
        <ele>53</ele>
        <time>2021-03-28T14:03:35.000Z</time>
      </trkpt>
      <trkpt lat="47.12208" lon="-1.70746">
        <ele>52</ele>
        <time>2021-03-28T14:03:37.000Z</time>
      </trkpt>
      <trkpt lat="47.12221" lon="-1.70735">
        <ele>52</ele>
        <time>2021-03-28T14:03:39.000Z</time>
      </trkpt>
      <trkpt lat="47.12233" lon="-1.70723">
        <ele>52</ele>
        <time>2021-03-28T14:03:41.000Z</time>
      </trkpt>
      <trkpt lat="47.12245" lon="-1.70709">
        <ele>52</ele>
        <time>2021-03-28T14:03:43.000Z</time>
      </trkpt>
      <trkpt lat="47.12256" lon="-1.70695">
        <ele>52</ele>
        <time>2021-03-28T14:03:45.000Z</time>
      </trkpt>
      <trkpt lat="47.12266" lon="-1.70681">
        <ele>52</ele>
        <time>2021-03-28T14:03:47.000Z</time>
      </trkpt>
      <trkpt lat="47.12277" lon="-1.70665">
        <ele>51</ele>
        <time>2021-03-28T14:03:49.000Z</time>
      </trkpt>
      <trkpt lat="47.12287" lon="-1.7065">
        <ele>51</ele>
        <time>2021-03-28T14:03:51.000Z</time>
      </trkpt>
      <trkpt lat="47.12297" lon="-1.70636">
        <ele>51</ele>
        <time>2021-03-28T14:03:53.000Z</time>
      </trkpt>
      <trkpt lat="47.12307" lon="-1.7062">
        <ele>51</ele>
        <time>2021-03-28T14:03:55.000Z</time>
      </trkpt>
      <trkpt lat="47.12317" lon="-1.70605">
        <ele>51</ele>
        <time>2021-03-28T14:03:57.000Z</time>
      </trkpt>
      <trkpt lat="47.12327" lon="-1.7059">
        <ele>51</ele>
        <time>2021-03-28T14:03:59.000Z</time>
      </trkpt>
      <trkpt lat="47.12337" lon="-1.70575">
        <ele>51</ele>
        <time>2021-03-28T14:04:01.000Z</time>
      </trkpt>
      <trkpt lat="47.12347" lon="-1.7056">
        <ele>51</ele>
        <time>2021-03-28T14:04:03.000Z</time>
      </trkpt>
      <trkpt lat="47.12356" lon="-1.70545">
        <ele>50</ele>
        <time>2021-03-28T14:04:05.000Z</time>
      </trkpt>
      <trkpt lat="47.12364" lon="-1.70528">
        <ele>50</ele>
        <time>2021-03-28T14:04:07.000Z</time>
      </trkpt>
      <trkpt lat="47.12372" lon="-1.7051">
        <ele>50</ele>
        <time>2021-03-28T14:04:09.000Z</time>
      </trkpt>
      <trkpt lat="47.12378" lon="-1.70491">
        <ele>50</ele>
        <time>2021-03-28T14:04:11.000Z</time>
      </trkpt>
      <trkpt lat="47.12383" lon="-1.70472">
        <ele>50</ele>
        <time>2021-03-28T14:04:13.000Z</time>
      </trkpt>
      <trkpt lat="47.12388" lon="-1.70453">
        <ele>50</ele>
        <time>2021-03-28T14:04:15.000Z</time>
      </trkpt>
      <trkpt lat="47.12392" lon="-1.70433">
        <ele>50</ele>
        <time>2021-03-28T14:04:17.000Z</time>
      </trkpt>
      <trkpt lat="47.12396" lon="-1.70414">
        <ele>50</ele>
        <time>2021-03-28T14:04:19.000Z</time>
      </trkpt>
      <trkpt lat="47.124" lon="-1.70395">
        <ele>50</ele>
        <time>2021-03-28T14:04:21.000Z</time>
      </trkpt>
      <trkpt lat="47.12403" lon="-1.70377">
        <ele>50</ele>
        <time>2021-03-28T14:04:23.000Z</time>
      </trkpt>
      <trkpt lat="47.12408" lon="-1.70358">
        <ele>50</ele>
        <time>2021-03-28T14:04:25.000Z</time>
      </trkpt>
      <trkpt lat="47.12412" lon="-1.70339">
        <ele>50</ele>
        <time>2021-03-28T14:04:27.000Z</time>
      </trkpt>
      <trkpt lat="47.12418" lon="-1.70321">
        <ele>51</ele>
        <time>2021-03-28T14:04:29.000Z</time>
      </trkpt>
      <trkpt lat="47.12425" lon="-1.70303">
        <ele>51</ele>
        <time>2021-03-28T14:04:31.000Z</time>
      </trkpt>
      <trkpt lat="47.12434" lon="-1.70287">
        <ele>51</ele>
        <time>2021-03-28T14:04:33.000Z</time>
      </trkpt>
      <trkpt lat="47.12445" lon="-1.70276">
        <ele>51</ele>
        <time>2021-03-28T14:04:35.000Z</time>
      </trkpt>
      <trkpt lat="47.12456" lon="-1.70265">
        <ele>51</ele>
        <time>2021-03-28T14:04:37.000Z</time>
      </trkpt>
      <trkpt lat="47.12469" lon="-1.70257">
        <ele>50</ele>
        <time>2021-03-28T14:04:39.000Z</time>
      </trkpt>
      <trkpt lat="47.12481" lon="-1.70249">
        <ele>51</ele>
        <time>2021-03-28T14:04:41.000Z</time>
      </trkpt>
      <trkpt lat="47.12494" lon="-1.70243">
        <ele>50</ele>
        <time>2021-03-28T14:04:43.000Z</time>
      </trkpt>
      <trkpt lat="47.12507" lon="-1.70235">
        <ele>51</ele>
        <time>2021-03-28T14:04:45.000Z</time>
      </trkpt>
      <trkpt lat="47.1252" lon="-1.70229">
        <ele>50</ele>
        <time>2021-03-28T14:04:47.000Z</time>
      </trkpt>
      <trkpt lat="47.12533" lon="-1.70222">
        <ele>50</ele>
        <time>2021-03-28T14:04:49.000Z</time>
      </trkpt>
      <trkpt lat="47.12546" lon="-1.70216">
        <ele>50</ele>
        <time>2021-03-28T14:04:51.000Z</time>
      </trkpt>
      <trkpt lat="47.12558" lon="-1.70209">
        <ele>50</ele>
        <time>2021-03-28T14:04:53.000Z</time>
      </trkpt>
      <trkpt lat="47.12571" lon="-1.70203">
        <ele>50</ele>
        <time>2021-03-28T14:04:55.000Z</time>
      </trkpt>
      <trkpt lat="47.12585" lon="-1.70195">
        <ele>50</ele>
        <time>2021-03-28T14:04:57.000Z</time>
      </trkpt>
      <trkpt lat="47.12598" lon="-1.70189">
        <ele>50</ele>
        <time>2021-03-28T14:04:59.000Z</time>
      </trkpt>
      <trkpt lat="47.1261" lon="-1.70183">
        <ele>50</ele>
        <time>2021-03-28T14:05:01.000Z</time>
      </trkpt>
      <trkpt lat="47.12623" lon="-1.70176">
        <ele>50</ele>
        <time>2021-03-28T14:05:03.000Z</time>
      </trkpt>
      <trkpt lat="47.12636" lon="-1.70169">
        <ele>50</ele>
        <time>2021-03-28T14:05:05.000Z</time>
      </trkpt>
      <trkpt lat="47.1265" lon="-1.70162">
        <ele>50</ele>
        <time>2021-03-28T14:05:07.000Z</time>
      </trkpt>
      <trkpt lat="47.12663" lon="-1.70155">
        <ele>50</ele>
        <time>2021-03-28T14:05:09.000Z</time>
      </trkpt>
      <trkpt lat="47.12675" lon="-1.70149">
        <ele>50</ele>
        <time>2021-03-28T14:05:11.000Z</time>
      </trkpt>
      <trkpt lat="47.12687" lon="-1.70143">
        <ele>50</ele>
        <time>2021-03-28T14:05:13.000Z</time>
      </trkpt>
      <trkpt lat="47.12699" lon="-1.70136">
        <ele>50</ele>
        <time>2021-03-28T14:05:15.000Z</time>
      </trkpt>
      <trkpt lat="47.12711" lon="-1.70129">
        <ele>50</ele>
        <time>2021-03-28T14:05:17.000Z</time>
      </trkpt>
      <trkpt lat="47.12723" lon="-1.70123">
        <ele>50</ele>
        <time>2021-03-28T14:05:19.000Z</time>
      </trkpt>
      <trkpt lat="47.12737" lon="-1.70117">
        <ele>50</ele>
        <time>2021-03-28T14:05:21.000Z</time>
      </trkpt>
      <trkpt lat="47.12749" lon="-1.7011">
        <ele>50</ele>
        <time>2021-03-28T14:05:23.000Z</time>
      </trkpt>
      <trkpt lat="47.12762" lon="-1.70104">
        <ele>50</ele>
        <time>2021-03-28T14:05:25.000Z</time>
      </trkpt>
      <trkpt lat="47.12774" lon="-1.70098">
        <ele>50</ele>
        <time>2021-03-28T14:05:27.000Z</time>
      </trkpt>
      <trkpt lat="47.12786" lon="-1.70092">
        <ele>50</ele>
        <time>2021-03-28T14:05:29.000Z</time>
      </trkpt>
      <trkpt lat="47.12799" lon="-1.70085">
        <ele>50</ele>
        <time>2021-03-28T14:05:31.000Z</time>
      </trkpt>
      <trkpt lat="47.12812" lon="-1.70078">
        <ele>50</ele>
        <time>2021-03-28T14:05:33.000Z</time>
      </trkpt>
      <trkpt lat="47.12824" lon="-1.70072">
        <ele>50</ele>
        <time>2021-03-28T14:05:35.000Z</time>
      </trkpt>
      <trkpt lat="47.12836" lon="-1.70066">
        <ele>50</ele>
        <time>2021-03-28T14:05:37.000Z</time>
      </trkpt>
      <trkpt lat="47.12849" lon="-1.70058">
        <ele>50</ele>
        <time>2021-03-28T14:05:39.000Z</time>
      </trkpt>
      <trkpt lat="47.12861" lon="-1.70052">
        <ele>50</ele>
        <time>2021-03-28T14:05:41.000Z</time>
      </trkpt>
      <trkpt lat="47.12874" lon="-1.70045">
        <ele>50</ele>
        <time>2021-03-28T14:05:43.000Z</time>
      </trkpt>
      <trkpt lat="47.12886" lon="-1.70038">
        <ele>50</ele>
        <time>2021-03-28T14:05:45.000Z</time>
      </trkpt>
      <trkpt lat="47.12897" lon="-1.70031">
        <ele>51</ele>
        <time>2021-03-28T14:05:47.000Z</time>
      </trkpt>
      <trkpt lat="47.12909" lon="-1.70024">
        <ele>51</ele>
        <time>2021-03-28T14:05:49.000Z</time>
      </trkpt>
      <trkpt lat="47.12922" lon="-1.70018">
        <ele>51</ele>
        <time>2021-03-28T14:05:51.000Z</time>
      </trkpt>
      <trkpt lat="47.12935" lon="-1.70011">
        <ele>50</ele>
        <time>2021-03-28T14:05:53.000Z</time>
      </trkpt>
      <trkpt lat="47.12948" lon="-1.70005">
        <ele>50</ele>
        <time>2021-03-28T14:05:55.000Z</time>
      </trkpt>
      <trkpt lat="47.12961" lon="-1.69999">
        <ele>50</ele>
        <time>2021-03-28T14:05:57.000Z</time>
      </trkpt>
      <trkpt lat="47.12973" lon="-1.69993">
        <ele>49</ele>
        <time>2021-03-28T14:05:59.000Z</time>
      </trkpt>
      <trkpt lat="47.12986" lon="-1.69986">
        <ele>49</ele>
        <time>2021-03-28T14:06:01.000Z</time>
      </trkpt>
      <trkpt lat="47.12998" lon="-1.6998">
        <ele>49</ele>
        <time>2021-03-28T14:06:03.000Z</time>
      </trkpt>
      <trkpt lat="47.13011" lon="-1.69973">
        <ele>49</ele>
        <time>2021-03-28T14:06:05.000Z</time>
      </trkpt>
      <trkpt lat="47.13024" lon="-1.69966">
        <ele>49</ele>
        <time>2021-03-28T14:06:07.000Z</time>
      </trkpt>
      <trkpt lat="47.13037" lon="-1.69959">
        <ele>50</ele>
        <time>2021-03-28T14:06:09.000Z</time>
      </trkpt>
      <trkpt lat="47.13049" lon="-1.69953">
        <ele>50</ele>
        <time>2021-03-28T14:06:11.000Z</time>
      </trkpt>
      <trkpt lat="47.13062" lon="-1.69947">
        <ele>50</ele>
        <time>2021-03-28T14:06:13.000Z</time>
      </trkpt>
      <trkpt lat="47.13074" lon="-1.6994">
        <ele>50</ele>
        <time>2021-03-28T14:06:15.000Z</time>
      </trkpt>
      <trkpt lat="47.13087" lon="-1.69933">
        <ele>50</ele>
        <time>2021-03-28T14:06:17.000Z</time>
      </trkpt>
      <trkpt lat="47.131" lon="-1.69926">
        <ele>50</ele>
        <time>2021-03-28T14:06:19.000Z</time>
      </trkpt>
      <trkpt lat="47.13112" lon="-1.6992">
        <ele>50</ele>
        <time>2021-03-28T14:06:21.000Z</time>
      </trkpt>
      <trkpt lat="47.13124" lon="-1.69913">
        <ele>50</ele>
        <time>2021-03-28T14:06:23.000Z</time>
      </trkpt>
      <trkpt lat="47.13137" lon="-1.69907">
        <ele>50</ele>
        <time>2021-03-28T14:06:25.000Z</time>
      </trkpt>
      <trkpt lat="47.13149" lon="-1.699">
        <ele>50</ele>
        <time>2021-03-28T14:06:27.000Z</time>
      </trkpt>
      <trkpt lat="47.13162" lon="-1.69894">
        <ele>51</ele>
        <time>2021-03-28T14:06:29.000Z</time>
      </trkpt>
      <trkpt lat="47.13174" lon="-1.69887">
        <ele>50</ele>
        <time>2021-03-28T14:06:31.000Z</time>
      </trkpt>
      <trkpt lat="47.13185" lon="-1.69882">
        <ele>50</ele>
        <time>2021-03-28T14:06:33.000Z</time>
      </trkpt>
      <trkpt lat="47.13198" lon="-1.69875">
        <ele>50</ele>
        <time>2021-03-28T14:06:35.000Z</time>
      </trkpt>
      <trkpt lat="47.13209" lon="-1.69869">
        <ele>51</ele>
        <time>2021-03-28T14:06:37.000Z</time>
      </trkpt>
      <trkpt lat="47.13221" lon="-1.69862">
        <ele>52</ele>
        <time>2021-03-28T14:06:39.000Z</time>
      </trkpt>
      <trkpt lat="47.13234" lon="-1.69855">
        <ele>52</ele>
        <time>2021-03-28T14:06:41.000Z</time>
      </trkpt>
      <trkpt lat="47.13246" lon="-1.69849">
        <ele>53</ele>
        <time>2021-03-28T14:06:43.000Z</time>
      </trkpt>
      <trkpt lat="47.13259" lon="-1.69843">
        <ele>53</ele>
        <time>2021-03-28T14:06:45.000Z</time>
      </trkpt>
      <trkpt lat="47.13273" lon="-1.69836">
        <ele>53</ele>
        <time>2021-03-28T14:06:47.000Z</time>
      </trkpt>
      <trkpt lat="47.13287" lon="-1.69828">
        <ele>53</ele>
        <time>2021-03-28T14:06:49.000Z</time>
      </trkpt>
      <trkpt lat="47.13301" lon="-1.6982">
        <ele>53</ele>
        <time>2021-03-28T14:06:51.000Z</time>
      </trkpt>
      <trkpt lat="47.13315" lon="-1.69814">
        <ele>52</ele>
        <time>2021-03-28T14:06:53.000Z</time>
      </trkpt>
      <trkpt lat="47.13329" lon="-1.69806">
        <ele>52</ele>
        <time>2021-03-28T14:06:55.000Z</time>
      </trkpt>
      <trkpt lat="47.13343" lon="-1.69799">
        <ele>51</ele>
        <time>2021-03-28T14:06:57.000Z</time>
      </trkpt>
      <trkpt lat="47.13357" lon="-1.69791">
        <ele>51</ele>
        <time>2021-03-28T14:06:59.000Z</time>
      </trkpt>
      <trkpt lat="47.1337" lon="-1.69784">
        <ele>51</ele>
        <time>2021-03-28T14:07:01.000Z</time>
      </trkpt>
      <trkpt lat="47.13384" lon="-1.69777">
        <ele>51</ele>
        <time>2021-03-28T14:07:03.000Z</time>
      </trkpt>
      <trkpt lat="47.13397" lon="-1.6977">
        <ele>51</ele>
        <time>2021-03-28T14:07:05.000Z</time>
      </trkpt>
      <trkpt lat="47.13416" lon="-1.69759">
        <ele>51</ele>
        <time>2021-03-28T14:07:08.000Z</time>
      </trkpt>
      <trkpt lat="47.13429" lon="-1.69752">
        <ele>52</ele>
        <time>2021-03-28T14:07:10.000Z</time>
      </trkpt>
      <trkpt lat="47.13442" lon="-1.69745">
        <ele>52</ele>
        <time>2021-03-28T14:07:12.000Z</time>
      </trkpt>
      <trkpt lat="47.13454" lon="-1.69739">
        <ele>52</ele>
        <time>2021-03-28T14:07:14.000Z</time>
      </trkpt>
      <trkpt lat="47.13467" lon="-1.69735">
        <ele>52</ele>
        <time>2021-03-28T14:07:16.000Z</time>
      </trkpt>
      <trkpt lat="47.13479" lon="-1.69732">
        <ele>52</ele>
        <time>2021-03-28T14:07:18.000Z</time>
      </trkpt>
      <trkpt lat="47.13493" lon="-1.69732">
        <ele>52</ele>
        <time>2021-03-28T14:07:20.000Z</time>
      </trkpt>
      <trkpt lat="47.13506" lon="-1.69732">
        <ele>52</ele>
        <time>2021-03-28T14:07:22.000Z</time>
      </trkpt>
      <trkpt lat="47.1352" lon="-1.69733">
        <ele>52</ele>
        <time>2021-03-28T14:07:24.000Z</time>
      </trkpt>
      <trkpt lat="47.13534" lon="-1.69733">
        <ele>51</ele>
        <time>2021-03-28T14:07:26.000Z</time>
      </trkpt>
      <trkpt lat="47.13547" lon="-1.69733">
        <ele>51</ele>
        <time>2021-03-28T14:07:28.000Z</time>
      </trkpt>
      <trkpt lat="47.13567" lon="-1.69733">
        <ele>51</ele>
        <time>2021-03-28T14:07:31.000Z</time>
      </trkpt>
      <trkpt lat="47.1358" lon="-1.69733">
        <ele>51</ele>
        <time>2021-03-28T14:07:33.000Z</time>
      </trkpt>
      <trkpt lat="47.13593" lon="-1.69733">
        <ele>51</ele>
        <time>2021-03-28T14:07:35.000Z</time>
      </trkpt>
      <trkpt lat="47.13606" lon="-1.69733">
        <ele>51</ele>
        <time>2021-03-28T14:07:37.000Z</time>
      </trkpt>
      <trkpt lat="47.13619" lon="-1.69732">
        <ele>52</ele>
        <time>2021-03-28T14:07:39.000Z</time>
      </trkpt>
      <trkpt lat="47.13632" lon="-1.69732">
        <ele>52</ele>
        <time>2021-03-28T14:07:41.000Z</time>
      </trkpt>
      <trkpt lat="47.13645" lon="-1.69732">
        <ele>52</ele>
        <time>2021-03-28T14:07:43.000Z</time>
      </trkpt>
      <trkpt lat="47.13665" lon="-1.69732">
        <ele>53</ele>
        <time>2021-03-28T14:07:46.000Z</time>
      </trkpt>
      <trkpt lat="47.13684" lon="-1.69733">
        <ele>53</ele>
        <time>2021-03-28T14:07:49.000Z</time>
      </trkpt>
      <trkpt lat="47.13696" lon="-1.69732">
        <ele>53</ele>
        <time>2021-03-28T14:07:51.000Z</time>
      </trkpt>
      <trkpt lat="47.13709" lon="-1.69731">
        <ele>54</ele>
        <time>2021-03-28T14:07:53.000Z</time>
      </trkpt>
      <trkpt lat="47.13721" lon="-1.6973">
        <ele>54</ele>
        <time>2021-03-28T14:07:55.000Z</time>
      </trkpt>
      <trkpt lat="47.13734" lon="-1.69727">
        <ele>54</ele>
        <time>2021-03-28T14:07:57.000Z</time>
      </trkpt>
      <trkpt lat="47.13746" lon="-1.69724">
        <ele>54</ele>
        <time>2021-03-28T14:07:59.000Z</time>
      </trkpt>
      <trkpt lat="47.13759" lon="-1.69721">
        <ele>54</ele>
        <time>2021-03-28T14:08:01.000Z</time>
      </trkpt>
      <trkpt lat="47.13772" lon="-1.69721">
        <ele>54</ele>
        <time>2021-03-28T14:08:03.000Z</time>
      </trkpt>
      <trkpt lat="47.13786" lon="-1.69721">
        <ele>54</ele>
        <time>2021-03-28T14:08:05.000Z</time>
      </trkpt>
      <trkpt lat="47.13805" lon="-1.69721">
        <ele>54</ele>
        <time>2021-03-28T14:08:08.000Z</time>
      </trkpt>
      <trkpt lat="47.13818" lon="-1.69722">
        <ele>54</ele>
        <time>2021-03-28T14:08:10.000Z</time>
      </trkpt>
      <trkpt lat="47.1383" lon="-1.69723">
        <ele>54</ele>
        <time>2021-03-28T14:08:12.000Z</time>
      </trkpt>
      <trkpt lat="47.13842" lon="-1.69722">
        <ele>54</ele>
        <time>2021-03-28T14:08:14.000Z</time>
      </trkpt>
      <trkpt lat="47.13855" lon="-1.6972">
        <ele>55</ele>
        <time>2021-03-28T14:08:16.000Z</time>
      </trkpt>
      <trkpt lat="47.13867" lon="-1.69718">
        <ele>55</ele>
        <time>2021-03-28T14:08:18.000Z</time>
      </trkpt>
      <trkpt lat="47.1388" lon="-1.69716">
        <ele>55</ele>
        <time>2021-03-28T14:08:20.000Z</time>
      </trkpt>
      <trkpt lat="47.13893" lon="-1.69714">
        <ele>54</ele>
        <time>2021-03-28T14:08:22.000Z</time>
      </trkpt>
      <trkpt lat="47.13906" lon="-1.69713">
        <ele>54</ele>
        <time>2021-03-28T14:08:24.000Z</time>
      </trkpt>
      <trkpt lat="47.13919" lon="-1.69712">
        <ele>54</ele>
        <time>2021-03-28T14:08:26.000Z</time>
      </trkpt>
      <trkpt lat="47.13932" lon="-1.69712">
        <ele>54</ele>
        <time>2021-03-28T14:08:28.000Z</time>
      </trkpt>
      <trkpt lat="47.13949" lon="-1.69714">
        <ele>54</ele>
        <time>2021-03-28T14:08:31.000Z</time>
      </trkpt>
      <trkpt lat="47.13961" lon="-1.69715">
        <ele>54</ele>
        <time>2021-03-28T14:08:33.000Z</time>
      </trkpt>
      <trkpt lat="47.13974" lon="-1.69716">
        <ele>55</ele>
        <time>2021-03-28T14:08:35.000Z</time>
      </trkpt>
      <trkpt lat="47.13988" lon="-1.69717">
        <ele>55</ele>
        <time>2021-03-28T14:08:37.000Z</time>
      </trkpt>
      <trkpt lat="47.14002" lon="-1.69719">
        <ele>55</ele>
        <time>2021-03-28T14:08:39.000Z</time>
      </trkpt>
      <trkpt lat="47.14015" lon="-1.6972">
        <ele>55</ele>
        <time>2021-03-28T14:08:41.000Z</time>
      </trkpt>
      <trkpt lat="47.14029" lon="-1.69721">
        <ele>56</ele>
        <time>2021-03-28T14:08:43.000Z</time>
      </trkpt>
      <trkpt lat="47.14043" lon="-1.69723">
        <ele>55</ele>
        <time>2021-03-28T14:08:45.000Z</time>
      </trkpt>
      <trkpt lat="47.14057" lon="-1.69724">
        <ele>55</ele>
        <time>2021-03-28T14:08:47.000Z</time>
      </trkpt>
      <trkpt lat="47.1407" lon="-1.69724">
        <ele>55</ele>
        <time>2021-03-28T14:08:49.000Z</time>
      </trkpt>
      <trkpt lat="47.14083" lon="-1.69724">
        <ele>55</ele>
        <time>2021-03-28T14:08:51.000Z</time>
      </trkpt>
      <trkpt lat="47.14097" lon="-1.69723">
        <ele>55</ele>
        <time>2021-03-28T14:08:53.000Z</time>
      </trkpt>
      <trkpt lat="47.14111" lon="-1.69721">
        <ele>55</ele>
        <time>2021-03-28T14:08:55.000Z</time>
      </trkpt>
      <trkpt lat="47.14125" lon="-1.69719">
        <ele>56</ele>
        <time>2021-03-28T14:08:57.000Z</time>
      </trkpt>
      <trkpt lat="47.1414" lon="-1.69717">
        <ele>56</ele>
        <time>2021-03-28T14:08:59.000Z</time>
      </trkpt>
      <trkpt lat="47.14154" lon="-1.69715">
        <ele>56</ele>
        <time>2021-03-28T14:09:01.000Z</time>
      </trkpt>
      <trkpt lat="47.14167" lon="-1.69713">
        <ele>56</ele>
        <time>2021-03-28T14:09:03.000Z</time>
      </trkpt>
      <trkpt lat="47.14181" lon="-1.69711">
        <ele>56</ele>
        <time>2021-03-28T14:09:05.000Z</time>
      </trkpt>
      <trkpt lat="47.14194" lon="-1.6971">
        <ele>56</ele>
        <time>2021-03-28T14:09:07.000Z</time>
      </trkpt>
      <trkpt lat="47.14207" lon="-1.69707">
        <ele>56</ele>
        <time>2021-03-28T14:09:09.000Z</time>
      </trkpt>
      <trkpt lat="47.14227" lon="-1.69704">
        <ele>57</ele>
        <time>2021-03-28T14:09:12.000Z</time>
      </trkpt>
      <trkpt lat="47.14239" lon="-1.69702">
        <ele>57</ele>
        <time>2021-03-28T14:09:14.000Z</time>
      </trkpt>
      <trkpt lat="47.14251" lon="-1.697">
        <ele>58</ele>
        <time>2021-03-28T14:09:16.000Z</time>
      </trkpt>
      <trkpt lat="47.14263" lon="-1.69699">
        <ele>57</ele>
        <time>2021-03-28T14:09:18.000Z</time>
      </trkpt>
      <trkpt lat="47.14275" lon="-1.69699">
        <ele>57</ele>
        <time>2021-03-28T14:09:20.000Z</time>
      </trkpt>
      <trkpt lat="47.14286" lon="-1.697">
        <ele>58</ele>
        <time>2021-03-28T14:09:22.000Z</time>
      </trkpt>
      <trkpt lat="47.14297" lon="-1.69701">
        <ele>58</ele>
        <time>2021-03-28T14:09:24.000Z</time>
      </trkpt>
      <trkpt lat="47.14309" lon="-1.69703">
        <ele>58</ele>
        <time>2021-03-28T14:09:26.000Z</time>
      </trkpt>
      <trkpt lat="47.14319" lon="-1.69702">
        <ele>58</ele>
        <time>2021-03-28T14:09:28.000Z</time>
      </trkpt>
      <trkpt lat="47.14326" lon="-1.69693">
        <ele>58</ele>
        <time>2021-03-28T14:09:30.000Z</time>
      </trkpt>
      <trkpt lat="47.14331" lon="-1.69678">
        <ele>58</ele>
        <time>2021-03-28T14:09:32.000Z</time>
      </trkpt>
      <trkpt lat="47.14335" lon="-1.69662">
        <ele>59</ele>
        <time>2021-03-28T14:09:34.000Z</time>
      </trkpt>
      <trkpt lat="47.14339" lon="-1.69645">
        <ele>59</ele>
        <time>2021-03-28T14:09:36.000Z</time>
      </trkpt>
      <trkpt lat="47.14343" lon="-1.69629">
        <ele>59</ele>
        <time>2021-03-28T14:09:38.000Z</time>
      </trkpt>
      <trkpt lat="47.14347" lon="-1.69613">
        <ele>60</ele>
        <time>2021-03-28T14:09:40.000Z</time>
      </trkpt>
      <trkpt lat="47.14353" lon="-1.69598">
        <ele>60</ele>
        <time>2021-03-28T14:09:42.000Z</time>
      </trkpt>
      <trkpt lat="47.14357" lon="-1.69582">
        <ele>60</ele>
        <time>2021-03-28T14:09:44.000Z</time>
      </trkpt>
      <trkpt lat="47.14363" lon="-1.69567">
        <ele>61</ele>
        <time>2021-03-28T14:09:46.000Z</time>
      </trkpt>
      <trkpt lat="47.14367" lon="-1.69551">
        <ele>61</ele>
        <time>2021-03-28T14:09:48.000Z</time>
      </trkpt>
      <trkpt lat="47.14371" lon="-1.69536">
        <ele>62</ele>
        <time>2021-03-28T14:09:50.000Z</time>
      </trkpt>
      <trkpt lat="47.14374" lon="-1.6952">
        <ele>62</ele>
        <time>2021-03-28T14:09:52.000Z</time>
      </trkpt>
      <trkpt lat="47.14376" lon="-1.69504">
        <ele>62</ele>
        <time>2021-03-28T14:09:54.000Z</time>
      </trkpt>
      <trkpt lat="47.14377" lon="-1.69487">
        <ele>63</ele>
        <time>2021-03-28T14:09:56.000Z</time>
      </trkpt>
      <trkpt lat="47.14378" lon="-1.6947">
        <ele>63</ele>
        <time>2021-03-28T14:09:58.000Z</time>
      </trkpt>
      <trkpt lat="47.14378" lon="-1.69451">
        <ele>64</ele>
        <time>2021-03-28T14:10:00.000Z</time>
      </trkpt>
      <trkpt lat="47.14378" lon="-1.69433">
        <ele>64</ele>
        <time>2021-03-28T14:10:02.000Z</time>
      </trkpt>
      <trkpt lat="47.14379" lon="-1.69414">
        <ele>64</ele>
        <time>2021-03-28T14:10:04.000Z</time>
      </trkpt>
      <trkpt lat="47.14379" lon="-1.69395">
        <ele>65</ele>
        <time>2021-03-28T14:10:06.000Z</time>
      </trkpt>
      <trkpt lat="47.14382" lon="-1.69376">
        <ele>65</ele>
        <time>2021-03-28T14:10:08.000Z</time>
      </trkpt>
      <trkpt lat="47.14385" lon="-1.69358">
        <ele>65</ele>
        <time>2021-03-28T14:10:10.000Z</time>
      </trkpt>
      <trkpt lat="47.14388" lon="-1.69339">
        <ele>65</ele>
        <time>2021-03-28T14:10:12.000Z</time>
      </trkpt>
      <trkpt lat="47.14389" lon="-1.69321">
        <ele>65</ele>
        <time>2021-03-28T14:10:14.000Z</time>
      </trkpt>
      <trkpt lat="47.1439" lon="-1.69303">
        <ele>65</ele>
        <time>2021-03-28T14:10:16.000Z</time>
      </trkpt>
      <trkpt lat="47.1439" lon="-1.69285">
        <ele>64</ele>
        <time>2021-03-28T14:10:18.000Z</time>
      </trkpt>
      <trkpt lat="47.1439" lon="-1.69269">
        <ele>64</ele>
        <time>2021-03-28T14:10:20.000Z</time>
      </trkpt>
      <trkpt lat="47.14391" lon="-1.69252">
        <ele>65</ele>
        <time>2021-03-28T14:10:22.000Z</time>
      </trkpt>
      <trkpt lat="47.14391" lon="-1.69234">
        <ele>65</ele>
        <time>2021-03-28T14:10:24.000Z</time>
      </trkpt>
      <trkpt lat="47.14391" lon="-1.69217">
        <ele>65</ele>
        <time>2021-03-28T14:10:26.000Z</time>
      </trkpt>
      <trkpt lat="47.14391" lon="-1.6919">
        <ele>66</ele>
        <time>2021-03-28T14:10:29.000Z</time>
      </trkpt>
      <trkpt lat="47.14392" lon="-1.69172">
        <ele>66</ele>
        <time>2021-03-28T14:10:31.000Z</time>
      </trkpt>
      <trkpt lat="47.14392" lon="-1.69154">
        <ele>66</ele>
        <time>2021-03-28T14:10:33.000Z</time>
      </trkpt>
      <trkpt lat="47.14392" lon="-1.69137">
        <ele>67</ele>
        <time>2021-03-28T14:10:35.000Z</time>
      </trkpt>
      <trkpt lat="47.14393" lon="-1.69119">
        <ele>67</ele>
        <time>2021-03-28T14:10:37.000Z</time>
      </trkpt>
      <trkpt lat="47.14393" lon="-1.69102">
        <ele>67</ele>
        <time>2021-03-28T14:10:39.000Z</time>
      </trkpt>
      <trkpt lat="47.14393" lon="-1.69084">
        <ele>67</ele>
        <time>2021-03-28T14:10:41.000Z</time>
      </trkpt>
      <trkpt lat="47.14393" lon="-1.69066">
        <ele>67</ele>
        <time>2021-03-28T14:10:43.000Z</time>
      </trkpt>
      <trkpt lat="47.14393" lon="-1.69048">
        <ele>67</ele>
        <time>2021-03-28T14:10:45.000Z</time>
      </trkpt>
      <trkpt lat="47.14393" lon="-1.69029">
        <ele>68</ele>
        <time>2021-03-28T14:10:47.000Z</time>
      </trkpt>
      <trkpt lat="47.14393" lon="-1.69011">
        <ele>67</ele>
        <time>2021-03-28T14:10:49.000Z</time>
      </trkpt>
      <trkpt lat="47.14394" lon="-1.68993">
        <ele>68</ele>
        <time>2021-03-28T14:10:51.000Z</time>
      </trkpt>
      <trkpt lat="47.14394" lon="-1.68975">
        <ele>68</ele>
        <time>2021-03-28T14:10:53.000Z</time>
      </trkpt>
      <trkpt lat="47.14395" lon="-1.68956">
        <ele>68</ele>
        <time>2021-03-28T14:10:55.000Z</time>
      </trkpt>
      <trkpt lat="47.14396" lon="-1.68936">
        <ele>67</ele>
        <time>2021-03-28T14:10:57.000Z</time>
      </trkpt>
      <trkpt lat="47.14396" lon="-1.68917">
        <ele>67</ele>
        <time>2021-03-28T14:10:59.000Z</time>
      </trkpt>
      <trkpt lat="47.14397" lon="-1.68895">
        <ele>66</ele>
        <time>2021-03-28T14:11:01.000Z</time>
      </trkpt>
      <trkpt lat="47.14399" lon="-1.68874">
        <ele>66</ele>
        <time>2021-03-28T14:11:03.000Z</time>
      </trkpt>
      <trkpt lat="47.14402" lon="-1.68853">
        <ele>66</ele>
        <time>2021-03-28T14:11:05.000Z</time>
      </trkpt>
      <trkpt lat="47.14404" lon="-1.68832">
        <ele>66</ele>
        <time>2021-03-28T14:11:07.000Z</time>
      </trkpt>
      <trkpt lat="47.14406" lon="-1.6881">
        <ele>66</ele>
        <time>2021-03-28T14:11:09.000Z</time>
      </trkpt>
      <trkpt lat="47.14408" lon="-1.68788">
        <ele>66</ele>
        <time>2021-03-28T14:11:11.000Z</time>
      </trkpt>
      <trkpt lat="47.1441" lon="-1.68766">
        <ele>65</ele>
        <time>2021-03-28T14:11:13.000Z</time>
      </trkpt>
      <trkpt lat="47.14411" lon="-1.68745">
        <ele>64</ele>
        <time>2021-03-28T14:11:15.000Z</time>
      </trkpt>
      <trkpt lat="47.14412" lon="-1.68723">
        <ele>64</ele>
        <time>2021-03-28T14:11:17.000Z</time>
      </trkpt>
      <trkpt lat="47.14413" lon="-1.68701">
        <ele>63</ele>
        <time>2021-03-28T14:11:19.000Z</time>
      </trkpt>
      <trkpt lat="47.14408" lon="-1.68681">
        <ele>63</ele>
        <time>2021-03-28T14:11:21.000Z</time>
      </trkpt>
      <trkpt lat="47.14405" lon="-1.68661">
        <ele>63</ele>
        <time>2021-03-28T14:11:23.000Z</time>
      </trkpt>
      <trkpt lat="47.144" lon="-1.68642">
        <ele>63</ele>
        <time>2021-03-28T14:11:25.000Z</time>
      </trkpt>
      <trkpt lat="47.14393" lon="-1.68624">
        <ele>63</ele>
        <time>2021-03-28T14:11:27.000Z</time>
      </trkpt>
      <trkpt lat="47.1439" lon="-1.68604">
        <ele>63</ele>
        <time>2021-03-28T14:11:29.000Z</time>
      </trkpt>
      <trkpt lat="47.14389" lon="-1.68584">
        <ele>63</ele>
        <time>2021-03-28T14:11:31.000Z</time>
      </trkpt>
      <trkpt lat="47.14388" lon="-1.68563">
        <ele>63</ele>
        <time>2021-03-28T14:11:33.000Z</time>
      </trkpt>
      <trkpt lat="47.14387" lon="-1.68543">
        <ele>62</ele>
        <time>2021-03-28T14:11:35.000Z</time>
      </trkpt>
      <trkpt lat="47.14387" lon="-1.68522">
        <ele>62</ele>
        <time>2021-03-28T14:11:37.000Z</time>
      </trkpt>
      <trkpt lat="47.14389" lon="-1.68501">
        <ele>62</ele>
        <time>2021-03-28T14:11:39.000Z</time>
      </trkpt>
      <trkpt lat="47.14391" lon="-1.68481">
        <ele>62</ele>
        <time>2021-03-28T14:11:41.000Z</time>
      </trkpt>
      <trkpt lat="47.14392" lon="-1.6846">
        <ele>62</ele>
        <time>2021-03-28T14:11:43.000Z</time>
      </trkpt>
      <trkpt lat="47.14394" lon="-1.68439">
        <ele>61</ele>
        <time>2021-03-28T14:11:45.000Z</time>
      </trkpt>
      <trkpt lat="47.14395" lon="-1.68418">
        <ele>61</ele>
        <time>2021-03-28T14:11:47.000Z</time>
      </trkpt>
      <trkpt lat="47.14396" lon="-1.68397">
        <ele>61</ele>
        <time>2021-03-28T14:11:49.000Z</time>
      </trkpt>
      <trkpt lat="47.14395" lon="-1.68376">
        <ele>60</ele>
        <time>2021-03-28T14:11:51.000Z</time>
      </trkpt>
      <trkpt lat="47.14393" lon="-1.68356">
        <ele>60</ele>
        <time>2021-03-28T14:11:53.000Z</time>
      </trkpt>
      <trkpt lat="47.14391" lon="-1.68336">
        <ele>60</ele>
        <time>2021-03-28T14:11:55.000Z</time>
      </trkpt>
      <trkpt lat="47.14387" lon="-1.68316">
        <ele>60</ele>
        <time>2021-03-28T14:11:57.000Z</time>
      </trkpt>
      <trkpt lat="47.14383" lon="-1.68298">
        <ele>59</ele>
        <time>2021-03-28T14:11:59.000Z</time>
      </trkpt>
      <trkpt lat="47.14376" lon="-1.68281">
        <ele>59</ele>
        <time>2021-03-28T14:12:01.000Z</time>
      </trkpt>
      <trkpt lat="47.14372" lon="-1.68263">
        <ele>60</ele>
        <time>2021-03-28T14:12:03.000Z</time>
      </trkpt>
      <trkpt lat="47.1437" lon="-1.68242">
        <ele>60</ele>
        <time>2021-03-28T14:12:05.000Z</time>
      </trkpt>
      <trkpt lat="47.1437" lon="-1.6822">
        <ele>61</ele>
        <time>2021-03-28T14:12:07.000Z</time>
      </trkpt>
      <trkpt lat="47.14372" lon="-1.68199">
        <ele>62</ele>
        <time>2021-03-28T14:12:09.000Z</time>
      </trkpt>
      <trkpt lat="47.1437" lon="-1.68178">
        <ele>61</ele>
        <time>2021-03-28T14:12:11.000Z</time>
      </trkpt>
      <trkpt lat="47.14368" lon="-1.68158">
        <ele>61</ele>
        <time>2021-03-28T14:12:13.000Z</time>
      </trkpt>
      <trkpt lat="47.14367" lon="-1.68137">
        <ele>62</ele>
        <time>2021-03-28T14:12:15.000Z</time>
      </trkpt>
      <trkpt lat="47.14368" lon="-1.68117">
        <ele>62</ele>
        <time>2021-03-28T14:12:17.000Z</time>
      </trkpt>
      <trkpt lat="47.14366" lon="-1.68098">
        <ele>62</ele>
        <time>2021-03-28T14:12:19.000Z</time>
      </trkpt>
      <trkpt lat="47.14365" lon="-1.68077">
        <ele>62</ele>
        <time>2021-03-28T14:12:21.000Z</time>
      </trkpt>
      <trkpt lat="47.14365" lon="-1.68056">
        <ele>62</ele>
        <time>2021-03-28T14:12:23.000Z</time>
      </trkpt>
      <trkpt lat="47.14364" lon="-1.68036">
        <ele>62</ele>
        <time>2021-03-28T14:12:25.000Z</time>
      </trkpt>
      <trkpt lat="47.14363" lon="-1.68015">
        <ele>62</ele>
        <time>2021-03-28T14:12:27.000Z</time>
      </trkpt>
      <trkpt lat="47.14362" lon="-1.67994">
        <ele>63</ele>
        <time>2021-03-28T14:12:29.000Z</time>
      </trkpt>
      <trkpt lat="47.1436" lon="-1.67975">
        <ele>62</ele>
        <time>2021-03-28T14:12:31.000Z</time>
      </trkpt>
      <trkpt lat="47.14358" lon="-1.67955">
        <ele>62</ele>
        <time>2021-03-28T14:12:33.000Z</time>
      </trkpt>
      <trkpt lat="47.14357" lon="-1.67937">
        <ele>62</ele>
        <time>2021-03-28T14:12:35.000Z</time>
      </trkpt>
      <trkpt lat="47.14354" lon="-1.67918">
        <ele>63</ele>
        <time>2021-03-28T14:12:37.000Z</time>
      </trkpt>
      <trkpt lat="47.14349" lon="-1.67901">
        <ele>62</ele>
        <time>2021-03-28T14:12:39.000Z</time>
      </trkpt>
      <trkpt lat="47.14343" lon="-1.67885">
        <ele>62</ele>
        <time>2021-03-28T14:12:41.000Z</time>
      </trkpt>
      <trkpt lat="47.14339" lon="-1.67866">
        <ele>62</ele>
        <time>2021-03-28T14:12:43.000Z</time>
      </trkpt>
      <trkpt lat="47.14341" lon="-1.67848">
        <ele>62</ele>
        <time>2021-03-28T14:12:45.000Z</time>
      </trkpt>
      <trkpt lat="47.14344" lon="-1.67829">
        <ele>62</ele>
        <time>2021-03-28T14:12:47.000Z</time>
      </trkpt>
      <trkpt lat="47.14343" lon="-1.67809">
        <ele>62</ele>
        <time>2021-03-28T14:12:49.000Z</time>
      </trkpt>
      <trkpt lat="47.14341" lon="-1.6779">
        <ele>62</ele>
        <time>2021-03-28T14:12:51.000Z</time>
      </trkpt>
      <trkpt lat="47.14337" lon="-1.67771">
        <ele>62</ele>
        <time>2021-03-28T14:12:53.000Z</time>
      </trkpt>
      <trkpt lat="47.14333" lon="-1.67752">
        <ele>62</ele>
        <time>2021-03-28T14:12:55.000Z</time>
      </trkpt>
      <trkpt lat="47.14329" lon="-1.67734">
        <ele>62</ele>
        <time>2021-03-28T14:12:57.000Z</time>
      </trkpt>
      <trkpt lat="47.14323" lon="-1.67716">
        <ele>62</ele>
        <time>2021-03-28T14:12:59.000Z</time>
      </trkpt>
      <trkpt lat="47.14318" lon="-1.67698">
        <ele>61</ele>
        <time>2021-03-28T14:13:01.000Z</time>
      </trkpt>
      <trkpt lat="47.14313" lon="-1.6768">
        <ele>61</ele>
        <time>2021-03-28T14:13:03.000Z</time>
      </trkpt>
      <trkpt lat="47.1431" lon="-1.67661">
        <ele>61</ele>
        <time>2021-03-28T14:13:05.000Z</time>
      </trkpt>
      <trkpt lat="47.14308" lon="-1.67641">
        <ele>61</ele>
        <time>2021-03-28T14:13:07.000Z</time>
      </trkpt>
      <trkpt lat="47.14307" lon="-1.67621">
        <ele>60</ele>
        <time>2021-03-28T14:13:09.000Z</time>
      </trkpt>
      <trkpt lat="47.14305" lon="-1.67601">
        <ele>60</ele>
        <time>2021-03-28T14:13:11.000Z</time>
      </trkpt>
      <trkpt lat="47.14304" lon="-1.6758">
        <ele>60</ele>
        <time>2021-03-28T14:13:13.000Z</time>
      </trkpt>
      <trkpt lat="47.14302" lon="-1.6756">
        <ele>60</ele>
        <time>2021-03-28T14:13:15.000Z</time>
      </trkpt>
      <trkpt lat="47.143" lon="-1.6754">
        <ele>59</ele>
        <time>2021-03-28T14:13:17.000Z</time>
      </trkpt>
      <trkpt lat="47.14297" lon="-1.6752">
        <ele>59</ele>
        <time>2021-03-28T14:13:19.000Z</time>
      </trkpt>
      <trkpt lat="47.14292" lon="-1.67501">
        <ele>60</ele>
        <time>2021-03-28T14:13:21.000Z</time>
      </trkpt>
      <trkpt lat="47.14288" lon="-1.67483">
        <ele>60</ele>
        <time>2021-03-28T14:13:23.000Z</time>
      </trkpt>
      <trkpt lat="47.14283" lon="-1.67465">
        <ele>60</ele>
        <time>2021-03-28T14:13:25.000Z</time>
      </trkpt>
      <trkpt lat="47.14277" lon="-1.67447">
        <ele>60</ele>
        <time>2021-03-28T14:13:27.000Z</time>
      </trkpt>
      <trkpt lat="47.14271" lon="-1.6743">
        <ele>60</ele>
        <time>2021-03-28T14:13:29.000Z</time>
      </trkpt>
      <trkpt lat="47.14264" lon="-1.67413">
        <ele>61</ele>
        <time>2021-03-28T14:13:31.000Z</time>
      </trkpt>
      <trkpt lat="47.14258" lon="-1.67397">
        <ele>61</ele>
        <time>2021-03-28T14:13:33.000Z</time>
      </trkpt>
      <trkpt lat="47.14251" lon="-1.6738">
        <ele>61</ele>
        <time>2021-03-28T14:13:35.000Z</time>
      </trkpt>
      <trkpt lat="47.14244" lon="-1.67362">
        <ele>62</ele>
        <time>2021-03-28T14:13:37.000Z</time>
      </trkpt>
      <trkpt lat="47.14238" lon="-1.67346">
        <ele>61</ele>
        <time>2021-03-28T14:13:39.000Z</time>
      </trkpt>
      <trkpt lat="47.14231" lon="-1.67329">
        <ele>61</ele>
        <time>2021-03-28T14:13:41.000Z</time>
      </trkpt>
      <trkpt lat="47.14224" lon="-1.67312">
        <ele>61</ele>
        <time>2021-03-28T14:13:43.000Z</time>
      </trkpt>
      <trkpt lat="47.14217" lon="-1.67295">
        <ele>61</ele>
        <time>2021-03-28T14:13:45.000Z</time>
      </trkpt>
      <trkpt lat="47.1421" lon="-1.67278">
        <ele>62</ele>
        <time>2021-03-28T14:13:47.000Z</time>
      </trkpt>
      <trkpt lat="47.14203" lon="-1.67261">
        <ele>62</ele>
        <time>2021-03-28T14:13:49.000Z</time>
      </trkpt>
      <trkpt lat="47.14197" lon="-1.67242">
        <ele>63</ele>
        <time>2021-03-28T14:13:51.000Z</time>
      </trkpt>
      <trkpt lat="47.14194" lon="-1.67222">
        <ele>62</ele>
        <time>2021-03-28T14:13:53.000Z</time>
      </trkpt>
      <trkpt lat="47.1419" lon="-1.67202">
        <ele>62</ele>
        <time>2021-03-28T14:13:55.000Z</time>
      </trkpt>
      <trkpt lat="47.14186" lon="-1.67182">
        <ele>62</ele>
        <time>2021-03-28T14:13:57.000Z</time>
      </trkpt>
      <trkpt lat="47.14182" lon="-1.67164">
        <ele>62</ele>
        <time>2021-03-28T14:13:59.000Z</time>
      </trkpt>
      <trkpt lat="47.14178" lon="-1.67144">
        <ele>61</ele>
        <time>2021-03-28T14:14:01.000Z</time>
      </trkpt>
      <trkpt lat="47.14174" lon="-1.67125">
        <ele>61</ele>
        <time>2021-03-28T14:14:03.000Z</time>
      </trkpt>
      <trkpt lat="47.14171" lon="-1.67105">
        <ele>61</ele>
        <time>2021-03-28T14:14:05.000Z</time>
      </trkpt>
      <trkpt lat="47.14168" lon="-1.67085">
        <ele>61</ele>
        <time>2021-03-28T14:14:07.000Z</time>
      </trkpt>
      <trkpt lat="47.14166" lon="-1.67064">
        <ele>61</ele>
        <time>2021-03-28T14:14:09.000Z</time>
      </trkpt>
      <trkpt lat="47.14165" lon="-1.67044">
        <ele>60</ele>
        <time>2021-03-28T14:14:11.000Z</time>
      </trkpt>
      <trkpt lat="47.14163" lon="-1.67024">
        <ele>61</ele>
        <time>2021-03-28T14:14:13.000Z</time>
      </trkpt>
      <trkpt lat="47.14162" lon="-1.67004">
        <ele>60</ele>
        <time>2021-03-28T14:14:15.000Z</time>
      </trkpt>
      <trkpt lat="47.14161" lon="-1.66983">
        <ele>60</ele>
        <time>2021-03-28T14:14:17.000Z</time>
      </trkpt>
      <trkpt lat="47.14161" lon="-1.66962">
        <ele>59</ele>
        <time>2021-03-28T14:14:19.000Z</time>
      </trkpt>
      <trkpt lat="47.14162" lon="-1.66941">
        <ele>60</ele>
        <time>2021-03-28T14:14:21.000Z</time>
      </trkpt>
      <trkpt lat="47.14164" lon="-1.66921">
        <ele>60</ele>
        <time>2021-03-28T14:14:23.000Z</time>
      </trkpt>
      <trkpt lat="47.14169" lon="-1.66902">
        <ele>59</ele>
        <time>2021-03-28T14:14:25.000Z</time>
      </trkpt>
      <trkpt lat="47.14174" lon="-1.66882">
        <ele>59</ele>
        <time>2021-03-28T14:14:27.000Z</time>
      </trkpt>
      <trkpt lat="47.14179" lon="-1.66864">
        <ele>59</ele>
        <time>2021-03-28T14:14:29.000Z</time>
      </trkpt>
      <trkpt lat="47.14185" lon="-1.66845">
        <ele>59</ele>
        <time>2021-03-28T14:14:31.000Z</time>
      </trkpt>
      <trkpt lat="47.14191" lon="-1.66826">
        <ele>59</ele>
        <time>2021-03-28T14:14:33.000Z</time>
      </trkpt>
      <trkpt lat="47.14198" lon="-1.66806">
        <ele>59</ele>
        <time>2021-03-28T14:14:35.000Z</time>
      </trkpt>
      <trkpt lat="47.14204" lon="-1.66788">
        <ele>59</ele>
        <time>2021-03-28T14:14:37.000Z</time>
      </trkpt>
      <trkpt lat="47.1421" lon="-1.66768">
        <ele>60</ele>
        <time>2021-03-28T14:14:39.000Z</time>
      </trkpt>
      <trkpt lat="47.14217" lon="-1.66751">
        <ele>60</ele>
        <time>2021-03-28T14:14:41.000Z</time>
      </trkpt>
      <trkpt lat="47.14222" lon="-1.66733">
        <ele>60</ele>
        <time>2021-03-28T14:14:43.000Z</time>
      </trkpt>
      <trkpt lat="47.14227" lon="-1.66715">
        <ele>60</ele>
        <time>2021-03-28T14:14:45.000Z</time>
      </trkpt>
      <trkpt lat="47.14233" lon="-1.66697">
        <ele>60</ele>
        <time>2021-03-28T14:14:47.000Z</time>
      </trkpt>
      <trkpt lat="47.14239" lon="-1.6668">
        <ele>60</ele>
        <time>2021-03-28T14:14:49.000Z</time>
      </trkpt>
      <trkpt lat="47.14246" lon="-1.66663">
        <ele>60</ele>
        <time>2021-03-28T14:14:51.000Z</time>
      </trkpt>
      <trkpt lat="47.14251" lon="-1.66646">
        <ele>60</ele>
        <time>2021-03-28T14:14:53.000Z</time>
      </trkpt>
      <trkpt lat="47.14257" lon="-1.66629">
        <ele>60</ele>
        <time>2021-03-28T14:14:55.000Z</time>
      </trkpt>
      <trkpt lat="47.14262" lon="-1.66612">
        <ele>61</ele>
        <time>2021-03-28T14:14:57.000Z</time>
      </trkpt>
      <trkpt lat="47.14267" lon="-1.66595">
        <ele>61</ele>
        <time>2021-03-28T14:14:59.000Z</time>
      </trkpt>
      <trkpt lat="47.14272" lon="-1.66578">
        <ele>61</ele>
        <time>2021-03-28T14:15:01.000Z</time>
      </trkpt>
      <trkpt lat="47.14276" lon="-1.66561">
        <ele>61</ele>
        <time>2021-03-28T14:15:03.000Z</time>
      </trkpt>
      <trkpt lat="47.14281" lon="-1.66544">
        <ele>62</ele>
        <time>2021-03-28T14:15:05.000Z</time>
      </trkpt>
      <trkpt lat="47.14285" lon="-1.66527">
        <ele>62</ele>
        <time>2021-03-28T14:15:07.000Z</time>
      </trkpt>
      <trkpt lat="47.1429" lon="-1.6651">
        <ele>62</ele>
        <time>2021-03-28T14:15:09.000Z</time>
      </trkpt>
      <trkpt lat="47.14294" lon="-1.66493">
        <ele>62</ele>
        <time>2021-03-28T14:15:11.000Z</time>
      </trkpt>
      <trkpt lat="47.14298" lon="-1.66476">
        <ele>62</ele>
        <time>2021-03-28T14:15:13.000Z</time>
      </trkpt>
      <trkpt lat="47.14302" lon="-1.66459">
        <ele>62</ele>
        <time>2021-03-28T14:15:15.000Z</time>
      </trkpt>
      <trkpt lat="47.14307" lon="-1.66441">
        <ele>62</ele>
        <time>2021-03-28T14:15:17.000Z</time>
      </trkpt>
      <trkpt lat="47.14311" lon="-1.66424">
        <ele>62</ele>
        <time>2021-03-28T14:15:19.000Z</time>
      </trkpt>
      <trkpt lat="47.14315" lon="-1.66407">
        <ele>62</ele>
        <time>2021-03-28T14:15:21.000Z</time>
      </trkpt>
      <trkpt lat="47.14319" lon="-1.66389">
        <ele>62</ele>
        <time>2021-03-28T14:15:23.000Z</time>
      </trkpt>
      <trkpt lat="47.14324" lon="-1.66371">
        <ele>62</ele>
        <time>2021-03-28T14:15:25.000Z</time>
      </trkpt>
      <trkpt lat="47.14328" lon="-1.66354">
        <ele>62</ele>
        <time>2021-03-28T14:15:27.000Z</time>
      </trkpt>
      <trkpt lat="47.14332" lon="-1.66336">
        <ele>62</ele>
        <time>2021-03-28T14:15:29.000Z</time>
      </trkpt>
      <trkpt lat="47.14336" lon="-1.66319">
        <ele>63</ele>
        <time>2021-03-28T14:15:31.000Z</time>
      </trkpt>
      <trkpt lat="47.1434" lon="-1.66301">
        <ele>63</ele>
        <time>2021-03-28T14:15:33.000Z</time>
      </trkpt>
      <trkpt lat="47.14344" lon="-1.66284">
        <ele>63</ele>
        <time>2021-03-28T14:15:35.000Z</time>
      </trkpt>
      <trkpt lat="47.14348" lon="-1.66266">
        <ele>62</ele>
        <time>2021-03-28T14:15:37.000Z</time>
      </trkpt>
      <trkpt lat="47.14352" lon="-1.66248">
        <ele>63</ele>
        <time>2021-03-28T14:15:39.000Z</time>
      </trkpt>
      <trkpt lat="47.14355" lon="-1.66229">
        <ele>63</ele>
        <time>2021-03-28T14:15:41.000Z</time>
      </trkpt>
      <trkpt lat="47.1436" lon="-1.66211">
        <ele>63</ele>
        <time>2021-03-28T14:15:43.000Z</time>
      </trkpt>
      <trkpt lat="47.1436" lon="-1.66196">
        <ele>63</ele>
        <time>2021-03-28T14:15:45.000Z</time>
      </trkpt>
      <trkpt lat="47.14358" lon="-1.6618">
        <ele>63</ele>
        <time>2021-03-28T14:15:47.000Z</time>
      </trkpt>
      <trkpt lat="47.14362" lon="-1.66168">
        <ele>63</ele>
        <time>2021-03-28T14:15:49.000Z</time>
      </trkpt>
      <trkpt lat="47.1437" lon="-1.66159">
        <ele>62</ele>
        <time>2021-03-28T14:15:51.000Z</time>
      </trkpt>
      <trkpt lat="47.14372" lon="-1.66144">
        <ele>63</ele>
        <time>2021-03-28T14:15:53.000Z</time>
      </trkpt>
      <trkpt lat="47.14374" lon="-1.66127">
        <ele>63</ele>
        <time>2021-03-28T14:15:55.000Z</time>
      </trkpt>
      <trkpt lat="47.14377" lon="-1.66108">
        <ele>63</ele>
        <time>2021-03-28T14:15:57.000Z</time>
      </trkpt>
      <trkpt lat="47.14379" lon="-1.66089">
        <ele>63</ele>
        <time>2021-03-28T14:15:59.000Z</time>
      </trkpt>
      <trkpt lat="47.14381" lon="-1.6607">
        <ele>64</ele>
        <time>2021-03-28T14:16:01.000Z</time>
      </trkpt>
      <trkpt lat="47.14383" lon="-1.66051">
        <ele>64</ele>
        <time>2021-03-28T14:16:03.000Z</time>
      </trkpt>
      <trkpt lat="47.14385" lon="-1.66032">
        <ele>64</ele>
        <time>2021-03-28T14:16:05.000Z</time>
      </trkpt>
      <trkpt lat="47.14387" lon="-1.66013">
        <ele>64</ele>
        <time>2021-03-28T14:16:07.000Z</time>
      </trkpt>
      <trkpt lat="47.14388" lon="-1.65995">
        <ele>65</ele>
        <time>2021-03-28T14:16:09.000Z</time>
      </trkpt>
      <trkpt lat="47.14389" lon="-1.65976">
        <ele>65</ele>
        <time>2021-03-28T14:16:11.000Z</time>
      </trkpt>
      <trkpt lat="47.1439" lon="-1.65957">
        <ele>64</ele>
        <time>2021-03-28T14:16:13.000Z</time>
      </trkpt>
      <trkpt lat="47.14391" lon="-1.65938">
        <ele>64</ele>
        <time>2021-03-28T14:16:15.000Z</time>
      </trkpt>
      <trkpt lat="47.14392" lon="-1.65917">
        <ele>64</ele>
        <time>2021-03-28T14:16:17.000Z</time>
      </trkpt>
      <trkpt lat="47.14393" lon="-1.65897">
        <ele>63</ele>
        <time>2021-03-28T14:16:19.000Z</time>
      </trkpt>
      <trkpt lat="47.14395" lon="-1.65878">
        <ele>62</ele>
        <time>2021-03-28T14:16:21.000Z</time>
      </trkpt>
      <trkpt lat="47.14396" lon="-1.65859">
        <ele>62</ele>
        <time>2021-03-28T14:16:23.000Z</time>
      </trkpt>
      <trkpt lat="47.14397" lon="-1.65839">
        <ele>62</ele>
        <time>2021-03-28T14:16:25.000Z</time>
      </trkpt>
      <trkpt lat="47.14399" lon="-1.6582">
        <ele>62</ele>
        <time>2021-03-28T14:16:27.000Z</time>
      </trkpt>
      <trkpt lat="47.14401" lon="-1.658">
        <ele>62</ele>
        <time>2021-03-28T14:16:29.000Z</time>
      </trkpt>
      <trkpt lat="47.14404" lon="-1.65781">
        <ele>62</ele>
        <time>2021-03-28T14:16:31.000Z</time>
      </trkpt>
      <trkpt lat="47.14407" lon="-1.65761">
        <ele>62</ele>
        <time>2021-03-28T14:16:33.000Z</time>
      </trkpt>
      <trkpt lat="47.1441" lon="-1.65741">
        <ele>62</ele>
        <time>2021-03-28T14:16:35.000Z</time>
      </trkpt>
      <trkpt lat="47.14413" lon="-1.65722">
        <ele>61</ele>
        <time>2021-03-28T14:16:37.000Z</time>
      </trkpt>
      <trkpt lat="47.14417" lon="-1.65703">
        <ele>61</ele>
        <time>2021-03-28T14:16:39.000Z</time>
      </trkpt>
      <trkpt lat="47.14421" lon="-1.65685">
        <ele>61</ele>
        <time>2021-03-28T14:16:41.000Z</time>
      </trkpt>
      <trkpt lat="47.14426" lon="-1.65666">
        <ele>62</ele>
        <time>2021-03-28T14:16:43.000Z</time>
      </trkpt>
      <trkpt lat="47.14432" lon="-1.65649">
        <ele>62</ele>
        <time>2021-03-28T14:16:45.000Z</time>
      </trkpt>
      <trkpt lat="47.14437" lon="-1.65632">
        <ele>62</ele>
        <time>2021-03-28T14:16:47.000Z</time>
      </trkpt>
      <trkpt lat="47.14444" lon="-1.65614">
        <ele>62</ele>
        <time>2021-03-28T14:16:49.000Z</time>
      </trkpt>
      <trkpt lat="47.14451" lon="-1.65596">
        <ele>62</ele>
        <time>2021-03-28T14:16:51.000Z</time>
      </trkpt>
      <trkpt lat="47.14458" lon="-1.65579">
        <ele>62</ele>
        <time>2021-03-28T14:16:53.000Z</time>
      </trkpt>
      <trkpt lat="47.14464" lon="-1.65563">
        <ele>62</ele>
        <time>2021-03-28T14:16:55.000Z</time>
      </trkpt>
      <trkpt lat="47.14471" lon="-1.65547">
        <ele>62</ele>
        <time>2021-03-28T14:16:57.000Z</time>
      </trkpt>
      <trkpt lat="47.14477" lon="-1.65531">
        <ele>62</ele>
        <time>2021-03-28T14:16:59.000Z</time>
      </trkpt>
      <trkpt lat="47.14484" lon="-1.65515">
        <ele>63</ele>
        <time>2021-03-28T14:17:01.000Z</time>
      </trkpt>
      <trkpt lat="47.1449" lon="-1.65499">
        <ele>63</ele>
        <time>2021-03-28T14:17:03.000Z</time>
      </trkpt>
      <trkpt lat="47.14497" lon="-1.65483">
        <ele>63</ele>
        <time>2021-03-28T14:17:05.000Z</time>
      </trkpt>
      <trkpt lat="47.14503" lon="-1.65467">
        <ele>63</ele>
        <time>2021-03-28T14:17:07.000Z</time>
      </trkpt>
      <trkpt lat="47.1451" lon="-1.6545">
        <ele>63</ele>
        <time>2021-03-28T14:17:09.000Z</time>
      </trkpt>
      <trkpt lat="47.14515" lon="-1.65433">
        <ele>64</ele>
        <time>2021-03-28T14:17:11.000Z</time>
      </trkpt>
      <trkpt lat="47.1452" lon="-1.65417">
        <ele>64</ele>
        <time>2021-03-28T14:17:13.000Z</time>
      </trkpt>
      <trkpt lat="47.14523" lon="-1.654">
        <ele>63</ele>
        <time>2021-03-28T14:17:15.000Z</time>
      </trkpt>
      <trkpt lat="47.14524" lon="-1.65382">
        <ele>63</ele>
        <time>2021-03-28T14:17:17.000Z</time>
      </trkpt>
      <trkpt lat="47.14528" lon="-1.65365">
        <ele>63</ele>
        <time>2021-03-28T14:17:19.000Z</time>
      </trkpt>
      <trkpt lat="47.14532" lon="-1.65348">
        <ele>63</ele>
        <time>2021-03-28T14:17:21.000Z</time>
      </trkpt>
      <trkpt lat="47.14537" lon="-1.6533">
        <ele>63</ele>
        <time>2021-03-28T14:17:23.000Z</time>
      </trkpt>
      <trkpt lat="47.14542" lon="-1.65313">
        <ele>63</ele>
        <time>2021-03-28T14:17:25.000Z</time>
      </trkpt>
      <trkpt lat="47.14549" lon="-1.65298">
        <ele>63</ele>
        <time>2021-03-28T14:17:27.000Z</time>
      </trkpt>
      <trkpt lat="47.14555" lon="-1.65283">
        <ele>62</ele>
        <time>2021-03-28T14:17:29.000Z</time>
      </trkpt>
      <trkpt lat="47.14559" lon="-1.65265">
        <ele>62</ele>
        <time>2021-03-28T14:17:31.000Z</time>
      </trkpt>
      <trkpt lat="47.14562" lon="-1.65247">
        <ele>62</ele>
        <time>2021-03-28T14:17:33.000Z</time>
      </trkpt>
      <trkpt lat="47.14566" lon="-1.65229">
        <ele>62</ele>
        <time>2021-03-28T14:17:35.000Z</time>
      </trkpt>
      <trkpt lat="47.1457" lon="-1.65212">
        <ele>62</ele>
        <time>2021-03-28T14:17:37.000Z</time>
      </trkpt>
      <trkpt lat="47.14573" lon="-1.65195">
        <ele>62</ele>
        <time>2021-03-28T14:17:39.000Z</time>
      </trkpt>
      <trkpt lat="47.14578" lon="-1.65177">
        <ele>63</ele>
        <time>2021-03-28T14:17:41.000Z</time>
      </trkpt>
      <trkpt lat="47.14583" lon="-1.65159">
        <ele>63</ele>
        <time>2021-03-28T14:17:43.000Z</time>
      </trkpt>
      <trkpt lat="47.14589" lon="-1.65141">
        <ele>63</ele>
        <time>2021-03-28T14:17:45.000Z</time>
      </trkpt>
      <trkpt lat="47.14595" lon="-1.65123">
        <ele>63</ele>
        <time>2021-03-28T14:17:47.000Z</time>
      </trkpt>
      <trkpt lat="47.14601" lon="-1.65105">
        <ele>63</ele>
        <time>2021-03-28T14:17:49.000Z</time>
      </trkpt>
      <trkpt lat="47.14608" lon="-1.65087">
        <ele>64</ele>
        <time>2021-03-28T14:17:51.000Z</time>
      </trkpt>
      <trkpt lat="47.14615" lon="-1.65067">
        <ele>64</ele>
        <time>2021-03-28T14:17:53.000Z</time>
      </trkpt>
      <trkpt lat="47.14623" lon="-1.65049">
        <ele>63</ele>
        <time>2021-03-28T14:17:55.000Z</time>
      </trkpt>
      <trkpt lat="47.14631" lon="-1.6503">
        <ele>63</ele>
        <time>2021-03-28T14:17:57.000Z</time>
      </trkpt>
      <trkpt lat="47.14638" lon="-1.65011">
        <ele>63</ele>
        <time>2021-03-28T14:17:59.000Z</time>
      </trkpt>
      <trkpt lat="47.14646" lon="-1.64992">
        <ele>63</ele>
        <time>2021-03-28T14:18:01.000Z</time>
      </trkpt>
      <trkpt lat="47.14653" lon="-1.64973">
        <ele>64</ele>
        <time>2021-03-28T14:18:03.000Z</time>
      </trkpt>
      <trkpt lat="47.1466" lon="-1.64955">
        <ele>65</ele>
        <time>2021-03-28T14:18:05.000Z</time>
      </trkpt>
      <trkpt lat="47.14666" lon="-1.64938">
        <ele>65</ele>
        <time>2021-03-28T14:18:07.000Z</time>
      </trkpt>
      <trkpt lat="47.14673" lon="-1.6492">
        <ele>66</ele>
        <time>2021-03-28T14:18:09.000Z</time>
      </trkpt>
      <trkpt lat="47.14678" lon="-1.64902">
        <ele>66</ele>
        <time>2021-03-28T14:18:11.000Z</time>
      </trkpt>
      <trkpt lat="47.14684" lon="-1.64884">
        <ele>66</ele>
        <time>2021-03-28T14:18:13.000Z</time>
      </trkpt>
      <trkpt lat="47.14689" lon="-1.64866">
        <ele>67</ele>
        <time>2021-03-28T14:18:15.000Z</time>
      </trkpt>
      <trkpt lat="47.14695" lon="-1.64847">
        <ele>67</ele>
        <time>2021-03-28T14:18:17.000Z</time>
      </trkpt>
      <trkpt lat="47.147" lon="-1.64828">
        <ele>67</ele>
        <time>2021-03-28T14:18:19.000Z</time>
      </trkpt>
      <trkpt lat="47.14705" lon="-1.64809">
        <ele>67</ele>
        <time>2021-03-28T14:18:21.000Z</time>
      </trkpt>
      <trkpt lat="47.1471" lon="-1.64789">
        <ele>68</ele>
        <time>2021-03-28T14:18:23.000Z</time>
      </trkpt>
      <trkpt lat="47.14715" lon="-1.64769">
        <ele>68</ele>
        <time>2021-03-28T14:18:25.000Z</time>
      </trkpt>
      <trkpt lat="47.1472" lon="-1.6475">
        <ele>68</ele>
        <time>2021-03-28T14:18:27.000Z</time>
      </trkpt>
      <trkpt lat="47.14724" lon="-1.6473">
        <ele>69</ele>
        <time>2021-03-28T14:18:29.000Z</time>
      </trkpt>
      <trkpt lat="47.14728" lon="-1.64711">
        <ele>69</ele>
        <time>2021-03-28T14:18:31.000Z</time>
      </trkpt>
      <trkpt lat="47.14732" lon="-1.64691">
        <ele>69</ele>
        <time>2021-03-28T14:18:33.000Z</time>
      </trkpt>
      <trkpt lat="47.14735" lon="-1.64672">
        <ele>70</ele>
        <time>2021-03-28T14:18:35.000Z</time>
      </trkpt>
      <trkpt lat="47.14738" lon="-1.64652">
        <ele>70</ele>
        <time>2021-03-28T14:18:37.000Z</time>
      </trkpt>
      <trkpt lat="47.14741" lon="-1.64634">
        <ele>70</ele>
        <time>2021-03-28T14:18:39.000Z</time>
      </trkpt>
      <trkpt lat="47.14744" lon="-1.64615">
        <ele>70</ele>
        <time>2021-03-28T14:18:41.000Z</time>
      </trkpt>
      <trkpt lat="47.14748" lon="-1.64595">
        <ele>70</ele>
        <time>2021-03-28T14:18:43.000Z</time>
      </trkpt>
      <trkpt lat="47.14751" lon="-1.64576">
        <ele>70</ele>
        <time>2021-03-28T14:18:45.000Z</time>
      </trkpt>
      <trkpt lat="47.14754" lon="-1.64558">
        <ele>70</ele>
        <time>2021-03-28T14:18:47.000Z</time>
      </trkpt>
      <trkpt lat="47.14757" lon="-1.64539">
        <ele>70</ele>
        <time>2021-03-28T14:18:49.000Z</time>
      </trkpt>
      <trkpt lat="47.14759" lon="-1.6452">
        <ele>70</ele>
        <time>2021-03-28T14:18:51.000Z</time>
      </trkpt>
      <trkpt lat="47.14762" lon="-1.64502">
        <ele>70</ele>
        <time>2021-03-28T14:18:53.000Z</time>
      </trkpt>
      <trkpt lat="47.14765" lon="-1.64483">
        <ele>70</ele>
        <time>2021-03-28T14:18:55.000Z</time>
      </trkpt>
      <trkpt lat="47.14768" lon="-1.64464">
        <ele>70</ele>
        <time>2021-03-28T14:18:57.000Z</time>
      </trkpt>
      <trkpt lat="47.14771" lon="-1.64445">
        <ele>70</ele>
        <time>2021-03-28T14:18:59.000Z</time>
      </trkpt>
      <trkpt lat="47.14774" lon="-1.64427">
        <ele>70</ele>
        <time>2021-03-28T14:19:01.000Z</time>
      </trkpt>
      <trkpt lat="47.14779" lon="-1.64408">
        <ele>69</ele>
        <time>2021-03-28T14:19:03.000Z</time>
      </trkpt>
      <trkpt lat="47.14783" lon="-1.6439">
        <ele>70</ele>
        <time>2021-03-28T14:19:05.000Z</time>
      </trkpt>
      <trkpt lat="47.14787" lon="-1.64371">
        <ele>70</ele>
        <time>2021-03-28T14:19:07.000Z</time>
      </trkpt>
      <trkpt lat="47.14791" lon="-1.64351">
        <ele>70</ele>
        <time>2021-03-28T14:19:09.000Z</time>
      </trkpt>
      <trkpt lat="47.14796" lon="-1.64332">
        <ele>70</ele>
        <time>2021-03-28T14:19:11.000Z</time>
      </trkpt>
      <trkpt lat="47.14801" lon="-1.64313">
        <ele>70</ele>
        <time>2021-03-28T14:19:13.000Z</time>
      </trkpt>
      <trkpt lat="47.14807" lon="-1.64294">
        <ele>70</ele>
        <time>2021-03-28T14:19:15.000Z</time>
      </trkpt>
      <trkpt lat="47.14812" lon="-1.64275">
        <ele>70</ele>
        <time>2021-03-28T14:19:17.000Z</time>
      </trkpt>
      <trkpt lat="47.14817" lon="-1.64256">
        <ele>70</ele>
        <time>2021-03-28T14:19:19.000Z</time>
      </trkpt>
      <trkpt lat="47.14823" lon="-1.64238">
        <ele>70</ele>
        <time>2021-03-28T14:19:21.000Z</time>
      </trkpt>
      <trkpt lat="47.14828" lon="-1.64219">
        <ele>70</ele>
        <time>2021-03-28T14:19:23.000Z</time>
      </trkpt>
      <trkpt lat="47.14834" lon="-1.64201">
        <ele>71</ele>
        <time>2021-03-28T14:19:25.000Z</time>
      </trkpt>
      <trkpt lat="47.1484" lon="-1.64183">
        <ele>70</ele>
        <time>2021-03-28T14:19:27.000Z</time>
      </trkpt>
      <trkpt lat="47.14846" lon="-1.64166">
        <ele>70</ele>
        <time>2021-03-28T14:19:29.000Z</time>
      </trkpt>
      <trkpt lat="47.14852" lon="-1.64148">
        <ele>70</ele>
        <time>2021-03-28T14:19:31.000Z</time>
      </trkpt>
      <trkpt lat="47.14858" lon="-1.6413">
        <ele>70</ele>
        <time>2021-03-28T14:19:33.000Z</time>
      </trkpt>
      <trkpt lat="47.14864" lon="-1.64113">
        <ele>70</ele>
        <time>2021-03-28T14:19:35.000Z</time>
      </trkpt>
      <trkpt lat="47.14871" lon="-1.64095">
        <ele>71</ele>
        <time>2021-03-28T14:19:37.000Z</time>
      </trkpt>
      <trkpt lat="47.14877" lon="-1.64077">
        <ele>71</ele>
        <time>2021-03-28T14:19:39.000Z</time>
      </trkpt>
      <trkpt lat="47.1488" lon="-1.64058">
        <ele>71</ele>
        <time>2021-03-28T14:19:41.000Z</time>
      </trkpt>
      <trkpt lat="47.14882" lon="-1.64039">
        <ele>71</ele>
        <time>2021-03-28T14:19:43.000Z</time>
      </trkpt>
      <trkpt lat="47.1489" lon="-1.64025">
        <ele>71</ele>
        <time>2021-03-28T14:19:45.000Z</time>
      </trkpt>
      <trkpt lat="47.14902" lon="-1.64017">
        <ele>71</ele>
        <time>2021-03-28T14:19:47.000Z</time>
      </trkpt>
      <trkpt lat="47.14912" lon="-1.64004">
        <ele>71</ele>
        <time>2021-03-28T14:19:49.000Z</time>
      </trkpt>
      <trkpt lat="47.14921" lon="-1.63988">
        <ele>71</ele>
        <time>2021-03-28T14:19:51.000Z</time>
      </trkpt>
      <trkpt lat="47.1493" lon="-1.63971">
        <ele>71</ele>
        <time>2021-03-28T14:19:53.000Z</time>
      </trkpt>
      <trkpt lat="47.1494" lon="-1.63954">
        <ele>71</ele>
        <time>2021-03-28T14:19:55.000Z</time>
      </trkpt>
      <trkpt lat="47.14949" lon="-1.63937">
        <ele>71</ele>
        <time>2021-03-28T14:19:57.000Z</time>
      </trkpt>
      <trkpt lat="47.14959" lon="-1.63922">
        <ele>71</ele>
        <time>2021-03-28T14:19:59.000Z</time>
      </trkpt>
      <trkpt lat="47.1497" lon="-1.63906">
        <ele>70</ele>
        <time>2021-03-28T14:20:01.000Z</time>
      </trkpt>
      <trkpt lat="47.14981" lon="-1.6389">
        <ele>71</ele>
        <time>2021-03-28T14:20:03.000Z</time>
      </trkpt>
      <trkpt lat="47.14992" lon="-1.63875">
        <ele>70</ele>
        <time>2021-03-28T14:20:05.000Z</time>
      </trkpt>
      <trkpt lat="47.15003" lon="-1.6386">
        <ele>70</ele>
        <time>2021-03-28T14:20:07.000Z</time>
      </trkpt>
      <trkpt lat="47.15013" lon="-1.63845">
        <ele>70</ele>
        <time>2021-03-28T14:20:09.000Z</time>
      </trkpt>
      <trkpt lat="47.15024" lon="-1.6383">
        <ele>70</ele>
        <time>2021-03-28T14:20:11.000Z</time>
      </trkpt>
      <trkpt lat="47.15035" lon="-1.63816">
        <ele>70</ele>
        <time>2021-03-28T14:20:13.000Z</time>
      </trkpt>
      <trkpt lat="47.15045" lon="-1.63802">
        <ele>70</ele>
        <time>2021-03-28T14:20:15.000Z</time>
      </trkpt>
      <trkpt lat="47.15056" lon="-1.63789">
        <ele>70</ele>
        <time>2021-03-28T14:20:17.000Z</time>
      </trkpt>
      <trkpt lat="47.15066" lon="-1.63776">
        <ele>69</ele>
        <time>2021-03-28T14:20:19.000Z</time>
      </trkpt>
      <trkpt lat="47.15077" lon="-1.63763">
        <ele>69</ele>
        <time>2021-03-28T14:20:21.000Z</time>
      </trkpt>
      <trkpt lat="47.15088" lon="-1.6375">
        <ele>69</ele>
        <time>2021-03-28T14:20:23.000Z</time>
      </trkpt>
      <trkpt lat="47.15099" lon="-1.63738">
        <ele>70</ele>
        <time>2021-03-28T14:20:25.000Z</time>
      </trkpt>
      <trkpt lat="47.15111" lon="-1.63725">
        <ele>70</ele>
        <time>2021-03-28T14:20:27.000Z</time>
      </trkpt>
      <trkpt lat="47.15122" lon="-1.63712">
        <ele>69</ele>
        <time>2021-03-28T14:20:29.000Z</time>
      </trkpt>
      <trkpt lat="47.15133" lon="-1.637">
        <ele>70</ele>
        <time>2021-03-28T14:20:31.000Z</time>
      </trkpt>
      <trkpt lat="47.15145" lon="-1.63689">
        <ele>70</ele>
        <time>2021-03-28T14:20:33.000Z</time>
      </trkpt>
      <trkpt lat="47.15156" lon="-1.63678">
        <ele>70</ele>
        <time>2021-03-28T14:20:35.000Z</time>
      </trkpt>
      <trkpt lat="47.15168" lon="-1.63667">
        <ele>69</ele>
        <time>2021-03-28T14:20:37.000Z</time>
      </trkpt>
      <trkpt lat="47.15181" lon="-1.63657">
        <ele>70</ele>
        <time>2021-03-28T14:20:39.000Z</time>
      </trkpt>
      <trkpt lat="47.15193" lon="-1.63646">
        <ele>70</ele>
        <time>2021-03-28T14:20:41.000Z</time>
      </trkpt>
      <trkpt lat="47.15204" lon="-1.63636">
        <ele>70</ele>
        <time>2021-03-28T14:20:43.000Z</time>
      </trkpt>
      <trkpt lat="47.15217" lon="-1.63625">
        <ele>70</ele>
        <time>2021-03-28T14:20:45.000Z</time>
      </trkpt>
      <trkpt lat="47.15229" lon="-1.63614">
        <ele>70</ele>
        <time>2021-03-28T14:20:47.000Z</time>
      </trkpt>
      <trkpt lat="47.15241" lon="-1.63603">
        <ele>70</ele>
        <time>2021-03-28T14:20:49.000Z</time>
      </trkpt>
      <trkpt lat="47.15253" lon="-1.63592">
        <ele>70</ele>
        <time>2021-03-28T14:20:51.000Z</time>
      </trkpt>
      <trkpt lat="47.15264" lon="-1.63581">
        <ele>70</ele>
        <time>2021-03-28T14:20:53.000Z</time>
      </trkpt>
      <trkpt lat="47.15276" lon="-1.6357">
        <ele>71</ele>
        <time>2021-03-28T14:20:55.000Z</time>
      </trkpt>
      <trkpt lat="47.15287" lon="-1.63559">
        <ele>71</ele>
        <time>2021-03-28T14:20:57.000Z</time>
      </trkpt>
      <trkpt lat="47.15298" lon="-1.63549">
        <ele>71</ele>
        <time>2021-03-28T14:20:59.000Z</time>
      </trkpt>
      <trkpt lat="47.1531" lon="-1.63539">
        <ele>71</ele>
        <time>2021-03-28T14:21:01.000Z</time>
      </trkpt>
      <trkpt lat="47.15322" lon="-1.63529">
        <ele>71</ele>
        <time>2021-03-28T14:21:03.000Z</time>
      </trkpt>
      <trkpt lat="47.15333" lon="-1.63518">
        <ele>71</ele>
        <time>2021-03-28T14:21:05.000Z</time>
      </trkpt>
      <trkpt lat="47.15345" lon="-1.63507">
        <ele>71</ele>
        <time>2021-03-28T14:21:07.000Z</time>
      </trkpt>
      <trkpt lat="47.15357" lon="-1.63497">
        <ele>71</ele>
        <time>2021-03-28T14:21:09.000Z</time>
      </trkpt>
      <trkpt lat="47.15369" lon="-1.63486">
        <ele>71</ele>
        <time>2021-03-28T14:21:11.000Z</time>
      </trkpt>
      <trkpt lat="47.1538" lon="-1.63476">
        <ele>70</ele>
        <time>2021-03-28T14:21:13.000Z</time>
      </trkpt>
      <trkpt lat="47.15392" lon="-1.63466">
        <ele>70</ele>
        <time>2021-03-28T14:21:15.000Z</time>
      </trkpt>
      <trkpt lat="47.15404" lon="-1.63456">
        <ele>70</ele>
        <time>2021-03-28T14:21:17.000Z</time>
      </trkpt>
      <trkpt lat="47.15416" lon="-1.63445">
        <ele>70</ele>
        <time>2021-03-28T14:21:19.000Z</time>
      </trkpt>
      <trkpt lat="47.15429" lon="-1.63435">
        <ele>70</ele>
        <time>2021-03-28T14:21:21.000Z</time>
      </trkpt>
      <trkpt lat="47.15441" lon="-1.63421">
        <ele>70</ele>
        <time>2021-03-28T14:21:23.000Z</time>
      </trkpt>
      <trkpt lat="47.15453" lon="-1.63408">
        <ele>69</ele>
        <time>2021-03-28T14:21:25.000Z</time>
      </trkpt>
      <trkpt lat="47.15467" lon="-1.63397">
        <ele>69</ele>
        <time>2021-03-28T14:21:27.000Z</time>
      </trkpt>
      <trkpt lat="47.15481" lon="-1.63387">
        <ele>69</ele>
        <time>2021-03-28T14:21:29.000Z</time>
      </trkpt>
      <trkpt lat="47.15495" lon="-1.63377">
        <ele>68</ele>
        <time>2021-03-28T14:21:31.000Z</time>
      </trkpt>
      <trkpt lat="47.15509" lon="-1.63365">
        <ele>68</ele>
        <time>2021-03-28T14:21:33.000Z</time>
      </trkpt>
      <trkpt lat="47.15524" lon="-1.63353">
        <ele>67</ele>
        <time>2021-03-28T14:21:35.000Z</time>
      </trkpt>
      <trkpt lat="47.15539" lon="-1.6334">
        <ele>67</ele>
        <time>2021-03-28T14:21:37.000Z</time>
      </trkpt>
      <trkpt lat="47.15553" lon="-1.63327">
        <ele>66</ele>
        <time>2021-03-28T14:21:39.000Z</time>
      </trkpt>
      <trkpt lat="47.15568" lon="-1.63314">
        <ele>66</ele>
        <time>2021-03-28T14:21:41.000Z</time>
      </trkpt>
      <trkpt lat="47.15583" lon="-1.633">
        <ele>65</ele>
        <time>2021-03-28T14:21:43.000Z</time>
      </trkpt>
      <trkpt lat="47.15599" lon="-1.63287">
        <ele>64</ele>
        <time>2021-03-28T14:21:45.000Z</time>
      </trkpt>
      <trkpt lat="47.15607" lon="-1.6328">
        <ele>64</ele>
        <time>2021-03-28T14:21:46.000Z</time>
      </trkpt>
      <trkpt lat="47.15615" lon="-1.63273">
        <ele>64</ele>
        <time>2021-03-28T14:21:47.000Z</time>
      </trkpt>
      <trkpt lat="47.1563" lon="-1.6326">
        <ele>63</ele>
        <time>2021-03-28T14:21:49.000Z</time>
      </trkpt>
      <trkpt lat="47.15644" lon="-1.63247">
        <ele>63</ele>
        <time>2021-03-28T14:21:51.000Z</time>
      </trkpt>
      <trkpt lat="47.15658" lon="-1.63234">
        <ele>63</ele>
        <time>2021-03-28T14:21:53.000Z</time>
      </trkpt>
      <trkpt lat="47.15672" lon="-1.63223">
        <ele>64</ele>
        <time>2021-03-28T14:21:55.000Z</time>
      </trkpt>
      <trkpt lat="47.15685" lon="-1.63211">
        <ele>64</ele>
        <time>2021-03-28T14:21:57.000Z</time>
      </trkpt>
      <trkpt lat="47.15697" lon="-1.63199">
        <ele>64</ele>
        <time>2021-03-28T14:21:59.000Z</time>
      </trkpt>
      <trkpt lat="47.1571" lon="-1.63187">
        <ele>64</ele>
        <time>2021-03-28T14:22:01.000Z</time>
      </trkpt>
      <trkpt lat="47.15723" lon="-1.63176">
        <ele>64</ele>
        <time>2021-03-28T14:22:03.000Z</time>
      </trkpt>
      <trkpt lat="47.15735" lon="-1.63165">
        <ele>64</ele>
        <time>2021-03-28T14:22:05.000Z</time>
      </trkpt>
      <trkpt lat="47.15746" lon="-1.6315">
        <ele>64</ele>
        <time>2021-03-28T14:22:07.000Z</time>
      </trkpt>
      <trkpt lat="47.15759" lon="-1.63141">
        <ele>64</ele>
        <time>2021-03-28T14:22:09.000Z</time>
      </trkpt>
      <trkpt lat="47.15773" lon="-1.63132">
        <ele>63</ele>
        <time>2021-03-28T14:22:11.000Z</time>
      </trkpt>
      <trkpt lat="47.15787" lon="-1.63121">
        <ele>62</ele>
        <time>2021-03-28T14:22:13.000Z</time>
      </trkpt>
      <trkpt lat="47.158" lon="-1.63109">
        <ele>62</ele>
        <time>2021-03-28T14:22:15.000Z</time>
      </trkpt>
      <trkpt lat="47.15814" lon="-1.63096">
        <ele>61</ele>
        <time>2021-03-28T14:22:17.000Z</time>
      </trkpt>
      <trkpt lat="47.15829" lon="-1.63083">
        <ele>60</ele>
        <time>2021-03-28T14:22:19.000Z</time>
      </trkpt>
      <trkpt lat="47.15843" lon="-1.6307">
        <ele>59</ele>
        <time>2021-03-28T14:22:21.000Z</time>
      </trkpt>
      <trkpt lat="47.15858" lon="-1.63057">
        <ele>59</ele>
        <time>2021-03-28T14:22:23.000Z</time>
      </trkpt>
      <trkpt lat="47.15872" lon="-1.63045">
        <ele>58</ele>
        <time>2021-03-28T14:22:25.000Z</time>
      </trkpt>
      <trkpt lat="47.15887" lon="-1.63032">
        <ele>58</ele>
        <time>2021-03-28T14:22:27.000Z</time>
      </trkpt>
      <trkpt lat="47.15902" lon="-1.63018">
        <ele>58</ele>
        <time>2021-03-28T14:22:29.000Z</time>
      </trkpt>
      <trkpt lat="47.15916" lon="-1.63005">
        <ele>58</ele>
        <time>2021-03-28T14:22:31.000Z</time>
      </trkpt>
      <trkpt lat="47.15929" lon="-1.62993">
        <ele>59</ele>
        <time>2021-03-28T14:22:33.000Z</time>
      </trkpt>
      <trkpt lat="47.15942" lon="-1.62981">
        <ele>59</ele>
        <time>2021-03-28T14:22:35.000Z</time>
      </trkpt>
      <trkpt lat="47.15954" lon="-1.62971">
        <ele>59</ele>
        <time>2021-03-28T14:22:37.000Z</time>
      </trkpt>
      <trkpt lat="47.15965" lon="-1.6296">
        <ele>60</ele>
        <time>2021-03-28T14:22:39.000Z</time>
      </trkpt>
      <trkpt lat="47.15976" lon="-1.6295">
        <ele>60</ele>
        <time>2021-03-28T14:22:41.000Z</time>
      </trkpt>
      <trkpt lat="47.15986" lon="-1.62941">
        <ele>61</ele>
        <time>2021-03-28T14:22:43.000Z</time>
      </trkpt>
      <trkpt lat="47.15998" lon="-1.62931">
        <ele>61</ele>
        <time>2021-03-28T14:22:45.000Z</time>
      </trkpt>
      <trkpt lat="47.16009" lon="-1.62921">
        <ele>62</ele>
        <time>2021-03-28T14:22:47.000Z</time>
      </trkpt>
      <trkpt lat="47.16021" lon="-1.62911">
        <ele>63</ele>
        <time>2021-03-28T14:22:49.000Z</time>
      </trkpt>
      <trkpt lat="47.16032" lon="-1.62901">
        <ele>63</ele>
        <time>2021-03-28T14:22:51.000Z</time>
      </trkpt>
      <trkpt lat="47.16043" lon="-1.62892">
        <ele>63</ele>
        <time>2021-03-28T14:22:53.000Z</time>
      </trkpt>
      <trkpt lat="47.16054" lon="-1.62882">
        <ele>63</ele>
        <time>2021-03-28T14:22:55.000Z</time>
      </trkpt>
      <trkpt lat="47.16065" lon="-1.62872">
        <ele>64</ele>
        <time>2021-03-28T14:22:57.000Z</time>
      </trkpt>
      <trkpt lat="47.16076" lon="-1.62862">
        <ele>64</ele>
        <time>2021-03-28T14:22:59.000Z</time>
      </trkpt>
      <trkpt lat="47.16087" lon="-1.62853">
        <ele>65</ele>
        <time>2021-03-28T14:23:01.000Z</time>
      </trkpt>
      <trkpt lat="47.16098" lon="-1.62843">
        <ele>66</ele>
        <time>2021-03-28T14:23:03.000Z</time>
      </trkpt>
      <trkpt lat="47.16109" lon="-1.62834">
        <ele>66</ele>
        <time>2021-03-28T14:23:05.000Z</time>
      </trkpt>
      <trkpt lat="47.1612" lon="-1.62825">
        <ele>66</ele>
        <time>2021-03-28T14:23:07.000Z</time>
      </trkpt>
      <trkpt lat="47.1613" lon="-1.62815">
        <ele>67</ele>
        <time>2021-03-28T14:23:09.000Z</time>
      </trkpt>
      <trkpt lat="47.16141" lon="-1.62806">
        <ele>67</ele>
        <time>2021-03-28T14:23:11.000Z</time>
      </trkpt>
      <trkpt lat="47.16152" lon="-1.62797">
        <ele>67</ele>
        <time>2021-03-28T14:23:13.000Z</time>
      </trkpt>
      <trkpt lat="47.16163" lon="-1.62788">
        <ele>68</ele>
        <time>2021-03-28T14:23:15.000Z</time>
      </trkpt>
      <trkpt lat="47.16173" lon="-1.62778">
        <ele>68</ele>
        <time>2021-03-28T14:23:17.000Z</time>
      </trkpt>
      <trkpt lat="47.16184" lon="-1.62767">
        <ele>69</ele>
        <time>2021-03-28T14:23:19.000Z</time>
      </trkpt>
      <trkpt lat="47.16194" lon="-1.62757">
        <ele>69</ele>
        <time>2021-03-28T14:23:21.000Z</time>
      </trkpt>
      <trkpt lat="47.16204" lon="-1.62748">
        <ele>70</ele>
        <time>2021-03-28T14:23:23.000Z</time>
      </trkpt>
      <trkpt lat="47.16215" lon="-1.62739">
        <ele>70</ele>
        <time>2021-03-28T14:23:25.000Z</time>
      </trkpt>
      <trkpt lat="47.16225" lon="-1.6273">
        <ele>71</ele>
        <time>2021-03-28T14:23:27.000Z</time>
      </trkpt>
      <trkpt lat="47.16235" lon="-1.62722">
        <ele>72</ele>
        <time>2021-03-28T14:23:29.000Z</time>
      </trkpt>
      <trkpt lat="47.16245" lon="-1.62713">
        <ele>72</ele>
        <time>2021-03-28T14:23:31.000Z</time>
      </trkpt>
      <trkpt lat="47.16256" lon="-1.62705">
        <ele>72</ele>
        <time>2021-03-28T14:23:33.000Z</time>
      </trkpt>
      <trkpt lat="47.16266" lon="-1.62697">
        <ele>72</ele>
        <time>2021-03-28T14:23:35.000Z</time>
      </trkpt>
      <trkpt lat="47.16274" lon="-1.62689">
        <ele>72</ele>
        <time>2021-03-28T14:23:37.000Z</time>
      </trkpt>
      <trkpt lat="47.16277" lon="-1.62675">
        <ele>72</ele>
        <time>2021-03-28T14:23:39.000Z</time>
      </trkpt>
      <trkpt lat="47.16276" lon="-1.62658">
        <ele>72</ele>
        <time>2021-03-28T14:23:41.000Z</time>
      </trkpt>
      <trkpt lat="47.16278" lon="-1.62641">
        <ele>72</ele>
        <time>2021-03-28T14:23:43.000Z</time>
      </trkpt>
      <trkpt lat="47.16281" lon="-1.62624">
        <ele>72</ele>
        <time>2021-03-28T14:23:45.000Z</time>
      </trkpt>
      <trkpt lat="47.16284" lon="-1.62608">
        <ele>73</ele>
        <time>2021-03-28T14:23:47.000Z</time>
      </trkpt>
      <trkpt lat="47.16289" lon="-1.62592">
        <ele>73</ele>
        <time>2021-03-28T14:23:49.000Z</time>
      </trkpt>
      <trkpt lat="47.16296" lon="-1.62579">
        <ele>73</ele>
        <time>2021-03-28T14:23:51.000Z</time>
      </trkpt>
      <trkpt lat="47.16307" lon="-1.6257">
        <ele>72</ele>
        <time>2021-03-28T14:23:53.000Z</time>
      </trkpt>
      <trkpt lat="47.16318" lon="-1.62566">
        <ele>72</ele>
        <time>2021-03-28T14:23:55.000Z</time>
      </trkpt>
      <trkpt lat="47.1633" lon="-1.6257">
        <ele>72</ele>
        <time>2021-03-28T14:23:57.000Z</time>
      </trkpt>
      <trkpt lat="47.16342" lon="-1.62576">
        <ele>72</ele>
        <time>2021-03-28T14:23:59.000Z</time>
      </trkpt>
      <trkpt lat="47.16353" lon="-1.62579">
        <ele>72</ele>
        <time>2021-03-28T14:24:01.000Z</time>
      </trkpt>
      <trkpt lat="47.16366" lon="-1.6258">
        <ele>72</ele>
        <time>2021-03-28T14:24:03.000Z</time>
      </trkpt>
      <trkpt lat="47.16378" lon="-1.62581">
        <ele>72</ele>
        <time>2021-03-28T14:24:05.000Z</time>
      </trkpt>
      <trkpt lat="47.16389" lon="-1.62577">
        <ele>73</ele>
        <time>2021-03-28T14:24:07.000Z</time>
      </trkpt>
      <trkpt lat="47.164" lon="-1.6257">
        <ele>73</ele>
        <time>2021-03-28T14:24:09.000Z</time>
      </trkpt>
      <trkpt lat="47.16411" lon="-1.6256">
        <ele>73</ele>
        <time>2021-03-28T14:24:11.000Z</time>
      </trkpt>
      <trkpt lat="47.16422" lon="-1.6255">
        <ele>74</ele>
        <time>2021-03-28T14:24:13.000Z</time>
      </trkpt>
      <trkpt lat="47.16432" lon="-1.62541">
        <ele>74</ele>
        <time>2021-03-28T14:24:15.000Z</time>
      </trkpt>
      <trkpt lat="47.16444" lon="-1.62539">
        <ele>73</ele>
        <time>2021-03-28T14:24:17.000Z</time>
      </trkpt>
      <trkpt lat="47.16456" lon="-1.62542">
        <ele>74</ele>
        <time>2021-03-28T14:24:19.000Z</time>
      </trkpt>
      <trkpt lat="47.16468" lon="-1.62545">
        <ele>74</ele>
        <time>2021-03-28T14:24:21.000Z</time>
      </trkpt>
      <trkpt lat="47.16479" lon="-1.62549">
        <ele>74</ele>
        <time>2021-03-28T14:24:23.000Z</time>
      </trkpt>
      <trkpt lat="47.16491" lon="-1.62553">
        <ele>73</ele>
        <time>2021-03-28T14:24:25.000Z</time>
      </trkpt>
      <trkpt lat="47.16503" lon="-1.62557">
        <ele>74</ele>
        <time>2021-03-28T14:24:27.000Z</time>
      </trkpt>
      <trkpt lat="47.16515" lon="-1.6256">
        <ele>73</ele>
        <time>2021-03-28T14:24:29.000Z</time>
      </trkpt>
      <trkpt lat="47.16528" lon="-1.62562">
        <ele>73</ele>
        <time>2021-03-28T14:24:31.000Z</time>
      </trkpt>
      <trkpt lat="47.16539" lon="-1.62557">
        <ele>73</ele>
        <time>2021-03-28T14:24:33.000Z</time>
      </trkpt>
      <trkpt lat="47.1655" lon="-1.62545">
        <ele>72</ele>
        <time>2021-03-28T14:24:35.000Z</time>
      </trkpt>
      <trkpt lat="47.1656" lon="-1.62531">
        <ele>72</ele>
        <time>2021-03-28T14:24:37.000Z</time>
      </trkpt>
      <trkpt lat="47.16568" lon="-1.62515">
        <ele>72</ele>
        <time>2021-03-28T14:24:39.000Z</time>
      </trkpt>
      <trkpt lat="47.16576" lon="-1.62497">
        <ele>71</ele>
        <time>2021-03-28T14:24:41.000Z</time>
      </trkpt>
      <trkpt lat="47.16583" lon="-1.62477">
        <ele>70</ele>
        <time>2021-03-28T14:24:43.000Z</time>
      </trkpt>
      <trkpt lat="47.16591" lon="-1.62458">
        <ele>70</ele>
        <time>2021-03-28T14:24:45.000Z</time>
      </trkpt>
      <trkpt lat="47.166" lon="-1.62439">
        <ele>69</ele>
        <time>2021-03-28T14:24:47.000Z</time>
      </trkpt>
      <trkpt lat="47.16609" lon="-1.6242">
        <ele>69</ele>
        <time>2021-03-28T14:24:49.000Z</time>
      </trkpt>
      <trkpt lat="47.16619" lon="-1.62401">
        <ele>69</ele>
        <time>2021-03-28T14:24:51.000Z</time>
      </trkpt>
      <trkpt lat="47.16631" lon="-1.62385">
        <ele>69</ele>
        <time>2021-03-28T14:24:53.000Z</time>
      </trkpt>
      <trkpt lat="47.16644" lon="-1.62371">
        <ele>69</ele>
        <time>2021-03-28T14:24:55.000Z</time>
      </trkpt>
      <trkpt lat="47.16658" lon="-1.6236">
        <ele>68</ele>
        <time>2021-03-28T14:24:57.000Z</time>
      </trkpt>
      <trkpt lat="47.16675" lon="-1.62356">
        <ele>68</ele>
        <time>2021-03-28T14:24:59.000Z</time>
      </trkpt>
      <trkpt lat="47.1669" lon="-1.6236">
        <ele>67</ele>
        <time>2021-03-28T14:25:01.000Z</time>
      </trkpt>
      <trkpt lat="47.16703" lon="-1.62372">
        <ele>67</ele>
        <time>2021-03-28T14:25:03.000Z</time>
      </trkpt>
      <trkpt lat="47.16713" lon="-1.62388">
        <ele>67</ele>
        <time>2021-03-28T14:25:05.000Z</time>
      </trkpt>
      <trkpt lat="47.1672" lon="-1.62402">
        <ele>66</ele>
        <time>2021-03-28T14:25:07.000Z</time>
      </trkpt>
      <trkpt lat="47.16727" lon="-1.62411">
        <ele>66</ele>
        <time>2021-03-28T14:25:09.000Z</time>
      </trkpt>
      <trkpt lat="47.16728" lon="-1.62425">
        <ele>66</ele>
        <time>2021-03-28T14:25:11.000Z</time>
      </trkpt>
      <trkpt lat="47.16725" lon="-1.6244">
        <ele>67</ele>
        <time>2021-03-28T14:25:13.000Z</time>
      </trkpt>
      <trkpt lat="47.16719" lon="-1.62454">
        <ele>66</ele>
        <time>2021-03-28T14:25:15.000Z</time>
      </trkpt>
      <trkpt lat="47.16716" lon="-1.62471">
        <ele>65</ele>
        <time>2021-03-28T14:25:17.000Z</time>
      </trkpt>
      <trkpt lat="47.16715" lon="-1.62488">
        <ele>65</ele>
        <time>2021-03-28T14:25:19.000Z</time>
      </trkpt>
      <trkpt lat="47.16724" lon="-1.62497">
        <ele>65</ele>
        <time>2021-03-28T14:25:21.000Z</time>
      </trkpt>
      <trkpt lat="47.16736" lon="-1.62501">
        <ele>65</ele>
        <time>2021-03-28T14:25:23.000Z</time>
      </trkpt>
      <trkpt lat="47.16748" lon="-1.62507">
        <ele>66</ele>
        <time>2021-03-28T14:25:25.000Z</time>
      </trkpt>
      <trkpt lat="47.16758" lon="-1.62512">
        <ele>66</ele>
        <time>2021-03-28T14:25:27.000Z</time>
      </trkpt>
      <trkpt lat="47.16769" lon="-1.62518">
        <ele>67</ele>
        <time>2021-03-28T14:25:29.000Z</time>
      </trkpt>
      <trkpt lat="47.16779" lon="-1.62525">
        <ele>67</ele>
        <time>2021-03-28T14:25:31.000Z</time>
      </trkpt>
      <trkpt lat="47.1679" lon="-1.62532">
        <ele>67</ele>
        <time>2021-03-28T14:25:33.000Z</time>
      </trkpt>
      <trkpt lat="47.168" lon="-1.62539">
        <ele>68</ele>
        <time>2021-03-28T14:25:35.000Z</time>
      </trkpt>
      <trkpt lat="47.1681" lon="-1.62545">
        <ele>68</ele>
        <time>2021-03-28T14:25:37.000Z</time>
      </trkpt>
      <trkpt lat="47.1682" lon="-1.62554">
        <ele>68</ele>
        <time>2021-03-28T14:25:39.000Z</time>
      </trkpt>
      <trkpt lat="47.16828" lon="-1.62567">
        <ele>67</ele>
        <time>2021-03-28T14:25:41.000Z</time>
      </trkpt>
      <trkpt lat="47.1683" lon="-1.62583">
        <ele>67</ele>
        <time>2021-03-28T14:25:43.000Z</time>
      </trkpt>
      <trkpt lat="47.16825" lon="-1.62596">
        <ele>67</ele>
        <time>2021-03-28T14:25:45.000Z</time>
      </trkpt>
      <trkpt lat="47.16818" lon="-1.62609">
        <ele>68</ele>
        <time>2021-03-28T14:25:47.000Z</time>
      </trkpt>
      <trkpt lat="47.1681" lon="-1.62621">
        <ele>67</ele>
        <time>2021-03-28T14:25:49.000Z</time>
      </trkpt>
      <trkpt lat="47.16803" lon="-1.62632">
        <ele>67</ele>
        <time>2021-03-28T14:25:51.000Z</time>
      </trkpt>
      <trkpt lat="47.16796" lon="-1.62643">
        <ele>67</ele>
        <time>2021-03-28T14:25:53.000Z</time>
      </trkpt>
      <trkpt lat="47.16789" lon="-1.62657">
        <ele>68</ele>
        <time>2021-03-28T14:25:56.000Z</time>
      </trkpt>
      <trkpt lat="47.16779" lon="-1.62658">
        <ele>68</ele>
        <time>2021-03-28T14:26:00.000Z</time>
      </trkpt>
    </trkseg>
  </trk>
</gpx>